<?xml version='1.0' encoding='UTF-8'?><gpx version="1.1" creator="JPX - https://github.com/jenetics/jpx" xmlns="http://www.topografix.com/GPX/1/1"><trk><trkseg><trkpt lat="43.46592404004054" lon="11.881945286500759"><ele>293.0</ele><time>2026-04-26T07:37:57.973Z</time></trkpt><trkpt lat="43.46605299562955" lon="11.881961614378673"><ele>293.0</ele><time>2026-04-26T07:41:56Z</time></trkpt><trkpt lat="43.46610276253737" lon="11.88201986019494"><ele>293.0</ele><time>2026-04-26T07:42:03Z</time></trkpt><trkpt lat="43.46612858488448" lon="11.882107739555558"><ele>293.0</ele><time>2026-04-26T07:42:21Z</time></trkpt><trkpt lat="43.46623001254198" lon="11.882150952211889"><ele>293.0</ele><time>2026-04-26T07:42:23Z</time></trkpt><trkpt lat="43.466301706329595" lon="11.882196309426241"><ele>293.0</ele><time>2026-04-26T07:42:25Z</time></trkpt><trkpt lat="43.46636586948401" lon="11.882242136854366"><ele>294.0</ele><time>2026-04-26T07:42:26Z</time></trkpt><trkpt lat="43.46643281578001" lon="11.882250802750555"><ele>295.0</ele><time>2026-04-26T07:42:28Z</time></trkpt><trkpt lat="43.46651766245639" lon="11.882371715167602"><ele>296.0</ele><time>2026-04-26T07:42:30Z</time></trkpt><trkpt lat="43.46645700601589" lon="11.882520713654147"><ele>297.0</ele><time>2026-04-26T07:42:32Z</time></trkpt><trkpt lat="43.466404459323954" lon="11.882675295370259"><ele>298.0</ele><time>2026-04-26T07:42:32.999Z</time></trkpt><trkpt lat="43.46633348404531" lon="11.882823517136552"><ele>297.8</ele><time>2026-04-26T07:42:33.999Z</time></trkpt><trkpt lat="43.46629584952621" lon="11.88297518948292"><ele>297.6</ele><time>2026-04-26T07:42:34.999Z</time></trkpt><trkpt lat="43.466269251133696" lon="11.883128634882274"><ele>297.4</ele><time>2026-04-26T07:42:35.999Z</time></trkpt><trkpt lat="43.466241977115395" lon="11.883261938299489"><ele>297.2</ele><time>2026-04-26T07:42:36.999Z</time></trkpt><trkpt lat="43.466215826755096" lon="11.883391538487365"><ele>297.0</ele><time>2026-04-26T07:42:37.999Z</time></trkpt><trkpt lat="43.46619021095541" lon="11.883489935827305"><ele>297.0</ele><time>2026-04-26T07:42:38.999Z</time></trkpt><trkpt lat="43.4661482602733" lon="11.883606225518927"><ele>297.0</ele><time>2026-04-26T07:42:40.999Z</time></trkpt><trkpt lat="43.466109418197064" lon="11.883679140999021"><ele>297.0</ele><time>2026-04-26T07:42:43.999Z</time></trkpt><trkpt lat="43.46630170350663" lon="11.883791323328166"><ele>297.0</ele><time>2026-04-26T07:42:46.999Z</time></trkpt><trkpt lat="43.46639953583587" lon="11.883743241474402"><ele>297.0</ele><time>2026-04-26T07:42:48.999Z</time></trkpt><trkpt lat="43.46647548058987" lon="11.883783196266833"><ele>297.0</ele><time>2026-04-26T07:42:50.999Z</time></trkpt><trkpt lat="43.4664995195611" lon="11.883906822221698"><ele>297.0</ele><time>2026-04-26T07:42:52.999Z</time></trkpt><trkpt lat="43.46641279523174" lon="11.883966749938148"><ele>297.0</ele><time>2026-04-26T07:42:53.999Z</time></trkpt><trkpt lat="43.46628883884515" lon="11.883989309030705"><ele>297.0</ele><time>2026-04-26T07:42:55.999Z</time></trkpt><trkpt lat="43.46618309326759" lon="11.884033498814404"><ele>297.0</ele><time>2026-04-26T07:42:56.999Z</time></trkpt><trkpt lat="43.466119107537935" lon="11.88408502911471"><ele>297.0</ele><time>2026-04-26T07:42:57.999Z</time></trkpt><trkpt lat="43.46604670703121" lon="11.884143831635797"><ele>297.0</ele><time>2026-04-26T07:42:58.999Z</time></trkpt><trkpt lat="43.465971501831376" lon="11.88424392670849"><ele>297.0</ele><time>2026-04-26T07:42:59.999Z</time></trkpt><trkpt lat="43.46589247099605" lon="11.884334093245473"><ele>297.0</ele><time>2026-04-26T07:43:00.999Z</time></trkpt><trkpt lat="43.465784129723055" lon="11.884431855203763"><ele>296.75</ele><time>2026-04-26T07:43:01.999Z</time></trkpt><trkpt lat="43.46567846279478" lon="11.884535108032495"><ele>296.5</ele><time>2026-04-26T07:43:02.999Z</time></trkpt><trkpt lat="43.465584505219155" lon="11.884685771602262"><ele>296.25</ele><time>2026-04-26T07:43:03.999Z</time></trkpt><trkpt lat="43.4655068334763" lon="11.884860067198831"><ele>296.0</ele><time>2026-04-26T07:43:04.999Z</time></trkpt><trkpt lat="43.46542854540812" lon="11.885025913195745"><ele>299.0</ele><time>2026-04-26T07:43:05.999Z</time></trkpt><trkpt lat="43.46537690996043" lon="11.88521562332777"><ele>302.0</ele><time>2026-04-26T07:43:06.999Z</time></trkpt><trkpt lat="43.465340909017264" lon="11.885415909544498"><ele>305.0</ele><time>2026-04-26T07:43:07.999Z</time></trkpt><trkpt lat="43.465318717226886" lon="11.885606307914841"><ele>308.0</ele><time>2026-04-26T07:43:08.999Z</time></trkpt><trkpt lat="43.46529554695017" lon="11.885761769251614"><ele>308.0</ele><time>2026-04-26T07:43:09.999Z</time></trkpt><trkpt lat="43.46524306150353" lon="11.885896636645946"><ele>308.0</ele><time>2026-04-26T07:43:10.999Z</time></trkpt><trkpt lat="43.46513770217704" lon="11.885948751368382"><ele>308.0</ele><time>2026-04-26T07:43:11.999Z</time></trkpt><trkpt lat="43.465034483118934" lon="11.886044041925969"><ele>308.0</ele><time>2026-04-26T07:43:12.999Z</time></trkpt><trkpt lat="43.46491546828298" lon="11.88610907172123"><ele>307.5</ele><time>2026-04-26T07:43:13.999Z</time></trkpt><trkpt lat="43.46478711913664" lon="11.8861196575832"><ele>307.0</ele><time>2026-04-26T07:43:14.999Z</time></trkpt><trkpt lat="43.46465101676277" lon="11.886125420123712"><ele>306.5</ele><time>2026-04-26T07:43:15.999Z</time></trkpt><trkpt lat="43.464526833699544" lon="11.886168529173197"><ele>306.0</ele><time>2026-04-26T07:43:16.999Z</time></trkpt><trkpt lat="43.46440251427252" lon="11.886214144175867"><ele>306.0</ele><time>2026-04-26T07:43:17.999Z</time></trkpt><trkpt lat="43.46429063285629" lon="11.886302172613904"><ele>306.0</ele><time>2026-04-26T07:43:18.999Z</time></trkpt><trkpt lat="43.464206104789525" lon="11.886432306411145"><ele>306.0</ele><time>2026-04-26T07:43:19.999Z</time></trkpt><trkpt lat="43.464139631675515" lon="11.886594229228436"><ele>306.0</ele><time>2026-04-26T07:43:20.999Z</time></trkpt><trkpt lat="43.46410486152574" lon="11.886769450354365"><ele>305.5</ele><time>2026-04-26T07:43:21.999Z</time></trkpt><trkpt lat="43.46409234079094" lon="11.886954720706875"><ele>305.0</ele><time>2026-04-26T07:43:22.999Z</time></trkpt><trkpt lat="43.46410199110548" lon="11.887145368563798"><ele>304.5</ele><time>2026-04-26T07:43:23.999Z</time></trkpt><trkpt lat="43.464123908637006" lon="11.887322768019699"><ele>304.0</ele><time>2026-04-26T07:43:24.999Z</time></trkpt><trkpt lat="43.46413618652187" lon="11.88748285463"><ele>302.59999999999997</ele><time>2026-04-26T07:43:25.999Z</time></trkpt><trkpt lat="43.46414677642895" lon="11.88762672116823"><ele>301.2</ele><time>2026-04-26T07:43:26.999Z</time></trkpt><trkpt lat="43.46416018552735" lon="11.88774911213853"><ele>299.79999999999995</ele><time>2026-04-26T07:43:27.999Z</time></trkpt><trkpt lat="43.46417779480199" lon="11.8878369463372"><ele>298.4</ele><time>2026-04-26T07:43:28.999Z</time></trkpt><trkpt lat="43.464175340749414" lon="11.88797813693649"><ele>297.0</ele><time>2026-04-26T07:43:30.999Z</time></trkpt><trkpt lat="43.46433639968062" lon="11.888074074886358"><ele>297.0</ele><time>2026-04-26T07:43:31.999Z</time></trkpt><trkpt lat="43.4644099672081" lon="11.888165264856367"><ele>297.0</ele><time>2026-04-26T07:43:32.999Z</time></trkpt><trkpt lat="43.4644629948917" lon="11.888249517643652"><ele>297.0</ele><time>2026-04-26T07:43:34Z</time></trkpt><trkpt lat="43.4645095661759" lon="11.88832366055578"><ele>297.0</ele><time>2026-04-26T07:43:35Z</time></trkpt><trkpt lat="43.464582007798086" lon="11.888352037065594"><ele>297.0</ele><time>2026-04-26T07:43:36Z</time></trkpt><trkpt lat="43.464673485704424" lon="11.888387543435575"><ele>297.0</ele><time>2026-04-26T07:43:37Z</time></trkpt><trkpt lat="43.46478632277969" lon="11.888416370557414"><ele>297.5</ele><time>2026-04-26T07:43:38Z</time></trkpt><trkpt lat="43.464870293298674" lon="11.888454734968228"><ele>298.0</ele><time>2026-04-26T07:43:39Z</time></trkpt><trkpt lat="43.464943640191635" lon="11.888482650792277"><ele>298.5</ele><time>2026-04-26T07:43:40Z</time></trkpt><trkpt lat="43.46502163733" lon="11.888524560087433"><ele>299.0</ele><time>2026-04-26T07:43:41Z</time></trkpt><trkpt lat="43.465097471179355" lon="11.888512314363426"><ele>299.5</ele><time>2026-04-26T07:43:42Z</time></trkpt><trkpt lat="43.465182803772564" lon="11.888424502391464"><ele>300.0</ele><time>2026-04-26T07:43:44Z</time></trkpt><trkpt lat="43.465255846779215" lon="11.88841085473743"><ele>300.0</ele><time>2026-04-26T07:43:46Z</time></trkpt><trkpt lat="43.46529592101949" lon="11.888508160493762"><ele>300.0</ele><time>2026-04-26T07:43:47Z</time></trkpt><trkpt lat="43.465378787989785" lon="11.888490870389587"><ele>300.0</ele><time>2026-04-26T07:43:48Z</time></trkpt><trkpt lat="43.465454128622554" lon="11.888359972104169"><ele>300.0</ele><time>2026-04-26T07:43:49Z</time></trkpt><trkpt lat="43.46551484576655" lon="11.888257552539253"><ele>300.0</ele><time>2026-04-26T07:43:50Z</time></trkpt><trkpt lat="43.46558970726933" lon="11.88813313063822"><ele>299.8</ele><time>2026-04-26T07:43:51Z</time></trkpt><trkpt lat="43.46565544289945" lon="11.888022125933807"><ele>299.6</ele><time>2026-04-26T07:43:52Z</time></trkpt><trkpt lat="43.465706542867466" lon="11.88793978886389"><ele>299.4</ele><time>2026-04-26T07:43:53Z</time></trkpt><trkpt lat="43.46580279676562" lon="11.887827270114604"><ele>299.2</ele><time>2026-04-26T07:43:55Z</time></trkpt><trkpt lat="43.46587394280641" lon="11.8877657849987"><ele>299.0</ele><time>2026-04-26T07:43:56Z</time></trkpt><trkpt lat="43.4659530669067" lon="11.887704217905599"><ele>299.0</ele><time>2026-04-26T07:43:57Z</time></trkpt><trkpt lat="43.4660468956276" lon="11.887633066846565"><ele>299.0</ele><time>2026-04-26T07:43:58Z</time></trkpt><trkpt lat="43.4661236147325" lon="11.88756748625167"><ele>299.0</ele><time>2026-04-26T07:43:59Z</time></trkpt><trkpt lat="43.4661815959356" lon="11.887517922976944"><ele>299.0</ele><time>2026-04-26T07:44:00Z</time></trkpt><trkpt lat="43.46625014800611" lon="11.887467705777958"><ele>299.0</ele><time>2026-04-26T07:44:02Z</time></trkpt><trkpt lat="43.46632061732135" lon="11.88746604439982"><ele>299.0</ele><time>2026-04-26T07:44:06Z</time></trkpt><trkpt lat="43.466389236378006" lon="11.887530738495354"><ele>298.0</ele><time>2026-04-26T07:44:08Z</time></trkpt><trkpt lat="43.466459259405866" lon="11.887631570883133"><ele>297.0</ele><time>2026-04-26T07:44:10Z</time></trkpt><trkpt lat="43.46653599469194" lon="11.887645927242287"><ele>296.0</ele><time>2026-04-26T07:44:12Z</time></trkpt><trkpt lat="43.46660952458596" lon="11.887650167299737"><ele>295.0</ele><time>2026-04-26T07:44:14Z</time></trkpt><trkpt lat="43.46669191380229" lon="11.88769579445374"><ele>294.0</ele><time>2026-04-26T07:44:17Z</time></trkpt><trkpt lat="43.466740099343596" lon="11.887808213999845"><ele>293.0</ele><time>2026-04-26T07:44:19Z</time></trkpt><trkpt lat="43.46678340224468" lon="11.887930389948318"><ele>293.0</ele><time>2026-04-26T07:44:21Z</time></trkpt><trkpt lat="43.4668548051216" lon="11.888074584945148"><ele>293.0</ele><time>2026-04-26T07:44:23Z</time></trkpt><trkpt lat="43.4669031166236" lon="11.888151111200184"><ele>293.0</ele><time>2026-04-26T07:44:24Z</time></trkpt><trkpt lat="43.466919693003156" lon="11.888241991693915"><ele>293.0</ele><time>2026-04-26T07:44:25Z</time></trkpt><trkpt lat="43.466950780624664" lon="11.888328547988024"><ele>293.0</ele><time>2026-04-26T07:44:26Z</time></trkpt><trkpt lat="43.466963201025976" lon="11.888478401277082"><ele>293.0</ele><time>2026-04-26T07:44:28Z</time></trkpt><trkpt lat="43.466935443130126" lon="11.888611412126112"><ele>292.4</ele><time>2026-04-26T07:44:30Z</time></trkpt><trkpt lat="43.46691871847996" lon="11.88873906592155"><ele>291.8</ele><time>2026-04-26T07:44:31.999Z</time></trkpt><trkpt lat="43.466938065246175" lon="11.88890439768991"><ele>291.2</ele><time>2026-04-26T07:44:33.999Z</time></trkpt><trkpt lat="43.466967295143554" lon="11.889012041684412"><ele>290.6</ele><time>2026-04-26T07:44:34.999Z</time></trkpt><trkpt lat="43.46700333280321" lon="11.889114272027433"><ele>290.0</ele><time>2026-04-26T07:44:35.999Z</time></trkpt><trkpt lat="43.46703848823679" lon="11.889199346468056"><ele>288.8</ele><time>2026-04-26T07:44:36.999Z</time></trkpt><trkpt lat="43.467083296199796" lon="11.889286965727162"><ele>287.6</ele><time>2026-04-26T07:44:37.999Z</time></trkpt><trkpt lat="43.46711759850154" lon="11.889397718277973"><ele>286.4</ele><time>2026-04-26T07:44:38.999Z</time></trkpt><trkpt lat="43.46715694977133" lon="11.889513243314656"><ele>285.2</ele><time>2026-04-26T07:44:39.999Z</time></trkpt><trkpt lat="43.46721002752659" lon="11.88963090227298"><ele>284.0</ele><time>2026-04-26T07:44:40.999Z</time></trkpt><trkpt lat="43.467249379129946" lon="11.889762780317774"><ele>283.83333333333337</ele><time>2026-04-26T07:44:41.999Z</time></trkpt><trkpt lat="43.46729044517788" lon="11.8898848700464"><ele>283.6666666666667</ele><time>2026-04-26T07:44:42.999Z</time></trkpt><trkpt lat="43.46732572202499" lon="11.889989949670326"><ele>283.5</ele><time>2026-04-26T07:44:43.999Z</time></trkpt><trkpt lat="43.467347568077884" lon="11.890098215346265"><ele>283.3333333333333</ele><time>2026-04-26T07:44:44.999Z</time></trkpt><trkpt lat="43.46738262145046" lon="11.890196955179691"><ele>283.16666666666663</ele><time>2026-04-26T07:44:45.999Z</time></trkpt><trkpt lat="43.46741483856504" lon="11.890287152277006"><ele>283.0</ele><time>2026-04-26T07:44:46.999Z</time></trkpt><trkpt lat="43.46744718929602" lon="11.89037772346429"><ele>283.0</ele><time>2026-04-26T07:44:47.999Z</time></trkpt><trkpt lat="43.46748899785059" lon="11.890456205625702"><ele>283.0</ele><time>2026-04-26T07:44:48.999Z</time></trkpt><trkpt lat="43.46755105699545" lon="11.890609243886384"><ele>283.0</ele><time>2026-04-26T07:44:50.999Z</time></trkpt><trkpt lat="43.46758201746868" lon="11.890685392487269"><ele>283.0</ele><time>2026-04-26T07:44:51.999Z</time></trkpt><trkpt lat="43.46761057581774" lon="11.8907636379206"><ele>283.0</ele><time>2026-04-26T07:44:52.999Z</time></trkpt><trkpt lat="43.46764179033806" lon="11.890842636343624"><ele>283.0</ele><time>2026-04-26T07:44:53.999Z</time></trkpt><trkpt lat="43.46767230180659" lon="11.890922067586503"><ele>282.0</ele><time>2026-04-26T07:44:54.999Z</time></trkpt><trkpt lat="43.46774979250945" lon="11.89102834860461"><ele>281.0</ele><time>2026-04-26T07:44:56.999Z</time></trkpt><trkpt lat="43.467821998642854" lon="11.891136325230322"><ele>280.0</ele><time>2026-04-26T07:44:58.999Z</time></trkpt><trkpt lat="43.467905961946954" lon="11.891259173539435"><ele>279.0</ele><time>2026-04-26T07:45:00.999Z</time></trkpt><trkpt lat="43.46793698125774" lon="11.89134167571462"><ele>278.0</ele><time>2026-04-26T07:45:01.999Z</time></trkpt><trkpt lat="43.46797333805866" lon="11.89141267608119"><ele>277.0</ele><time>2026-04-26T07:45:02.999Z</time></trkpt><trkpt lat="43.46803299019734" lon="11.891548254270596"><ele>276.0</ele><time>2026-04-26T07:45:04.999Z</time></trkpt><trkpt lat="43.46807424341997" lon="11.891683469082396"><ele>275.0</ele><time>2026-04-26T07:45:06.999Z</time></trkpt><trkpt lat="43.46810669012323" lon="11.891814381133353"><ele>274.0</ele><time>2026-04-26T07:45:08.999Z</time></trkpt><trkpt lat="43.468129285383235" lon="11.891944974936818"><ele>273.0</ele><time>2026-04-26T07:45:10.999Z</time></trkpt><trkpt lat="43.468149902339746" lon="11.892071383600848"><ele>272.3333333333333</ele><time>2026-04-26T07:45:12.999Z</time></trkpt><trkpt lat="43.468175652649876" lon="11.892154436839908"><ele>271.6666666666667</ele><time>2026-04-26T07:45:14.999Z</time></trkpt><trkpt lat="43.468196635907006" lon="11.892288104870717"><ele>271.0</ele><time>2026-04-26T07:45:18.999Z</time></trkpt><trkpt lat="43.46822534690922" lon="11.892381901267795"><ele>270.33333333333337</ele><time>2026-04-26T07:45:19.999Z</time></trkpt><trkpt lat="43.468261497611564" lon="11.892479542704539"><ele>269.6666666666667</ele><time>2026-04-26T07:45:20.999Z</time></trkpt><trkpt lat="43.468294417996454" lon="11.892582494011897"><ele>269.0</ele><time>2026-04-26T07:45:21.999Z</time></trkpt><trkpt lat="43.468336242903064" lon="11.892687459501774"><ele>269.0</ele><time>2026-04-26T07:45:22.999Z</time></trkpt><trkpt lat="43.46837853953271" lon="11.892785637941202"><ele>269.0</ele><time>2026-04-26T07:45:23.999Z</time></trkpt><trkpt lat="43.468421973030814" lon="11.89287585875739"><ele>269.0</ele><time>2026-04-26T07:45:24.999Z</time></trkpt><trkpt lat="43.46847758601625" lon="11.892986867281632"><ele>269.0</ele><time>2026-04-26T07:45:25.999Z</time></trkpt><trkpt lat="43.46854603972978" lon="11.893112182449297"><ele>269.0</ele><time>2026-04-26T07:45:26.999Z</time></trkpt><trkpt lat="43.468596019151526" lon="11.893262853027357"><ele>269.0</ele><time>2026-04-26T07:45:27.999Z</time></trkpt><trkpt lat="43.468667475298325" lon="11.89341263999406"><ele>269.0</ele><time>2026-04-26T07:45:28.999Z</time></trkpt><trkpt lat="43.46874189639341" lon="11.893564111233994"><ele>269.0</ele><time>2026-04-26T07:45:29.999Z</time></trkpt><trkpt lat="43.468822965604566" lon="11.89369791417308"><ele>269.0</ele><time>2026-04-26T07:45:30.999Z</time></trkpt><trkpt lat="43.468890956911366" lon="11.893840288865704"><ele>270.2</ele><time>2026-04-26T07:45:31.999Z</time></trkpt><trkpt lat="43.46895481226179" lon="11.893958076309046"><ele>271.4</ele><time>2026-04-26T07:45:32.999Z</time></trkpt><trkpt lat="43.469019401999795" lon="11.894038336805576"><ele>272.6</ele><time>2026-04-26T07:45:33.999Z</time></trkpt><trkpt lat="43.46906106568958" lon="11.894114045245244"><ele>273.8</ele><time>2026-04-26T07:45:34.999Z</time></trkpt><trkpt lat="43.46913126678186" lon="11.894216091256608"><ele>275.0</ele><time>2026-04-26T07:45:36.999Z</time></trkpt><trkpt lat="43.469281621369234" lon="11.894118037315234"><ele>275.0</ele><time>2026-04-26T07:45:37.999Z</time></trkpt><trkpt lat="43.46940126610498" lon="11.894113074964338"><ele>275.0</ele><time>2026-04-26T07:45:38.999Z</time></trkpt><trkpt lat="43.46952142298462" lon="11.894097566979218"><ele>275.0</ele><time>2026-04-26T07:45:40Z</time></trkpt><trkpt lat="43.46961428591548" lon="11.894079250816814"><ele>275.0</ele><time>2026-04-26T07:45:41Z</time></trkpt><trkpt lat="43.46969879242884" lon="11.894091893974496"><ele>275.0</ele><time>2026-04-26T07:45:42Z</time></trkpt><trkpt lat="43.46979561664364" lon="11.8940938699056"><ele>275.33333333333337</ele><time>2026-04-26T07:45:43Z</time></trkpt><trkpt lat="43.46989386733892" lon="11.894095929667207"><ele>275.6666666666667</ele><time>2026-04-26T07:45:44Z</time></trkpt><trkpt lat="43.46996763935921" lon="11.894078454406102"><ele>276.0</ele><time>2026-04-26T07:45:45Z</time></trkpt><trkpt lat="43.47003431172053" lon="11.894085490410479"><ele>276.3333333333333</ele><time>2026-04-26T07:45:46Z</time></trkpt><trkpt lat="43.47010682862306" lon="11.894095827001964"><ele>276.66666666666663</ele><time>2026-04-26T07:45:47Z</time></trkpt><trkpt lat="43.47018115136925" lon="11.89410532702629"><ele>277.0</ele><time>2026-04-26T07:45:48Z</time></trkpt><trkpt lat="43.47025522733913" lon="11.894111177337905"><ele>277.0</ele><time>2026-04-26T07:45:49Z</time></trkpt><trkpt lat="43.470326624193405" lon="11.894110429698797"><ele>277.0</ele><time>2026-04-26T07:45:50Z</time></trkpt><trkpt lat="43.47039447600667" lon="11.894087157243709"><ele>277.0</ele><time>2026-04-26T07:45:51Z</time></trkpt><trkpt lat="43.47047500650901" lon="11.894054619162985"><ele>277.0</ele><time>2026-04-26T07:45:52Z</time></trkpt><trkpt lat="43.47057759608319" lon="11.894006995457215"><ele>277.0</ele><time>2026-04-26T07:45:53Z</time></trkpt><trkpt lat="43.47068847981559" lon="11.893986249186641"><ele>277.0</ele><time>2026-04-26T07:45:54Z</time></trkpt><trkpt lat="43.470764854454345" lon="11.893937356255273"><ele>277.4</ele><time>2026-04-26T07:45:55Z</time></trkpt><trkpt lat="43.47082875554202" lon="11.893916994883696"><ele>277.79999999999995</ele><time>2026-04-26T07:45:56Z</time></trkpt><trkpt lat="43.47089277946937" lon="11.893920752023002"><ele>278.2</ele><time>2026-04-26T07:45:57Z</time></trkpt><trkpt lat="43.47103470390665" lon="11.893926363403114"><ele>278.59999999999997</ele><time>2026-04-26T07:45:59Z</time></trkpt><trkpt lat="43.47112527791325" lon="11.89396032624282"><ele>279.0</ele><time>2026-04-26T07:46:00Z</time></trkpt><trkpt lat="43.47122040648647" lon="11.89397146295278"><ele>279.8</ele><time>2026-04-26T07:46:01Z</time></trkpt><trkpt lat="43.471307871389946" lon="11.89394479954318"><ele>280.59999999999997</ele><time>2026-04-26T07:46:02Z</time></trkpt><trkpt lat="43.471395210008716" lon="11.893904489820716"><ele>281.4</ele><time>2026-04-26T07:46:03Z</time></trkpt><trkpt lat="43.47148496952879" lon="11.893862847569247"><ele>282.2</ele><time>2026-04-26T07:46:04Z</time></trkpt><trkpt lat="43.4715698150657" lon="11.893810605271055"><ele>283.0</ele><time>2026-04-26T07:46:05Z</time></trkpt><trkpt lat="43.471650329845005" lon="11.893754844348095"><ele>283.0</ele><time>2026-04-26T07:46:06Z</time></trkpt><trkpt lat="43.47171852234877" lon="11.893712077747862"><ele>283.0</ele><time>2026-04-26T07:46:07Z</time></trkpt><trkpt lat="43.471785604837784" lon="11.893671827778537"><ele>283.0</ele><time>2026-04-26T07:46:08Z</time></trkpt><trkpt lat="43.47184606641173" lon="11.893639393358159"><ele>283.0</ele><time>2026-04-26T07:46:09Z</time></trkpt><trkpt lat="43.47191522513006" lon="11.893630549429119"><ele>283.0</ele><time>2026-04-26T07:46:10Z</time></trkpt><trkpt lat="43.471986461095334" lon="11.893586309253834"><ele>283.0</ele><time>2026-04-26T07:46:11Z</time></trkpt><trkpt lat="43.47207004708842" lon="11.893574192547579"><ele>283.0</ele><time>2026-04-26T07:46:12Z</time></trkpt><trkpt lat="43.472156466326105" lon="11.893560568296225"><ele>283.8333333333333</ele><time>2026-04-26T07:46:13Z</time></trkpt><trkpt lat="43.47225742213405" lon="11.893543544244999"><ele>284.66666666666663</ele><time>2026-04-26T07:46:14Z</time></trkpt><trkpt lat="43.47235638346226" lon="11.893514237394132"><ele>285.5</ele><time>2026-04-26T07:46:15Z</time></trkpt><trkpt lat="43.47243298731525" lon="11.893511196535972"><ele>286.3333333333333</ele><time>2026-04-26T07:46:16Z</time></trkpt><trkpt lat="43.47250940209582" lon="11.893508016703413"><ele>287.1666666666667</ele><time>2026-04-26T07:46:17Z</time></trkpt><trkpt lat="43.47258685380713" lon="11.893505243295712"><ele>288.0</ele><time>2026-04-26T07:46:18Z</time></trkpt><trkpt lat="43.472662222082306" lon="11.893504711111758"><ele>288.0</ele><time>2026-04-26T07:46:19Z</time></trkpt><trkpt lat="43.472741746535604" lon="11.893487609489526"><ele>288.0</ele><time>2026-04-26T07:46:20Z</time></trkpt><trkpt lat="43.47282276145888" lon="11.893493365057843"><ele>288.0</ele><time>2026-04-26T07:46:21Z</time></trkpt><trkpt lat="43.47290559988905" lon="11.893505026469166"><ele>288.0</ele><time>2026-04-26T07:46:22Z</time></trkpt><trkpt lat="43.47297884971654" lon="11.893511974315958"><ele>288.0</ele><time>2026-04-26T07:46:23Z</time></trkpt><trkpt lat="43.47305020288664" lon="11.893521507869998"><ele>288.0</ele><time>2026-04-26T07:46:24Z</time></trkpt><trkpt lat="43.47311924758737" lon="11.893529880245868"><ele>287.6666666666667</ele><time>2026-04-26T07:46:25Z</time></trkpt><trkpt lat="43.473189620824094" lon="11.89353924669668"><ele>287.3333333333333</ele><time>2026-04-26T07:46:26Z</time></trkpt><trkpt lat="43.47325489377184" lon="11.89355298071007"><ele>287.0</ele><time>2026-04-26T07:46:27Z</time></trkpt><trkpt lat="43.47335617304316" lon="11.893565498864158"><ele>286.66666666666663</ele><time>2026-04-26T07:46:29Z</time></trkpt><trkpt lat="43.47345433275288" lon="11.89355732489313"><ele>286.3333333333333</ele><time>2026-04-26T07:46:31Z</time></trkpt><trkpt lat="43.4735177858307" lon="11.893546298221816"><ele>286.0</ele><time>2026-04-26T07:46:32Z</time></trkpt><trkpt lat="43.473627516470835" lon="11.893577497024648"><ele>286.0</ele><time>2026-04-26T07:46:34Z</time></trkpt><trkpt lat="43.473743646046195" lon="11.893580425480382"><ele>286.0</ele><time>2026-04-26T07:46:36Z</time></trkpt><trkpt lat="43.47384710380441" lon="11.893597227736624"><ele>286.0</ele><time>2026-04-26T07:46:38Z</time></trkpt><trkpt lat="43.47391237426272" lon="11.893601156858978"><ele>286.0</ele><time>2026-04-26T07:46:39Z</time></trkpt><trkpt lat="43.47398282537223" lon="11.893629010844366"><ele>286.0</ele><time>2026-04-26T07:46:40Z</time></trkpt><trkpt lat="43.47405117135214" lon="11.893640741870739"><ele>286.0</ele><time>2026-04-26T07:46:41Z</time></trkpt><trkpt lat="43.47411500283905" lon="11.89365160047158"><ele>284.66666666666663</ele><time>2026-04-26T07:46:41.999Z</time></trkpt><trkpt lat="43.47418609303616" lon="11.893666291896723"><ele>283.3333333333333</ele><time>2026-04-26T07:46:42.999Z</time></trkpt><trkpt lat="43.474261198719184" lon="11.89365959105489"><ele>282.0</ele><time>2026-04-26T07:46:43.999Z</time></trkpt><trkpt lat="43.47432130369874" lon="11.893695437928905"><ele>280.6666666666667</ele><time>2026-04-26T07:46:44.999Z</time></trkpt><trkpt lat="43.47444225487662" lon="11.893724100191127"><ele>279.33333333333337</ele><time>2026-04-26T07:46:46.999Z</time></trkpt><trkpt lat="43.47452706369785" lon="11.893744197663828"><ele>278.0</ele><time>2026-04-26T07:46:47.999Z</time></trkpt><trkpt lat="43.47464871939957" lon="11.893750277482766"><ele>276.4</ele><time>2026-04-26T07:46:48.999Z</time></trkpt><trkpt lat="43.474747241705025" lon="11.893783517639315"><ele>274.8</ele><time>2026-04-26T07:46:49.999Z</time></trkpt><trkpt lat="43.47483297414988" lon="11.893807500979019"><ele>273.2</ele><time>2026-04-26T07:46:50.999Z</time></trkpt><trkpt lat="43.474918610801744" lon="11.893828238465648"><ele>271.6</ele><time>2026-04-26T07:46:51.999Z</time></trkpt><trkpt lat="43.475046041832805" lon="11.89383540270205"><ele>270.0</ele><time>2026-04-26T07:46:52.999Z</time></trkpt><trkpt lat="43.475181636920254" lon="11.89385982805486"><ele>270.0</ele><time>2026-04-26T07:46:53.999Z</time></trkpt><trkpt lat="43.475285715104334" lon="11.893876153311718"><ele>270.0</ele><time>2026-04-26T07:46:54.999Z</time></trkpt><trkpt lat="43.475383479933875" lon="11.8938919786883"><ele>270.0</ele><time>2026-04-26T07:46:55.999Z</time></trkpt><trkpt lat="43.47548145156038" lon="11.893902177541948"><ele>270.0</ele><time>2026-04-26T07:46:56.999Z</time></trkpt><trkpt lat="43.47559195591473" lon="11.89389424069796"><ele>270.0</ele><time>2026-04-26T07:46:57.999Z</time></trkpt><trkpt lat="43.47570808485453" lon="11.893890350116761"><ele>269.0</ele><time>2026-04-26T07:46:58.999Z</time></trkpt><trkpt lat="43.47581205420594" lon="11.893868997135089"><ele>268.0</ele><time>2026-04-26T07:46:59.999Z</time></trkpt><trkpt lat="43.475916463862696" lon="11.893878957332708"><ele>267.0</ele><time>2026-04-26T07:47:00.999Z</time></trkpt><trkpt lat="43.47601626254617" lon="11.893847756199019"><ele>266.0</ele><time>2026-04-26T07:47:01.999Z</time></trkpt><trkpt lat="43.476114726337016" lon="11.893835420816906"><ele>265.0</ele><time>2026-04-26T07:47:02.999Z</time></trkpt><trkpt lat="43.4762106534783" lon="11.893830811141852"><ele>266.0</ele><time>2026-04-26T07:47:03.999Z</time></trkpt><trkpt lat="43.47630448607654" lon="11.893825321285895"><ele>267.0</ele><time>2026-04-26T07:47:04.999Z</time></trkpt><trkpt lat="43.47639805607778" lon="11.89381362842658"><ele>268.0</ele><time>2026-04-26T07:47:05.999Z</time></trkpt><trkpt lat="43.47648387372229" lon="11.893792905469281"><ele>269.0</ele><time>2026-04-26T07:47:06.999Z</time></trkpt><trkpt lat="43.47655201059308" lon="11.89378027857611"><ele>270.0</ele><time>2026-04-26T07:47:07.999Z</time></trkpt><trkpt lat="43.4766358623334" lon="11.89377468774515"><ele>271.0</ele><time>2026-04-26T07:47:09.999Z</time></trkpt><trkpt lat="43.47670525132073" lon="11.89379098082804"><ele>271.0</ele><time>2026-04-26T07:47:10.999Z</time></trkpt><trkpt lat="43.47678164365942" lon="11.89378516925095"><ele>271.0</ele><time>2026-04-26T07:47:11.999Z</time></trkpt><trkpt lat="43.47686337949119" lon="11.89376265637151"><ele>271.0</ele><time>2026-04-26T07:47:12.999Z</time></trkpt><trkpt lat="43.47696408558433" lon="11.893754709489855"><ele>271.0</ele><time>2026-04-26T07:47:13.999Z</time></trkpt><trkpt lat="43.47706605866685" lon="11.89374099686922"><ele>271.0</ele><time>2026-04-26T07:47:14.999Z</time></trkpt><trkpt lat="43.47715638069844" lon="11.893732403292235"><ele>271.66666666666663</ele><time>2026-04-26T07:47:15.999Z</time></trkpt><trkpt lat="43.477231348943256" lon="11.893732694505937"><ele>272.3333333333333</ele><time>2026-04-26T07:47:16.999Z</time></trkpt><trkpt lat="43.4773524766227" lon="11.893756786989847"><ele>273.0</ele><time>2026-04-26T07:47:18.999Z</time></trkpt><trkpt lat="43.47742665892545" lon="11.89378491603109"><ele>273.6666666666667</ele><time>2026-04-26T07:47:19.999Z</time></trkpt><trkpt lat="43.47749918372403" lon="11.893805627152844"><ele>274.33333333333337</ele><time>2026-04-26T07:47:20.999Z</time></trkpt><trkpt lat="43.477574099316854" lon="11.893828353839103"><ele>275.0</ele><time>2026-04-26T07:47:21.999Z</time></trkpt><trkpt lat="43.477655552215936" lon="11.893851759702407"><ele>275.0</ele><time>2026-04-26T07:47:22.999Z</time></trkpt><trkpt lat="43.47773743434871" lon="11.893855566905843"><ele>275.0</ele><time>2026-04-26T07:47:23.999Z</time></trkpt><trkpt lat="43.47784245382461" lon="11.893878122940103"><ele>275.0</ele><time>2026-04-26T07:47:25.999Z</time></trkpt><trkpt lat="43.47795059894664" lon="11.89388527801193"><ele>275.0</ele><time>2026-04-26T07:47:27.999Z</time></trkpt><trkpt lat="43.478054441292194" lon="11.89389054905728"><ele>275.0</ele><time>2026-04-26T07:47:29.999Z</time></trkpt><trkpt lat="43.47818061180001" lon="11.893938093700408"><ele>274.57142857142856</ele><time>2026-04-26T07:47:31.999Z</time></trkpt><trkpt lat="43.47823966027884" lon="11.89399055291433"><ele>274.1428571428571</ele><time>2026-04-26T07:47:32.999Z</time></trkpt><trkpt lat="43.4783076872764" lon="11.894009463951342"><ele>273.71428571428567</ele><time>2026-04-26T07:47:33.999Z</time></trkpt><trkpt lat="43.47837597370696" lon="11.894058158722896"><ele>273.2857142857143</ele><time>2026-04-26T07:47:34.999Z</time></trkpt><trkpt lat="43.4784463339215" lon="11.894100990884775"><ele>272.85714285714283</ele><time>2026-04-26T07:47:35.999Z</time></trkpt><trkpt lat="43.47851358712973" lon="11.89414736948751"><ele>272.4285714285714</ele><time>2026-04-26T07:47:36.999Z</time></trkpt><trkpt lat="43.47858289593485" lon="11.894197889646732"><ele>272.0</ele><time>2026-04-26T07:47:37.999Z</time></trkpt><trkpt lat="43.47865370940154" lon="11.894253703268845"><ele>272.33333333333337</ele><time>2026-04-26T07:47:38.999Z</time></trkpt><trkpt lat="43.47873064384818" lon="11.894296570139716"><ele>272.6666666666667</ele><time>2026-04-26T07:47:39.999Z</time></trkpt><trkpt lat="43.478798367427764" lon="11.89433027777571"><ele>273.0</ele><time>2026-04-26T07:47:40.999Z</time></trkpt><trkpt lat="43.47884808746071" lon="11.89438516433146"><ele>273.3333333333333</ele><time>2026-04-26T07:47:41.999Z</time></trkpt><trkpt lat="43.47891003294739" lon="11.894430177193435"><ele>273.66666666666663</ele><time>2026-04-26T07:47:42.999Z</time></trkpt><trkpt lat="43.478973914318985" lon="11.894480400558914"><ele>274.0</ele><time>2026-04-26T07:47:43.999Z</time></trkpt><trkpt lat="43.47908221095949" lon="11.894574747604507"><ele>274.0</ele><time>2026-04-26T07:47:46Z</time></trkpt><trkpt lat="43.47913447563338" lon="11.894627437454638"><ele>274.0</ele><time>2026-04-26T07:47:47Z</time></trkpt><trkpt lat="43.4791871886993" lon="11.894677973699887"><ele>274.0</ele><time>2026-04-26T07:47:48Z</time></trkpt><trkpt lat="43.479295290883165" lon="11.89474581231712"><ele>274.0</ele><time>2026-04-26T07:47:50Z</time></trkpt><trkpt lat="43.479359001335915" lon="11.894770865407775"><ele>274.0</ele><time>2026-04-26T07:47:51Z</time></trkpt><trkpt lat="43.47944421567282" lon="11.894786970478197"><ele>274.0</ele><time>2026-04-26T07:47:52Z</time></trkpt><trkpt lat="43.479534927580985" lon="11.894812447029274"><ele>272.4</ele><time>2026-04-26T07:47:53Z</time></trkpt><trkpt lat="43.47962606677741" lon="11.894850947301714"><ele>270.79999999999995</ele><time>2026-04-26T07:47:54Z</time></trkpt><trkpt lat="43.47971524502438" lon="11.894899434199253"><ele>269.20000000000005</ele><time>2026-04-26T07:47:55Z</time></trkpt><trkpt lat="43.4797949208062" lon="11.894945413509424"><ele>267.6</ele><time>2026-04-26T07:47:56Z</time></trkpt><trkpt lat="43.479874077481035" lon="11.895015228121839"><ele>266.0</ele><time>2026-04-26T07:47:57Z</time></trkpt><trkpt lat="43.4799558574129" lon="11.89504665800749"><ele>266.83333333333337</ele><time>2026-04-26T07:47:58Z</time></trkpt><trkpt lat="43.48001988760936" lon="11.895100473072002"><ele>267.6666666666667</ele><time>2026-04-26T07:47:59Z</time></trkpt><trkpt lat="43.48008078785337" lon="11.895144490741172"><ele>268.5</ele><time>2026-04-26T07:48:00Z</time></trkpt><trkpt lat="43.4801391101051" lon="11.895179887567766"><ele>269.3333333333333</ele><time>2026-04-26T07:48:01Z</time></trkpt><trkpt lat="43.48024415578785" lon="11.895238462875167"><ele>270.16666666666663</ele><time>2026-04-26T07:48:03Z</time></trkpt><trkpt lat="43.48030903370868" lon="11.895274534171488"><ele>271.0</ele><time>2026-04-26T07:48:04Z</time></trkpt><trkpt lat="43.48039042080341" lon="11.895311524239078"><ele>269.0</ele><time>2026-04-26T07:48:05Z</time></trkpt><trkpt lat="43.48047568272462" lon="11.89535630146505"><ele>267.0</ele><time>2026-04-26T07:48:06Z</time></trkpt><trkpt lat="43.48057799450034" lon="11.895413788437919"><ele>265.0</ele><time>2026-04-26T07:48:07Z</time></trkpt><trkpt lat="43.48070349291529" lon="11.89548812846993"><ele>263.0</ele><time>2026-04-26T07:48:08Z</time></trkpt><trkpt lat="43.480820447243545" lon="11.89554521175656"><ele>263.0</ele><time>2026-04-26T07:48:09Z</time></trkpt><trkpt lat="43.48093659351239" lon="11.895598489246218"><ele>263.0</ele><time>2026-04-26T07:48:10Z</time></trkpt><trkpt lat="43.4810454875702" lon="11.895651215942182"><ele>263.0</ele><time>2026-04-26T07:48:11Z</time></trkpt><trkpt lat="43.48114284971701" lon="11.8957022938734"><ele>263.0</ele><time>2026-04-26T07:48:12Z</time></trkpt><trkpt lat="43.481228679185655" lon="11.895738356104323"><ele>263.0</ele><time>2026-04-26T07:48:13Z</time></trkpt><trkpt lat="43.48131333686338" lon="11.89574384346985"><ele>262.5</ele><time>2026-04-26T07:48:14Z</time></trkpt><trkpt lat="43.48138946129255" lon="11.895768740070185"><ele>262.0</ele><time>2026-04-26T07:48:15Z</time></trkpt><trkpt lat="43.48147198056153" lon="11.895774702281855"><ele>261.5</ele><time>2026-04-26T07:48:16Z</time></trkpt><trkpt lat="43.48155575210153" lon="11.895785897143405"><ele>261.0</ele><time>2026-04-26T07:48:17Z</time></trkpt><trkpt lat="43.48163492708745" lon="11.895793940090206"><ele>260.5</ele><time>2026-04-26T07:48:18Z</time></trkpt><trkpt lat="43.481702805588306" lon="11.89579604014268"><ele>260.0</ele><time>2026-04-26T07:48:19Z</time></trkpt><trkpt lat="43.481816245300905" lon="11.895798674164356"><ele>260.0</ele><time>2026-04-26T07:48:21Z</time></trkpt><trkpt lat="43.481900526147804" lon="11.895820229577293"><ele>260.0</ele><time>2026-04-26T07:48:23Z</time></trkpt><trkpt lat="43.48197060925602" lon="11.895814199574332"><ele>260.0</ele><time>2026-04-26T07:48:27Z</time></trkpt><trkpt lat="43.48199285490533" lon="11.896022829794974"><ele>260.0</ele><time>2026-04-26T07:48:30Z</time></trkpt><trkpt lat="43.48201573564495" lon="11.896181619827965"><ele>260.0</ele><time>2026-04-26T07:48:31Z</time></trkpt><trkpt lat="43.48206494956848" lon="11.896363123780977"><ele>260.6666666666667</ele><time>2026-04-26T07:48:32Z</time></trkpt><trkpt lat="43.48211272510534" lon="11.89657342002364"><ele>261.3333333333333</ele><time>2026-04-26T07:48:33Z</time></trkpt><trkpt lat="43.48217545769498" lon="11.896812299580898"><ele>262.0</ele><time>2026-04-26T07:48:34Z</time></trkpt><trkpt lat="43.482240877528234" lon="11.897072719402995"><ele>262.0</ele><time>2026-04-26T07:48:35Z</time></trkpt><trkpt lat="43.48230604531518" lon="11.897328464705863"><ele>262.0</ele><time>2026-04-26T07:48:36Z</time></trkpt><trkpt lat="43.48234823510587" lon="11.897558732623363"><ele>262.0</ele><time>2026-04-26T07:48:37Z</time></trkpt><trkpt lat="43.48237779623692" lon="11.897810179597625"><ele>262.0</ele><time>2026-04-26T07:48:38Z</time></trkpt><trkpt lat="43.48236761702629" lon="11.898069692285542"><ele>262.0</ele><time>2026-04-26T07:48:39Z</time></trkpt><trkpt lat="43.48237780598476" lon="11.898297659657942"><ele>262.0</ele><time>2026-04-26T07:48:40Z</time></trkpt><trkpt lat="43.482374893227686" lon="11.898531510937794"><ele>262.66666666666663</ele><time>2026-04-26T07:48:41Z</time></trkpt><trkpt lat="43.48237554096134" lon="11.898765755892526"><ele>263.3333333333333</ele><time>2026-04-26T07:48:42Z</time></trkpt><trkpt lat="43.482375062925044" lon="11.899001728914909"><ele>264.0</ele><time>2026-04-26T07:48:43Z</time></trkpt><trkpt lat="43.482371731984365" lon="11.899236027106268"><ele>264.3333333333333</ele><time>2026-04-26T07:48:44Z</time></trkpt><trkpt lat="43.48237003699731" lon="11.899473922358267"><ele>264.66666666666663</ele><time>2026-04-26T07:48:45Z</time></trkpt><trkpt lat="43.482371853448974" lon="11.899718164751512"><ele>265.0</ele><time>2026-04-26T07:48:46Z</time></trkpt><trkpt lat="43.48238532286955" lon="11.899964126079936"><ele>265.3333333333333</ele><time>2026-04-26T07:48:47Z</time></trkpt><trkpt lat="43.482406551698176" lon="11.900202759018722"><ele>265.6666666666667</ele><time>2026-04-26T07:48:48Z</time></trkpt><trkpt lat="43.48242985124888" lon="11.900422562573521"><ele>266.0</ele><time>2026-04-26T07:48:49Z</time></trkpt><trkpt lat="43.482450079523716" lon="11.900617021950762"><ele>266.0</ele><time>2026-04-26T07:48:50Z</time></trkpt><trkpt lat="43.482471319990196" lon="11.900811506685972"><ele>266.0</ele><time>2026-04-26T07:48:51Z</time></trkpt><trkpt lat="43.48250560401874" lon="11.901012430480737"><ele>266.0</ele><time>2026-04-26T07:48:52Z</time></trkpt><trkpt lat="43.48256634326996" lon="11.901219420845049"><ele>266.0</ele><time>2026-04-26T07:48:53Z</time></trkpt><trkpt lat="43.48264364146519" lon="11.901425684551276"><ele>266.0</ele><time>2026-04-26T07:48:54Z</time></trkpt><trkpt lat="43.48269817537399" lon="11.9016449979024"><ele>266.0</ele><time>2026-04-26T07:48:55Z</time></trkpt><trkpt lat="43.4827668356563" lon="11.901830719970127"><ele>266.33333333333337</ele><time>2026-04-26T07:48:56Z</time></trkpt><trkpt lat="43.48282924389035" lon="11.902038453297394"><ele>266.6666666666667</ele><time>2026-04-26T07:48:56.999Z</time></trkpt><trkpt lat="43.48288469253011" lon="11.902237232759074"><ele>267.0</ele><time>2026-04-26T07:48:57.999Z</time></trkpt><trkpt lat="43.48290241575541" lon="11.902467295694446"><ele>267.3333333333333</ele><time>2026-04-26T07:48:58.999Z</time></trkpt><trkpt lat="43.482905868634155" lon="11.902726643477335"><ele>267.66666666666663</ele><time>2026-04-26T07:48:59.999Z</time></trkpt><trkpt lat="43.48290439453683" lon="11.903043057642282"><ele>268.0</ele><time>2026-04-26T07:49:00.999Z</time></trkpt><trkpt lat="43.48290390854819" lon="11.903342164456882"><ele>268.3333333333333</ele><time>2026-04-26T07:49:01.999Z</time></trkpt><trkpt lat="43.48291879678061" lon="11.903599076889433"><ele>268.6666666666667</ele><time>2026-04-26T07:49:02.999Z</time></trkpt><trkpt lat="43.48292394400501" lon="11.90382933979584"><ele>269.0</ele><time>2026-04-26T07:49:03.999Z</time></trkpt><trkpt lat="43.48294357049084" lon="11.904054636009906"><ele>269.25</ele><time>2026-04-26T07:49:04.999Z</time></trkpt><trkpt lat="43.48296159479255" lon="11.904251638149452"><ele>269.5</ele><time>2026-04-26T07:49:05.999Z</time></trkpt><trkpt lat="43.48297063044598" lon="11.904441731791227"><ele>269.75</ele><time>2026-04-26T07:49:06.999Z</time></trkpt><trkpt lat="43.48297842679946" lon="11.904615907905814"><ele>270.0</ele><time>2026-04-26T07:49:07.999Z</time></trkpt><trkpt lat="43.48298463672646" lon="11.904777722518512"><ele>270.0</ele><time>2026-04-26T07:49:08.999Z</time></trkpt><trkpt lat="43.48297882622913" lon="11.904920704624901"><ele>270.0</ele><time>2026-04-26T07:49:09.999Z</time></trkpt><trkpt lat="43.48296723540785" lon="11.9050645078122"><ele>270.0</ele><time>2026-04-26T07:49:10.999Z</time></trkpt><trkpt lat="43.48296501260061" lon="11.90519144785719"><ele>270.0</ele><time>2026-04-26T07:49:11.999Z</time></trkpt><trkpt lat="43.48294511386489" lon="11.905293985035007"><ele>270.0</ele><time>2026-04-26T07:49:12.999Z</time></trkpt><trkpt lat="43.48304785101305" lon="11.905405869417734"><ele>270.0</ele><time>2026-04-26T07:49:13.999Z</time></trkpt><trkpt lat="43.48314304452755" lon="11.905524313173032"><ele>270.0</ele><time>2026-04-26T07:49:14.999Z</time></trkpt><trkpt lat="43.48325142241724" lon="11.90569004279936"><ele>270.0</ele><time>2026-04-26T07:49:15.999Z</time></trkpt><trkpt lat="43.48338516889214" lon="11.905876605866796"><ele>271.0</ele><time>2026-04-26T07:49:16.999Z</time></trkpt><trkpt lat="43.483513797376965" lon="11.906058020941108"><ele>272.0</ele><time>2026-04-26T07:49:17.999Z</time></trkpt><trkpt lat="43.483623919022115" lon="11.906184897484126"><ele>273.0</ele><time>2026-04-26T07:49:18.999Z</time></trkpt><trkpt lat="43.48370971588263" lon="11.906317812598186"><ele>272.5</ele><time>2026-04-26T07:49:19.999Z</time></trkpt><trkpt lat="43.48380874818816" lon="11.90644416953861"><ele>272.0</ele><time>2026-04-26T07:49:20.999Z</time></trkpt><trkpt lat="43.48393569732407" lon="11.906546899663303"><ele>271.5</ele><time>2026-04-26T07:49:21.999Z</time></trkpt><trkpt lat="43.484076628025214" lon="11.906622001655787"><ele>271.0</ele><time>2026-04-26T07:49:22.999Z</time></trkpt><trkpt lat="43.48423263078878" lon="11.906701998160758"><ele>271.66666666666663</ele><time>2026-04-26T07:49:23.999Z</time></trkpt><trkpt lat="43.484378182335334" lon="11.906864828999225"><ele>272.3333333333333</ele><time>2026-04-26T07:49:24.999Z</time></trkpt><trkpt lat="43.484535029565016" lon="11.90706878979436"><ele>273.0</ele><time>2026-04-26T07:49:25.999Z</time></trkpt><trkpt lat="43.484715760306834" lon="11.907262018000472"><ele>274.6666666666667</ele><time>2026-04-26T07:49:26.999Z</time></trkpt><trkpt lat="43.48490059896923" lon="11.90739512553827"><ele>276.33333333333337</ele><time>2026-04-26T07:49:27.999Z</time></trkpt><trkpt lat="43.48508415092432" lon="11.907513382728919"><ele>278.0</ele><time>2026-04-26T07:49:28.999Z</time></trkpt><trkpt lat="43.48528797880506" lon="11.907620347531282"><ele>281.6666666666667</ele><time>2026-04-26T07:49:29.999Z</time></trkpt><trkpt lat="43.48547889216201" lon="11.90772427269386"><ele>285.3333333333333</ele><time>2026-04-26T07:49:30.999Z</time></trkpt><trkpt lat="43.485623389438615" lon="11.90782999899081"><ele>289.0</ele><time>2026-04-26T07:49:31.999Z</time></trkpt><trkpt lat="43.48576093461514" lon="11.907904768451958"><ele>289.0</ele><time>2026-04-26T07:49:32.999Z</time></trkpt><trkpt lat="43.485896636475964" lon="11.907950240692825"><ele>289.0</ele><time>2026-04-26T07:49:33.999Z</time></trkpt><trkpt lat="43.48601534609784" lon="11.908011788941778"><ele>289.0</ele><time>2026-04-26T07:49:34.999Z</time></trkpt><trkpt lat="43.48611211273879" lon="11.908066793981657"><ele>289.0</ele><time>2026-04-26T07:49:35.999Z</time></trkpt><trkpt lat="43.4862001123621" lon="11.908115488935724"><ele>289.25</ele><time>2026-04-26T07:49:36.999Z</time></trkpt><trkpt lat="43.48629187893275" lon="11.90821061045815"><ele>289.5</ele><time>2026-04-26T07:49:37.999Z</time></trkpt><trkpt lat="43.48635996153794" lon="11.90839049050191"><ele>289.75</ele><time>2026-04-26T07:49:38.999Z</time></trkpt><trkpt lat="43.48647213377483" lon="11.908555329949465"><ele>290.0</ele><time>2026-04-26T07:49:39.999Z</time></trkpt><trkpt lat="43.486587406727764" lon="11.908698483440464"><ele>290.8</ele><time>2026-04-26T07:49:40.999Z</time></trkpt><trkpt lat="43.486686846088745" lon="11.908805064796551"><ele>291.6</ele><time>2026-04-26T07:49:41.999Z</time></trkpt><trkpt lat="43.48675641941401" lon="11.90889519133996"><ele>292.4</ele><time>2026-04-26T07:49:42.999Z</time></trkpt><trkpt lat="43.486804259473566" lon="11.908998494234263"><ele>293.2</ele><time>2026-04-26T07:49:43.999Z</time></trkpt><trkpt lat="43.48682482330715" lon="11.909125632653469"><ele>294.0</ele><time>2026-04-26T07:49:44.999Z</time></trkpt><trkpt lat="43.486822479288975" lon="11.909300912553768"><ele>296.3333333333333</ele><time>2026-04-26T07:49:45.999Z</time></trkpt><trkpt lat="43.486801657310295" lon="11.909518732095398"><ele>298.66666666666663</ele><time>2026-04-26T07:49:46.999Z</time></trkpt><trkpt lat="43.486776132036745" lon="11.909751574370905"><ele>301.0</ele><time>2026-04-26T07:49:47.999Z</time></trkpt><trkpt lat="43.486751346445295" lon="11.909996051800954"><ele>302.5</ele><time>2026-04-26T07:49:48.999Z</time></trkpt><trkpt lat="43.48673046424321" lon="11.910188012019093"><ele>304.0</ele><time>2026-04-26T07:49:49.999Z</time></trkpt><trkpt lat="43.486711896941685" lon="11.910357984043774"><ele>305.5</ele><time>2026-04-26T07:49:51Z</time></trkpt><trkpt lat="43.486703905244376" lon="11.910512519662138"><ele>307.0</ele><time>2026-04-26T07:49:52Z</time></trkpt><trkpt lat="43.486702922814686" lon="11.910638088134961"><ele>307.0</ele><time>2026-04-26T07:49:53Z</time></trkpt><trkpt lat="43.486723623109" lon="11.910747195052004"><ele>307.0</ele><time>2026-04-26T07:49:54Z</time></trkpt><trkpt lat="43.48677143887621" lon="11.910875499560683"><ele>307.0</ele><time>2026-04-26T07:49:55Z</time></trkpt><trkpt lat="43.486827928602104" lon="11.911026725234635"><ele>307.0</ele><time>2026-04-26T07:49:56Z</time></trkpt><trkpt lat="43.486864879937485" lon="11.911211714673547"><ele>307.0</ele><time>2026-04-26T07:49:57Z</time></trkpt><trkpt lat="43.486936961776465" lon="11.911420042472676"><ele>308.25</ele><time>2026-04-26T07:49:58Z</time></trkpt><trkpt lat="43.486989424574226" lon="11.911632030502755"><ele>309.5</ele><time>2026-04-26T07:49:59Z</time></trkpt><trkpt lat="43.48704001403696" lon="11.911831196945263"><ele>310.75</ele><time>2026-04-26T07:50:00Z</time></trkpt><trkpt lat="43.487079551571" lon="11.912007440042947"><ele>312.0</ele><time>2026-04-26T07:50:01Z</time></trkpt><trkpt lat="43.48709420052512" lon="11.912182841177735"><ele>312.0</ele><time>2026-04-26T07:50:02Z</time></trkpt><trkpt lat="43.48711043574071" lon="11.912368783431724"><ele>312.0</ele><time>2026-04-26T07:50:03Z</time></trkpt><trkpt lat="43.48711764136865" lon="11.912585682285393"><ele>312.0</ele><time>2026-04-26T07:50:04Z</time></trkpt><trkpt lat="43.48712868054988" lon="11.912789419854471"><ele>312.0</ele><time>2026-04-26T07:50:05Z</time></trkpt><trkpt lat="43.48709355851481" lon="11.912968427914798"><ele>314.75</ele><time>2026-04-26T07:50:06Z</time></trkpt><trkpt lat="43.48705138726104" lon="11.913135096076626"><ele>317.5</ele><time>2026-04-26T07:50:07Z</time></trkpt><trkpt lat="43.48699979040286" lon="11.913309475227157"><ele>320.25</ele><time>2026-04-26T07:50:08Z</time></trkpt><trkpt lat="43.48693567875353" lon="11.91348910883005"><ele>323.0</ele><time>2026-04-26T07:50:09Z</time></trkpt><trkpt lat="43.486860355938404" lon="11.913700883427616"><ele>325.0</ele><time>2026-04-26T07:50:10Z</time></trkpt><trkpt lat="43.486757266502664" lon="11.913939458165466"><ele>327.0</ele><time>2026-04-26T07:50:11Z</time></trkpt><trkpt lat="43.4866940376344" lon="11.914170647968977"><ele>329.0</ele><time>2026-04-26T07:50:12Z</time></trkpt><trkpt lat="43.486620041960975" lon="11.914352326206584"><ele>330.33333333333337</ele><time>2026-04-26T07:50:13Z</time></trkpt><trkpt lat="43.48656474344823" lon="11.914536528275319"><ele>331.6666666666667</ele><time>2026-04-26T07:50:14Z</time></trkpt><trkpt lat="43.4865358610754" lon="11.914757752526787"><ele>333.0</ele><time>2026-04-26T07:50:15Z</time></trkpt><trkpt lat="43.48652844744119" lon="11.915004234455935"><ele>335.0</ele><time>2026-04-26T07:50:16Z</time></trkpt><trkpt lat="43.486512015398176" lon="11.915277879707672"><ele>337.0</ele><time>2026-04-26T07:50:17Z</time></trkpt><trkpt lat="43.486466146831816" lon="11.91558420142299"><ele>339.0</ele><time>2026-04-26T07:50:18Z</time></trkpt><trkpt lat="43.48642631254462" lon="11.915911226931584"><ele>340.3333333333333</ele><time>2026-04-26T07:50:19Z</time></trkpt><trkpt lat="43.48639329388237" lon="11.916217434822661"><ele>341.66666666666663</ele><time>2026-04-26T07:50:20Z</time></trkpt><trkpt lat="43.486364640450724" lon="11.916481477054248"><ele>343.0</ele><time>2026-04-26T07:50:21Z</time></trkpt><trkpt lat="43.486341473690985" lon="11.916684315204616"><ele>344.0</ele><time>2026-04-26T07:50:22Z</time></trkpt><trkpt lat="43.48632865318236" lon="11.916862028809595"><ele>345.0</ele><time>2026-04-26T07:50:23Z</time></trkpt><trkpt lat="43.48628973661778" lon="11.917043033471172"><ele>346.0</ele><time>2026-04-26T07:50:24Z</time></trkpt><trkpt lat="43.48621951733797" lon="11.917186212872664"><ele>347.0</ele><time>2026-04-26T07:50:25Z</time></trkpt><trkpt lat="43.48613958506629" lon="11.91729265662694"><ele>348.6</ele><time>2026-04-26T07:50:26Z</time></trkpt><trkpt lat="43.486058329384235" lon="11.91740466394586"><ele>350.20000000000005</ele><time>2026-04-26T07:50:27Z</time></trkpt><trkpt lat="43.486001512643625" lon="11.917512641700716"><ele>351.8</ele><time>2026-04-26T07:50:28Z</time></trkpt><trkpt lat="43.48594123950686" lon="11.917613280011155"><ele>353.4</ele><time>2026-04-26T07:50:29Z</time></trkpt><trkpt lat="43.485935972275996" lon="11.917763628109224"><ele>355.0</ele><time>2026-04-26T07:50:30Z</time></trkpt><trkpt lat="43.485930702907496" lon="11.917938692421913"><ele>356.3333333333333</ele><time>2026-04-26T07:50:31Z</time></trkpt><trkpt lat="43.485938677144354" lon="11.918153276614019"><ele>357.6666666666667</ele><time>2026-04-26T07:50:32Z</time></trkpt><trkpt lat="43.48591744424526" lon="11.918407932330824"><ele>359.0</ele><time>2026-04-26T07:50:33Z</time></trkpt><trkpt lat="43.4859128287678" lon="11.91869597598458"><ele>361.0</ele><time>2026-04-26T07:50:34Z</time></trkpt><trkpt lat="43.485924086134396" lon="11.91899766543623"><ele>363.0</ele><time>2026-04-26T07:50:35Z</time></trkpt><trkpt lat="43.48592392566891" lon="11.919335499872744"><ele>365.5</ele><time>2026-04-26T07:50:36Z</time></trkpt><trkpt lat="43.48592311679465" lon="11.919724078907942"><ele>368.0</ele><time>2026-04-26T07:50:37Z</time></trkpt><trkpt lat="43.485947237119625" lon="11.92007252928875"><ele>372.0</ele><time>2026-04-26T07:50:38Z</time></trkpt><trkpt lat="43.485969259637905" lon="11.920439160977276"><ele>376.0</ele><time>2026-04-26T07:50:39Z</time></trkpt><trkpt lat="43.48599142995792" lon="11.920769354942841"><ele>379.0</ele><time>2026-04-26T07:50:40Z</time></trkpt><trkpt lat="43.486010089475975" lon="11.921047180322239"><ele>382.0</ele><time>2026-04-26T07:50:41Z</time></trkpt><trkpt lat="43.48600527743111" lon="11.921299474696623"><ele>385.0</ele><time>2026-04-26T07:50:42Z</time></trkpt><trkpt lat="43.48602568929778" lon="11.921501064503882"><ele>385.0</ele><time>2026-04-26T07:50:43Z</time></trkpt><trkpt lat="43.48606413874933" lon="11.921664886748465"><ele>385.0</ele><time>2026-04-26T07:50:44Z</time></trkpt><trkpt lat="43.486140053399296" lon="11.921798236151094"><ele>385.0</ele><time>2026-04-26T07:50:45Z</time></trkpt><trkpt lat="43.48622704503143" lon="11.92193840328194"><ele>385.0</ele><time>2026-04-26T07:50:46Z</time></trkpt><trkpt lat="43.48634268746407" lon="11.922090694712113"><ele>386.33333333333337</ele><time>2026-04-26T07:50:47Z</time></trkpt><trkpt lat="43.4864612999982" lon="11.922249817703616"><ele>387.66666666666663</ele><time>2026-04-26T07:50:48Z</time></trkpt><trkpt lat="43.48651237522968" lon="11.922440064187615"><ele>389.0</ele><time>2026-04-26T07:50:49Z</time></trkpt><trkpt lat="43.4865798227091" lon="11.922659965385508"><ele>395.0</ele><time>2026-04-26T07:50:50Z</time></trkpt><trkpt lat="43.48666033147253" lon="11.92291409184572"><ele>401.0</ele><time>2026-04-26T07:50:50.999Z</time></trkpt><trkpt lat="43.48675775540994" lon="11.923169935448952"><ele>407.0</ele><time>2026-04-26T07:50:51.999Z</time></trkpt><trkpt lat="43.486847809254805" lon="11.923372429016613"><ele>408.3333333333333</ele><time>2026-04-26T07:50:52.999Z</time></trkpt><trkpt lat="43.48694336485779" lon="11.923550666214624"><ele>409.66666666666663</ele><time>2026-04-26T07:50:53.999Z</time></trkpt><trkpt lat="43.48705672533075" lon="11.92371048065488"><ele>411.0</ele><time>2026-04-26T07:50:54.999Z</time></trkpt><trkpt lat="43.48716488223374" lon="11.923834650155005"><ele>411.0</ele><time>2026-04-26T07:50:55.999Z</time></trkpt><trkpt lat="43.48729285841089" lon="11.923939006608808"><ele>411.0</ele><time>2026-04-26T07:50:56.999Z</time></trkpt><trkpt lat="43.487411904887956" lon="11.924055148384332"><ele>411.0</ele><time>2026-04-26T07:50:57.999Z</time></trkpt><trkpt lat="43.48754029385686" lon="11.924153612200108"><ele>411.0</ele><time>2026-04-26T07:50:58.999Z</time></trkpt><trkpt lat="43.487666431388725" lon="11.92425506708691"><ele>413.25</ele><time>2026-04-26T07:50:59.999Z</time></trkpt><trkpt lat="43.48779607241379" lon="11.924338211895394"><ele>415.5</ele><time>2026-04-26T07:51:00.999Z</time></trkpt><trkpt lat="43.48792483778488" lon="11.924400560067706"><ele>417.75</ele><time>2026-04-26T07:51:01.999Z</time></trkpt><trkpt lat="43.48803204861432" lon="11.924477104371514"><ele>420.0</ele><time>2026-04-26T07:51:02.999Z</time></trkpt><trkpt lat="43.48812661442988" lon="11.924550759516725"><ele>420.0</ele><time>2026-04-26T07:51:03.999Z</time></trkpt><trkpt lat="43.48821010207738" lon="11.924618604221806"><ele>420.0</ele><time>2026-04-26T07:51:04.999Z</time></trkpt><trkpt lat="43.488285538902346" lon="11.924701990683939"><ele>420.0</ele><time>2026-04-26T07:51:05.999Z</time></trkpt><trkpt lat="43.48835075459605" lon="11.92481606522143"><ele>420.0</ele><time>2026-04-26T07:51:06.999Z</time></trkpt><trkpt lat="43.48839341944323" lon="11.924947619010453"><ele>420.0</ele><time>2026-04-26T07:51:07.999Z</time></trkpt><trkpt lat="43.48842330413309" lon="11.925065710879698"><ele>424.1666666666667</ele><time>2026-04-26T07:51:08.999Z</time></trkpt><trkpt lat="43.48842297797642" lon="11.92518154813871"><ele>428.33333333333337</ele><time>2026-04-26T07:51:09.999Z</time></trkpt><trkpt lat="43.48839390210449" lon="11.925283756932131"><ele>432.5</ele><time>2026-04-26T07:51:10.999Z</time></trkpt><trkpt lat="43.48832875604582" lon="11.925335050573088"><ele>436.6666666666667</ele><time>2026-04-26T07:51:11.999Z</time></trkpt><trkpt lat="43.488255789225256" lon="11.92529736261339"><ele>440.83333333333337</ele><time>2026-04-26T07:51:12.999Z</time></trkpt><trkpt lat="43.48818288005737" lon="11.925256026151443"><ele>445.0</ele><time>2026-04-26T07:51:13.999Z</time></trkpt><trkpt lat="43.48806578176032" lon="11.925254304493427"><ele>447.0</ele><time>2026-04-26T07:51:14.999Z</time></trkpt><trkpt lat="43.48791680019661" lon="11.925241641337031"><ele>449.0</ele><time>2026-04-26T07:51:15.999Z</time></trkpt><trkpt lat="43.48773945815013" lon="11.925218448198994"><ele>451.0</ele><time>2026-04-26T07:51:16.999Z</time></trkpt><trkpt lat="43.48753500664237" lon="11.925223456533626"><ele>451.0</ele><time>2026-04-26T07:51:17.999Z</time></trkpt><trkpt lat="43.48736182733369" lon="11.925239861112436"><ele>451.0</ele><time>2026-04-26T07:51:18.999Z</time></trkpt><trkpt lat="43.487240524092726" lon="11.925268653681549"><ele>451.0</ele><time>2026-04-26T07:51:19.998Z</time></trkpt><trkpt lat="43.48714739172699" lon="11.925319698833057"><ele>451.0</ele><time>2026-04-26T07:51:20.998Z</time></trkpt><trkpt lat="43.48707861223238" lon="11.925349375396726"><ele>448.0</ele><time>2026-04-26T07:51:21.998Z</time></trkpt><trkpt lat="43.48699757124599" lon="11.925323599608646"><ele>445.0</ele><time>2026-04-26T07:51:22.998Z</time></trkpt><trkpt lat="43.48692507272295" lon="11.925361963780357"><ele>442.0</ele><time>2026-04-26T07:51:23.998Z</time></trkpt><trkpt lat="43.486950514988514" lon="11.9255979934209"><ele>439.0</ele><time>2026-04-26T07:51:24.998Z</time></trkpt><trkpt lat="43.48695772288887" lon="11.92571903781926"><ele>436.0</ele><time>2026-04-26T07:51:25.998Z</time></trkpt><trkpt lat="43.48696381046985" lon="11.925873583275926"><ele>436.25</ele><time>2026-04-26T07:51:26.998Z</time></trkpt><trkpt lat="43.48700972324306" lon="11.926036623816662"><ele>436.5</ele><time>2026-04-26T07:51:27.998Z</time></trkpt><trkpt lat="43.487046098706834" lon="11.926185191000272"><ele>436.75</ele><time>2026-04-26T07:51:28.998Z</time></trkpt><trkpt lat="43.48709566130643" lon="11.926324093063984"><ele>437.0</ele><time>2026-04-26T07:51:29.998Z</time></trkpt><trkpt lat="43.48715550634471" lon="11.92646563772698"><ele>442.5</ele><time>2026-04-26T07:51:30.998Z</time></trkpt><trkpt lat="43.48722349498977" lon="11.9266056962107"><ele>448.0</ele><time>2026-04-26T07:51:31.998Z</time></trkpt><trkpt lat="43.48730934039227" lon="11.926743206619296"><ele>453.5</ele><time>2026-04-26T07:51:32.998Z</time></trkpt><trkpt lat="43.48739508747374" lon="11.926865677346992"><ele>459.0</ele><time>2026-04-26T07:51:33.998Z</time></trkpt><trkpt lat="43.487494292833446" lon="11.926973954686783"><ele>459.0</ele><time>2026-04-26T07:51:34.998Z</time></trkpt><trkpt lat="43.48760195256528" lon="11.927075820038144"><ele>459.0</ele><time>2026-04-26T07:51:35.998Z</time></trkpt><trkpt lat="43.48772640112968" lon="11.9271761895073"><ele>459.0</ele><time>2026-04-26T07:51:36.998Z</time></trkpt><trkpt lat="43.487861532762565" lon="11.927278442681052"><ele>459.0</ele><time>2026-04-26T07:51:37.998Z</time></trkpt><trkpt lat="43.48801473678273" lon="11.927380720877016"><ele>462.33333333333337</ele><time>2026-04-26T07:51:38.998Z</time></trkpt><trkpt lat="43.48815801315748" lon="11.92751282161123"><ele>465.6666666666667</ele><time>2026-04-26T07:51:39.998Z</time></trkpt><trkpt lat="43.48828463373535" lon="11.927614861978395"><ele>469.0</ele><time>2026-04-26T07:51:40.998Z</time></trkpt><trkpt lat="43.48840363882782" lon="11.927719419462134"><ele>469.0</ele><time>2026-04-26T07:51:41.998Z</time></trkpt><trkpt lat="43.48852809813937" lon="11.927834078905788"><ele>469.0</ele><time>2026-04-26T07:51:42.998Z</time></trkpt><trkpt lat="43.4886331667055" lon="11.92793500587735"><ele>469.0</ele><time>2026-04-26T07:51:43.998Z</time></trkpt><trkpt lat="43.48874069872895" lon="11.928016657924097"><ele>469.0</ele><time>2026-04-26T07:51:44.998Z</time></trkpt><trkpt lat="43.48884779259477" lon="11.928129735043164"><ele>473.5</ele><time>2026-04-26T07:51:45.998Z</time></trkpt><trkpt lat="43.488944987517606" lon="11.928262894339444"><ele>478.0</ele><time>2026-04-26T07:51:46.998Z</time></trkpt><trkpt lat="43.48905232684752" lon="11.928391847438984"><ele>482.5</ele><time>2026-04-26T07:51:47.998Z</time></trkpt><trkpt lat="43.48915610909227" lon="11.928525924448483"><ele>487.0</ele><time>2026-04-26T07:51:48.998Z</time></trkpt><trkpt lat="43.489270401525935" lon="11.92868214820309"><ele>487.0</ele><time>2026-04-26T07:51:49.998Z</time></trkpt><trkpt lat="43.48938371979602" lon="11.928849807168099"><ele>487.0</ele><time>2026-04-26T07:51:50.998Z</time></trkpt><trkpt lat="43.48949703718834" lon="11.929018419370381"><ele>487.0</ele><time>2026-04-26T07:51:51.998Z</time></trkpt><trkpt lat="43.48961200624821" lon="11.929151695859913"><ele>492.0</ele><time>2026-04-26T07:51:52.998Z</time></trkpt><trkpt lat="43.489699979648194" lon="11.929270515118455"><ele>497.00000000000006</ele><time>2026-04-26T07:51:53.998Z</time></trkpt><trkpt lat="43.48978855068376" lon="11.929363815044109"><ele>502.00000000000006</ele><time>2026-04-26T07:51:54.998Z</time></trkpt><trkpt lat="43.489865929424944" lon="11.929434562256183"><ele>507.0</ele><time>2026-04-26T07:51:55.998Z</time></trkpt><trkpt lat="43.4899285350475" lon="11.929497690729743"><ele>512.0</ele><time>2026-04-26T07:51:56.999Z</time></trkpt><trkpt lat="43.48997870369374" lon="11.929566142920672"><ele>512.0</ele><time>2026-04-26T07:51:57.999Z</time></trkpt><trkpt lat="43.49001727627559" lon="11.929744590983233"><ele>512.0</ele><time>2026-04-26T07:51:59.999Z</time></trkpt><trkpt lat="43.490019877945315" lon="11.92986205380187"><ele>512.0</ele><time>2026-04-26T07:52:00.999Z</time></trkpt><trkpt lat="43.4900145950315" lon="11.929972523948049"><ele>512.0</ele><time>2026-04-26T07:52:01.999Z</time></trkpt><trkpt lat="43.490027104545575" lon="11.930084171851398"><ele>512.0</ele><time>2026-04-26T07:52:02.999Z</time></trkpt><trkpt lat="43.49006274033791" lon="11.930182401762666"><ele>512.8000000000001</ele><time>2026-04-26T07:52:03.999Z</time></trkpt><trkpt lat="43.49010672353444" lon="11.930273400003228"><ele>513.6</ele><time>2026-04-26T07:52:04.999Z</time></trkpt><trkpt lat="43.4901560940427" lon="11.930339108158986"><ele>514.4000000000001</ele><time>2026-04-26T07:52:05.999Z</time></trkpt><trkpt lat="43.4902294342932" lon="11.930451996623693"><ele>515.2</ele><time>2026-04-26T07:52:06.999Z</time></trkpt><trkpt lat="43.49026234064851" lon="11.930591443589853"><ele>516.0</ele><time>2026-04-26T07:52:07.999Z</time></trkpt><trkpt lat="43.490268731128" lon="11.930713801816825"><ele>516.0</ele><time>2026-04-26T07:52:08.999Z</time></trkpt><trkpt lat="43.49029860979021" lon="11.930846538694482"><ele>516.0</ele><time>2026-04-26T07:52:10.999Z</time></trkpt><trkpt lat="43.49037515581953" lon="11.930919371138504"><ele>516.0</ele><time>2026-04-26T07:52:12.999Z</time></trkpt><trkpt lat="43.490475142858166" lon="11.930937102876502"><ele>516.0</ele><time>2026-04-26T07:52:14.999Z</time></trkpt><trkpt lat="43.49053897436176" lon="11.930869609241126"><ele>516.0</ele><time>2026-04-26T07:52:15.999Z</time></trkpt><trkpt lat="43.49054595924363" lon="11.930767555427302"><ele>516.0</ele><time>2026-04-26T07:52:16.999Z</time></trkpt><trkpt lat="43.49056136394826" lon="11.93068092569049"><ele>518.3333333333334</ele><time>2026-04-26T07:52:17.999Z</time></trkpt><trkpt lat="43.49058996865975" lon="11.930581253532186"><ele>520.6666666666666</ele><time>2026-04-26T07:52:18.999Z</time></trkpt><trkpt lat="43.49061083738573" lon="11.930475160610857"><ele>523.0</ele><time>2026-04-26T07:52:19.999Z</time></trkpt><trkpt lat="43.49063393918047" lon="11.93036045662581"><ele>525.3333333333333</ele><time>2026-04-26T07:52:20.999Z</time></trkpt><trkpt lat="43.49065870439283" lon="11.930244365261006"><ele>527.6666666666666</ele><time>2026-04-26T07:52:21.999Z</time></trkpt><trkpt lat="43.49069179825474" lon="11.930137216136085"><ele>530.0</ele><time>2026-04-26T07:52:22.999Z</time></trkpt><trkpt lat="43.490744311634224" lon="11.930049509367924"><ele>530.0</ele><time>2026-04-26T07:52:23.999Z</time></trkpt><trkpt lat="43.49083231293967" lon="11.929955362295418"><ele>530.0</ele><time>2026-04-26T07:52:24.999Z</time></trkpt><trkpt lat="43.49092416224757" lon="11.929834429360351"><ele>530.0</ele><time>2026-04-26T07:52:25.999Z</time></trkpt><trkpt lat="43.491002523831334" lon="11.929726624751654"><ele>530.0</ele><time>2026-04-26T07:52:26.999Z</time></trkpt><trkpt lat="43.491085274710265" lon="11.929644109136495"><ele>529.9999999999999</ele><time>2026-04-26T07:52:27.999Z</time></trkpt><trkpt lat="43.49114997076887" lon="11.92960581221424"><ele>530.0</ele><time>2026-04-26T07:52:28.999Z</time></trkpt><trkpt lat="43.491213739521456" lon="11.929580613423852"><ele>530.0</ele><time>2026-04-26T07:52:29.999Z</time></trkpt><trkpt lat="43.49128024405047" lon="11.929553173939484"><ele>530.0</ele><time>2026-04-26T07:52:30.999Z</time></trkpt><trkpt lat="43.4913585492892" lon="11.929572669738594"><ele>530.0</ele><time>2026-04-26T07:52:31.999Z</time></trkpt><trkpt lat="43.49143206692018" lon="11.92960913369183"><ele>529.9999999999999</ele><time>2026-04-26T07:52:32.999Z</time></trkpt><trkpt lat="43.49150586770559" lon="11.929653071923802"><ele>530.0</ele><time>2026-04-26T07:52:33.999Z</time></trkpt><trkpt lat="43.491571342369454" lon="11.92972109617609"><ele>532.6</ele><time>2026-04-26T07:52:34.999Z</time></trkpt><trkpt lat="43.491656784851" lon="11.929764909074171"><ele>535.2</ele><time>2026-04-26T07:52:35.999Z</time></trkpt><trkpt lat="43.4917402155584" lon="11.929832902403183"><ele>537.8</ele><time>2026-04-26T07:52:36.999Z</time></trkpt><trkpt lat="43.491820359527246" lon="11.929908411850912"><ele>540.4</ele><time>2026-04-26T07:52:37.999Z</time></trkpt><trkpt lat="43.49189482145395" lon="11.92998217099329"><ele>543.0</ele><time>2026-04-26T07:52:38.999Z</time></trkpt><trkpt lat="43.49196817288977" lon="11.930050231236772"><ele>544.8</ele><time>2026-04-26T07:52:39.999Z</time></trkpt><trkpt lat="43.49204192971397" lon="11.930115230596176"><ele>546.5999999999999</ele><time>2026-04-26T07:52:40.999Z</time></trkpt><trkpt lat="43.49212615503076" lon="11.930191288698346"><ele>548.4000000000001</ele><time>2026-04-26T07:52:42.999Z</time></trkpt><trkpt lat="43.49218906091201" lon="11.930246566689439"><ele>550.2</ele><time>2026-04-26T07:52:45.999Z</time></trkpt><trkpt lat="43.49225283633322" lon="11.93032491232591"><ele>552.0</ele><time>2026-04-26T07:52:47.999Z</time></trkpt><trkpt lat="43.49234321918377" lon="11.930405046172956"><ele>552.7142857142858</ele><time>2026-04-26T07:52:49.999Z</time></trkpt><trkpt lat="43.49239249099394" lon="11.930462873686631"><ele>553.4285714285714</ele><time>2026-04-26T07:52:50.999Z</time></trkpt><trkpt lat="43.49244621617522" lon="11.930525309882658"><ele>554.1428571428571</ele><time>2026-04-26T07:52:51.999Z</time></trkpt><trkpt lat="43.4925024963639" lon="11.930586910481534"><ele>554.8571428571429</ele><time>2026-04-26T07:52:52.999Z</time></trkpt><trkpt lat="43.49256122326235" lon="11.930640439782847"><ele>555.5714285714286</ele><time>2026-04-26T07:52:53.999Z</time></trkpt><trkpt lat="43.4926095933658" lon="11.930722513891359"><ele>556.2857142857143</ele><time>2026-04-26T07:52:54.999Z</time></trkpt><trkpt lat="43.49266823330952" lon="11.93079827639407"><ele>557.0</ele><time>2026-04-26T07:52:55.999Z</time></trkpt><trkpt lat="43.492724929535605" lon="11.930871527719264"><ele>558.6666666666666</ele><time>2026-04-26T07:52:56.999Z</time></trkpt><trkpt lat="43.49278164545722" lon="11.93093031576942"><ele>560.3333333333333</ele><time>2026-04-26T07:52:57.999Z</time></trkpt><trkpt lat="43.4928233469107" lon="11.931069573107875"><ele>562.0</ele><time>2026-04-26T07:52:59.999Z</time></trkpt><trkpt lat="43.49282709542563" lon="11.931158788470805"><ele>563.6666666666666</ele><time>2026-04-26T07:53:00.999Z</time></trkpt><trkpt lat="43.492751949422974" lon="11.93127428047635"><ele>565.3333333333334</ele><time>2026-04-26T07:53:02.999Z</time></trkpt><trkpt lat="43.49269857075525" lon="11.931330442509102"><ele>567.0</ele><time>2026-04-26T07:53:03.999Z</time></trkpt><trkpt lat="43.492631474309924" lon="11.93140980013983"><ele>567.0</ele><time>2026-04-26T07:53:04.999Z</time></trkpt><trkpt lat="43.49256567049273" lon="11.931513665507419"><ele>567.0</ele><time>2026-04-26T07:53:05.999Z</time></trkpt><trkpt lat="43.49247278088687" lon="11.931593001674889"><ele>567.0</ele><time>2026-04-26T07:53:06.999Z</time></trkpt><trkpt lat="43.49241004224384" lon="11.931659650572955"><ele>567.0</ele><time>2026-04-26T07:53:07.999Z</time></trkpt><trkpt lat="43.49235630762096" lon="11.93173401109228"><ele>567.0</ele><time>2026-04-26T07:53:08.999Z</time></trkpt><trkpt lat="43.49232145926242" lon="11.931816389267707"><ele>567.0</ele><time>2026-04-26T07:53:09.999Z</time></trkpt><trkpt lat="43.49229720839208" lon="11.931903728253742"><ele>568.0</ele><time>2026-04-26T07:53:10.999Z</time></trkpt><trkpt lat="43.492308271194794" lon="11.932086765993208"><ele>569.0</ele><time>2026-04-26T07:53:12.999Z</time></trkpt><trkpt lat="43.49232936637786" lon="11.93218892572504"><ele>570.0</ele><time>2026-04-26T07:53:13.999Z</time></trkpt><trkpt lat="43.49235597183657" lon="11.93231209045568"><ele>571.0</ele><time>2026-04-26T07:53:14.999Z</time></trkpt><trkpt lat="43.492423012548606" lon="11.932446378744277"><ele>572.0</ele><time>2026-04-26T07:53:15.999Z</time></trkpt><trkpt lat="43.49249308681527" lon="11.932604476830285"><ele>572.6666666666666</ele><time>2026-04-26T07:53:16.999Z</time></trkpt><trkpt lat="43.49256003696963" lon="11.932804510631682"><ele>573.3333333333334</ele><time>2026-04-26T07:53:17.999Z</time></trkpt><trkpt lat="43.49263783683502" lon="11.933000197829209"><ele>574.0</ele><time>2026-04-26T07:53:18.999Z</time></trkpt><trkpt lat="43.4927175474462" lon="11.933143048794486"><ele>574.0</ele><time>2026-04-26T07:53:19.999Z</time></trkpt><trkpt lat="43.49277454952053" lon="11.933274338891428"><ele>574.0</ele><time>2026-04-26T07:53:20.999Z</time></trkpt><trkpt lat="43.492820867264555" lon="11.933422455394698"><ele>574.0</ele><time>2026-04-26T07:53:21.999Z</time></trkpt><trkpt lat="43.49287905830054" lon="11.933589675899047"><ele>574.0</ele><time>2026-04-26T07:53:22.999Z</time></trkpt><trkpt lat="43.492926211646484" lon="11.933727590266779"><ele>575.6666666666667</ele><time>2026-04-26T07:53:23.999Z</time></trkpt><trkpt lat="43.49296112918302" lon="11.933830301251291"><ele>577.3333333333334</ele><time>2026-04-26T07:53:24.999Z</time></trkpt><trkpt lat="43.49299722612762" lon="11.933912236177855"><ele>579.0</ele><time>2026-04-26T07:53:25.999Z</time></trkpt><trkpt lat="43.493009368855134" lon="11.934000446884632"><ele>580.6666666666666</ele><time>2026-04-26T07:53:26.999Z</time></trkpt><trkpt lat="43.492970218673854" lon="11.934143822141817"><ele>582.3333333333333</ele><time>2026-04-26T07:53:28.999Z</time></trkpt><trkpt lat="43.4929030330976" lon="11.934160439235901"><ele>584.0</ele><time>2026-04-26T07:53:29.999Z</time></trkpt><trkpt lat="43.492835922890244" lon="11.934173453322565"><ele>584.0</ele><time>2026-04-26T07:53:30.999Z</time></trkpt><trkpt lat="43.492761852534" lon="11.934178364368545"><ele>584.0</ele><time>2026-04-26T07:53:31.999Z</time></trkpt><trkpt lat="43.492681834565225" lon="11.934209655882695"><ele>584.0</ele><time>2026-04-26T07:53:32.999Z</time></trkpt><trkpt lat="43.492602110049496" lon="11.934237046198659"><ele>584.0</ele><time>2026-04-26T07:53:33.999Z</time></trkpt><trkpt lat="43.49251378704475" lon="11.934266409622683"><ele>584.0</ele><time>2026-04-26T07:53:34.999Z</time></trkpt><trkpt lat="43.492470066697344" lon="11.934392073430947"><ele>584.0</ele><time>2026-04-26T07:53:35.999Z</time></trkpt><trkpt lat="43.49240742610282" lon="11.934499943009243"><ele>586.5</ele><time>2026-04-26T07:53:36.999Z</time></trkpt><trkpt lat="43.49233318628258" lon="11.93455421979607"><ele>589.0</ele><time>2026-04-26T07:53:37.999Z</time></trkpt><trkpt lat="43.49222339041489" lon="11.934595248429622"><ele>591.5</ele><time>2026-04-26T07:53:39.999Z</time></trkpt><trkpt lat="43.49215691595093" lon="11.934581931432497"><ele>594.0</ele><time>2026-04-26T07:53:40.999Z</time></trkpt><trkpt lat="43.49209475765374" lon="11.934520966016455"><ele>596.5</ele><time>2026-04-26T07:53:41.999Z</time></trkpt><trkpt lat="43.492017902580784" lon="11.934475962691211"><ele>599.0</ele><time>2026-04-26T07:53:42.999Z</time></trkpt><trkpt lat="43.491925801318466" lon="11.934425001886963"><ele>599.0</ele><time>2026-04-26T07:53:43.998Z</time></trkpt><trkpt lat="43.49185333583854" lon="11.93439812441151"><ele>599.0</ele><time>2026-04-26T07:53:44.998Z</time></trkpt><trkpt lat="43.4917686251497" lon="11.934403716938599"><ele>599.0</ele><time>2026-04-26T07:53:45.998Z</time></trkpt><trkpt lat="43.491685863790735" lon="11.93440233864526"><ele>599.0</ele><time>2026-04-26T07:53:46.998Z</time></trkpt><trkpt lat="43.49162339037692" lon="11.93442855194686"><ele>599.0</ele><time>2026-04-26T07:53:47.998Z</time></trkpt><trkpt lat="43.49156074126881" lon="11.934461800243893"><ele>599.0</ele><time>2026-04-26T07:53:48.998Z</time></trkpt><trkpt lat="43.491502964478066" lon="11.934557221190296"><ele>599.0</ele><time>2026-04-26T07:53:49.998Z</time></trkpt><trkpt lat="43.49151653419366" lon="11.93469290069051"><ele>599.0</ele><time>2026-04-26T07:53:50.998Z</time></trkpt><trkpt lat="43.49153485309565" lon="11.934808060777037"><ele>599.0</ele><time>2026-04-26T07:53:51.998Z</time></trkpt><trkpt lat="43.491545876289415" lon="11.93492087451006"><ele>599.0</ele><time>2026-04-26T07:53:52.998Z</time></trkpt><trkpt lat="43.491530549877474" lon="11.935014608573992"><ele>599.0</ele><time>2026-04-26T07:53:53.998Z</time></trkpt><trkpt lat="43.491473857527374" lon="11.93507386412092"><ele>599.0</ele><time>2026-04-26T07:53:54.998Z</time></trkpt><trkpt lat="43.491428006566" lon="11.935134770739527"><ele>600.0</ele><time>2026-04-26T07:53:55.998Z</time></trkpt><trkpt lat="43.49134638175976" lon="11.935135008515513"><ele>601.0</ele><time>2026-04-26T07:53:56.998Z</time></trkpt><trkpt lat="43.49126555297537" lon="11.935134369117067"><ele>602.0</ele><time>2026-04-26T07:53:57.998Z</time></trkpt><trkpt lat="43.49116817194256" lon="11.935127944553134"><ele>603.0</ele><time>2026-04-26T07:53:58.998Z</time></trkpt><trkpt lat="43.49105996910524" lon="11.93513960200899"><ele>604.0</ele><time>2026-04-26T07:53:59.998Z</time></trkpt><trkpt lat="43.49091989967002" lon="11.935192262303701"><ele>604.0</ele><time>2026-04-26T07:54:00.998Z</time></trkpt><trkpt lat="43.49078005412162" lon="11.935213378767326"><ele>604.0</ele><time>2026-04-26T07:54:01.998Z</time></trkpt><trkpt lat="43.490623107837074" lon="11.935261677407526"><ele>604.0</ele><time>2026-04-26T07:54:02.999Z</time></trkpt><trkpt lat="43.490466122050066" lon="11.935299236047166"><ele>604.4</ele><time>2026-04-26T07:54:03.999Z</time></trkpt><trkpt lat="43.49033153256951" lon="11.935301224761519"><ele>604.8</ele><time>2026-04-26T07:54:04.999Z</time></trkpt><trkpt lat="43.49022093106915" lon="11.935348814956697"><ele>605.2</ele><time>2026-04-26T07:54:05.999Z</time></trkpt><trkpt lat="43.49012298612321" lon="11.935381404816702"><ele>605.6</ele><time>2026-04-26T07:54:06.999Z</time></trkpt><trkpt lat="43.49003288238991" lon="11.935423356413514"><ele>606.0</ele><time>2026-04-26T07:54:07.999Z</time></trkpt><trkpt lat="43.48995211559168" lon="11.935458356594932"><ele>606.0</ele><time>2026-04-26T07:54:08.999Z</time></trkpt><trkpt lat="43.489879497548834" lon="11.935441467783342"><ele>606.0</ele><time>2026-04-26T07:54:09.999Z</time></trkpt><trkpt lat="43.48981492295691" lon="11.93544240365223"><ele>606.0</ele><time>2026-04-26T07:54:10.999Z</time></trkpt><trkpt lat="43.48975022295934" lon="11.935380568746092"><ele>606.0</ele><time>2026-04-26T07:54:11.999Z</time></trkpt><trkpt lat="43.48970234397222" lon="11.935243331241756"><ele>606.0</ele><time>2026-04-26T07:54:12.999Z</time></trkpt><trkpt lat="43.48962844343979" lon="11.935108192068768"><ele>605.0</ele><time>2026-04-26T07:54:13.999Z</time></trkpt><trkpt lat="43.48954160317231" lon="11.935033742162485"><ele>604.0</ele><time>2026-04-26T07:54:14.999Z</time></trkpt><trkpt lat="43.48948087227494" lon="11.934961182172339"><ele>603.0</ele><time>2026-04-26T07:54:15.999Z</time></trkpt><trkpt lat="43.48939971437234" lon="11.934929691449229"><ele>602.0</ele><time>2026-04-26T07:54:16.999Z</time></trkpt><trkpt lat="43.48931296416392" lon="11.935011189493398"><ele>601.0</ele><time>2026-04-26T07:54:17.999Z</time></trkpt><trkpt lat="43.489224984890754" lon="11.935065692137842"><ele>603.5</ele><time>2026-04-26T07:54:18.999Z</time></trkpt><trkpt lat="43.48910616480484" lon="11.935097848516905"><ele>606.0</ele><time>2026-04-26T07:54:19.999Z</time></trkpt><trkpt lat="43.48898651148689" lon="11.935126333340095"><ele>608.5</ele><time>2026-04-26T07:54:20.999Z</time></trkpt><trkpt lat="43.48885920119966" lon="11.935124171291891"><ele>611.0</ele><time>2026-04-26T07:54:21.999Z</time></trkpt><trkpt lat="43.488707399130305" lon="11.93510434706803"><ele>611.0</ele><time>2026-04-26T07:54:22.999Z</time></trkpt><trkpt lat="43.48856436966439" lon="11.935058383069203"><ele>611.0</ele><time>2026-04-26T07:54:23.999Z</time></trkpt><trkpt lat="43.48843059389658" lon="11.935025133811788"><ele>611.0</ele><time>2026-04-26T07:54:24.999Z</time></trkpt><trkpt lat="43.488309641221846" lon="11.93496426998574"><ele>611.0</ele><time>2026-04-26T07:54:25.999Z</time></trkpt><trkpt lat="43.48818211728221" lon="11.934897206458858"><ele>610.3333333333333</ele><time>2026-04-26T07:54:26.999Z</time></trkpt><trkpt lat="43.48807160541047" lon="11.93479398793885"><ele>609.6666666666666</ele><time>2026-04-26T07:54:27.999Z</time></trkpt><trkpt lat="43.48794762658752" lon="11.934670919242338"><ele>609.0</ele><time>2026-04-26T07:54:28.999Z</time></trkpt><trkpt lat="43.48780593699131" lon="11.934558940812378"><ele>609.0</ele><time>2026-04-26T07:54:29.999Z</time></trkpt><trkpt lat="43.48767682717942" lon="11.934485086747864"><ele>609.0</ele><time>2026-04-26T07:54:30.999Z</time></trkpt><trkpt lat="43.4875427359006" lon="11.934419708703784"><ele>609.0</ele><time>2026-04-26T07:54:31.999Z</time></trkpt><trkpt lat="43.48740846664895" lon="11.934332510853933"><ele>609.0</ele><time>2026-04-26T07:54:32.999Z</time></trkpt><trkpt lat="43.48724652133597" lon="11.934283081596362"><ele>611.0</ele><time>2026-04-26T07:54:33.999Z</time></trkpt><trkpt lat="43.48708214757454" lon="11.934227146893784"><ele>613.0</ele><time>2026-04-26T07:54:34.999Z</time></trkpt><trkpt lat="43.48690629638008" lon="11.934151992450786"><ele>615.0</ele><time>2026-04-26T07:54:35.999Z</time></trkpt><trkpt lat="43.48671106840598" lon="11.934113632625072"><ele>612.3333333333334</ele><time>2026-04-26T07:54:36.999Z</time></trkpt><trkpt lat="43.48654865360111" lon="11.934060920258123"><ele>609.6666666666667</ele><time>2026-04-26T07:54:37.999Z</time></trkpt><trkpt lat="43.4864196077708" lon="11.93399498998206"><ele>607.0</ele><time>2026-04-26T07:54:38.999Z</time></trkpt><trkpt lat="43.48624209634978" lon="11.933946640661597"><ele>607.0</ele><time>2026-04-26T07:54:39.999Z</time></trkpt><trkpt lat="43.48611953360822" lon="11.93388314052921"><ele>607.0</ele><time>2026-04-26T07:54:40.999Z</time></trkpt><trkpt lat="43.48601377394811" lon="11.933843658822376"><ele>607.0</ele><time>2026-04-26T07:54:41.999Z</time></trkpt><trkpt lat="43.48591350526253" lon="11.93383082674781"><ele>607.0</ele><time>2026-04-26T07:54:42.999Z</time></trkpt><trkpt lat="43.48581496474243" lon="11.933808912351234"><ele>607.0</ele><time>2026-04-26T07:54:43.999Z</time></trkpt><trkpt lat="43.48571883091442" lon="11.93380600976677"><ele>607.0</ele><time>2026-04-26T07:54:44.999Z</time></trkpt><trkpt lat="43.48559625369722" lon="11.933821433959306"><ele>607.0</ele><time>2026-04-26T07:54:45.999Z</time></trkpt><trkpt lat="43.48545022997354" lon="11.933871388630845"><ele>607.0</ele><time>2026-04-26T07:54:46.999Z</time></trkpt><trkpt lat="43.485331912535024" lon="11.933916561811023"><ele>607.0</ele><time>2026-04-26T07:54:47.999Z</time></trkpt><trkpt lat="43.48522959170211" lon="11.93395261595887"><ele>606.75</ele><time>2026-04-26T07:54:48.999Z</time></trkpt><trkpt lat="43.48513911675026" lon="11.933992470570853"><ele>606.5</ele><time>2026-04-26T07:54:49.999Z</time></trkpt><trkpt lat="43.48505878685426" lon="11.934068015894537"><ele>606.25</ele><time>2026-04-26T07:54:50.999Z</time></trkpt><trkpt lat="43.484964627279126" lon="11.934176735482508"><ele>606.0</ele><time>2026-04-26T07:54:51.999Z</time></trkpt><trkpt lat="43.484864297113276" lon="11.934320379082765"><ele>606.0</ele><time>2026-04-26T07:54:52.999Z</time></trkpt><trkpt lat="43.484753587727134" lon="11.934489395755058"><ele>606.0</ele><time>2026-04-26T07:54:53.999Z</time></trkpt><trkpt lat="43.484663256620095" lon="11.934623041114206"><ele>606.0</ele><time>2026-04-26T07:54:54.999Z</time></trkpt><trkpt lat="43.48457975198768" lon="11.934739206544224"><ele>606.0</ele><time>2026-04-26T07:54:55.999Z</time></trkpt><trkpt lat="43.48450455407697" lon="11.934831605664057"><ele>606.0</ele><time>2026-04-26T07:54:56.999Z</time></trkpt><trkpt lat="43.48442354366264" lon="11.934902924063156"><ele>606.0</ele><time>2026-04-26T07:54:57.999Z</time></trkpt><trkpt lat="43.48437406571024" lon="11.93499652513256"><ele>606.0</ele><time>2026-04-26T07:54:58.999Z</time></trkpt><trkpt lat="43.48431044518964" lon="11.935062464580225"><ele>606.0</ele><time>2026-04-26T07:54:59.999Z</time></trkpt><trkpt lat="43.48425988319239" lon="11.935132003738833"><ele>606.0</ele><time>2026-04-26T07:55:00.999Z</time></trkpt><trkpt lat="43.48424746442282" lon="11.935333814490999"><ele>607.75</ele><time>2026-04-26T07:55:02.999Z</time></trkpt><trkpt lat="43.48428782199637" lon="11.935455563427109"><ele>609.5</ele><time>2026-04-26T07:55:03.999Z</time></trkpt><trkpt lat="43.48435195977733" lon="11.935570233925006"><ele>611.25</ele><time>2026-04-26T07:55:04.999Z</time></trkpt><trkpt lat="43.48445378715432" lon="11.935698484964933"><ele>613.0</ele><time>2026-04-26T07:55:05.999Z</time></trkpt><trkpt lat="43.48458753289806" lon="11.935835405075224"><ele>609.5</ele><time>2026-04-26T07:55:06.999Z</time></trkpt><trkpt lat="43.48469796801798" lon="11.93594173107574"><ele>606.0</ele><time>2026-04-26T07:55:07.999Z</time></trkpt><trkpt lat="43.48479263151708" lon="11.936037094427348"><ele>602.5</ele><time>2026-04-26T07:55:08.999Z</time></trkpt><trkpt lat="43.48488061312954" lon="11.936122133773585"><ele>599.0</ele><time>2026-04-26T07:55:09.999Z</time></trkpt><trkpt lat="43.48493886078969" lon="11.936248631527862"><ele>599.0</ele><time>2026-04-26T07:55:10.999Z</time></trkpt><trkpt lat="43.48501316865143" lon="11.93635317566332"><ele>599.0</ele><time>2026-04-26T07:55:11.999Z</time></trkpt><trkpt lat="43.485052459079355" lon="11.936455134366943"><ele>599.0</ele><time>2026-04-26T07:55:12.999Z</time></trkpt><trkpt lat="43.48505705359459" lon="11.936556318994802"><ele>599.0</ele><time>2026-04-26T07:55:13.999Z</time></trkpt><trkpt lat="43.48506586241381" lon="11.936645219528819"><ele>599.0</ele><time>2026-04-26T07:55:14.999Z</time></trkpt><trkpt lat="43.48503623989158" lon="11.936728151438322"><ele>599.0</ele><time>2026-04-26T07:55:15.999Z</time></trkpt><trkpt lat="43.48497606580577" lon="11.93678599746286"><ele>597.75</ele><time>2026-04-26T07:55:16.999Z</time></trkpt><trkpt lat="43.48488043992519" lon="11.936829666680433"><ele>596.5</ele><time>2026-04-26T07:55:17.999Z</time></trkpt><trkpt lat="43.48479237227536" lon="11.936958780884543"><ele>595.25</ele><time>2026-04-26T07:55:18.999Z</time></trkpt><trkpt lat="43.484685719296785" lon="11.937093063673963"><ele>594.0</ele><time>2026-04-26T07:55:19.999Z</time></trkpt><trkpt lat="43.484592755254226" lon="11.937220859687548"><ele>598.0</ele><time>2026-04-26T07:55:20.999Z</time></trkpt><trkpt lat="43.48451803489595" lon="11.937347807472447"><ele>602.0</ele><time>2026-04-26T07:55:21.999Z</time></trkpt><trkpt lat="43.484447502304654" lon="11.937488866479983"><ele>606.0</ele><time>2026-04-26T07:55:22.999Z</time></trkpt><trkpt lat="43.48440098690769" lon="11.937631598187018"><ele>610.0</ele><time>2026-04-26T07:55:23.999Z</time></trkpt><trkpt lat="43.48434969684706" lon="11.93776051453619"><ele>610.0</ele><time>2026-04-26T07:55:24.999Z</time></trkpt><trkpt lat="43.48431552965976" lon="11.937912600812284"><ele>610.0</ele><time>2026-04-26T07:55:25.999Z</time></trkpt><trkpt lat="43.48427969559956" lon="11.938075863884448"><ele>610.0</ele><time>2026-04-26T07:55:26.999Z</time></trkpt><trkpt lat="43.48424322388406" lon="11.938225883117154"><ele>610.0</ele><time>2026-04-26T07:55:27.999Z</time></trkpt><trkpt lat="43.48420784125174" lon="11.9383465293846"><ele>610.0</ele><time>2026-04-26T07:55:28.999Z</time></trkpt><trkpt lat="43.48416341545303" lon="11.93844684856567"><ele>610.5</ele><time>2026-04-26T07:55:29.999Z</time></trkpt><trkpt lat="43.48412249067048" lon="11.938542775915074"><ele>611.0</ele><time>2026-04-26T07:55:30.999Z</time></trkpt><trkpt lat="43.484101366289046" lon="11.93863084569281"><ele>611.5</ele><time>2026-04-26T07:55:31.999Z</time></trkpt><trkpt lat="43.48407157731837" lon="11.938785032947264"><ele>612.0</ele><time>2026-04-26T07:55:33.999Z</time></trkpt><trkpt lat="43.48409476797573" lon="11.938877837554818"><ele>612.5</ele><time>2026-04-26T07:55:34.999Z</time></trkpt><trkpt lat="43.48418037783332" lon="11.938935647783563"><ele>613.0</ele><time>2026-04-26T07:55:35.999Z</time></trkpt><trkpt lat="43.484267263105124" lon="11.938934892713293"><ele>613.0</ele><time>2026-04-26T07:55:36.999Z</time></trkpt><trkpt lat="43.48433814535168" lon="11.938902894730584"><ele>613.0</ele><time>2026-04-26T07:55:37.999Z</time></trkpt><trkpt lat="43.48441213701421" lon="11.938835025308396"><ele>613.0</ele><time>2026-04-26T07:55:38.999Z</time></trkpt><trkpt lat="43.48447559523016" lon="11.938736589976598"><ele>613.0</ele><time>2026-04-26T07:55:39.999Z</time></trkpt><trkpt lat="43.48457010436023" lon="11.938623209154958"><ele>613.0</ele><time>2026-04-26T07:55:40.999Z</time></trkpt><trkpt lat="43.48470412525248" lon="11.9385363182035"><ele>614.25</ele><time>2026-04-26T07:55:41.999Z</time></trkpt><trkpt lat="43.4848227076328" lon="11.938399574368264"><ele>615.5</ele><time>2026-04-26T07:55:42.999Z</time></trkpt><trkpt lat="43.484929909332315" lon="11.938315800005421"><ele>616.75</ele><time>2026-04-26T07:55:43.999Z</time></trkpt><trkpt lat="43.48501912395539" lon="11.938248931609222"><ele>618.0</ele><time>2026-04-26T07:55:44.999Z</time></trkpt><trkpt lat="43.48511247112262" lon="11.938184848605882"><ele>616.1999999999999</ele><time>2026-04-26T07:55:45.999Z</time></trkpt><trkpt lat="43.4852082418797" lon="11.93817103505928"><ele>614.4</ele><time>2026-04-26T07:55:46.999Z</time></trkpt><trkpt lat="43.48528262767575" lon="11.938141491242975"><ele>612.5999999999999</ele><time>2026-04-26T07:55:47.999Z</time></trkpt><trkpt lat="43.485401039206884" lon="11.938121643908932"><ele>610.8</ele><time>2026-04-26T07:55:49.999Z</time></trkpt><trkpt lat="43.48548642901" lon="11.938249521264478"><ele>609.0</ele><time>2026-04-26T07:55:51.999Z</time></trkpt><trkpt lat="43.485519618037586" lon="11.938342232144445"><ele>612.0</ele><time>2026-04-26T07:55:52.999Z</time></trkpt><trkpt lat="43.48557427561937" lon="11.93842758495419"><ele>615.0</ele><time>2026-04-26T07:55:53.999Z</time></trkpt><trkpt lat="43.48564572432696" lon="11.938472623099479"><ele>618.0</ele><time>2026-04-26T07:55:54.999Z</time></trkpt><trkpt lat="43.48573720186514" lon="11.938464813255255"><ele>621.0</ele><time>2026-04-26T07:55:55.999Z</time></trkpt><trkpt lat="43.48581811587982" lon="11.938468146298414"><ele>624.0</ele><time>2026-04-26T07:55:56.999Z</time></trkpt><trkpt lat="43.48590554919851" lon="11.93848515442235"><ele>627.0</ele><time>2026-04-26T07:55:57.999Z</time></trkpt><trkpt lat="43.48599198571646" lon="11.9385171950921"><ele>627.0</ele><time>2026-04-26T07:55:58.999Z</time></trkpt><trkpt lat="43.486061510415" lon="11.938595565044723"><ele>627.0</ele><time>2026-04-26T07:55:59.999Z</time></trkpt><trkpt lat="43.486138831196165" lon="11.93865210729409"><ele>627.0</ele><time>2026-04-26T07:56:00.999Z</time></trkpt><trkpt lat="43.486217345903576" lon="11.938753245681728"><ele>627.0</ele><time>2026-04-26T07:56:01.999Z</time></trkpt><trkpt lat="43.48629053386618" lon="11.938861600420186"><ele>627.0</ele><time>2026-04-26T07:56:02.999Z</time></trkpt><trkpt lat="43.48634955955331" lon="11.938977201852701"><ele>628.6</ele><time>2026-04-26T07:56:03.999Z</time></trkpt><trkpt lat="43.4864037106413" lon="11.939135643790465"><ele>630.2</ele><time>2026-04-26T07:56:04.999Z</time></trkpt><trkpt lat="43.486488642462405" lon="11.93927443459509"><ele>631.8</ele><time>2026-04-26T07:56:05.998Z</time></trkpt><trkpt lat="43.48654194501952" lon="11.939387445095534"><ele>633.4</ele><time>2026-04-26T07:56:06.998Z</time></trkpt><trkpt lat="43.486594002338045" lon="11.939474118642789"><ele>635.0</ele><time>2026-04-26T07:56:07.998Z</time></trkpt><trkpt lat="43.48661959884914" lon="11.93957298893628"><ele>635.0</ele><time>2026-04-26T07:56:09Z</time></trkpt><trkpt lat="43.486657742077455" lon="11.93966645731071"><ele>635.0</ele><time>2026-04-26T07:56:10Z</time></trkpt><trkpt lat="43.48666189855599" lon="11.939786539953781"><ele>635.0</ele><time>2026-04-26T07:56:11Z</time></trkpt><trkpt lat="43.48666847292285" lon="11.939887608025899"><ele>635.0</ele><time>2026-04-26T07:56:12Z</time></trkpt><trkpt lat="43.48667794235043" lon="11.939977898677189"><ele>635.0</ele><time>2026-04-26T07:56:13Z</time></trkpt><trkpt lat="43.4867232908628" lon="11.940039146303448"><ele>635.0</ele><time>2026-04-26T07:56:14Z</time></trkpt><trkpt lat="43.48681193984517" lon="11.94007061850678"><ele>636.0</ele><time>2026-04-26T07:56:15Z</time></trkpt><trkpt lat="43.48692021683945" lon="11.940052390885178"><ele>637.0</ele><time>2026-04-26T07:56:16Z</time></trkpt><trkpt lat="43.48701696243931" lon="11.94009708384006"><ele>638.0</ele><time>2026-04-26T07:56:17Z</time></trkpt><trkpt lat="43.48711990173826" lon="11.940171949268954"><ele>639.0</ele><time>2026-04-26T07:56:18Z</time></trkpt><trkpt lat="43.48718427098884" lon="11.940236178672436"><ele>640.0</ele><time>2026-04-26T07:56:19Z</time></trkpt><trkpt lat="43.48726402699839" lon="11.940318736102693"><ele>640.0</ele><time>2026-04-26T07:56:20Z</time></trkpt><trkpt lat="43.48735095184706" lon="11.940408714256613"><ele>640.0</ele><time>2026-04-26T07:56:21Z</time></trkpt><trkpt lat="43.48744436745688" lon="11.940482682280741"><ele>640.0</ele><time>2026-04-26T07:56:22Z</time></trkpt><trkpt lat="43.48752287600753" lon="11.94057891897494"><ele>640.0</ele><time>2026-04-26T07:56:23Z</time></trkpt><trkpt lat="43.48758447898249" lon="11.940669673171488"><ele>640.0</ele><time>2026-04-26T07:56:24Z</time></trkpt><trkpt lat="43.487629733785944" lon="11.940769239654516"><ele>641.0</ele><time>2026-04-26T07:56:25Z</time></trkpt><trkpt lat="43.48766170019696" lon="11.940882869822655"><ele>642.0</ele><time>2026-04-26T07:56:26Z</time></trkpt><trkpt lat="43.48767339970522" lon="11.941002340174649"><ele>643.0</ele><time>2026-04-26T07:56:27Z</time></trkpt><trkpt lat="43.48763568468448" lon="11.941113031809016"><ele>644.0</ele><time>2026-04-26T07:56:28Z</time></trkpt><trkpt lat="43.487594104797935" lon="11.941224527670242"><ele>645.0</ele><time>2026-04-26T07:56:29Z</time></trkpt><trkpt lat="43.48754630107808" lon="11.941337280224289"><ele>645.0</ele><time>2026-04-26T07:56:30Z</time></trkpt><trkpt lat="43.487505502588235" lon="11.94149163845326"><ele>645.0</ele><time>2026-04-26T07:56:31Z</time></trkpt><trkpt lat="43.48747208165878" lon="11.941671044422876"><ele>645.0</ele><time>2026-04-26T07:56:32Z</time></trkpt><trkpt lat="43.48743919035868" lon="11.94185428573103"><ele>645.0</ele><time>2026-04-26T07:56:33Z</time></trkpt><trkpt lat="43.48740455118178" lon="11.94205080755091"><ele>645.1666666666666</ele><time>2026-04-26T07:56:34Z</time></trkpt><trkpt lat="43.48737492181503" lon="11.942214131330184"><ele>645.3333333333334</ele><time>2026-04-26T07:56:35Z</time></trkpt><trkpt lat="43.487345919649194" lon="11.942330692811755"><ele>645.5</ele><time>2026-04-26T07:56:36Z</time></trkpt><trkpt lat="43.48731448446948" lon="11.942417438900371"><ele>645.6666666666667</ele><time>2026-04-26T07:56:36.999Z</time></trkpt><trkpt lat="43.487275722177316" lon="11.94249090543331"><ele>645.8333333333334</ele><time>2026-04-26T07:56:37.999Z</time></trkpt><trkpt lat="43.48722521549576" lon="11.942545382544447"><ele>646.0</ele><time>2026-04-26T07:56:38.999Z</time></trkpt><trkpt lat="43.4871507316184" lon="11.942528069446675"><ele>649.1666666666667</ele><time>2026-04-26T07:56:39.999Z</time></trkpt><trkpt lat="43.48707727698133" lon="11.94253505019884"><ele>652.3333333333334</ele><time>2026-04-26T07:56:40.999Z</time></trkpt><trkpt lat="43.486994928599636" lon="11.942558984854966"><ele>655.5</ele><time>2026-04-26T07:56:41.999Z</time></trkpt><trkpt lat="43.48691256364577" lon="11.942569357202963"><ele>658.6666666666666</ele><time>2026-04-26T07:56:42.999Z</time></trkpt><trkpt lat="43.48681572548579" lon="11.942656197995573"><ele>661.8333333333333</ele><time>2026-04-26T07:56:44.999Z</time></trkpt><trkpt lat="43.48681052421438" lon="11.94276560828611"><ele>665.0</ele><time>2026-04-26T07:56:45.999Z</time></trkpt><trkpt lat="43.486860492108896" lon="11.942869458486877"><ele>665.1666666666666</ele><time>2026-04-26T07:56:46.999Z</time></trkpt><trkpt lat="43.48690716900719" lon="11.942956420270033"><ele>665.3333333333333</ele><time>2026-04-26T07:56:47.999Z</time></trkpt><trkpt lat="43.48694733746422" lon="11.943048516340605"><ele>665.5</ele><time>2026-04-26T07:56:48.999Z</time></trkpt><trkpt lat="43.48703455830085" lon="11.943113973371341"><ele>665.6666666666666</ele><time>2026-04-26T07:56:49.999Z</time></trkpt><trkpt lat="43.48711325593472" lon="11.943193300888092"><ele>665.8333333333334</ele><time>2026-04-26T07:56:50.999Z</time></trkpt><trkpt lat="43.48718126425659" lon="11.943277542989685"><ele>666.0</ele><time>2026-04-26T07:56:51.999Z</time></trkpt><trkpt lat="43.48720346494802" lon="11.943382958593508"><ele>666.0</ele><time>2026-04-26T07:56:52.999Z</time></trkpt><trkpt lat="43.48723766350438" lon="11.94347297764295"><ele>666.0</ele><time>2026-04-26T07:56:53.999Z</time></trkpt><trkpt lat="43.48720732878959" lon="11.943575502390358"><ele>666.0</ele><time>2026-04-26T07:56:54.999Z</time></trkpt><trkpt lat="43.48719193653053" lon="11.943703972023439"><ele>666.0</ele><time>2026-04-26T07:56:55.999Z</time></trkpt><trkpt lat="43.487179004159216" lon="11.943821766193006"><ele>666.0</ele><time>2026-04-26T07:56:56.999Z</time></trkpt><trkpt lat="43.487212024688205" lon="11.94394534995466"><ele>666.0</ele><time>2026-04-26T07:56:57.999Z</time></trkpt><trkpt lat="43.48724609384591" lon="11.944043659608354"><ele>666.0</ele><time>2026-04-26T07:56:58.999Z</time></trkpt><trkpt lat="43.48730122951599" lon="11.944160707560949"><ele>666.0</ele><time>2026-04-26T07:56:59.999Z</time></trkpt><trkpt lat="43.48735367779333" lon="11.944278256357729"><ele>666.0</ele><time>2026-04-26T07:57:00.999Z</time></trkpt><trkpt lat="43.48741269865664" lon="11.944415949135815"><ele>666.0</ele><time>2026-04-26T07:57:01.999Z</time></trkpt><trkpt lat="43.48744105995986" lon="11.944572743524619"><ele>666.0</ele><time>2026-04-26T07:57:02.999Z</time></trkpt><trkpt lat="43.487464300743405" lon="11.944727361783531"><ele>668.8</ele><time>2026-04-26T07:57:03.999Z</time></trkpt><trkpt lat="43.48747621016638" lon="11.944893397651873"><ele>671.5999999999999</ele><time>2026-04-26T07:57:04.999Z</time></trkpt><trkpt lat="43.48748902087656" lon="11.945039857572116"><ele>674.4</ele><time>2026-04-26T07:57:05.999Z</time></trkpt><trkpt lat="43.48750921422" lon="11.945129255323208"><ele>677.2</ele><time>2026-04-26T07:57:06.999Z</time></trkpt><trkpt lat="43.48760536319361" lon="11.945220028154258"><ele>680.0</ele><time>2026-04-26T07:57:08.999Z</time></trkpt><trkpt lat="43.48768397489276" lon="11.945223437508675"><ele>680.0</ele><time>2026-04-26T07:57:09.999Z</time></trkpt><trkpt lat="43.48775199368267" lon="11.94510733980194"><ele>680.0</ele><time>2026-04-26T07:57:10.999Z</time></trkpt><trkpt lat="43.487823857256195" lon="11.945071111025861"><ele>680.0</ele><time>2026-04-26T07:57:11.999Z</time></trkpt><trkpt lat="43.48788892476841" lon="11.945026192418744"><ele>680.0</ele><time>2026-04-26T07:57:12.999Z</time></trkpt><trkpt lat="43.48801147096526" lon="11.945014570378332"><ele>680.0</ele><time>2026-04-26T07:57:14.999Z</time></trkpt><trkpt lat="43.4880575985981" lon="11.945083677361936"><ele>680.0</ele><time>2026-04-26T07:57:15.999Z</time></trkpt><trkpt lat="43.48811670213676" lon="11.945129254120207"><ele>682.75</ele><time>2026-04-26T07:57:16.999Z</time></trkpt><trkpt lat="43.48820383012012" lon="11.945183367500478"><ele>685.5</ele><time>2026-04-26T07:57:17.999Z</time></trkpt><trkpt lat="43.48830638242739" lon="11.945275263992"><ele>688.25</ele><time>2026-04-26T07:57:18.999Z</time></trkpt><trkpt lat="43.48841612997546" lon="11.945357179351996"><ele>691.0</ele><time>2026-04-26T07:57:19.999Z</time></trkpt><trkpt lat="43.48854579072144" lon="11.945443218859147"><ele>691.0</ele><time>2026-04-26T07:57:20.999Z</time></trkpt><trkpt lat="43.488685459487606" lon="11.945537595843865"><ele>691.0</ele><time>2026-04-26T07:57:21.999Z</time></trkpt><trkpt lat="43.4888250451811" lon="11.9456441402281"><ele>691.0</ele><time>2026-04-26T07:57:22.999Z</time></trkpt><trkpt lat="43.48895283994997" lon="11.9457553291798"><ele>691.0</ele><time>2026-04-26T07:57:23.999Z</time></trkpt><trkpt lat="43.48905510459756" lon="11.945855413751907"><ele>691.0</ele><time>2026-04-26T07:57:24.999Z</time></trkpt><trkpt lat="43.48913532563622" lon="11.945935822189231"><ele>691.0</ele><time>2026-04-26T07:57:25.999Z</time></trkpt><trkpt lat="43.489180024208814" lon="11.946026343145281"><ele>691.0</ele><time>2026-04-26T07:57:26.999Z</time></trkpt><trkpt lat="43.489249028836845" lon="11.946155337970605"><ele>691.0</ele><time>2026-04-26T07:57:28.999Z</time></trkpt><trkpt lat="43.48919074686904" lon="11.946299804361345"><ele>691.0</ele><time>2026-04-26T07:57:30.999Z</time></trkpt><trkpt lat="43.48912572644905" lon="11.946364740500877"><ele>691.0</ele><time>2026-04-26T07:57:31.999Z</time></trkpt><trkpt lat="43.48904287386119" lon="11.946356278777372"><ele>691.0</ele><time>2026-04-26T07:57:32.999Z</time></trkpt><trkpt lat="43.488965091404786" lon="11.946366743026333"><ele>691.0</ele><time>2026-04-26T07:57:33.999Z</time></trkpt><trkpt lat="43.48888613531656" lon="11.946382126332322"><ele>691.0</ele><time>2026-04-26T07:57:34.999Z</time></trkpt><trkpt lat="43.48879781358328" lon="11.946420729801126"><ele>691.0</ele><time>2026-04-26T07:57:35.999Z</time></trkpt><trkpt lat="43.48868407538481" lon="11.946430884141558"><ele>693.25</ele><time>2026-04-26T07:57:36.999Z</time></trkpt><trkpt lat="43.48856608145193" lon="11.946441214159403"><ele>695.5</ele><time>2026-04-26T07:57:37.999Z</time></trkpt><trkpt lat="43.488452312369496" lon="11.946451881119152"><ele>697.75</ele><time>2026-04-26T07:57:38.999Z</time></trkpt><trkpt lat="43.48833625988539" lon="11.946480334036217"><ele>700.0</ele><time>2026-04-26T07:57:39.999Z</time></trkpt><trkpt lat="43.488189477571225" lon="11.946515027995206"><ele>700.0</ele><time>2026-04-26T07:57:40.999Z</time></trkpt><trkpt lat="43.48803161001102" lon="11.94654203713317"><ele>700.0</ele><time>2026-04-26T07:57:41.999Z</time></trkpt><trkpt lat="43.487881440519345" lon="11.946565237012742"><ele>700.0</ele><time>2026-04-26T07:57:42.999Z</time></trkpt><trkpt lat="43.48775342371867" lon="11.946586525699722"><ele>700.0</ele><time>2026-04-26T07:57:43.999Z</time></trkpt><trkpt lat="43.487644176030024" lon="11.94660024908346"><ele>700.8333333333334</ele><time>2026-04-26T07:57:44.999Z</time></trkpt><trkpt lat="43.487557016394184" lon="11.94659783668747"><ele>701.6666666666667</ele><time>2026-04-26T07:57:45.999Z</time></trkpt><trkpt lat="43.48747931735297" lon="11.946603124425053"><ele>702.5</ele><time>2026-04-26T07:57:46.999Z</time></trkpt><trkpt lat="43.4874027268976" lon="11.946626610175064"><ele>703.3333333333334</ele><time>2026-04-26T07:57:47.999Z</time></trkpt><trkpt lat="43.487335667767866" lon="11.946666734678848"><ele>704.1666666666666</ele><time>2026-04-26T07:57:48.999Z</time></trkpt><trkpt lat="43.48728220926885" lon="11.946722611570983"><ele>705.0</ele><time>2026-04-26T07:57:49.999Z</time></trkpt><trkpt lat="43.487240249827146" lon="11.946804931453523"><ele>705.6</ele><time>2026-04-26T07:57:50.999Z</time></trkpt><trkpt lat="43.4872103958815" lon="11.946905952327876"><ele>706.2</ele><time>2026-04-26T07:57:51.999Z</time></trkpt><trkpt lat="43.48719901340943" lon="11.947034927037762"><ele>706.8</ele><time>2026-04-26T07:57:52.999Z</time></trkpt><trkpt lat="43.48720615200105" lon="11.947182183954009"><ele>707.4</ele><time>2026-04-26T07:57:53.999Z</time></trkpt><trkpt lat="43.48721202595206" lon="11.94737346519744"><ele>708.0</ele><time>2026-04-26T07:57:54.999Z</time></trkpt><trkpt lat="43.487219812176704" lon="11.947557809471762"><ele>708.0</ele><time>2026-04-26T07:57:55.999Z</time></trkpt><trkpt lat="43.48722438089696" lon="11.947707351572632"><ele>708.0</ele><time>2026-04-26T07:57:56.999Z</time></trkpt><trkpt lat="43.48721743467194" lon="11.947857668375711"><ele>708.0</ele><time>2026-04-26T07:57:57.999Z</time></trkpt><trkpt lat="43.48717615518983" lon="11.948033180749416"><ele>708.0</ele><time>2026-04-26T07:57:58.999Z</time></trkpt><trkpt lat="43.48712855243649" lon="11.948222343149888"><ele>712.6666666666666</ele><time>2026-04-26T07:57:59.999Z</time></trkpt><trkpt lat="43.48708030893249" lon="11.948458670233517"><ele>717.3333333333333</ele><time>2026-04-26T07:58:00.999Z</time></trkpt><trkpt lat="43.48699749545483" lon="11.948695710726954"><ele>722.0</ele><time>2026-04-26T07:58:01.999Z</time></trkpt><trkpt lat="43.486948734977105" lon="11.94891082866124"><ele>722.0</ele><time>2026-04-26T07:58:02.999Z</time></trkpt><trkpt lat="43.48690892451342" lon="11.949090772992946"><ele>722.0</ele><time>2026-04-26T07:58:03.999Z</time></trkpt><trkpt lat="43.48685517988402" lon="11.94922128797971"><ele>722.0</ele><time>2026-04-26T07:58:04.999Z</time></trkpt><trkpt lat="43.48681258825445" lon="11.949327939174845"><ele>722.0</ele><time>2026-04-26T07:58:05.999Z</time></trkpt><trkpt lat="43.4867655029072" lon="11.949417902008248"><ele>722.0</ele><time>2026-04-26T07:58:06.999Z</time></trkpt><trkpt lat="43.48672648481862" lon="11.94949561878595"><ele>723.5</ele><time>2026-04-26T07:58:07.999Z</time></trkpt><trkpt lat="43.48666257776665" lon="11.949534209557875"><ele>725.0</ele><time>2026-04-26T07:58:08.999Z</time></trkpt><trkpt lat="43.486590881526794" lon="11.94953847872157"><ele>726.5</ele><time>2026-04-26T07:58:09.999Z</time></trkpt><trkpt lat="43.48651421340807" lon="11.949497456021021"><ele>728.0</ele><time>2026-04-26T07:58:10.999Z</time></trkpt><trkpt lat="43.48642891077095" lon="11.94947888004774"><ele>729.5</ele><time>2026-04-26T07:58:11.999Z</time></trkpt><trkpt lat="43.48634766510742" lon="11.949461157787715"><ele>731.0</ele><time>2026-04-26T07:58:12.999Z</time></trkpt><trkpt lat="43.486279610728296" lon="11.949444636671384"><ele>732.8</ele><time>2026-04-26T07:58:13.999Z</time></trkpt><trkpt lat="43.48619326441486" lon="11.949423674869823"><ele>734.5999999999999</ele><time>2026-04-26T07:58:14.999Z</time></trkpt><trkpt lat="43.486093630829494" lon="11.949421195330707"><ele>736.4</ele><time>2026-04-26T07:58:15.999Z</time></trkpt><trkpt lat="43.48599677520082" lon="11.94937118025442"><ele>738.2</ele><time>2026-04-26T07:58:16.999Z</time></trkpt><trkpt lat="43.48588895557783" lon="11.949367913671603"><ele>740.0</ele><time>2026-04-26T07:58:17.999Z</time></trkpt><trkpt lat="43.485776117099014" lon="11.949375734131651"><ele>740.0</ele><time>2026-04-26T07:58:18.999Z</time></trkpt><trkpt lat="43.485662060626325" lon="11.949389419572066"><ele>740.0</ele><time>2026-04-26T07:58:19.999Z</time></trkpt><trkpt lat="43.48552724512081" lon="11.949413875344174"><ele>740.0</ele><time>2026-04-26T07:58:20.999Z</time></trkpt><trkpt lat="43.485392124461576" lon="11.949444824048982"><ele>740.0</ele><time>2026-04-26T07:58:21.999Z</time></trkpt><trkpt lat="43.4852635629505" lon="11.94947869130582"><ele>742.0</ele><time>2026-04-26T07:58:22.999Z</time></trkpt><trkpt lat="43.48512103820215" lon="11.949509744085244"><ele>744.0</ele><time>2026-04-26T07:58:23.999Z</time></trkpt><trkpt lat="43.48498834347855" lon="11.9495381876354"><ele>746.0</ele><time>2026-04-26T07:58:24.999Z</time></trkpt><trkpt lat="43.48488292674483" lon="11.949561042823508"><ele>748.0</ele><time>2026-04-26T07:58:25.999Z</time></trkpt><trkpt lat="43.48477360163736" lon="11.949576915606514"><ele>748.0</ele><time>2026-04-26T07:58:26.999Z</time></trkpt><trkpt lat="43.484659810872294" lon="11.949574606024475"><ele>748.0</ele><time>2026-04-26T07:58:27.999Z</time></trkpt><trkpt lat="43.48453782776349" lon="11.94955545222421"><ele>748.0</ele><time>2026-04-26T07:58:28.999Z</time></trkpt><trkpt lat="43.48440099578561" lon="11.949527212945513"><ele>748.0</ele><time>2026-04-26T07:58:29.999Z</time></trkpt><trkpt lat="43.484259112180254" lon="11.949498641023805"><ele>750.25</ele><time>2026-04-26T07:58:30.999Z</time></trkpt><trkpt lat="43.48411827055016" lon="11.949467624853488"><ele>752.5</ele><time>2026-04-26T07:58:31.999Z</time></trkpt><trkpt lat="43.48397338400776" lon="11.949433813403587"><ele>754.75</ele><time>2026-04-26T07:58:32.999Z</time></trkpt><trkpt lat="43.48383490745843" lon="11.949397255791377"><ele>757.0</ele><time>2026-04-26T07:58:33.999Z</time></trkpt><trkpt lat="43.483724745373245" lon="11.949371683325891"><ele>759.0</ele><time>2026-04-26T07:58:34.999Z</time></trkpt><trkpt lat="43.48362321291954" lon="11.949357334404686"><ele>761.0</ele><time>2026-04-26T07:58:35.999Z</time></trkpt><trkpt lat="43.48352847606385" lon="11.949347701332709"><ele>763.0</ele><time>2026-04-26T07:58:36.999Z</time></trkpt><trkpt lat="43.483447890569366" lon="11.949353020921658"><ele>765.0</ele><time>2026-04-26T07:58:37.999Z</time></trkpt><trkpt lat="43.48336846784358" lon="11.949374617871495"><ele>767.0</ele><time>2026-04-26T07:58:38.999Z</time></trkpt><trkpt lat="43.483269914185755" lon="11.949420297999717"><ele>767.0</ele><time>2026-04-26T07:58:39.999Z</time></trkpt><trkpt lat="43.4831727281018" lon="11.949477331489518"><ele>767.0</ele><time>2026-04-26T07:58:40.999Z</time></trkpt><trkpt lat="43.48307253454654" lon="11.949558950694307"><ele>767.0</ele><time>2026-04-26T07:58:41.999Z</time></trkpt><trkpt lat="43.48296988728718" lon="11.949646693714518"><ele>767.0</ele><time>2026-04-26T07:58:42.999Z</time></trkpt><trkpt lat="43.48288154792043" lon="11.949744296146815"><ele>767.25</ele><time>2026-04-26T07:58:43.999Z</time></trkpt><trkpt lat="43.4827909168134" lon="11.949872401865326"><ele>767.5</ele><time>2026-04-26T07:58:44.999Z</time></trkpt><trkpt lat="43.48269570700152" lon="11.950041381446534"><ele>767.75</ele><time>2026-04-26T07:58:45.999Z</time></trkpt><trkpt lat="43.48261625123584" lon="11.950214597138679"><ele>768.0</ele><time>2026-04-26T07:58:46.999Z</time></trkpt><trkpt lat="43.482560648717005" lon="11.95038164056336"><ele>768.0</ele><time>2026-04-26T07:58:47.999Z</time></trkpt><trkpt lat="43.48251910085192" lon="11.950551065659003"><ele>768.0</ele><time>2026-04-26T07:58:48.999Z</time></trkpt><trkpt lat="43.48248801551126" lon="11.95073343493466"><ele>768.0</ele><time>2026-04-26T07:58:49.999Z</time></trkpt><trkpt lat="43.48247646067128" lon="11.950928655219338"><ele>768.0</ele><time>2026-04-26T07:58:50.999Z</time></trkpt><trkpt lat="43.482479665044586" lon="11.9511248485949"><ele>769.0</ele><time>2026-04-26T07:58:51.999Z</time></trkpt><trkpt lat="43.48249674560099" lon="11.951312542236304"><ele>770.0</ele><time>2026-04-26T07:58:52.999Z</time></trkpt><trkpt lat="43.482522486311545" lon="11.951468680555363"><ele>771.0</ele><time>2026-04-26T07:58:53.999Z</time></trkpt><trkpt lat="43.48254542397583" lon="11.951592202364896"><ele>772.0</ele><time>2026-04-26T07:58:54.999Z</time></trkpt><trkpt lat="43.48255902896921" lon="11.951719705503844"><ele>773.0</ele><time>2026-04-26T07:58:55.999Z</time></trkpt><trkpt lat="43.48255660440962" lon="11.951823898709529"><ele>775.2</ele><time>2026-04-26T07:58:56.999Z</time></trkpt><trkpt lat="43.48253458800215" lon="11.951929475712888"><ele>777.4</ele><time>2026-04-26T07:58:57.999Z</time></trkpt><trkpt lat="43.482484244405214" lon="11.952031502256391"><ele>779.6</ele><time>2026-04-26T07:58:58.999Z</time></trkpt><trkpt lat="43.48240094422909" lon="11.952116762994581"><ele>781.8000000000001</ele><time>2026-04-26T07:58:59.999Z</time></trkpt><trkpt lat="43.48230209300544" lon="11.952172223454946"><ele>784.0</ele><time>2026-04-26T07:59:00.999Z</time></trkpt><trkpt lat="43.48217129503843" lon="11.952239513326766"><ele>783.0</ele><time>2026-04-26T07:59:01.999Z</time></trkpt><trkpt lat="43.48202470086417" lon="11.95233467529534"><ele>782.0</ele><time>2026-04-26T07:59:02.999Z</time></trkpt><trkpt lat="43.48190715854089" lon="11.952429532039334"><ele>781.0</ele><time>2026-04-26T07:59:03.999Z</time></trkpt><trkpt lat="43.48181096420845" lon="11.952507996575152"><ele>780.0</ele><time>2026-04-26T07:59:04.999Z</time></trkpt><trkpt lat="43.48172793382646" lon="11.952580010672769"><ele>780.0</ele><time>2026-04-26T07:59:05.999Z</time></trkpt><trkpt lat="43.48164896051154" lon="11.952649849407631"><ele>780.0</ele><time>2026-04-26T07:59:06.999Z</time></trkpt><trkpt lat="43.48157960986962" lon="11.95273525336285"><ele>780.0</ele><time>2026-04-26T07:59:07.999Z</time></trkpt><trkpt lat="43.481520929766766" lon="11.952846713420492"><ele>780.0</ele><time>2026-04-26T07:59:08.999Z</time></trkpt><trkpt lat="43.481480617587216" lon="11.95297104322276"><ele>780.0</ele><time>2026-04-26T07:59:09.999Z</time></trkpt><trkpt lat="43.48146027564322" lon="11.953115609533365"><ele>780.0</ele><time>2026-04-26T07:59:10.999Z</time></trkpt><trkpt lat="43.48145606748275" lon="11.953266701170135"><ele>780.0</ele><time>2026-04-26T07:59:11.999Z</time></trkpt><trkpt lat="43.48144904644114" lon="11.953432848136535"><ele>780.0</ele><time>2026-04-26T07:59:12.999Z</time></trkpt><trkpt lat="43.481448703854234" lon="11.953608100997256"><ele>780.0</ele><time>2026-04-26T07:59:13.999Z</time></trkpt><trkpt lat="43.48144900225695" lon="11.953773160922264"><ele>780.0</ele><time>2026-04-26T07:59:14.999Z</time></trkpt><trkpt lat="43.481450907442884" lon="11.953919989851821"><ele>780.0</ele><time>2026-04-26T07:59:15.999Z</time></trkpt><trkpt lat="43.48145034576514" lon="11.954038809128749"><ele>780.0</ele><time>2026-04-26T07:59:16.999Z</time></trkpt><trkpt lat="43.48144445123009" lon="11.954137375626653"><ele>780.0</ele><time>2026-04-26T07:59:17.999Z</time></trkpt><trkpt lat="43.48142265691662" lon="11.954233585015515"><ele>780.0</ele><time>2026-04-26T07:59:18.999Z</time></trkpt><trkpt lat="43.481377523601154" lon="11.954313974077923"><ele>780.0</ele><time>2026-04-26T07:59:19.999Z</time></trkpt><trkpt lat="43.48131128109399" lon="11.954388470026936"><ele>781.8</ele><time>2026-04-26T07:59:20.999Z</time></trkpt><trkpt lat="43.48122837988806" lon="11.954439227287136"><ele>783.6</ele><time>2026-04-26T07:59:21.999Z</time></trkpt><trkpt lat="43.48114392508811" lon="11.954454952826786"><ele>785.4000000000001</ele><time>2026-04-26T07:59:22.999Z</time></trkpt><trkpt lat="43.48105814657684" lon="11.954448956165972"><ele>787.2</ele><time>2026-04-26T07:59:23.999Z</time></trkpt><trkpt lat="43.48092799330113" lon="11.95442582476701"><ele>789.0</ele><time>2026-04-26T07:59:24.999Z</time></trkpt><trkpt lat="43.480775571217215" lon="11.954396160103572"><ele>789.0</ele><time>2026-04-26T07:59:25.999Z</time></trkpt><trkpt lat="43.4806087170734" lon="11.954370254130563"><ele>789.0</ele><time>2026-04-26T07:59:26.999Z</time></trkpt><trkpt lat="43.48046018877806" lon="11.954354949162715"><ele>789.0</ele><time>2026-04-26T07:59:27.999Z</time></trkpt><trkpt lat="43.480328466541344" lon="11.954347887874983"><ele>789.0</ele><time>2026-04-26T07:59:28.999Z</time></trkpt><trkpt lat="43.4802130381109" lon="11.954353393113285"><ele>788.6666666666666</ele><time>2026-04-26T07:59:29.999Z</time></trkpt><trkpt lat="43.480114980204476" lon="11.954360463870337"><ele>788.3333333333333</ele><time>2026-04-26T07:59:30.999Z</time></trkpt><trkpt lat="43.480017535230935" lon="11.954375543970063"><ele>788.0</ele><time>2026-04-26T07:59:31.999Z</time></trkpt><trkpt lat="43.479936110108525" lon="11.954407564672342"><ele>787.6666666666666</ele><time>2026-04-26T07:59:32.999Z</time></trkpt><trkpt lat="43.47987321236461" lon="11.954466007153016"><ele>787.3333333333333</ele><time>2026-04-26T07:59:33.999Z</time></trkpt><trkpt lat="43.479826592330625" lon="11.954534107118862"><ele>787.0</ele><time>2026-04-26T07:59:34.999Z</time></trkpt><trkpt lat="43.479790892104226" lon="11.954635875323849"><ele>787.0</ele><time>2026-04-26T07:59:35.999Z</time></trkpt><trkpt lat="43.47975675777478" lon="11.954741529477321"><ele>787.0</ele><time>2026-04-26T07:59:36.999Z</time></trkpt><trkpt lat="43.479744222815334" lon="11.954830542784773"><ele>787.0</ele><time>2026-04-26T07:59:37.999Z</time></trkpt><trkpt lat="43.4797337168855" lon="11.954956819019976"><ele>787.0</ele><time>2026-04-26T07:59:38.999Z</time></trkpt><trkpt lat="43.47971710487353" lon="11.95511024017821"><ele>787.0</ele><time>2026-04-26T07:59:39.999Z</time></trkpt><trkpt lat="43.479696145710705" lon="11.955266425515967"><ele>787.6</ele><time>2026-04-26T07:59:40.999Z</time></trkpt><trkpt lat="43.479693856109506" lon="11.955400163614174"><ele>788.2</ele><time>2026-04-26T07:59:41.999Z</time></trkpt><trkpt lat="43.479699895647514" lon="11.955522646945079"><ele>788.8</ele><time>2026-04-26T07:59:42.999Z</time></trkpt><trkpt lat="43.47969647534056" lon="11.955652513722947"><ele>789.4</ele><time>2026-04-26T07:59:43.999Z</time></trkpt><trkpt lat="43.47966932336205" lon="11.95581068681536"><ele>790.0</ele><time>2026-04-26T07:59:44.999Z</time></trkpt><trkpt lat="43.47962938685517" lon="11.955988329127369"><ele>785.0</ele><time>2026-04-26T07:59:45.999Z</time></trkpt><trkpt lat="43.47959129239832" lon="11.956152555064817"><ele>780.0</ele><time>2026-04-26T07:59:46.999Z</time></trkpt><trkpt lat="43.479558182146135" lon="11.956303199015695"><ele>775.0</ele><time>2026-04-26T07:59:47.999Z</time></trkpt><trkpt lat="43.47952825485916" lon="11.956446549753878"><ele>770.0</ele><time>2026-04-26T07:59:48.999Z</time></trkpt><trkpt lat="43.47949850144649" lon="11.95658747761277"><ele>770.6</ele><time>2026-04-26T07:59:49.999Z</time></trkpt><trkpt lat="43.47946821398467" lon="11.956716821295446"><ele>771.2</ele><time>2026-04-26T07:59:50.999Z</time></trkpt><trkpt lat="43.47944131441338" lon="11.956838379879848"><ele>771.8</ele><time>2026-04-26T07:59:51.999Z</time></trkpt><trkpt lat="43.47941614846801" lon="11.956951950635137"><ele>772.4</ele><time>2026-04-26T07:59:52.999Z</time></trkpt><trkpt lat="43.47938602865707" lon="11.957070477274431"><ele>773.0</ele><time>2026-04-26T07:59:53.999Z</time></trkpt><trkpt lat="43.47935765152863" lon="11.957190565269267"><ele>773.0</ele><time>2026-04-26T07:59:54.999Z</time></trkpt><trkpt lat="43.479325729519424" lon="11.957318875603708"><ele>773.0</ele><time>2026-04-26T07:59:55.999Z</time></trkpt><trkpt lat="43.47928466800454" lon="11.957455985925819"><ele>773.0</ele><time>2026-04-26T07:59:56.999Z</time></trkpt><trkpt lat="43.47922146016859" lon="11.957590888443784"><ele>773.0</ele><time>2026-04-26T07:59:57.999Z</time></trkpt><trkpt lat="43.47913345780542" lon="11.957753928887865"><ele>774.6666666666667</ele><time>2026-04-26T07:59:58.999Z</time></trkpt><trkpt lat="43.47902769136755" lon="11.957921836992522"><ele>776.3333333333333</ele><time>2026-04-26T07:59:59.999Z</time></trkpt><trkpt lat="43.478918644696506" lon="11.958062371300317"><ele>778.0</ele><time>2026-04-26T08:00:00.999Z</time></trkpt><trkpt lat="43.478793721723214" lon="11.958196078117572"><ele>777.5</ele><time>2026-04-26T08:00:01.999Z</time></trkpt><trkpt lat="43.47867387435843" lon="11.95830707133556"><ele>777.0</ele><time>2026-04-26T08:00:02.999Z</time></trkpt><trkpt lat="43.4785524021288" lon="11.958396183814932"><ele>776.5</ele><time>2026-04-26T08:00:03.999Z</time></trkpt><trkpt lat="43.478439621985785" lon="11.95845737555535"><ele>776.0</ele><time>2026-04-26T08:00:04.999Z</time></trkpt><trkpt lat="43.47832988120459" lon="11.958508715311812"><ele>778.0</ele><time>2026-04-26T08:00:05.999Z</time></trkpt><trkpt lat="43.47823654850228" lon="11.958561212826305"><ele>780.0</ele><time>2026-04-26T08:00:06.999Z</time></trkpt><trkpt lat="43.478159111624386" lon="11.958620069373207"><ele>782.0</ele><time>2026-04-26T08:00:07.999Z</time></trkpt><trkpt lat="43.478060689307235" lon="11.95869034529295"><ele>784.0</ele><time>2026-04-26T08:00:08.999Z</time></trkpt><trkpt lat="43.47796202598084" lon="11.958767633432922"><ele>786.0</ele><time>2026-04-26T08:00:09.999Z</time></trkpt><trkpt lat="43.477877592439405" lon="11.958847362337522"><ele>786.0</ele><time>2026-04-26T08:00:10.999Z</time></trkpt><trkpt lat="43.47779384220577" lon="11.958950346351024"><ele>786.0</ele><time>2026-04-26T08:00:11.999Z</time></trkpt><trkpt lat="43.47771051863633" lon="11.95906404097381"><ele>786.0</ele><time>2026-04-26T08:00:12.999Z</time></trkpt><trkpt lat="43.47762581357196" lon="11.959159233395308"><ele>786.0</ele><time>2026-04-26T08:00:13.999Z</time></trkpt><trkpt lat="43.47755710285608" lon="11.959228187109716"><ele>786.0</ele><time>2026-04-26T08:00:14.999Z</time></trkpt><trkpt lat="43.47749298520656" lon="11.959310429423274"><ele>787.8</ele><time>2026-04-26T08:00:15.999Z</time></trkpt><trkpt lat="43.47744531395883" lon="11.959419078785245"><ele>789.5999999999999</ele><time>2026-04-26T08:00:16.999Z</time></trkpt><trkpt lat="43.47741964095077" lon="11.959540942603065"><ele>791.4</ele><time>2026-04-26T08:00:17.999Z</time></trkpt><trkpt lat="43.477401860215544" lon="11.95969581455276"><ele>793.2</ele><time>2026-04-26T08:00:18.999Z</time></trkpt><trkpt lat="43.47739531891082" lon="11.959852882575788"><ele>795.0</ele><time>2026-04-26T08:00:19.999Z</time></trkpt><trkpt lat="43.47738585471903" lon="11.9600063887869"><ele>796.0</ele><time>2026-04-26T08:00:21Z</time></trkpt><trkpt lat="43.47738795675827" lon="11.960135760722917"><ele>797.0</ele><time>2026-04-26T08:00:22Z</time></trkpt><trkpt lat="43.47740986057956" lon="11.96026698527125"><ele>798.0</ele><time>2026-04-26T08:00:23Z</time></trkpt><trkpt lat="43.47741801463504" lon="11.960415224731463"><ele>799.0</ele><time>2026-04-26T08:00:24Z</time></trkpt><trkpt lat="43.47746726662592" lon="11.960527303644076"><ele>800.0</ele><time>2026-04-26T08:00:25Z</time></trkpt><trkpt lat="43.47750127878159" lon="11.96060971053152"><ele>800.0000000000001</ele><time>2026-04-26T08:00:26Z</time></trkpt><trkpt lat="43.47752294512644" lon="11.960775474272332"><ele>800.0</ele><time>2026-04-26T08:00:28Z</time></trkpt><trkpt lat="43.47749542449284" lon="11.960863481165402"><ele>800.0</ele><time>2026-04-26T08:00:29Z</time></trkpt><trkpt lat="43.47744008345197" lon="11.960934499471898"><ele>800.0</ele><time>2026-04-26T08:00:30Z</time></trkpt><trkpt lat="43.47735896619449" lon="11.960958498222542"><ele>800.0000000000001</ele><time>2026-04-26T08:00:31Z</time></trkpt><trkpt lat="43.477280854470806" lon="11.961013867222302"><ele>800.0</ele><time>2026-04-26T08:00:32Z</time></trkpt><trkpt lat="43.477188983490365" lon="11.961057708826296"><ele>801.4</ele><time>2026-04-26T08:00:33Z</time></trkpt><trkpt lat="43.47711120352436" lon="11.961126950153071"><ele>802.8</ele><time>2026-04-26T08:00:34Z</time></trkpt><trkpt lat="43.47703812700887" lon="11.961218013559572"><ele>804.2</ele><time>2026-04-26T08:00:35Z</time></trkpt><trkpt lat="43.47696074080018" lon="11.961309298915738"><ele>805.6</ele><time>2026-04-26T08:00:36Z</time></trkpt><trkpt lat="43.47688354193476" lon="11.961400336896489"><ele>807.0</ele><time>2026-04-26T08:00:37Z</time></trkpt><trkpt lat="43.476815646464495" lon="11.961496564350803"><ele>807.0</ele><time>2026-04-26T08:00:38Z</time></trkpt><trkpt lat="43.476743265986386" lon="11.961587993151719"><ele>807.0</ele><time>2026-04-26T08:00:39Z</time></trkpt><trkpt lat="43.476661140984206" lon="11.96167506443846"><ele>807.0</ele><time>2026-04-26T08:00:40Z</time></trkpt><trkpt lat="43.47656448254603" lon="11.961750441473418"><ele>807.0</ele><time>2026-04-26T08:00:41Z</time></trkpt><trkpt lat="43.47646469610298" lon="11.961818758481499"><ele>807.0</ele><time>2026-04-26T08:00:42Z</time></trkpt><trkpt lat="43.47636062759589" lon="11.961898928367312"><ele>809.3333333333334</ele><time>2026-04-26T08:00:43Z</time></trkpt><trkpt lat="43.476255436104786" lon="11.961993257267316"><ele>811.6666666666667</ele><time>2026-04-26T08:00:44Z</time></trkpt><trkpt lat="43.476182638848364" lon="11.962056418774473"><ele>814.0</ele><time>2026-04-26T08:00:45Z</time></trkpt><trkpt lat="43.47611715352398" lon="11.962085463004879"><ele>816.3333333333334</ele><time>2026-04-26T08:00:46Z</time></trkpt><trkpt lat="43.476037244765095" lon="11.96206689549729"><ele>818.6666666666667</ele><time>2026-04-26T08:00:47Z</time></trkpt><trkpt lat="43.47595281880186" lon="11.962068613783789"><ele>821.0</ele><time>2026-04-26T08:00:48Z</time></trkpt><trkpt lat="43.47588563076862" lon="11.962055875919395"><ele>821.0000000000001</ele><time>2026-04-26T08:00:49Z</time></trkpt><trkpt lat="43.47582386458143" lon="11.962090728873244"><ele>821.0</ele><time>2026-04-26T08:00:50Z</time></trkpt><trkpt lat="43.47576121514644" lon="11.962139018684985"><ele>821.0</ele><time>2026-04-26T08:00:51Z</time></trkpt><trkpt lat="43.47573421644861" lon="11.962277868280706"><ele>821.0</ele><time>2026-04-26T08:00:52Z</time></trkpt><trkpt lat="43.475739231079714" lon="11.962421491960132"><ele>821.0000000000001</ele><time>2026-04-26T08:00:53Z</time></trkpt><trkpt lat="43.475726429043256" lon="11.96256110025638"><ele>821.0</ele><time>2026-04-26T08:00:54Z</time></trkpt><trkpt lat="43.4757033572591" lon="11.962710545586944"><ele>823.1999999999999</ele><time>2026-04-26T08:00:55Z</time></trkpt><trkpt lat="43.47567883146609" lon="11.962850753478811"><ele>825.4</ele><time>2026-04-26T08:00:56Z</time></trkpt><trkpt lat="43.47567186508145" lon="11.9629430040707"><ele>827.6</ele><time>2026-04-26T08:00:57Z</time></trkpt><trkpt lat="43.47565919701969" lon="11.963142230502294"><ele>829.8</ele><time>2026-04-26T08:00:59Z</time></trkpt><trkpt lat="43.47562918263372" lon="11.963283947230025"><ele>832.0</ele><time>2026-04-26T08:01:00Z</time></trkpt><trkpt lat="43.475543605476105" lon="11.963386546655938"><ele>831.4000000000001</ele><time>2026-04-26T08:01:01Z</time></trkpt><trkpt lat="43.47547900883926" lon="11.963513750047328"><ele>830.8000000000001</ele><time>2026-04-26T08:01:02Z</time></trkpt><trkpt lat="43.475412280441674" lon="11.963617330485592"><ele>830.2</ele><time>2026-04-26T08:01:03Z</time></trkpt><trkpt lat="43.47537415159598" lon="11.963742788968794"><ele>829.6</ele><time>2026-04-26T08:01:04Z</time></trkpt><trkpt lat="43.47536051048798" lon="11.963877644949454"><ele>829.0</ele><time>2026-04-26T08:01:05Z</time></trkpt><trkpt lat="43.4753340998077" lon="11.964015449205665"><ele>828.9999999999999</ele><time>2026-04-26T08:01:06Z</time></trkpt><trkpt lat="43.47534291379745" lon="11.964142958298996"><ele>829.0</ele><time>2026-04-26T08:01:07Z</time></trkpt><trkpt lat="43.475335919914514" lon="11.96426021406182"><ele>829.0</ele><time>2026-04-26T08:01:08Z</time></trkpt><trkpt lat="43.47532482167866" lon="11.96437623131163"><ele>829.0</ele><time>2026-04-26T08:01:09Z</time></trkpt><trkpt lat="43.47532482576948" lon="11.964491186649948"><ele>828.9999999999999</ele><time>2026-04-26T08:01:10Z</time></trkpt><trkpt lat="43.47532386906304" lon="11.964605077787471"><ele>829.0</ele><time>2026-04-26T08:01:11Z</time></trkpt><trkpt lat="43.47531695549397" lon="11.964712045322813"><ele>831.2</ele><time>2026-04-26T08:01:12Z</time></trkpt><trkpt lat="43.475309327299925" lon="11.964827827749511"><ele>833.4000000000001</ele><time>2026-04-26T08:01:13Z</time></trkpt><trkpt lat="43.47529241583216" lon="11.964950792225691"><ele>835.6</ele><time>2026-04-26T08:01:14Z</time></trkpt><trkpt lat="43.47526154453399" lon="11.965093177286192"><ele>837.8</ele><time>2026-04-26T08:01:15Z</time></trkpt><trkpt lat="43.47519825515737" lon="11.965247448522947"><ele>840.0</ele><time>2026-04-26T08:01:16Z</time></trkpt><trkpt lat="43.475090950179215" lon="11.965403631604296"><ele>843.3333333333333</ele><time>2026-04-26T08:01:17Z</time></trkpt><trkpt lat="43.47500012444859" lon="11.965619968121441"><ele>846.6666666666666</ele><time>2026-04-26T08:01:18Z</time></trkpt><trkpt lat="43.47489056959515" lon="11.965854109289058"><ele>850.0</ele><time>2026-04-26T08:01:19Z</time></trkpt><trkpt lat="43.47479181789339" lon="11.966067106449069"><ele>850.0</ele><time>2026-04-26T08:01:20Z</time></trkpt><trkpt lat="43.47470976428387" lon="11.966238389836189"><ele>850.0</ele><time>2026-04-26T08:01:21Z</time></trkpt><trkpt lat="43.47463264521079" lon="11.96638807942148"><ele>850.0</ele><time>2026-04-26T08:01:21.999Z</time></trkpt><trkpt lat="43.47457313211802" lon="11.96652569159286"><ele>850.0</ele><time>2026-04-26T08:01:22.999Z</time></trkpt><trkpt lat="43.47451383803207" lon="11.966640869666833"><ele>852.1666666666666</ele><time>2026-04-26T08:01:23.999Z</time></trkpt><trkpt lat="43.47446115283349" lon="11.966740070067514"><ele>854.3333333333333</ele><time>2026-04-26T08:01:24.999Z</time></trkpt><trkpt lat="43.47440501653088" lon="11.966828759603487"><ele>856.5</ele><time>2026-04-26T08:01:25.999Z</time></trkpt><trkpt lat="43.474340604192136" lon="11.966900929048496"><ele>858.6666666666667</ele><time>2026-04-26T08:01:26.999Z</time></trkpt><trkpt lat="43.47426676578866" lon="11.966962840176242"><ele>860.8333333333334</ele><time>2026-04-26T08:01:27.999Z</time></trkpt><trkpt lat="43.474179995264045" lon="11.967021277709554"><ele>863.0</ele><time>2026-04-26T08:01:28.999Z</time></trkpt><trkpt lat="43.47407958823073" lon="11.967045544622476"><ele>863.0</ele><time>2026-04-26T08:01:29.999Z</time></trkpt><trkpt lat="43.4739433158638" lon="11.967058969990248"><ele>863.0</ele><time>2026-04-26T08:01:30.999Z</time></trkpt><trkpt lat="43.473798779162294" lon="11.967050426927589"><ele>863.0</ele><time>2026-04-26T08:01:31.999Z</time></trkpt><trkpt lat="43.47367830054193" lon="11.967041455888076"><ele>863.0</ele><time>2026-04-26T08:01:32.999Z</time></trkpt><trkpt lat="43.47356946078724" lon="11.967045190339658"><ele>865.0</ele><time>2026-04-26T08:01:33.999Z</time></trkpt><trkpt lat="43.47344792953312" lon="11.967029873314967"><ele>867.0</ele><time>2026-04-26T08:01:34.999Z</time></trkpt><trkpt lat="43.473331858865365" lon="11.96699776823241"><ele>869.0</ele><time>2026-04-26T08:01:35.999Z</time></trkpt><trkpt lat="43.473225991606846" lon="11.96697346869966"><ele>871.0</ele><time>2026-04-26T08:01:36.999Z</time></trkpt><trkpt lat="43.473130676015465" lon="11.96693754431676"><ele>873.0</ele><time>2026-04-26T08:01:37.999Z</time></trkpt><trkpt lat="43.47305246586556" lon="11.966871067181813"><ele>873.0</ele><time>2026-04-26T08:01:38.999Z</time></trkpt><trkpt lat="43.47297338278261" lon="11.966791601376269"><ele>873.0</ele><time>2026-04-26T08:01:39.999Z</time></trkpt><trkpt lat="43.47289952909997" lon="11.966692482880418"><ele>873.0</ele><time>2026-04-26T08:01:40.999Z</time></trkpt><trkpt lat="43.472836482148196" lon="11.966600541831893"><ele>873.0</ele><time>2026-04-26T08:01:41.999Z</time></trkpt><trkpt lat="43.47276951191255" lon="11.966492388080251"><ele>873.0</ele><time>2026-04-26T08:01:42.999Z</time></trkpt><trkpt lat="43.47268541661667" lon="11.966391632192426"><ele>874.0</ele><time>2026-04-26T08:01:43.999Z</time></trkpt><trkpt lat="43.47260875509171" lon="11.966275563491163"><ele>875.0</ele><time>2026-04-26T08:01:44.999Z</time></trkpt><trkpt lat="43.472525333738176" lon="11.966171943647755"><ele>876.0</ele><time>2026-04-26T08:01:45.999Z</time></trkpt><trkpt lat="43.472453828888185" lon="11.96607330301231"><ele>877.0</ele><time>2026-04-26T08:01:46.999Z</time></trkpt><trkpt lat="43.47239144646545" lon="11.965998900431456"><ele>878.0</ele><time>2026-04-26T08:01:47.999Z</time></trkpt><trkpt lat="43.472335918736604" lon="11.965955591517302"><ele>878.0000000000001</ele><time>2026-04-26T08:01:48.999Z</time></trkpt><trkpt lat="43.47223404944007" lon="11.965934089770972"><ele>878.0</ele><time>2026-04-26T08:01:50.999Z</time></trkpt><trkpt lat="43.472167550850614" lon="11.965952886349184"><ele>878.0</ele><time>2026-04-26T08:01:51.999Z</time></trkpt><trkpt lat="43.47210429889829" lon="11.965990314521271"><ele>878.0</ele><time>2026-04-26T08:01:52.999Z</time></trkpt><trkpt lat="43.472038450058385" lon="11.966036793817702"><ele>878.0000000000001</ele><time>2026-04-26T08:01:53.999Z</time></trkpt><trkpt lat="43.47198996532468" lon="11.966109607538623"><ele>878.0</ele><time>2026-04-26T08:01:54.999Z</time></trkpt><trkpt lat="43.47193455873795" lon="11.966204072743608"><ele>877.8</ele><time>2026-04-26T08:01:55.999Z</time></trkpt><trkpt lat="43.47188095217939" lon="11.966330902076548"><ele>877.5999999999999</ele><time>2026-04-26T08:01:56.999Z</time></trkpt><trkpt lat="43.47183854242188" lon="11.966435894351177"><ele>877.4000000000001</ele><time>2026-04-26T08:01:57.999Z</time></trkpt><trkpt lat="43.47179343983493" lon="11.96656672324371"><ele>877.2</ele><time>2026-04-26T08:01:58.999Z</time></trkpt><trkpt lat="43.47174660755671" lon="11.966717269553286"><ele>877.0</ele><time>2026-04-26T08:01:59.999Z</time></trkpt><trkpt lat="43.47170437049263" lon="11.966870277328862"><ele>879.0</ele><time>2026-04-26T08:02:00.999Z</time></trkpt><trkpt lat="43.47166439664843" lon="11.967029638727817"><ele>881.0</ele><time>2026-04-26T08:02:01.999Z</time></trkpt><trkpt lat="43.47163353795933" lon="11.967181020769543"><ele>883.0</ele><time>2026-04-26T08:02:02.999Z</time></trkpt><trkpt lat="43.47161257816633" lon="11.967350917127234"><ele>885.0</ele><time>2026-04-26T08:02:03.999Z</time></trkpt><trkpt lat="43.47158664224695" lon="11.96756041614783"><ele>887.0</ele><time>2026-04-26T08:02:04.999Z</time></trkpt><trkpt lat="43.47155473891952" lon="11.96777704589814"><ele>889.0</ele><time>2026-04-26T08:02:05.999Z</time></trkpt><trkpt lat="43.47152328328932" lon="11.967950516807539"><ele>891.0</ele><time>2026-04-26T08:02:06.999Z</time></trkpt><trkpt lat="43.471498590766906" lon="11.968091899498289"><ele>893.0</ele><time>2026-04-26T08:02:07.999Z</time></trkpt><trkpt lat="43.47145513002549" lon="11.96823205722721"><ele>894.1666666666667</ele><time>2026-04-26T08:02:08.999Z</time></trkpt><trkpt lat="43.47144721299462" lon="11.968363153002523"><ele>895.3333333333334</ele><time>2026-04-26T08:02:09.999Z</time></trkpt><trkpt lat="43.47142214170048" lon="11.968470654113483"><ele>896.5</ele><time>2026-04-26T08:02:10.999Z</time></trkpt><trkpt lat="43.4714055782578" lon="11.968564509474641"><ele>897.6666666666667</ele><time>2026-04-26T08:02:11.999Z</time></trkpt><trkpt lat="43.47139187098694" lon="11.968649619386982"><ele>898.8333333333334</ele><time>2026-04-26T08:02:12.999Z</time></trkpt><trkpt lat="43.471364367001556" lon="11.968737015346566"><ele>900.0</ele><time>2026-04-26T08:02:13.999Z</time></trkpt><trkpt lat="43.47131198695311" lon="11.968828433640665"><ele>900.8333333333334</ele><time>2026-04-26T08:02:14.999Z</time></trkpt><trkpt lat="43.47124021258338" lon="11.968907048094795"><ele>901.6666666666667</ele><time>2026-04-26T08:02:15.999Z</time></trkpt><trkpt lat="43.47114954765982" lon="11.968968595045327"><ele>902.5</ele><time>2026-04-26T08:02:16.999Z</time></trkpt><trkpt lat="43.47107638537772" lon="11.969006932157576"><ele>903.3333333333334</ele><time>2026-04-26T08:02:17.999Z</time></trkpt><trkpt lat="43.471019176770206" lon="11.969044541258812"><ele>904.1666666666667</ele><time>2026-04-26T08:02:18.999Z</time></trkpt><trkpt lat="43.47094367669164" lon="11.969109979029438"><ele>905.0</ele><time>2026-04-26T08:02:19.999Z</time></trkpt><trkpt lat="43.470878008866" lon="11.969194386290221"><ele>905.0</ele><time>2026-04-26T08:02:20.999Z</time></trkpt><trkpt lat="43.47079717736086" lon="11.96932286650677"><ele>905.0</ele><time>2026-04-26T08:02:21.999Z</time></trkpt><trkpt lat="43.47069272339571" lon="11.96948949966968"><ele>905.0</ele><time>2026-04-26T08:02:22.999Z</time></trkpt><trkpt lat="43.470566383403884" lon="11.969678421809293"><ele>907.0</ele><time>2026-04-26T08:02:23.999Z</time></trkpt><trkpt lat="43.47041956013878" lon="11.969866614964944"><ele>909.0</ele><time>2026-04-26T08:02:24.999Z</time></trkpt><trkpt lat="43.470290605262186" lon="11.97000599245567"><ele>911.0</ele><time>2026-04-26T08:02:26Z</time></trkpt><trkpt lat="43.47016954868325" lon="11.970137149797825"><ele>911.0</ele><time>2026-04-26T08:02:27Z</time></trkpt><trkpt lat="43.470072015562806" lon="11.970254513886784"><ele>911.0</ele><time>2026-04-26T08:02:28Z</time></trkpt><trkpt lat="43.469979174634126" lon="11.970370558274812"><ele>911.0</ele><time>2026-04-26T08:02:29Z</time></trkpt><trkpt lat="43.46989365585976" lon="11.970463717298005"><ele>911.0</ele><time>2026-04-26T08:02:30Z</time></trkpt><trkpt lat="43.469823586131405" lon="11.970554609301212"><ele>911.0</ele><time>2026-04-26T08:02:31Z</time></trkpt><trkpt lat="43.469770019741915" lon="11.970646985084779"><ele>910.9999999999999</ele><time>2026-04-26T08:02:32Z</time></trkpt><trkpt lat="43.46972301094614" lon="11.970747398289479"><ele>910.9999999999999</ele><time>2026-04-26T08:02:33Z</time></trkpt><trkpt lat="43.46967772913699" lon="11.97084998925814"><ele>911.0</ele><time>2026-04-26T08:02:34Z</time></trkpt><trkpt lat="43.46963336659284" lon="11.970963640484"><ele>911.0</ele><time>2026-04-26T08:02:35Z</time></trkpt><trkpt lat="43.469576905468244" lon="11.971089751453272"><ele>912.25</ele><time>2026-04-26T08:02:36Z</time></trkpt><trkpt lat="43.46950544106671" lon="11.971211253368143"><ele>913.5</ele><time>2026-04-26T08:02:37Z</time></trkpt><trkpt lat="43.469418338140905" lon="11.971337924309514"><ele>914.75</ele><time>2026-04-26T08:02:38Z</time></trkpt><trkpt lat="43.469339928241524" lon="11.971473525278913"><ele>916.0</ele><time>2026-04-26T08:02:39Z</time></trkpt><trkpt lat="43.469251762011574" lon="11.971607723048056"><ele>919.5</ele><time>2026-04-26T08:02:40Z</time></trkpt><trkpt lat="43.469163060519115" lon="11.971750785924918"><ele>923.0</ele><time>2026-04-26T08:02:41Z</time></trkpt><trkpt lat="43.469078080548705" lon="11.971891126153258"><ele>926.5</ele><time>2026-04-26T08:02:42Z</time></trkpt><trkpt lat="43.46900135078588" lon="11.972021118564072"><ele>930.0</ele><time>2026-04-26T08:02:43Z</time></trkpt><trkpt lat="43.46893267023492" lon="11.972136910487922"><ele>930.0</ele><time>2026-04-26T08:02:44Z</time></trkpt><trkpt lat="43.46887558943466" lon="11.972235238660668"><ele>930.0</ele><time>2026-04-26T08:02:45Z</time></trkpt><trkpt lat="43.46881537660358" lon="11.972325896144728"><ele>930.0</ele><time>2026-04-26T08:02:46Z</time></trkpt><trkpt lat="43.46877423312565" lon="11.972408515201483"><ele>930.0</ele><time>2026-04-26T08:02:47Z</time></trkpt><trkpt lat="43.468738596845924" lon="11.972505381622977"><ele>930.0</ele><time>2026-04-26T08:02:48Z</time></trkpt><trkpt lat="43.46871678474035" lon="11.972612660883529"><ele>930.0</ele><time>2026-04-26T08:02:49Z</time></trkpt><trkpt lat="43.46870312940279" lon="11.97273368657559"><ele>927.4</ele><time>2026-04-26T08:02:50Z</time></trkpt><trkpt lat="43.46867327666476" lon="11.972864437260021"><ele>924.8</ele><time>2026-04-26T08:02:51Z</time></trkpt><trkpt lat="43.46868280864614" lon="11.973000714130471"><ele>922.2</ele><time>2026-04-26T08:02:52Z</time></trkpt><trkpt lat="43.46869545710559" lon="11.973130630311179"><ele>919.6</ele><time>2026-04-26T08:02:53Z</time></trkpt><trkpt lat="43.46872060626381" lon="11.97323541828993"><ele>917.0</ele><time>2026-04-26T08:02:54Z</time></trkpt><trkpt lat="43.46875812379029" lon="11.973356369377246"><ele>920.8</ele><time>2026-04-26T08:02:55Z</time></trkpt><trkpt lat="43.468800650301475" lon="11.97347440206303"><ele>924.6</ele><time>2026-04-26T08:02:56Z</time></trkpt><trkpt lat="43.46885222153465" lon="11.973585165840918"><ele>928.3999999999999</ele><time>2026-04-26T08:02:57Z</time></trkpt><trkpt lat="43.468889159432166" lon="11.973708664807285"><ele>932.1999999999999</ele><time>2026-04-26T08:02:58Z</time></trkpt><trkpt lat="43.4689394263698" lon="11.973819263269014"><ele>936.0</ele><time>2026-04-26T08:02:59Z</time></trkpt><trkpt lat="43.46899036659586" lon="11.973938378611503"><ele>936.0</ele><time>2026-04-26T08:03:00Z</time></trkpt><trkpt lat="43.469042522476045" lon="11.974051310480695"><ele>936.0</ele><time>2026-04-26T08:03:01Z</time></trkpt><trkpt lat="43.4690971733817" lon="11.974151402865141"><ele>936.0</ele><time>2026-04-26T08:03:02Z</time></trkpt><trkpt lat="43.469144130664226" lon="11.974241397729637"><ele>936.0</ele><time>2026-04-26T08:03:03Z</time></trkpt><trkpt lat="43.469180272334796" lon="11.974320175326461"><ele>936.0</ele><time>2026-04-26T08:03:04Z</time></trkpt><trkpt lat="43.4692273347732" lon="11.974435100589725"><ele>936.0</ele><time>2026-04-26T08:03:06Z</time></trkpt><trkpt lat="43.46923319703974" lon="11.974536396506275"><ele>937.1666666666666</ele><time>2026-04-26T08:03:07Z</time></trkpt><trkpt lat="43.46922735294481" lon="11.974664826114978"><ele>938.3333333333333</ele><time>2026-04-26T08:03:08Z</time></trkpt><trkpt lat="43.46921333589141" lon="11.97479686833458"><ele>939.5</ele><time>2026-04-26T08:03:09Z</time></trkpt><trkpt lat="43.469180354616704" lon="11.974886671588681"><ele>940.6666666666666</ele><time>2026-04-26T08:03:10Z</time></trkpt><trkpt lat="43.46912749549263" lon="11.974936659227831"><ele>941.8333333333333</ele><time>2026-04-26T08:03:11Z</time></trkpt><trkpt lat="43.469060089765314" lon="11.974970813016485"><ele>943.0</ele><time>2026-04-26T08:03:12Z</time></trkpt><trkpt lat="43.46897991878522" lon="11.974978854018248"><ele>942.9999999999999</ele><time>2026-04-26T08:03:13Z</time></trkpt><trkpt lat="43.468905860819305" lon="11.9749789805445"><ele>943.0</ele><time>2026-04-26T08:03:14Z</time></trkpt><trkpt lat="43.46882241184407" lon="11.975014748382343"><ele>943.0</ele><time>2026-04-26T08:03:15Z</time></trkpt><trkpt lat="43.46876142217416" lon="11.97508484170705"><ele>943.0</ele><time>2026-04-26T08:03:16Z</time></trkpt><trkpt lat="43.46871324364346" lon="11.975176222184901"><ele>942.9999999999999</ele><time>2026-04-26T08:03:17Z</time></trkpt><trkpt lat="43.468684545259414" lon="11.975272370869174"><ele>943.0</ele><time>2026-04-26T08:03:18Z</time></trkpt><trkpt lat="43.468660642921066" lon="11.975380306416533"><ele>940.6666666666666</ele><time>2026-04-26T08:03:19Z</time></trkpt><trkpt lat="43.46863889302241" lon="11.97549249397802"><ele>938.3333333333333</ele><time>2026-04-26T08:03:20Z</time></trkpt><trkpt lat="43.468626713228424" lon="11.975606709392224"><ele>936.0</ele><time>2026-04-26T08:03:21Z</time></trkpt><trkpt lat="43.468636260931916" lon="11.975733330336478"><ele>933.6666666666667</ele><time>2026-04-26T08:03:22Z</time></trkpt><trkpt lat="43.468649455011224" lon="11.9758585409756"><ele>931.3333333333334</ele><time>2026-04-26T08:03:23Z</time></trkpt><trkpt lat="43.468678816282086" lon="11.975985942232459"><ele>929.0</ele><time>2026-04-26T08:03:24Z</time></trkpt><trkpt lat="43.46871850186584" lon="11.976119070560129"><ele>927.5</ele><time>2026-04-26T08:03:25Z</time></trkpt><trkpt lat="43.46875844906016" lon="11.97626038347572"><ele>926.0</ele><time>2026-04-26T08:03:26Z</time></trkpt><trkpt lat="43.46880096615523" lon="11.976395967469456"><ele>924.5</ele><time>2026-04-26T08:03:27Z</time></trkpt><trkpt lat="43.46885196783614" lon="11.976556004185657"><ele>923.0</ele><time>2026-04-26T08:03:28Z</time></trkpt><trkpt lat="43.468915280803365" lon="11.976685247034448"><ele>930.5</ele><time>2026-04-26T08:03:29Z</time></trkpt><trkpt lat="43.46897634081858" lon="11.976819356471678"><ele>938.0</ele><time>2026-04-26T08:03:30Z</time></trkpt><trkpt lat="43.46902923030729" lon="11.976972656368282"><ele>945.5</ele><time>2026-04-26T08:03:31Z</time></trkpt><trkpt lat="43.469105823601716" lon="11.9771106005572"><ele>953.0</ele><time>2026-04-26T08:03:32Z</time></trkpt><trkpt lat="43.46915395969766" lon="11.977287515393845"><ele>953.0</ele><time>2026-04-26T08:03:33Z</time></trkpt><trkpt lat="43.469202211827394" lon="11.977455924883596"><ele>953.0</ele><time>2026-04-26T08:03:34Z</time></trkpt><trkpt lat="43.46928580376037" lon="11.977588735544224"><ele>953.0</ele><time>2026-04-26T08:03:35Z</time></trkpt><trkpt lat="43.46935584826201" lon="11.977732238455879"><ele>953.0</ele><time>2026-04-26T08:03:36Z</time></trkpt><trkpt lat="43.46941686415929" lon="11.977875566807095"><ele>953.0</ele><time>2026-04-26T08:03:37Z</time></trkpt><trkpt lat="43.46947397481998" lon="11.978016277807018"><ele>953.0</ele><time>2026-04-26T08:03:38Z</time></trkpt><trkpt lat="43.469539706958486" lon="11.978148716542755"><ele>953.0</ele><time>2026-04-26T08:03:39Z</time></trkpt><trkpt lat="43.46958603165459" lon="11.978273450225364"><ele>953.0</ele><time>2026-04-26T08:03:40Z</time></trkpt><trkpt lat="43.46964995545415" lon="11.978380877359282"><ele>953.0</ele><time>2026-04-26T08:03:41Z</time></trkpt><trkpt lat="43.46969358906581" lon="11.97851866787395"><ele>953.8333333333334</ele><time>2026-04-26T08:03:42Z</time></trkpt><trkpt lat="43.46974038135907" lon="11.978627457194438"><ele>954.6666666666667</ele><time>2026-04-26T08:03:43Z</time></trkpt><trkpt lat="43.46978271594064" lon="11.978739249489884"><ele>955.5</ele><time>2026-04-26T08:03:44Z</time></trkpt><trkpt lat="43.46983139593243" lon="11.978836544076199"><ele>956.3333333333333</ele><time>2026-04-26T08:03:45Z</time></trkpt><trkpt lat="43.46987469997218" lon="11.978920485532665"><ele>957.1666666666666</ele><time>2026-04-26T08:03:46Z</time></trkpt><trkpt lat="43.46990824888099" lon="11.978999161980537"><ele>958.0</ele><time>2026-04-26T08:03:47Z</time></trkpt><trkpt lat="43.469969844043135" lon="11.979131844901525"><ele>955.5999999999999</ele><time>2026-04-26T08:03:49Z</time></trkpt><trkpt lat="43.47002444280391" lon="11.979252487108262"><ele>953.1999999999999</ele><time>2026-04-26T08:03:51Z</time></trkpt><trkpt lat="43.47006789544201" lon="11.979363917406241"><ele>950.8</ele><time>2026-04-26T08:03:53Z</time></trkpt><trkpt lat="43.47011184490735" lon="11.979466349127623"><ele>948.4</ele><time>2026-04-26T08:03:55Z</time></trkpt><trkpt lat="43.47014430270665" lon="11.97956960224982"><ele>946.0</ele><time>2026-04-26T08:03:57Z</time></trkpt><trkpt lat="43.470212999268064" lon="11.979673278567391"><ele>946.0</ele><time>2026-04-26T08:03:59Z</time></trkpt><trkpt lat="43.470298304772406" lon="11.979787303748168"><ele>945.9999999999999</ele><time>2026-04-26T08:04:01Z</time></trkpt><trkpt lat="43.47039270671469" lon="11.979886641729227"><ele>945.9999999999999</ele><time>2026-04-26T08:04:03Z</time></trkpt><trkpt lat="43.47047337412407" lon="11.979956818047699"><ele>946.0</ele><time>2026-04-26T08:04:05Z</time></trkpt><trkpt lat="43.47055502179791" lon="11.980035516980763"><ele>946.0</ele><time>2026-04-26T08:04:07Z</time></trkpt><trkpt lat="43.470667213712964" lon="11.9800483591773"><ele>941.5999999999999</ele><time>2026-04-26T08:04:09Z</time></trkpt><trkpt lat="43.470775896931386" lon="11.980032586915986"><ele>937.1999999999999</ele><time>2026-04-26T08:04:11Z</time></trkpt><trkpt lat="43.47088637649936" lon="11.98002103546922"><ele>932.8000000000001</ele><time>2026-04-26T08:04:12.999Z</time></trkpt><trkpt lat="43.47094937560355" lon="11.980019970287135"><ele>928.4000000000001</ele><time>2026-04-26T08:04:13.999Z</time></trkpt><trkpt lat="43.471063909050855" lon="11.980024336178461"><ele>924.0</ele><time>2026-04-26T08:04:15.999Z</time></trkpt><trkpt lat="43.471178225257894" lon="11.980028125539906"><ele>923.4000000000001</ele><time>2026-04-26T08:04:17.999Z</time></trkpt><trkpt lat="43.47129012206212" lon="11.980031834709175"><ele>922.8000000000001</ele><time>2026-04-26T08:04:19.999Z</time></trkpt><trkpt lat="43.47140974119101" lon="11.980035183933058"><ele>922.1999999999999</ele><time>2026-04-26T08:04:21.999Z</time></trkpt><trkpt lat="43.471548364304" lon="11.980046231109528"><ele>921.5999999999999</ele><time>2026-04-26T08:04:23.999Z</time></trkpt><trkpt lat="43.471614942899876" lon="11.980052175626067"><ele>921.0</ele><time>2026-04-26T08:04:24.999Z</time></trkpt><trkpt lat="43.471685684671534" lon="11.980061690657564"><ele>921.0</ele><time>2026-04-26T08:04:25.999Z</time></trkpt><trkpt lat="43.471758100323136" lon="11.980072899958087"><ele>920.9999999999999</ele><time>2026-04-26T08:04:26.999Z</time></trkpt><trkpt lat="43.471878747933374" lon="11.980102379823604"><ele>920.9999999999999</ele><time>2026-04-26T08:04:28.999Z</time></trkpt><trkpt lat="43.47199052579486" lon="11.98016138427414"><ele>921.0</ele><time>2026-04-26T08:04:31.001Z</time></trkpt><trkpt lat="43.472090942181175" lon="11.980247981459993"><ele>921.0</ele><time>2026-04-26T08:04:33.001Z</time></trkpt><trkpt lat="43.47217532395416" lon="11.980346912136397"><ele>921.5</ele><time>2026-04-26T08:04:35.001Z</time></trkpt><trkpt lat="43.47222113746437" lon="11.98040953363105"><ele>922.0</ele><time>2026-04-26T08:04:36.001Z</time></trkpt><trkpt lat="43.47227386204418" lon="11.98045792418588"><ele>922.5</ele><time>2026-04-26T08:04:37.001Z</time></trkpt><trkpt lat="43.47234407660029" lon="11.980593012168805"><ele>923.0</ele><time>2026-04-26T08:04:39.001Z</time></trkpt><trkpt lat="43.472421807940364" lon="11.980728962131117"><ele>923.5</ele><time>2026-04-26T08:04:41.001Z</time></trkpt><trkpt lat="43.47245916617075" lon="11.980798803215114"><ele>924.0</ele><time>2026-04-26T08:04:42.001Z</time></trkpt><trkpt lat="43.47249466910718" lon="11.980872552798484"><ele>922.6666666666666</ele><time>2026-04-26T08:04:43.001Z</time></trkpt><trkpt lat="43.472529508631716" lon="11.980948189681229"><ele>921.3333333333333</ele><time>2026-04-26T08:04:44.001Z</time></trkpt><trkpt lat="43.472577579376335" lon="11.981099231742121"><ele>920.0</ele><time>2026-04-26T08:04:46.001Z</time></trkpt><trkpt lat="43.47258964767999" lon="11.98122828500921"><ele>918.6666666666666</ele><time>2026-04-26T08:04:48Z</time></trkpt><trkpt lat="43.472595202895825" lon="11.981340900936539"><ele>917.3333333333333</ele><time>2026-04-26T08:04:50Z</time></trkpt><trkpt lat="43.47259720375111" lon="11.98144319219933"><ele>916.0</ele><time>2026-04-26T08:04:52Z</time></trkpt><trkpt lat="43.472584655202965" lon="11.981551612567268"><ele>915.9999999999999</ele><time>2026-04-26T08:04:55Z</time></trkpt><trkpt lat="43.47253165058444" lon="11.981643630927474"><ele>916.0</ele><time>2026-04-26T08:04:58Z</time></trkpt><trkpt lat="43.47247503085323" lon="11.981690167926109"><ele>916.0</ele><time>2026-04-26T08:05:01Z</time></trkpt><trkpt lat="43.472428603602665" lon="11.981620827407966"><ele>916.0</ele><time>2026-04-26T08:05:04Z</time></trkpt><trkpt lat="43.47238826945634" lon="11.981530511167295"><ele>915.9999999999999</ele><time>2026-04-26T08:05:07Z</time></trkpt><trkpt lat="43.4723252578916" lon="11.981414501487496"><ele>916.0</ele><time>2026-04-26T08:05:10Z</time></trkpt><trkpt lat="43.47222407541544" lon="11.981435349293717"><ele>916.0</ele><time>2026-04-26T08:05:12Z</time></trkpt><trkpt lat="43.472143366059996" lon="11.981479993230382"><ele>915.9999999999999</ele><time>2026-04-26T08:05:14Z</time></trkpt><trkpt lat="43.472056614768206" lon="11.981537585571882"><ele>915.9999999999999</ele><time>2026-04-26T08:05:16Z</time></trkpt><trkpt lat="43.47196030364286" lon="11.981587453048434"><ele>916.0</ele><time>2026-04-26T08:05:18Z</time></trkpt><trkpt lat="43.47187509858674" lon="11.981625312762631"><ele>916.0</ele><time>2026-04-26T08:05:20Z</time></trkpt><trkpt lat="43.47177571342882" lon="11.981659059984763"><ele>910.0</ele><time>2026-04-26T08:05:22Z</time></trkpt><trkpt lat="43.47167697886318" lon="11.981695563542065"><ele>903.9999999999999</ele><time>2026-04-26T08:05:24Z</time></trkpt><trkpt lat="43.47157149286524" lon="11.981728829097014"><ele>897.9999999999999</ele><time>2026-04-26T08:05:26Z</time></trkpt><trkpt lat="43.47146787653038" lon="11.981730471391941"><ele>892.0</ele><time>2026-04-26T08:05:28Z</time></trkpt><trkpt lat="43.47135536944838" lon="11.981717677632226"><ele>886.0</ele><time>2026-04-26T08:05:30Z</time></trkpt><trkpt lat="43.471287705171115" lon="11.981720882192057"><ele>885.1999999999999</ele><time>2026-04-26T08:05:31Z</time></trkpt><trkpt lat="43.47118442189894" lon="11.981730563769586"><ele>884.3999999999999</ele><time>2026-04-26T08:05:33Z</time></trkpt><trkpt lat="43.471108909182256" lon="11.981802970717712"><ele>883.6</ele><time>2026-04-26T08:05:35Z</time></trkpt><trkpt lat="43.471105591766545" lon="11.981942839480231"><ele>882.8</ele><time>2026-04-26T08:05:37Z</time></trkpt><trkpt lat="43.471178552566855" lon="11.982075035727497"><ele>882.0</ele><time>2026-04-26T08:05:39Z</time></trkpt><trkpt lat="43.47126427865213" lon="11.982206478002793"><ele>882.8</ele><time>2026-04-26T08:05:41Z</time></trkpt><trkpt lat="43.47134624445435" lon="11.982301635317727"><ele>883.6</ele><time>2026-04-26T08:05:43Z</time></trkpt><trkpt lat="43.471432949799954" lon="11.982342755621563"><ele>884.3999999999999</ele><time>2026-04-26T08:05:45Z</time></trkpt><trkpt lat="43.47152349695138" lon="11.982399975492523"><ele>885.1999999999999</ele><time>2026-04-26T08:05:47Z</time></trkpt><trkpt lat="43.47164543161492" lon="11.982476698131258"><ele>886.0</ele><time>2026-04-26T08:05:49Z</time></trkpt><trkpt lat="43.471716543306734" lon="11.982518226009502"><ele>886.1428571428571</ele><time>2026-04-26T08:05:50Z</time></trkpt><trkpt lat="43.47178534190332" lon="11.982553955533813"><ele>886.2857142857143</ele><time>2026-04-26T08:05:51Z</time></trkpt><trkpt lat="43.471856067377" lon="11.982590764002458"><ele>886.4285714285713</ele><time>2026-04-26T08:05:52Z</time></trkpt><trkpt lat="43.471933619994964" lon="11.982631148575948"><ele>886.5714285714286</ele><time>2026-04-26T08:05:53Z</time></trkpt><trkpt lat="43.47200838368107" lon="11.982672585298038"><ele>886.7142857142857</ele><time>2026-04-26T08:05:54Z</time></trkpt><trkpt lat="43.472071714238574" lon="11.982713499726012"><ele>886.8571428571428</ele><time>2026-04-26T08:05:55Z</time></trkpt><trkpt lat="43.47213270461705" lon="11.982748152366653"><ele>887.0</ele><time>2026-04-26T08:05:56Z</time></trkpt><trkpt lat="43.47218273054256" lon="11.982814518617955"><ele>886.9999999999999</ele><time>2026-04-26T08:05:57Z</time></trkpt><trkpt lat="43.47222388365864" lon="11.982900254641063"><ele>887.0</ele><time>2026-04-26T08:05:58Z</time></trkpt><trkpt lat="43.472264875821665" lon="11.982999274961402"><ele>887.0</ele><time>2026-04-26T08:05:59Z</time></trkpt><trkpt lat="43.47229164304294" lon="11.983080187350351"><ele>887.0</ele><time>2026-04-26T08:06:00Z</time></trkpt><trkpt lat="43.47231814283166" lon="11.983160012270597"><ele>887.0</ele><time>2026-04-26T08:06:01Z</time></trkpt><trkpt lat="43.47235100334732" lon="11.983235490870017"><ele>886.9999999999999</ele><time>2026-04-26T08:06:02Z</time></trkpt><trkpt lat="43.47238645398848" lon="11.98331117285817"><ele>887.0</ele><time>2026-04-26T08:06:03Z</time></trkpt><trkpt lat="43.47242092033732" lon="11.98341306149631"><ele>885.1666666666667</ele><time>2026-04-26T08:06:04Z</time></trkpt><trkpt lat="43.47246117329653" lon="11.983546335734239"><ele>883.3333333333334</ele><time>2026-04-26T08:06:05Z</time></trkpt><trkpt lat="43.47249171875325" lon="11.98366799962981"><ele>881.5</ele><time>2026-04-26T08:06:06Z</time></trkpt><trkpt lat="43.47252696138242" lon="11.983787462800898"><ele>879.6666666666667</ele><time>2026-04-26T08:06:07Z</time></trkpt><trkpt lat="43.4725605471097" lon="11.983890457424108"><ele>877.8333333333334</ele><time>2026-04-26T08:06:08Z</time></trkpt><trkpt lat="43.47258701230759" lon="11.983981854191773"><ele>876.0</ele><time>2026-04-26T08:06:09Z</time></trkpt><trkpt lat="43.47261406881964" lon="11.984090619455285"><ele>875.0</ele><time>2026-04-26T08:06:10Z</time></trkpt><trkpt lat="43.47264447849181" lon="11.984202176791609"><ele>874.0</ele><time>2026-04-26T08:06:11Z</time></trkpt><trkpt lat="43.47267205427773" lon="11.98431664063891"><ele>873.0</ele><time>2026-04-26T08:06:12Z</time></trkpt><trkpt lat="43.47269058141588" lon="11.984417665318457"><ele>872.0</ele><time>2026-04-26T08:06:13Z</time></trkpt><trkpt lat="43.47269782006645" lon="11.984521003954287"><ele>871.0</ele><time>2026-04-26T08:06:14Z</time></trkpt><trkpt lat="43.47269737833215" lon="11.984628551437856"><ele>870.0</ele><time>2026-04-26T08:06:15Z</time></trkpt><trkpt lat="43.47268856777793" lon="11.984740691364925"><ele>870.0</ele><time>2026-04-26T08:06:16Z</time></trkpt><trkpt lat="43.47267360127446" lon="11.984847359068802"><ele>870.0</ele><time>2026-04-26T08:06:17Z</time></trkpt><trkpt lat="43.47265207973737" lon="11.984943636928396"><ele>870.0</ele><time>2026-04-26T08:06:18Z</time></trkpt><trkpt lat="43.47263288828982" lon="11.985035187875225"><ele>870.0</ele><time>2026-04-26T08:06:19Z</time></trkpt><trkpt lat="43.472584051803956" lon="11.985193548475323"><ele>870.0</ele><time>2026-04-26T08:06:21Z</time></trkpt><trkpt lat="43.472521968926856" lon="11.985284679983966"><ele>870.0</ele><time>2026-04-26T08:06:23Z</time></trkpt><trkpt lat="43.472464499115134" lon="11.985345571817403"><ele>870.4</ele><time>2026-04-26T08:06:26Z</time></trkpt><trkpt lat="43.47237719166287" lon="11.985392775112121"><ele>870.8</ele><time>2026-04-26T08:06:29Z</time></trkpt><trkpt lat="43.472293417225025" lon="11.985421601268017"><ele>871.2</ele><time>2026-04-26T08:06:31Z</time></trkpt><trkpt lat="43.472209065066544" lon="11.98543907067613"><ele>871.6</ele><time>2026-04-26T08:06:33Z</time></trkpt><trkpt lat="43.47212208895783" lon="11.985469978004751"><ele>872.0</ele><time>2026-04-26T08:06:35Z</time></trkpt><trkpt lat="43.47204173786291" lon="11.985543246225127"><ele>869.5000000000001</ele><time>2026-04-26T08:06:37.001Z</time></trkpt><trkpt lat="43.471980485403584" lon="11.98563338840462"><ele>867.0</ele><time>2026-04-26T08:06:39.001Z</time></trkpt><trkpt lat="43.471927819836175" lon="11.985711524638715"><ele>864.5</ele><time>2026-04-26T08:06:41.001Z</time></trkpt><trkpt lat="43.47188697377695" lon="11.985804888767834"><ele>862.0</ele><time>2026-04-26T08:06:43.001Z</time></trkpt><trkpt lat="43.47186552726747" lon="11.985924287875962"><ele>859.5000000000001</ele><time>2026-04-26T08:06:45.001Z</time></trkpt><trkpt lat="43.47188368532644" lon="11.986061562173859"><ele>857.0</ele><time>2026-04-26T08:06:47.001Z</time></trkpt><trkpt lat="43.471935082836524" lon="11.986183594809559"><ele>855.5000000000001</ele><time>2026-04-26T08:06:49.001Z</time></trkpt><trkpt lat="43.47195762132689" lon="11.986269089672842"><ele>854.0</ele><time>2026-04-26T08:06:50.001Z</time></trkpt><trkpt lat="43.471995166576306" lon="11.986351893219915"><ele>852.5</ele><time>2026-04-26T08:06:51.001Z</time></trkpt><trkpt lat="43.472028270981994" lon="11.986498019510929"><ele>851.0</ele><time>2026-04-26T08:06:53.001Z</time></trkpt><trkpt lat="43.47203859405755" lon="11.986592056736043"><ele>849.5000000000001</ele><time>2026-04-26T08:06:54.001Z</time></trkpt><trkpt lat="43.47204648329459" lon="11.986682009351087"><ele>848.0</ele><time>2026-04-26T08:06:55.001Z</time></trkpt><trkpt lat="43.47206490643131" lon="11.98681507806974"><ele>849.5999999999999</ele><time>2026-04-26T08:06:57.001Z</time></trkpt><trkpt lat="43.47206403435165" lon="11.986905810527613"><ele>851.1999999999999</ele><time>2026-04-26T08:06:59.001Z</time></trkpt><trkpt lat="43.47205537388649" lon="11.987004043108755"><ele>852.8</ele><time>2026-04-26T08:07:01.001Z</time></trkpt><trkpt lat="43.472063770602524" lon="11.987167353347328"><ele>854.4</ele><time>2026-04-26T08:07:03.001Z</time></trkpt><trkpt lat="43.47209734044256" lon="11.98730507476514"><ele>856.0</ele><time>2026-04-26T08:07:04.001Z</time></trkpt><trkpt lat="43.472109726209325" lon="11.987427596434621"><ele>855.5999999999999</ele><time>2026-04-26T08:07:05.001Z</time></trkpt><trkpt lat="43.47213461325056" lon="11.987548256290378"><ele>855.1999999999999</ele><time>2026-04-26T08:07:06.001Z</time></trkpt><trkpt lat="43.472158531919845" lon="11.987657876755339"><ele>854.8000000000001</ele><time>2026-04-26T08:07:07.001Z</time></trkpt><trkpt lat="43.47215877527151" lon="11.98777928194187"><ele>854.4000000000001</ele><time>2026-04-26T08:07:08.001Z</time></trkpt><trkpt lat="43.472169387136596" lon="11.987912771498673"><ele>854.0</ele><time>2026-04-26T08:07:09.001Z</time></trkpt><trkpt lat="43.472203694548284" lon="11.988030591868888"><ele>854.0000000000001</ele><time>2026-04-26T08:07:10.001Z</time></trkpt><trkpt lat="43.47221565692771" lon="11.988131604019154"><ele>854.0</ele><time>2026-04-26T08:07:11.001Z</time></trkpt><trkpt lat="43.47220469247053" lon="11.988230332875046"><ele>854.0</ele><time>2026-04-26T08:07:12.001Z</time></trkpt><trkpt lat="43.472187844215824" lon="11.988367261132812"><ele>854.0</ele><time>2026-04-26T08:07:13.001Z</time></trkpt><trkpt lat="43.47216253700387" lon="11.988485697610624"><ele>854.0000000000001</ele><time>2026-04-26T08:07:14Z</time></trkpt><trkpt lat="43.472130798563526" lon="11.9885930639021"><ele>854.0</ele><time>2026-04-26T08:07:15Z</time></trkpt><trkpt lat="43.47209577824874" lon="11.988699255382418"><ele>850.0</ele><time>2026-04-26T08:07:16Z</time></trkpt><trkpt lat="43.47205971364757" lon="11.98879162113324"><ele>846.0</ele><time>2026-04-26T08:07:16.999Z</time></trkpt><trkpt lat="43.472023749621684" lon="11.988880453659878"><ele>842.0</ele><time>2026-04-26T08:07:17.999Z</time></trkpt><trkpt lat="43.47199558345217" lon="11.988970910704628"><ele>838.0</ele><time>2026-04-26T08:07:18.999Z</time></trkpt><trkpt lat="43.47196300214293" lon="11.989068816892672"><ele>834.0</ele><time>2026-04-26T08:07:19.999Z</time></trkpt><trkpt lat="43.471938166037525" lon="11.989160879127974"><ele>830.0</ele><time>2026-04-26T08:07:20.999Z</time></trkpt><trkpt lat="43.47191701863211" lon="11.98926133069481"><ele>826.0</ele><time>2026-04-26T08:07:21.999Z</time></trkpt><trkpt lat="43.47189836210435" lon="11.989380178549869"><ele>825.4999999999999</ele><time>2026-04-26T08:07:22.999Z</time></trkpt><trkpt lat="43.47189413832531" lon="11.989497132158641"><ele>825.0</ele><time>2026-04-26T08:07:23.999Z</time></trkpt><trkpt lat="43.471900789601364" lon="11.989596168471833"><ele>824.5</ele><time>2026-04-26T08:07:24.999Z</time></trkpt><trkpt lat="43.47191370646603" lon="11.98969840931719"><ele>824.0</ele><time>2026-04-26T08:07:25.999Z</time></trkpt><trkpt lat="43.47192643947164" lon="11.98982307477953"><ele>823.4999999999999</ele><time>2026-04-26T08:07:26.999Z</time></trkpt><trkpt lat="43.47194605976419" lon="11.989963799523597"><ele>823.0</ele><time>2026-04-26T08:07:27.999Z</time></trkpt><trkpt lat="43.47196769772773" lon="11.99008734009775"><ele>821.4285714285714</ele><time>2026-04-26T08:07:28.999Z</time></trkpt><trkpt lat="43.47196922699666" lon="11.990202667649445"><ele>819.8571428571429</ele><time>2026-04-26T08:07:29.999Z</time></trkpt><trkpt lat="43.47197032295573" lon="11.990290923734491"><ele>818.2857142857142</ele><time>2026-04-26T08:07:30.999Z</time></trkpt><trkpt lat="43.47197285188489" lon="11.990388592796844"><ele>816.7142857142858</ele><time>2026-04-26T08:07:31.999Z</time></trkpt><trkpt lat="43.47197583246927" lon="11.990480791041355"><ele>815.1428571428571</ele><time>2026-04-26T08:07:32.999Z</time></trkpt><trkpt lat="43.47199634247278" lon="11.990572239311357"><ele>813.5714285714286</ele><time>2026-04-26T08:07:33.999Z</time></trkpt><trkpt lat="43.4719913911821" lon="11.99070046232509"><ele>812.0</ele><time>2026-04-26T08:07:35.999Z</time></trkpt><trkpt lat="43.47199024115623" lon="11.990847381219446"><ele>809.4000000000001</ele><time>2026-04-26T08:07:37.999Z</time></trkpt><trkpt lat="43.47202725351559" lon="11.99097951021199"><ele>806.8000000000001</ele><time>2026-04-26T08:07:39.999Z</time></trkpt><trkpt lat="43.47203986322177" lon="11.991108008559136"><ele>804.2</ele><time>2026-04-26T08:07:41.999Z</time></trkpt><trkpt lat="43.47206937568049" lon="11.991241752759269"><ele>801.6</ele><time>2026-04-26T08:07:43.999Z</time></trkpt><trkpt lat="43.472122542594526" lon="11.991372249727341"><ele>799.0</ele><time>2026-04-26T08:07:45.999Z</time></trkpt><trkpt lat="43.47215744588785" lon="11.991527657255022"><ele>801.3333333333333</ele><time>2026-04-26T08:07:47.999Z</time></trkpt><trkpt lat="43.47219310477922" lon="11.991652558602958"><ele>803.6666666666666</ele><time>2026-04-26T08:07:48.999Z</time></trkpt><trkpt lat="43.47222405392508" lon="11.991745571719003"><ele>806.0</ele><time>2026-04-26T08:07:49.999Z</time></trkpt><trkpt lat="43.47225763178987" lon="11.991843266761904"><ele>808.3333333333333</ele><time>2026-04-26T08:07:50.999Z</time></trkpt><trkpt lat="43.47228886531578" lon="11.99193039900221"><ele>810.6666666666666</ele><time>2026-04-26T08:07:51.999Z</time></trkpt><trkpt lat="43.47231838206639" lon="11.992016094614058"><ele>813.0</ele><time>2026-04-26T08:07:52.999Z</time></trkpt><trkpt lat="43.472351359421964" lon="11.992091484256958"><ele>813.0</ele><time>2026-04-26T08:07:53.999Z</time></trkpt><trkpt lat="43.472403965688876" lon="11.99222547395986"><ele>813.0</ele><time>2026-04-26T08:07:55.999Z</time></trkpt><trkpt lat="43.472442744808674" lon="11.992349713496637"><ele>813.0</ele><time>2026-04-26T08:07:57.999Z</time></trkpt><trkpt lat="43.47245538477537" lon="11.99243649633492"><ele>813.0</ele><time>2026-04-26T08:07:58.999Z</time></trkpt><trkpt lat="43.472490013222234" lon="11.992590058081092"><ele>813.0</ele><time>2026-04-26T08:08:00.999Z</time></trkpt><trkpt lat="43.4725407474991" lon="11.992721854436308"><ele>809.8</ele><time>2026-04-26T08:08:02.999Z</time></trkpt><trkpt lat="43.472582272039325" lon="11.992832417941623"><ele>806.5999999999999</ele><time>2026-04-26T08:08:04.999Z</time></trkpt><trkpt lat="43.47263577186321" lon="11.992958121326684"><ele>803.4000000000001</ele><time>2026-04-26T08:08:06.999Z</time></trkpt><trkpt lat="43.4727223386602" lon="11.993029478357974"><ele>800.2</ele><time>2026-04-26T08:08:08.999Z</time></trkpt><trkpt lat="43.472840979143854" lon="11.99307733135145"><ele>797.0</ele><time>2026-04-26T08:08:10.999Z</time></trkpt><trkpt lat="43.47290413686999" lon="11.993125506368965"><ele>798.4000000000001</ele><time>2026-04-26T08:08:11.999Z</time></trkpt><trkpt lat="43.473030668522924" lon="11.993163581762934"><ele>799.8000000000001</ele><time>2026-04-26T08:08:13.999Z</time></trkpt><trkpt lat="43.47309683155925" lon="11.993179761639675"><ele>801.2</ele><time>2026-04-26T08:08:14.999Z</time></trkpt><trkpt lat="43.473210481399015" lon="11.993215537580335"><ele>802.6</ele><time>2026-04-26T08:08:16.999Z</time></trkpt><trkpt lat="43.473310735108285" lon="11.993190088915581"><ele>804.0</ele><time>2026-04-26T08:08:17.999Z</time></trkpt><trkpt lat="43.473419669443366" lon="11.993195990023846"><ele>804.0</ele><time>2026-04-26T08:08:19.999Z</time></trkpt><trkpt lat="43.47349125069651" lon="11.993176287276242"><ele>804.0</ele><time>2026-04-26T08:08:20.999Z</time></trkpt><trkpt lat="43.47358080257047" lon="11.993158892925617"><ele>804.0</ele><time>2026-04-26T08:08:21.999Z</time></trkpt><trkpt lat="43.473662158046956" lon="11.993113831027554"><ele>804.0</ele><time>2026-04-26T08:08:22.999Z</time></trkpt><trkpt lat="43.473739834504215" lon="11.99307752995606"><ele>804.0</ele><time>2026-04-26T08:08:23.999Z</time></trkpt><trkpt lat="43.47383900956953" lon="11.993044475745787"><ele>804.0</ele><time>2026-04-26T08:08:24.999Z</time></trkpt><trkpt lat="43.47395331679872" lon="11.993019276072268"><ele>802.0</ele><time>2026-04-26T08:08:25.999Z</time></trkpt><trkpt lat="43.47404473734714" lon="11.992984281018398"><ele>800.0</ele><time>2026-04-26T08:08:26.999Z</time></trkpt><trkpt lat="43.474130132789405" lon="11.992956645080419"><ele>798.0</ele><time>2026-04-26T08:08:27.999Z</time></trkpt><trkpt lat="43.4742176055121" lon="11.992933346213121"><ele>796.0</ele><time>2026-04-26T08:08:28.999Z</time></trkpt><trkpt lat="43.474280039693134" lon="11.9929199021065"><ele>794.0</ele><time>2026-04-26T08:08:29.999Z</time></trkpt><trkpt lat="43.47434022375946" lon="11.992893428328017"><ele>792.0</ele><time>2026-04-26T08:08:30.999Z</time></trkpt><trkpt lat="43.47440723174563" lon="11.992916866493912"><ele>792.0</ele><time>2026-04-26T08:08:31.999Z</time></trkpt><trkpt lat="43.47448359563945" lon="11.992962719494999"><ele>792.0</ele><time>2026-04-26T08:08:32.999Z</time></trkpt><trkpt lat="43.4745609825631" lon="11.993026919536602"><ele>792.0</ele><time>2026-04-26T08:08:33.999Z</time></trkpt><trkpt lat="43.47462701526511" lon="11.993095846957312"><ele>792.0</ele><time>2026-04-26T08:08:34.999Z</time></trkpt><trkpt lat="43.47473940531591" lon="11.993114019216675"><ele>792.0</ele><time>2026-04-26T08:08:36.999Z</time></trkpt><trkpt lat="43.47484632485778" lon="11.993105697995968"><ele>793.0</ele><time>2026-04-26T08:08:38.999Z</time></trkpt><trkpt lat="43.47490780136053" lon="11.99319699901072"><ele>794.0</ele><time>2026-04-26T08:08:40.999Z</time></trkpt><trkpt lat="43.47489941148806" lon="11.993330475062576"><ele>795.0</ele><time>2026-04-26T08:08:43Z</time></trkpt><trkpt lat="43.47491393320328" lon="11.993434952287254"><ele>796.0</ele><time>2026-04-26T08:08:45Z</time></trkpt><trkpt lat="43.474951879307866" lon="11.993576822230937"><ele>797.0</ele><time>2026-04-26T08:08:47Z</time></trkpt><trkpt lat="43.474994183606185" lon="11.993665993238103"><ele>790.6</ele><time>2026-04-26T08:08:49Z</time></trkpt><trkpt lat="43.47503883767042" lon="11.993773490005463"><ele>784.2</ele><time>2026-04-26T08:08:51Z</time></trkpt><trkpt lat="43.47512938859008" lon="11.993845558377766"><ele>777.8</ele><time>2026-04-26T08:08:53Z</time></trkpt><trkpt lat="43.475231009139556" lon="11.993870441230197"><ele>771.4</ele><time>2026-04-26T08:08:55Z</time></trkpt><trkpt lat="43.475331280982445" lon="11.993860447608757"><ele>765.0</ele><time>2026-04-26T08:08:57Z</time></trkpt><trkpt lat="43.475394158853234" lon="11.993813705444726"><ele>766.0</ele><time>2026-04-26T08:08:58Z</time></trkpt><trkpt lat="43.47549921341981" lon="11.993773856649787"><ele>767.0</ele><time>2026-04-26T08:09:00Z</time></trkpt><trkpt lat="43.47562172225232" lon="11.993748618679072"><ele>768.0</ele><time>2026-04-26T08:09:02Z</time></trkpt><trkpt lat="43.47573463140422" lon="11.99377967732854"><ele>769.0</ele><time>2026-04-26T08:09:04Z</time></trkpt><trkpt lat="43.47580466991229" lon="11.993846844115206"><ele>770.0</ele><time>2026-04-26T08:09:05Z</time></trkpt><trkpt lat="43.475875616874546" lon="11.993943113034913"><ele>770.0000000000001</ele><time>2026-04-26T08:09:06Z</time></trkpt><trkpt lat="43.4759384933515" lon="11.994009972709149"><ele>770.0</ele><time>2026-04-26T08:09:07Z</time></trkpt><trkpt lat="43.47601186595753" lon="11.994064063117555"><ele>770.0</ele><time>2026-04-26T08:09:08Z</time></trkpt><trkpt lat="43.476089507973136" lon="11.994093962161385"><ele>770.0</ele><time>2026-04-26T08:09:09Z</time></trkpt><trkpt lat="43.476191477079446" lon="11.99411874581451"><ele>770.0000000000001</ele><time>2026-04-26T08:09:10Z</time></trkpt><trkpt lat="43.476273526279655" lon="11.994150559272006"><ele>770.0</ele><time>2026-04-26T08:09:11Z</time></trkpt><trkpt lat="43.4763589554534" lon="11.994192788233182"><ele>771.6</ele><time>2026-04-26T08:09:12Z</time></trkpt><trkpt lat="43.47644970042954" lon="11.994243986060827"><ele>773.2</ele><time>2026-04-26T08:09:13Z</time></trkpt><trkpt lat="43.47653867509577" lon="11.994299471998803"><ele>774.8</ele><time>2026-04-26T08:09:14Z</time></trkpt><trkpt lat="43.476600330524505" lon="11.994379457312876"><ele>776.4</ele><time>2026-04-26T08:09:15Z</time></trkpt><trkpt lat="43.47664831718619" lon="11.994453488870985"><ele>778.0</ele><time>2026-04-26T08:09:16Z</time></trkpt><trkpt lat="43.47670682284171" lon="11.994598006909122"><ele>778.0</ele><time>2026-04-26T08:09:18Z</time></trkpt><trkpt lat="43.47667186905076" lon="11.994756073121906"><ele>778.0</ele><time>2026-04-26T08:09:20Z</time></trkpt><trkpt lat="43.476617040813856" lon="11.994918933445648"><ele>778.0</ele><time>2026-04-26T08:09:22Z</time></trkpt><trkpt lat="43.476595545527445" lon="11.995024084454718"><ele>778.0</ele><time>2026-04-26T08:09:23Z</time></trkpt><trkpt lat="43.47656877711127" lon="11.995118678297551"><ele>778.0</ele><time>2026-04-26T08:09:24Z</time></trkpt><trkpt lat="43.476561777939665" lon="11.995218997292541"><ele>778.8</ele><time>2026-04-26T08:09:25Z</time></trkpt><trkpt lat="43.47656980962081" lon="11.995318972413685"><ele>779.5999999999999</ele><time>2026-04-26T08:09:26Z</time></trkpt><trkpt lat="43.476597561167914" lon="11.995427257471922"><ele>780.4000000000001</ele><time>2026-04-26T08:09:27Z</time></trkpt><trkpt lat="43.476629244604844" lon="11.995525016483793"><ele>781.2</ele><time>2026-04-26T08:09:28Z</time></trkpt><trkpt lat="43.47663121258052" lon="11.995682294887533"><ele>782.0</ele><time>2026-04-26T08:09:30Z</time></trkpt><trkpt lat="43.476596134970436" lon="11.995815417860397"><ele>784.6666666666667</ele><time>2026-04-26T08:09:32Z</time></trkpt><trkpt lat="43.476531391647484" lon="11.995840414111411"><ele>787.3333333333334</ele><time>2026-04-26T08:09:33Z</time></trkpt><trkpt lat="43.47647737419423" lon="11.995895839987252"><ele>790.0</ele><time>2026-04-26T08:09:33.999Z</time></trkpt><trkpt lat="43.47641829705391" lon="11.995963244081645"><ele>792.6666666666667</ele><time>2026-04-26T08:09:34.999Z</time></trkpt><trkpt lat="43.47636491087134" lon="11.996050664960613"><ele>795.3333333333334</ele><time>2026-04-26T08:09:35.999Z</time></trkpt><trkpt lat="43.476282788442546" lon="11.996142130105213"><ele>798.0</ele><time>2026-04-26T08:09:36.999Z</time></trkpt><trkpt lat="43.47621207579784" lon="11.99624395210448"><ele>792.3333333333334</ele><time>2026-04-26T08:09:37.999Z</time></trkpt><trkpt lat="43.47615466363656" lon="11.9963663232575"><ele>786.6666666666666</ele><time>2026-04-26T08:09:38.999Z</time></trkpt><trkpt lat="43.476118781903814" lon="11.996468461967464"><ele>781.0</ele><time>2026-04-26T08:09:39.999Z</time></trkpt><trkpt lat="43.47609639014039" lon="11.996554769635676"><ele>775.3333333333333</ele><time>2026-04-26T08:09:40.999Z</time></trkpt><trkpt lat="43.47605918497198" lon="11.99662483966452"><ele>769.6666666666666</ele><time>2026-04-26T08:09:41.999Z</time></trkpt><trkpt lat="43.47608442058832" lon="11.996783316367932"><ele>764.0</ele><time>2026-04-26T08:09:43.999Z</time></trkpt><trkpt lat="43.476092926727894" lon="11.996891977003628"><ele>764.0</ele><time>2026-04-26T08:09:44.999Z</time></trkpt><trkpt lat="43.47613035226923" lon="11.997015492084195"><ele>764.0</ele><time>2026-04-26T08:09:45.999Z</time></trkpt><trkpt lat="43.47618891463208" lon="11.997129647980774"><ele>764.0</ele><time>2026-04-26T08:09:46.999Z</time></trkpt><trkpt lat="43.47624650151304" lon="11.997199059068247"><ele>764.0</ele><time>2026-04-26T08:09:47.999Z</time></trkpt><trkpt lat="43.476281805976306" lon="11.997280306343294"><ele>764.0</ele><time>2026-04-26T08:09:48.999Z</time></trkpt><trkpt lat="43.476298692460254" lon="11.997370121620921"><ele>764.0</ele><time>2026-04-26T08:09:49.999Z</time></trkpt><trkpt lat="43.47631146107923" lon="11.9975200541218"><ele>767.5</ele><time>2026-04-26T08:09:51.999Z</time></trkpt><trkpt lat="43.47626927353122" lon="11.997674139467415"><ele>771.0</ele><time>2026-04-26T08:09:53.999Z</time></trkpt><trkpt lat="43.476221559956564" lon="11.997771747962286"><ele>774.5</ele><time>2026-04-26T08:09:54.999Z</time></trkpt><trkpt lat="43.476158025767106" lon="11.997894537491922"><ele>778.0</ele><time>2026-04-26T08:09:55.999Z</time></trkpt><trkpt lat="43.47606689303441" lon="11.99805135814822"><ele>778.0</ele><time>2026-04-26T08:09:56.999Z</time></trkpt><trkpt lat="43.47597213869442" lon="11.998213151272235"><ele>778.0</ele><time>2026-04-26T08:09:57.999Z</time></trkpt><trkpt lat="43.475885095066" lon="11.998357378266677"><ele>778.0</ele><time>2026-04-26T08:09:58.999Z</time></trkpt><trkpt lat="43.47582686515197" lon="11.998468156535472"><ele>778.0</ele><time>2026-04-26T08:09:59.999Z</time></trkpt><trkpt lat="43.47579047436616" lon="11.998565589924153"><ele>780.1666666666666</ele><time>2026-04-26T08:10:00.999Z</time></trkpt><trkpt lat="43.475752705597756" lon="11.998647171584848"><ele>782.3333333333333</ele><time>2026-04-26T08:10:01.999Z</time></trkpt><trkpt lat="43.47572954954518" lon="11.99874151004834"><ele>784.5</ele><time>2026-04-26T08:10:02.999Z</time></trkpt><trkpt lat="43.47570769964552" lon="11.998831905649267"><ele>786.6666666666667</ele><time>2026-04-26T08:10:03.999Z</time></trkpt><trkpt lat="43.475615642511926" lon="11.998988894796643"><ele>788.8333333333334</ele><time>2026-04-26T08:10:05.999Z</time></trkpt><trkpt lat="43.47555548444541" lon="11.999037541281623"><ele>791.0</ele><time>2026-04-26T08:10:06.999Z</time></trkpt><trkpt lat="43.47551245919439" lon="11.999110285306692"><ele>792.4</ele><time>2026-04-26T08:10:07.999Z</time></trkpt><trkpt lat="43.47551041427833" lon="11.999212381954363"><ele>793.8</ele><time>2026-04-26T08:10:08.999Z</time></trkpt><trkpt lat="43.475515071866994" lon="11.999311978417111"><ele>795.1999999999999</ele><time>2026-04-26T08:10:09.999Z</time></trkpt><trkpt lat="43.475535516086694" lon="11.999444794170678"><ele>796.5999999999999</ele><time>2026-04-26T08:10:10.999Z</time></trkpt><trkpt lat="43.47553583138371" lon="11.99958347890351"><ele>798.0</ele><time>2026-04-26T08:10:11.999Z</time></trkpt><trkpt lat="43.47553387812369" lon="11.999730106211848"><ele>798.0</ele><time>2026-04-26T08:10:12.999Z</time></trkpt><trkpt lat="43.47551891215789" lon="11.999872053997485"><ele>798.0</ele><time>2026-04-26T08:10:13.999Z</time></trkpt><trkpt lat="43.47550363182602" lon="11.999983193201388"><ele>798.0</ele><time>2026-04-26T08:10:14.999Z</time></trkpt><trkpt lat="43.475482709025464" lon="12.000092870996717"><ele>798.0</ele><time>2026-04-26T08:10:15.999Z</time></trkpt><trkpt lat="43.475462355583765" lon="12.000186076709257"><ele>798.0</ele><time>2026-04-26T08:10:16.999Z</time></trkpt><trkpt lat="43.475443259907344" lon="12.000271164761642"><ele>798.0</ele><time>2026-04-26T08:10:17.999Z</time></trkpt><trkpt lat="43.475400572039796" lon="12.000418562541238"><ele>793.4</ele><time>2026-04-26T08:10:19.999Z</time></trkpt><trkpt lat="43.47532898067215" lon="12.000542807787937"><ele>788.8</ele><time>2026-04-26T08:10:21.999Z</time></trkpt><trkpt lat="43.47521004358095" lon="12.000637472182694"><ele>784.2</ele><time>2026-04-26T08:10:23.999Z</time></trkpt><trkpt lat="43.475132398534946" lon="12.000706857071657"><ele>779.6</ele><time>2026-04-26T08:10:24.999Z</time></trkpt><trkpt lat="43.47505322289261" lon="12.000788228845883"><ele>775.0</ele><time>2026-04-26T08:10:25.999Z</time></trkpt><trkpt lat="43.47497125257764" lon="12.000860989814914"><ele>774.9999999999999</ele><time>2026-04-26T08:10:26.999Z</time></trkpt><trkpt lat="43.47488630020289" lon="12.000926428822805"><ele>775.0</ele><time>2026-04-26T08:10:27.999Z</time></trkpt><trkpt lat="43.47480336390812" lon="12.00098206812131"><ele>775.0</ele><time>2026-04-26T08:10:28.999Z</time></trkpt><trkpt lat="43.47472926568165" lon="12.001030220915569"><ele>775.0</ele><time>2026-04-26T08:10:29.999Z</time></trkpt><trkpt lat="43.474648502901466" lon="12.001084092052437"><ele>774.9999999999999</ele><time>2026-04-26T08:10:30.999Z</time></trkpt><trkpt lat="43.474585668168245" lon="12.001130523826044"><ele>775.0</ele><time>2026-04-26T08:10:31.999Z</time></trkpt><trkpt lat="43.474514115184384" lon="12.00118865263323"><ele>770.6</ele><time>2026-04-26T08:10:32.999Z</time></trkpt><trkpt lat="43.47442895421393" lon="12.001270018128631"><ele>766.2</ele><time>2026-04-26T08:10:33.999Z</time></trkpt><trkpt lat="43.474325014271535" lon="12.001350231036662"><ele>761.8</ele><time>2026-04-26T08:10:34.999Z</time></trkpt><trkpt lat="43.474230374367245" lon="12.00145012541944"><ele>757.4</ele><time>2026-04-26T08:10:35.999Z</time></trkpt><trkpt lat="43.47415537071823" lon="12.001553159107473"><ele>753.0</ele><time>2026-04-26T08:10:36.999Z</time></trkpt><trkpt lat="43.47408540975957" lon="12.00163308456735"><ele>754.2</ele><time>2026-04-26T08:10:37.999Z</time></trkpt><trkpt lat="43.474028835705575" lon="12.001722018796462"><ele>755.4</ele><time>2026-04-26T08:10:38.999Z</time></trkpt><trkpt lat="43.473982536170425" lon="12.001817760902272"><ele>756.6</ele><time>2026-04-26T08:10:39.999Z</time></trkpt><trkpt lat="43.47394391070415" lon="12.001933389129364"><ele>757.8000000000001</ele><time>2026-04-26T08:10:40.999Z</time></trkpt><trkpt lat="43.473903614379914" lon="12.002059744823088"><ele>759.0</ele><time>2026-04-26T08:10:41.999Z</time></trkpt><trkpt lat="43.473869754492526" lon="12.002190082976997"><ele>759.0</ele><time>2026-04-26T08:10:42.999Z</time></trkpt><trkpt lat="43.47384747758133" lon="12.002321395923284"><ele>759.0</ele><time>2026-04-26T08:10:43.999Z</time></trkpt><trkpt lat="43.47384046064815" lon="12.002445999726184"><ele>759.0</ele><time>2026-04-26T08:10:44.999Z</time></trkpt><trkpt lat="43.47385051624067" lon="12.002568977318095"><ele>759.0</ele><time>2026-04-26T08:10:45.999Z</time></trkpt><trkpt lat="43.473878702455394" lon="12.002690027998087"><ele>759.0</ele><time>2026-04-26T08:10:46.999Z</time></trkpt><trkpt lat="43.473921531039444" lon="12.002833872902395"><ele>759.5</ele><time>2026-04-26T08:10:48Z</time></trkpt><trkpt lat="43.4739609160096" lon="12.002960917113057"><ele>760.0</ele><time>2026-04-26T08:10:49Z</time></trkpt><trkpt lat="43.47398750400263" lon="12.003048360672038"><ele>760.5</ele><time>2026-04-26T08:10:50Z</time></trkpt><trkpt lat="43.47401245011326" lon="12.00314087715241"><ele>761.0</ele><time>2026-04-26T08:10:51Z</time></trkpt><trkpt lat="43.47403941420574" lon="12.003235156395277"><ele>761.5</ele><time>2026-04-26T08:10:52Z</time></trkpt><trkpt lat="43.47407739600054" lon="12.003328601467048"><ele>762.0</ele><time>2026-04-26T08:10:53Z</time></trkpt><trkpt lat="43.47411493143144" lon="12.003401166889498"><ele>762.0</ele><time>2026-04-26T08:10:54Z</time></trkpt><trkpt lat="43.47421703846119" lon="12.003465457764982"><ele>762.0</ele><time>2026-04-26T08:10:56Z</time></trkpt><trkpt lat="43.47434193380344" lon="12.003447786208671"><ele>762.0</ele><time>2026-04-26T08:10:58Z</time></trkpt><trkpt lat="43.4743988456448" lon="12.003362406998024"><ele>762.0</ele><time>2026-04-26T08:10:59Z</time></trkpt><trkpt lat="43.474447730968755" lon="12.003279367503746"><ele>762.0</ele><time>2026-04-26T08:11:00Z</time></trkpt><trkpt lat="43.47449057988572" lon="12.003197241959976"><ele>762.0</ele><time>2026-04-26T08:11:01Z</time></trkpt><trkpt lat="43.47454369535232" lon="12.00314547785772"><ele>762.0</ele><time>2026-04-26T08:11:02Z</time></trkpt><trkpt lat="43.47457786067187" lon="12.00307127258675"><ele>762.0</ele><time>2026-04-26T08:11:03Z</time></trkpt><trkpt lat="43.47468834982919" lon="12.002977779217575"><ele>762.0</ele><time>2026-04-26T08:11:05Z</time></trkpt><trkpt lat="43.47476475236782" lon="12.002969383004336"><ele>762.0</ele><time>2026-04-26T08:11:07Z</time></trkpt><trkpt lat="43.474841562200204" lon="12.002967961683815"><ele>762.0</ele><time>2026-04-26T08:11:10Z</time></trkpt><trkpt lat="43.47493453890459" lon="12.003052854660874"><ele>760.3333333333334</ele><time>2026-04-26T08:11:12Z</time></trkpt><trkpt lat="43.47498663176917" lon="12.00316978671604"><ele>758.6666666666666</ele><time>2026-04-26T08:11:13Z</time></trkpt><trkpt lat="43.47504302971526" lon="12.003257566239594"><ele>757.0</ele><time>2026-04-26T08:11:14Z</time></trkpt><trkpt lat="43.475088859583245" lon="12.00332794303676"><ele>755.3333333333333</ele><time>2026-04-26T08:11:15Z</time></trkpt><trkpt lat="43.475172672489975" lon="12.003432585888289"><ele>753.6666666666666</ele><time>2026-04-26T08:11:17Z</time></trkpt><trkpt lat="43.47525416562064" lon="12.003434525937125"><ele>752.0</ele><time>2026-04-26T08:11:18Z</time></trkpt><trkpt lat="43.47532847690004" lon="12.00342110918166"><ele>752.0</ele><time>2026-04-26T08:11:19Z</time></trkpt><trkpt lat="43.47541719363892" lon="12.003402850881448"><ele>752.0</ele><time>2026-04-26T08:11:20Z</time></trkpt><trkpt lat="43.47550622107067" lon="12.003397798699726"><ele>752.0</ele><time>2026-04-26T08:11:21Z</time></trkpt><trkpt lat="43.47558854012898" lon="12.003401155510428"><ele>752.0</ele><time>2026-04-26T08:11:22Z</time></trkpt><trkpt lat="43.47566711616052" lon="12.003421519181629"><ele>752.0</ele><time>2026-04-26T08:11:23Z</time></trkpt><trkpt lat="43.475746857411096" lon="12.003453020988958"><ele>752.0</ele><time>2026-04-26T08:11:24Z</time></trkpt><trkpt lat="43.47582745669063" lon="12.003502659578205"><ele>753.2</ele><time>2026-04-26T08:11:25Z</time></trkpt><trkpt lat="43.47589315899346" lon="12.003566628977104"><ele>754.4000000000001</ele><time>2026-04-26T08:11:26Z</time></trkpt><trkpt lat="43.475943999203935" lon="12.00365886866026"><ele>755.5999999999999</ele><time>2026-04-26T08:11:27Z</time></trkpt><trkpt lat="43.476046274143584" lon="12.003740383871111"><ele>756.8</ele><time>2026-04-26T08:11:29Z</time></trkpt><trkpt lat="43.4761683729519" lon="12.00369957209788"><ele>758.0</ele><time>2026-04-26T08:11:31Z</time></trkpt><trkpt lat="43.476238787896094" lon="12.00364223492837"><ele>758.1666666666666</ele><time>2026-04-26T08:11:32Z</time></trkpt><trkpt lat="43.476309989364644" lon="12.003591335445533"><ele>758.3333333333333</ele><time>2026-04-26T08:11:33Z</time></trkpt><trkpt lat="43.47638082480532" lon="12.003576403666612"><ele>758.5</ele><time>2026-04-26T08:11:34Z</time></trkpt><trkpt lat="43.4764627231576" lon="12.003575590449314"><ele>758.6666666666666</ele><time>2026-04-26T08:11:35Z</time></trkpt><trkpt lat="43.476546259299326" lon="12.003588883905882"><ele>758.8333333333334</ele><time>2026-04-26T08:11:36Z</time></trkpt><trkpt lat="43.476627326427064" lon="12.003604034186688"><ele>759.0</ele><time>2026-04-26T08:11:37Z</time></trkpt><trkpt lat="43.47670759894823" lon="12.003624476463509"><ele>759.0</ele><time>2026-04-26T08:11:38Z</time></trkpt><trkpt lat="43.47679317328095" lon="12.003634018507025"><ele>759.0</ele><time>2026-04-26T08:11:39Z</time></trkpt><trkpt lat="43.47687467782277" lon="12.003655351734231"><ele>759.0</ele><time>2026-04-26T08:11:40Z</time></trkpt><trkpt lat="43.47695187670759" lon="12.003667784192592"><ele>759.0</ele><time>2026-04-26T08:11:41Z</time></trkpt><trkpt lat="43.47701409108189" lon="12.003704177725602"><ele>759.0</ele><time>2026-04-26T08:11:42Z</time></trkpt><trkpt lat="43.47714439629411" lon="12.003771490021824"><ele>758.3333333333334</ele><time>2026-04-26T08:11:43.999Z</time></trkpt><trkpt lat="43.477216697989306" lon="12.003769106919886"><ele>757.6666666666666</ele><time>2026-04-26T08:11:44.999Z</time></trkpt><trkpt lat="43.477283374465856" lon="12.00374359840252"><ele>757.0</ele><time>2026-04-26T08:11:45.999Z</time></trkpt><trkpt lat="43.47735408139187" lon="12.003722453519925"><ele>756.3333333333333</ele><time>2026-04-26T08:11:46.999Z</time></trkpt><trkpt lat="43.47743402435105" lon="12.003729310801187"><ele>755.6666666666666</ele><time>2026-04-26T08:11:47.999Z</time></trkpt><trkpt lat="43.47750773252988" lon="12.003763468295723"><ele>755.0</ele><time>2026-04-26T08:11:48.999Z</time></trkpt><trkpt lat="43.47758304223331" lon="12.003804705758977"><ele>755.0</ele><time>2026-04-26T08:11:49.999Z</time></trkpt><trkpt lat="43.477653620971836" lon="12.003853209249908"><ele>755.0</ele><time>2026-04-26T08:11:50.999Z</time></trkpt><trkpt lat="43.477713654806394" lon="12.003904370731474"><ele>755.0</ele><time>2026-04-26T08:11:51.999Z</time></trkpt><trkpt lat="43.477789790542516" lon="12.003981033939993"><ele>755.0</ele><time>2026-04-26T08:11:52.999Z</time></trkpt><trkpt lat="43.477862312219656" lon="12.004057519676719"><ele>755.0</ele><time>2026-04-26T08:11:53.999Z</time></trkpt><trkpt lat="43.47792005503004" lon="12.00410385713041"><ele>755.0</ele><time>2026-04-26T08:11:54.999Z</time></trkpt><trkpt lat="43.47798147231945" lon="12.00416056256888"><ele>752.6666666666666</ele><time>2026-04-26T08:11:55.999Z</time></trkpt><trkpt lat="43.47805136070061" lon="12.004226540280026"><ele>750.3333333333333</ele><time>2026-04-26T08:11:56.999Z</time></trkpt><trkpt lat="43.47811793502369" lon="12.004282872386137"><ele>748.0</ele><time>2026-04-26T08:11:57.999Z</time></trkpt><trkpt lat="43.47818333144286" lon="12.004338066568616"><ele>745.6666666666666</ele><time>2026-04-26T08:11:58.999Z</time></trkpt><trkpt lat="43.478248683627584" lon="12.004379257427995"><ele>743.3333333333334</ele><time>2026-04-26T08:11:59.999Z</time></trkpt><trkpt lat="43.478323789862486" lon="12.004405255340147"><ele>741.0</ele><time>2026-04-26T08:12:00.999Z</time></trkpt><trkpt lat="43.478419740386656" lon="12.004448014455324"><ele>741.0</ele><time>2026-04-26T08:12:01.999Z</time></trkpt><trkpt lat="43.47852785401317" lon="12.004530162701219"><ele>741.0</ele><time>2026-04-26T08:12:02.999Z</time></trkpt><trkpt lat="43.478616688877324" lon="12.004608117419837"><ele>741.0</ele><time>2026-04-26T08:12:03.999Z</time></trkpt><trkpt lat="43.47869472479462" lon="12.0046774061609"><ele>741.0</ele><time>2026-04-26T08:12:04.999Z</time></trkpt><trkpt lat="43.47876656509015" lon="12.004736374698561"><ele>741.0</ele><time>2026-04-26T08:12:05.999Z</time></trkpt><trkpt lat="43.478825056939506" lon="12.004797461659509"><ele>743.4</ele><time>2026-04-26T08:12:06.999Z</time></trkpt><trkpt lat="43.4788827542242" lon="12.004848118860288"><ele>745.8</ele><time>2026-04-26T08:12:07.999Z</time></trkpt><trkpt lat="43.47898050621242" lon="12.004931955752925"><ele>748.1999999999999</ele><time>2026-04-26T08:12:09.999Z</time></trkpt><trkpt lat="43.47909023157191" lon="12.005031972259902"><ele>750.5999999999999</ele><time>2026-04-26T08:12:11.999Z</time></trkpt><trkpt lat="43.47914453255197" lon="12.005099504179206"><ele>753.0</ele><time>2026-04-26T08:12:12.999Z</time></trkpt><trkpt lat="43.479187615163504" lon="12.005187182964539"><ele>748.2</ele><time>2026-04-26T08:12:13.999Z</time></trkpt><trkpt lat="43.479216675539185" lon="12.00529951832884"><ele>743.4</ele><time>2026-04-26T08:12:14.999Z</time></trkpt><trkpt lat="43.47923741101307" lon="12.005429423292135"><ele>738.6</ele><time>2026-04-26T08:12:15.999Z</time></trkpt><trkpt lat="43.479257986942194" lon="12.00555683656339"><ele>733.8000000000001</ele><time>2026-04-26T08:12:16.999Z</time></trkpt><trkpt lat="43.479299922195395" lon="12.005675671314346"><ele>729.0</ele><time>2026-04-26T08:12:17.999Z</time></trkpt><trkpt lat="43.47935005812884" lon="12.005767123748074"><ele>725.5</ele><time>2026-04-26T08:12:18.999Z</time></trkpt><trkpt lat="43.4794234602621" lon="12.005894611890266"><ele>722.0</ele><time>2026-04-26T08:12:20.999Z</time></trkpt><trkpt lat="43.479455601572354" lon="12.005978677046452"><ele>718.5</ele><time>2026-04-26T08:12:21.999Z</time></trkpt><trkpt lat="43.47950036903723" lon="12.00606201423755"><ele>715.0</ele><time>2026-04-26T08:12:22.999Z</time></trkpt><trkpt lat="43.47954139482654" lon="12.00614628542205"><ele>711.5</ele><time>2026-04-26T08:12:23.999Z</time></trkpt><trkpt lat="43.47956879210148" lon="12.006228988985194"><ele>708.0</ele><time>2026-04-26T08:12:24.999Z</time></trkpt><trkpt lat="43.479591423164315" lon="12.006397705033097"><ele>708.0</ele><time>2026-04-26T08:12:26.999Z</time></trkpt><trkpt lat="43.47959335183996" lon="12.006496372681461"><ele>708.0</ele><time>2026-04-26T08:12:27.999Z</time></trkpt><trkpt lat="43.47959608505886" lon="12.006583785824745"><ele>708.0</ele><time>2026-04-26T08:12:28.999Z</time></trkpt><trkpt lat="43.47960482881606" lon="12.006745696973297"><ele>708.0</ele><time>2026-04-26T08:12:30.999Z</time></trkpt><trkpt lat="43.47961358729225" lon="12.006836482875283"><ele>708.0</ele><time>2026-04-26T08:12:31.999Z</time></trkpt><trkpt lat="43.47961205201482" lon="12.006938936540463"><ele>708.0</ele><time>2026-04-26T08:12:32.999Z</time></trkpt><trkpt lat="43.479581042831185" lon="12.007096725928195"><ele>704.2</ele><time>2026-04-26T08:12:34.999Z</time></trkpt><trkpt lat="43.47956538041325" lon="12.007242011433057"><ele>700.4</ele><time>2026-04-26T08:12:36.999Z</time></trkpt><trkpt lat="43.47951410724189" lon="12.007381844331558"><ele>696.6</ele><time>2026-04-26T08:12:38.999Z</time></trkpt><trkpt lat="43.47946747947311" lon="12.007512971667497"><ele>692.8000000000001</ele><time>2026-04-26T08:12:40.999Z</time></trkpt><trkpt lat="43.47943518380835" lon="12.007591816448944"><ele>689.0</ele><time>2026-04-26T08:12:41.999Z</time></trkpt><trkpt lat="43.47940238330775" lon="12.007668247214598"><ele>688.1666666666666</ele><time>2026-04-26T08:12:42.999Z</time></trkpt><trkpt lat="43.47936752468131" lon="12.007756180012027"><ele>687.3333333333333</ele><time>2026-04-26T08:12:43.999Z</time></trkpt><trkpt lat="43.479336428713566" lon="12.00784704445461"><ele>686.5</ele><time>2026-04-26T08:12:44.999Z</time></trkpt><trkpt lat="43.47930900599527" lon="12.007943282930349"><ele>685.6666666666666</ele><time>2026-04-26T08:12:45.999Z</time></trkpt><trkpt lat="43.47928542764277" lon="12.008049909547339"><ele>684.8333333333334</ele><time>2026-04-26T08:12:46.999Z</time></trkpt><trkpt lat="43.47929049276415" lon="12.008143809533236"><ele>684.0</ele><time>2026-04-26T08:12:47.999Z</time></trkpt><trkpt lat="43.47929989147138" lon="12.008344173201358"><ele>683.6</ele><time>2026-04-26T08:12:49.999Z</time></trkpt><trkpt lat="43.47943247041892" lon="12.008449069077708"><ele>683.2</ele><time>2026-04-26T08:12:51.999Z</time></trkpt><trkpt lat="43.4794805417321" lon="12.008514028094458"><ele>682.8000000000001</ele><time>2026-04-26T08:12:54Z</time></trkpt><trkpt lat="43.47948329403261" lon="12.008606226350794"><ele>682.4000000000001</ele><time>2026-04-26T08:12:55Z</time></trkpt><trkpt lat="43.47945745763985" lon="12.008752011043534"><ele>682.0</ele><time>2026-04-26T08:12:57Z</time></trkpt><trkpt lat="43.47938732968207" lon="12.008902160202899"><ele>682.0</ele><time>2026-04-26T08:12:59Z</time></trkpt><trkpt lat="43.47934290133195" lon="12.009039522801759"><ele>682.0</ele><time>2026-04-26T08:13:00Z</time></trkpt><trkpt lat="43.47928100689206" lon="12.009216134920779"><ele>682.0</ele><time>2026-04-26T08:13:02Z</time></trkpt><trkpt lat="43.47921575246423" lon="12.009297418078644"><ele>682.0</ele><time>2026-04-26T08:13:04Z</time></trkpt><trkpt lat="43.47913580112783" lon="12.009389771989179"><ele>682.0</ele><time>2026-04-26T08:13:06Z</time></trkpt><trkpt lat="43.479119151732625" lon="12.009494432639922"><ele>681.5</ele><time>2026-04-26T08:13:08Z</time></trkpt><trkpt lat="43.47916032372095" lon="12.009595541234553"><ele>681.0</ele><time>2026-04-26T08:13:10Z</time></trkpt><trkpt lat="43.47921390120009" lon="12.009678333855959"><ele>680.5</ele><time>2026-04-26T08:13:12Z</time></trkpt><trkpt lat="43.479278459754255" lon="12.009739893380956"><ele>680.0</ele><time>2026-04-26T08:13:14Z</time></trkpt><trkpt lat="43.4793583885562" lon="12.009748028821761"><ele>679.5</ele><time>2026-04-26T08:13:16Z</time></trkpt><trkpt lat="43.479454130173664" lon="12.009770408562135"><ele>679.0</ele><time>2026-04-26T08:13:18Z</time></trkpt><trkpt lat="43.47956647670409" lon="12.009845924749943"><ele>680.8000000000001</ele><time>2026-04-26T08:13:20Z</time></trkpt><trkpt lat="43.47961224968844" lon="12.009942585084444"><ele>682.6</ele><time>2026-04-26T08:13:21Z</time></trkpt><trkpt lat="43.47966836429077" lon="12.010069513192636"><ele>684.4</ele><time>2026-04-26T08:13:23Z</time></trkpt><trkpt lat="43.4797649517993" lon="12.010174439181775"><ele>686.2</ele><time>2026-04-26T08:13:24Z</time></trkpt><trkpt lat="43.479828659843186" lon="12.010282461636722"><ele>688.0</ele><time>2026-04-26T08:13:25Z</time></trkpt><trkpt lat="43.47986624595228" lon="12.0103913013037"><ele>688.0</ele><time>2026-04-26T08:13:26Z</time></trkpt><trkpt lat="43.47991837814607" lon="12.010499116410243"><ele>688.0</ele><time>2026-04-26T08:13:27Z</time></trkpt><trkpt lat="43.47999051931299" lon="12.010581772520528"><ele>688.0</ele><time>2026-04-26T08:13:28Z</time></trkpt><trkpt lat="43.480059568871646" lon="12.01065586608917"><ele>688.0</ele><time>2026-04-26T08:13:29Z</time></trkpt><trkpt lat="43.48014808621155" lon="12.010736965283327"><ele>688.0</ele><time>2026-04-26T08:13:30Z</time></trkpt><trkpt lat="43.48024312256275" lon="12.010825472647198"><ele>691.5999999999999</ele><time>2026-04-26T08:13:31Z</time></trkpt><trkpt lat="43.480322048823005" lon="12.010902573832853"><ele>695.1999999999999</ele><time>2026-04-26T08:13:32Z</time></trkpt><trkpt lat="43.48040952921525" lon="12.010983779675037"><ele>698.8</ele><time>2026-04-26T08:13:33Z</time></trkpt><trkpt lat="43.48047706942725" lon="12.011055027662978"><ele>702.4</ele><time>2026-04-26T08:13:34Z</time></trkpt><trkpt lat="43.48052778135441" lon="12.01111443180178"><ele>706.0</ele><time>2026-04-26T08:13:35Z</time></trkpt><trkpt lat="43.480550886423465" lon="12.01125716032786"><ele>706.0</ele><time>2026-04-26T08:13:37Z</time></trkpt><trkpt lat="43.480524726540516" lon="12.01134812268843"><ele>706.0</ele><time>2026-04-26T08:13:38Z</time></trkpt><trkpt lat="43.4804722618457" lon="12.01144122882641"><ele>706.0</ele><time>2026-04-26T08:13:39Z</time></trkpt><trkpt lat="43.48040123612531" lon="12.011495979867332"><ele>706.0</ele><time>2026-04-26T08:13:40Z</time></trkpt><trkpt lat="43.48033001924312" lon="12.011581962877246"><ele>706.0</ele><time>2026-04-26T08:13:41Z</time></trkpt><trkpt lat="43.480252911998534" lon="12.01166099037009"><ele>706.0</ele><time>2026-04-26T08:13:42Z</time></trkpt><trkpt lat="43.4801817475748" lon="12.011782193655458"><ele>696.5</ele><time>2026-04-26T08:13:43Z</time></trkpt><trkpt lat="43.480121844642596" lon="12.01190105160456"><ele>687.0</ele><time>2026-04-26T08:13:44Z</time></trkpt><trkpt lat="43.48003297134887" lon="12.011964112660328"><ele>677.5</ele><time>2026-04-26T08:13:45Z</time></trkpt><trkpt lat="43.479941986953136" lon="12.012054986696198"><ele>668.0</ele><time>2026-04-26T08:13:46Z</time></trkpt><trkpt lat="43.47980915479244" lon="12.012095684527251"><ele>668.0</ele><time>2026-04-26T08:13:47Z</time></trkpt><trkpt lat="43.47970588990598" lon="12.012177073772321"><ele>668.0</ele><time>2026-04-26T08:13:48Z</time></trkpt><trkpt lat="43.47963320925435" lon="12.012240509304506"><ele>668.0</ele><time>2026-04-26T08:13:49Z</time></trkpt><trkpt lat="43.47955120070317" lon="12.012306091009263"><ele>668.0</ele><time>2026-04-26T08:13:50Z</time></trkpt><trkpt lat="43.479523356371764" lon="12.012393188856306"><ele>668.0</ele><time>2026-04-26T08:13:51Z</time></trkpt><trkpt lat="43.47953609326828" lon="12.012548797238654"><ele>666.2</ele><time>2026-04-26T08:13:53Z</time></trkpt><trkpt lat="43.47959684755791" lon="12.0126120081568"><ele>664.4</ele><time>2026-04-26T08:13:54Z</time></trkpt><trkpt lat="43.47965791355793" lon="12.012654719955455"><ele>662.6</ele><time>2026-04-26T08:13:55Z</time></trkpt><trkpt lat="43.479797460878835" lon="12.01272175800781"><ele>660.8000000000001</ele><time>2026-04-26T08:13:57Z</time></trkpt><trkpt lat="43.47991331653764" lon="12.012759746062981"><ele>659.0</ele><time>2026-04-26T08:13:58Z</time></trkpt><trkpt lat="43.48002327162641" lon="12.012777969766466"><ele>662.8333333333333</ele><time>2026-04-26T08:13:58.999Z</time></trkpt><trkpt lat="43.48011306963741" lon="12.012812002124248"><ele>666.6666666666666</ele><time>2026-04-26T08:13:59.999Z</time></trkpt><trkpt lat="43.480179421447616" lon="12.012872146873375"><ele>670.5</ele><time>2026-04-26T08:14:00.999Z</time></trkpt><trkpt lat="43.480238109165015" lon="12.012935561264756"><ele>674.3333333333334</ele><time>2026-04-26T08:14:01.999Z</time></trkpt><trkpt lat="43.48029661957121" lon="12.013009452870998"><ele>678.1666666666667</ele><time>2026-04-26T08:14:02.999Z</time></trkpt><trkpt lat="43.48036417022143" lon="12.013070226030644"><ele>682.0</ele><time>2026-04-26T08:14:03.999Z</time></trkpt><trkpt lat="43.48042249888133" lon="12.013146819128066"><ele>684.4000000000001</ele><time>2026-04-26T08:14:04.999Z</time></trkpt><trkpt lat="43.48049238100331" lon="12.01323886948804"><ele>686.8000000000001</ele><time>2026-04-26T08:14:05.999Z</time></trkpt><trkpt lat="43.48054945592478" lon="12.013335046484666"><ele>689.2</ele><time>2026-04-26T08:14:06.999Z</time></trkpt><trkpt lat="43.48057783859296" lon="12.013502807546136"><ele>691.6</ele><time>2026-04-26T08:14:07.999Z</time></trkpt><trkpt lat="43.480646649903164" lon="12.01362955337384"><ele>694.0</ele><time>2026-04-26T08:14:08.999Z</time></trkpt><trkpt lat="43.480675251182454" lon="12.013728317349651"><ele>694.0</ele><time>2026-04-26T08:14:09.999Z</time></trkpt><trkpt lat="43.480695942646285" lon="12.013811907570064"><ele>694.0</ele><time>2026-04-26T08:14:10.999Z</time></trkpt><trkpt lat="43.48069927796978" lon="12.013910230058615"><ele>694.0</ele><time>2026-04-26T08:14:11.999Z</time></trkpt><trkpt lat="43.480681338617465" lon="12.014028583161643"><ele>694.0</ele><time>2026-04-26T08:14:12.999Z</time></trkpt><trkpt lat="43.48062354376258" lon="12.01413998196999"><ele>694.0</ele><time>2026-04-26T08:14:13.999Z</time></trkpt><trkpt lat="43.48060976446366" lon="12.01427564876696"><ele>694.0</ele><time>2026-04-26T08:14:14.999Z</time></trkpt><trkpt lat="43.480588542061064" lon="12.014405695311737"><ele>692.8333333333334</ele><time>2026-04-26T08:14:15.999Z</time></trkpt><trkpt lat="43.48059376281227" lon="12.014521248036463"><ele>691.6666666666667</ele><time>2026-04-26T08:14:16.999Z</time></trkpt><trkpt lat="43.48061096332123" lon="12.014625373394548"><ele>690.5</ele><time>2026-04-26T08:14:17.999Z</time></trkpt><trkpt lat="43.48064782665444" lon="12.014732908687787"><ele>689.3333333333334</ele><time>2026-04-26T08:14:18.999Z</time></trkpt><trkpt lat="43.48068561369263" lon="12.014851628002917"><ele>688.1666666666666</ele><time>2026-04-26T08:14:19.999Z</time></trkpt><trkpt lat="43.48072328196176" lon="12.014968756113115"><ele>687.0</ele><time>2026-04-26T08:14:20.999Z</time></trkpt><trkpt lat="43.48075888533043" lon="12.015085038925742"><ele>685.8333333333334</ele><time>2026-04-26T08:14:21.999Z</time></trkpt><trkpt lat="43.48081875546804" lon="12.015160136968989"><ele>684.6666666666666</ele><time>2026-04-26T08:14:22.999Z</time></trkpt><trkpt lat="43.48089033275991" lon="12.01526833809309"><ele>683.5</ele><time>2026-04-26T08:14:24.999Z</time></trkpt><trkpt lat="43.48095540617412" lon="12.015315717858703"><ele>682.3333333333333</ele><time>2026-04-26T08:14:25.999Z</time></trkpt><trkpt lat="43.48104939130876" lon="12.015364562102159"><ele>681.1666666666666</ele><time>2026-04-26T08:14:26.999Z</time></trkpt><trkpt lat="43.481120567648155" lon="12.01539517612081"><ele>680.0</ele><time>2026-04-26T08:14:27.999Z</time></trkpt><trkpt lat="43.481194690062644" lon="12.015410257696537"><ele>683.1428571428572</ele><time>2026-04-26T08:14:28.999Z</time></trkpt><trkpt lat="43.481267294003246" lon="12.015450051125702"><ele>686.2857142857142</ele><time>2026-04-26T08:14:29.999Z</time></trkpt><trkpt lat="43.4813410252855" lon="12.015475450998023"><ele>689.4285714285714</ele><time>2026-04-26T08:14:30.999Z</time></trkpt><trkpt lat="43.481404423128225" lon="12.015480077008657"><ele>692.5714285714287</ele><time>2026-04-26T08:14:31.999Z</time></trkpt><trkpt lat="43.481476053298216" lon="12.015500930218412"><ele>695.7142857142858</ele><time>2026-04-26T08:14:32.999Z</time></trkpt><trkpt lat="43.4815391404997" lon="12.015527123019206"><ele>698.8571428571429</ele><time>2026-04-26T08:14:33.999Z</time></trkpt><trkpt lat="43.48158949897594" lon="12.015586824587501"><ele>702.0</ele><time>2026-04-26T08:14:34.999Z</time></trkpt><trkpt lat="43.48165521010948" lon="12.015634055119843"><ele>702.0</ele><time>2026-04-26T08:14:35.999Z</time></trkpt><trkpt lat="43.48162791944363" lon="12.015736479644698"><ele>702.0</ele><time>2026-04-26T08:14:36.999Z</time></trkpt><trkpt lat="43.48163430961626" lon="12.015835174758694"><ele>702.0</ele><time>2026-04-26T08:14:37.999Z</time></trkpt><trkpt lat="43.48163874283282" lon="12.015968941365792"><ele>702.0</ele><time>2026-04-26T08:14:38.999Z</time></trkpt><trkpt lat="43.48164525186859" lon="12.016125339625816"><ele>702.0</ele><time>2026-04-26T08:14:39.999Z</time></trkpt><trkpt lat="43.48167722800138" lon="12.016237824899157"><ele>697.8</ele><time>2026-04-26T08:14:40.999Z</time></trkpt><trkpt lat="43.48174549885188" lon="12.01633693948561"><ele>693.6</ele><time>2026-04-26T08:14:41.999Z</time></trkpt><trkpt lat="43.48180932457188" lon="12.01642892419206"><ele>689.4</ele><time>2026-04-26T08:14:42.999Z</time></trkpt><trkpt lat="43.481897781428366" lon="12.01654652708479"><ele>685.1999999999999</ele><time>2026-04-26T08:14:43.999Z</time></trkpt><trkpt lat="43.48196898331019" lon="12.016700301458483"><ele>681.0</ele><time>2026-04-26T08:14:44.999Z</time></trkpt><trkpt lat="43.48205568785861" lon="12.016801807259622"><ele>682.1666666666666</ele><time>2026-04-26T08:14:45.999Z</time></trkpt><trkpt lat="43.4821344572271" lon="12.016891787550383"><ele>683.3333333333334</ele><time>2026-04-26T08:14:46.999Z</time></trkpt><trkpt lat="43.482207858722745" lon="12.016946466573064"><ele>684.5</ele><time>2026-04-26T08:14:47.999Z</time></trkpt><trkpt lat="43.482293281614645" lon="12.017009037314388"><ele>685.6666666666667</ele><time>2026-04-26T08:14:48.999Z</time></trkpt><trkpt lat="43.4823682390338" lon="12.017069205509207"><ele>686.8333333333334</ele><time>2026-04-26T08:14:49.999Z</time></trkpt><trkpt lat="43.482438614277044" lon="12.01711951419521"><ele>688.0</ele><time>2026-04-26T08:14:50.999Z</time></trkpt><trkpt lat="43.48250941171716" lon="12.01715934429412"><ele>688.0</ele><time>2026-04-26T08:14:51.999Z</time></trkpt><trkpt lat="43.48262485748426" lon="12.017234531677413"><ele>688.0</ele><time>2026-04-26T08:14:53.999Z</time></trkpt><trkpt lat="43.48272011597546" lon="12.017279193066983"><ele>688.0</ele><time>2026-04-26T08:14:55.999Z</time></trkpt><trkpt lat="43.48278865762014" lon="12.017330456156731"><ele>688.0</ele><time>2026-04-26T08:14:57.999Z</time></trkpt><trkpt lat="43.482835859882414" lon="12.017435560945007"><ele>688.0</ele><time>2026-04-26T08:15:00Z</time></trkpt><trkpt lat="43.482822187743494" lon="12.01756786973604"><ele>685.8</ele><time>2026-04-26T08:15:02Z</time></trkpt><trkpt lat="43.48277724315921" lon="12.017686428985003"><ele>683.5999999999999</ele><time>2026-04-26T08:15:04Z</time></trkpt><trkpt lat="43.482800341315524" lon="12.017831065912198"><ele>681.4000000000001</ele><time>2026-04-26T08:15:06Z</time></trkpt><trkpt lat="43.48282089959726" lon="12.017951776196599"><ele>679.2</ele><time>2026-04-26T08:15:07Z</time></trkpt><trkpt lat="43.482859758966555" lon="12.018132765275794"><ele>677.0</ele><time>2026-04-26T08:15:08Z</time></trkpt><trkpt lat="43.482932042607" lon="12.018347313491294"><ele>674.6</ele><time>2026-04-26T08:15:09Z</time></trkpt><trkpt lat="43.48297999470682" lon="12.018504415746238"><ele>672.2</ele><time>2026-04-26T08:15:10Z</time></trkpt><trkpt lat="43.48301696338766" lon="12.018639034119696"><ele>669.8</ele><time>2026-04-26T08:15:11Z</time></trkpt><trkpt lat="43.48306020070591" lon="12.01877178254809"><ele>667.4</ele><time>2026-04-26T08:15:12Z</time></trkpt><trkpt lat="43.483102893850116" lon="12.018893924062374"><ele>665.0</ele><time>2026-04-26T08:15:13Z</time></trkpt><trkpt lat="43.483106917876874" lon="12.019021798866794"><ele>665.0</ele><time>2026-04-26T08:15:14Z</time></trkpt><trkpt lat="43.48313793375778" lon="12.019133261481812"><ele>665.0</ele><time>2026-04-26T08:15:15Z</time></trkpt><trkpt lat="43.48316417251915" lon="12.019234642904586"><ele>665.0</ele><time>2026-04-26T08:15:16Z</time></trkpt><trkpt lat="43.48320322578912" lon="12.019333288715174"><ele>665.0</ele><time>2026-04-26T08:15:17Z</time></trkpt><trkpt lat="43.48323628605269" lon="12.019422588027842"><ele>665.0</ele><time>2026-04-26T08:15:18Z</time></trkpt><trkpt lat="43.483299252409786" lon="12.019547401873497"><ele>665.0</ele><time>2026-04-26T08:15:20Z</time></trkpt><trkpt lat="43.48340216424229" lon="12.019632601389839"><ele>665.6666666666666</ele><time>2026-04-26T08:15:22Z</time></trkpt><trkpt lat="43.4834697871877" lon="12.019642650546443"><ele>666.3333333333333</ele><time>2026-04-26T08:15:23Z</time></trkpt><trkpt lat="43.4835390877844" lon="12.019629343900311"><ele>667.0</ele><time>2026-04-26T08:15:24Z</time></trkpt><trkpt lat="43.48361466910496" lon="12.019599142142056"><ele>667.6666666666666</ele><time>2026-04-26T08:15:25Z</time></trkpt><trkpt lat="43.483708076396496" lon="12.019568755154909"><ele>668.3333333333334</ele><time>2026-04-26T08:15:26Z</time></trkpt><trkpt lat="43.48380921782546" lon="12.019567827345467"><ele>669.0</ele><time>2026-04-26T08:15:27Z</time></trkpt><trkpt lat="43.48389965316281" lon="12.019588220821792"><ele>668.8333333333334</ele><time>2026-04-26T08:15:28Z</time></trkpt><trkpt lat="43.48396780531015" lon="12.019625307007127"><ele>668.6666666666666</ele><time>2026-04-26T08:15:29Z</time></trkpt><trkpt lat="43.48402858709118" lon="12.019681797052108"><ele>668.5</ele><time>2026-04-26T08:15:30Z</time></trkpt><trkpt lat="43.484089415837055" lon="12.019766721909992"><ele>668.3333333333333</ele><time>2026-04-26T08:15:31Z</time></trkpt><trkpt lat="43.48414777031704" lon="12.019864573587938"><ele>668.1666666666666</ele><time>2026-04-26T08:15:32Z</time></trkpt><trkpt lat="43.48422421433779" lon="12.019949492525553"><ele>668.0</ele><time>2026-04-26T08:15:33Z</time></trkpt><trkpt lat="43.48429857246167" lon="12.020010319868442"><ele>668.0</ele><time>2026-04-26T08:15:34Z</time></trkpt><trkpt lat="43.48435144516045" lon="12.020076034951414"><ele>668.0</ele><time>2026-04-26T08:15:35Z</time></trkpt><trkpt lat="43.484383086716" lon="12.020165024811995"><ele>668.0</ele><time>2026-04-26T08:15:36Z</time></trkpt><trkpt lat="43.48439833299698" lon="12.020268774984368"><ele>668.0</ele><time>2026-04-26T08:15:37Z</time></trkpt><trkpt lat="43.48441468727726" lon="12.020356435515534"><ele>668.0</ele><time>2026-04-26T08:15:38Z</time></trkpt><trkpt lat="43.48448463947341" lon="12.020480494246241"><ele>668.0</ele><time>2026-04-26T08:15:40Z</time></trkpt><trkpt lat="43.48455530849002" lon="12.020464227072875"><ele>668.2</ele><time>2026-04-26T08:15:41Z</time></trkpt><trkpt lat="43.484616732492135" lon="12.020384330669566"><ele>668.4</ele><time>2026-04-26T08:15:42Z</time></trkpt><trkpt lat="43.4846640183366" lon="12.020259873823962"><ele>668.6</ele><time>2026-04-26T08:15:43Z</time></trkpt><trkpt lat="43.484731284555586" lon="12.020184700117076"><ele>668.8000000000001</ele><time>2026-04-26T08:15:44Z</time></trkpt><trkpt lat="43.484795368521034" lon="12.020089913839186"><ele>669.0</ele><time>2026-04-26T08:15:45Z</time></trkpt><trkpt lat="43.48484921682176" lon="12.01996614709351"><ele>665.2</ele><time>2026-04-26T08:15:46Z</time></trkpt><trkpt lat="43.48487102864183" lon="12.019836978526348"><ele>661.4000000000001</ele><time>2026-04-26T08:15:47Z</time></trkpt><trkpt lat="43.48488055714329" lon="12.01971546988656"><ele>657.6</ele><time>2026-04-26T08:15:48Z</time></trkpt><trkpt lat="43.484905114905985" lon="12.019592231230494"><ele>653.8</ele><time>2026-04-26T08:15:49Z</time></trkpt><trkpt lat="43.48493902702136" lon="12.019464282681534"><ele>650.0</ele><time>2026-04-26T08:15:50Z</time></trkpt><trkpt lat="43.48497229567381" lon="12.019341334403256"><ele>650.0</ele><time>2026-04-26T08:15:51Z</time></trkpt><trkpt lat="43.485002067842785" lon="12.01920794653673"><ele>650.0</ele><time>2026-04-26T08:15:52Z</time></trkpt><trkpt lat="43.48502478565731" lon="12.019101894645107"><ele>650.0</ele><time>2026-04-26T08:15:53Z</time></trkpt><trkpt lat="43.485049407675774" lon="12.019006882717045"><ele>650.0</ele><time>2026-04-26T08:15:54Z</time></trkpt><trkpt lat="43.485089972766154" lon="12.018933691515096"><ele>650.0</ele><time>2026-04-26T08:15:55Z</time></trkpt><trkpt lat="43.485120786160444" lon="12.018853771139447"><ele>650.0</ele><time>2026-04-26T08:15:56Z</time></trkpt><trkpt lat="43.48517742372972" lon="12.018794597608272"><ele>649.1666666666666</ele><time>2026-04-26T08:15:57Z</time></trkpt><trkpt lat="43.485241765889825" lon="12.018756905357847"><ele>648.3333333333333</ele><time>2026-04-26T08:15:58Z</time></trkpt><trkpt lat="43.48531208258421" lon="12.018737870001242"><ele>647.5</ele><time>2026-04-26T08:15:59Z</time></trkpt><trkpt lat="43.48537808281341" lon="12.018721729592256"><ele>646.6666666666666</ele><time>2026-04-26T08:16:00Z</time></trkpt><trkpt lat="43.485441152267526" lon="12.018695515716631"><ele>645.8333333333334</ele><time>2026-04-26T08:16:01Z</time></trkpt><trkpt lat="43.485541310043786" lon="12.018608307253059"><ele>645.0</ele><time>2026-04-26T08:16:03Z</time></trkpt><trkpt lat="43.48556946964678" lon="12.018527646874137"><ele>645.0</ele><time>2026-04-26T08:16:03.999Z</time></trkpt><trkpt lat="43.485563161908566" lon="12.018363688841053"><ele>645.0</ele><time>2026-04-26T08:16:05.999Z</time></trkpt><trkpt lat="43.485529129047436" lon="12.018279090078531"><ele>645.0</ele><time>2026-04-26T08:16:06.999Z</time></trkpt><trkpt lat="43.48546861354319" lon="12.018225073615259"><ele>645.0</ele><time>2026-04-26T08:16:07.999Z</time></trkpt><trkpt lat="43.48542200471425" lon="12.018163357927168"><ele>645.0</ele><time>2026-04-26T08:16:08.999Z</time></trkpt><trkpt lat="43.485382021337955" lon="12.018083514712691"><ele>645.0</ele><time>2026-04-26T08:16:09.999Z</time></trkpt><trkpt lat="43.48533901547143" lon="12.0180044023453"><ele>641.2</ele><time>2026-04-26T08:16:10.999Z</time></trkpt><trkpt lat="43.48528898961287" lon="12.017936140284473"><ele>637.4</ele><time>2026-04-26T08:16:11.999Z</time></trkpt><trkpt lat="43.48522449987149" lon="12.017817707573768"><ele>633.6</ele><time>2026-04-26T08:16:13.999Z</time></trkpt><trkpt lat="43.48517550852002" lon="12.017675185682029"><ele>629.8</ele><time>2026-04-26T08:16:15.999Z</time></trkpt><trkpt lat="43.48519867709934" lon="12.017515719262292"><ele>626.0</ele><time>2026-04-26T08:16:17.999Z</time></trkpt><trkpt lat="43.48521744455416" lon="12.017426615646189"><ele>625.0</ele><time>2026-04-26T08:16:18.999Z</time></trkpt><trkpt lat="43.48524320685041" lon="12.017340800513914"><ele>624.0</ele><time>2026-04-26T08:16:19.999Z</time></trkpt><trkpt lat="43.485281414360294" lon="12.017263297317731"><ele>623.0</ele><time>2026-04-26T08:16:20.999Z</time></trkpt><trkpt lat="43.48531503269566" lon="12.017178367309013"><ele>622.0</ele><time>2026-04-26T08:16:21.999Z</time></trkpt><trkpt lat="43.485349280242644" lon="12.017097036426941"><ele>621.0</ele><time>2026-04-26T08:16:22.999Z</time></trkpt><trkpt lat="43.48538335389948" lon="12.01701162235911"><ele>620.0</ele><time>2026-04-26T08:16:23.999Z</time></trkpt><trkpt lat="43.4853943176595" lon="12.016919620437932"><ele>619.0</ele><time>2026-04-26T08:16:24.999Z</time></trkpt><trkpt lat="43.48544382352511" lon="12.016763774930409"><ele>619.0</ele><time>2026-04-26T08:16:26.999Z</time></trkpt><trkpt lat="43.48549892471359" lon="12.016707405425265"><ele>619.0</ele><time>2026-04-26T08:16:27.999Z</time></trkpt><trkpt lat="43.485566479872915" lon="12.016665521587667"><ele>619.0</ele><time>2026-04-26T08:16:28.999Z</time></trkpt><trkpt lat="43.48564033785473" lon="12.016632450324538"><ele>619.0</ele><time>2026-04-26T08:16:29.999Z</time></trkpt><trkpt lat="43.48571044939056" lon="12.016588565254448"><ele>619.0</ele><time>2026-04-26T08:16:30.999Z</time></trkpt><trkpt lat="43.48577339760846" lon="12.016547029659167"><ele>619.0</ele><time>2026-04-26T08:16:31.999Z</time></trkpt><trkpt lat="43.485834701868995" lon="12.01651901226206"><ele>619.0</ele><time>2026-04-26T08:16:32.999Z</time></trkpt><trkpt lat="43.48590378850924" lon="12.016511714950354"><ele>619.0</ele><time>2026-04-26T08:16:33.999Z</time></trkpt><trkpt lat="43.485970412916565" lon="12.016538158219708"><ele>619.0</ele><time>2026-04-26T08:16:34.999Z</time></trkpt><trkpt lat="43.48606182452096" lon="12.016591824182676"><ele>619.0</ele><time>2026-04-26T08:16:35.999Z</time></trkpt><trkpt lat="43.48618290994908" lon="12.016677087913042"><ele>619.0</ele><time>2026-04-26T08:16:36.999Z</time></trkpt><trkpt lat="43.486301051635046" lon="12.016755404797324"><ele>619.0</ele><time>2026-04-26T08:16:37.999Z</time></trkpt><trkpt lat="43.48640645834654" lon="12.01681487966733"><ele>618.0</ele><time>2026-04-26T08:16:38.999Z</time></trkpt><trkpt lat="43.48650674976788" lon="12.016836804688433"><ele>617.0</ele><time>2026-04-26T08:16:39.999Z</time></trkpt><trkpt lat="43.48658765664148" lon="12.016861401254195"><ele>616.0</ele><time>2026-04-26T08:16:40.999Z</time></trkpt><trkpt lat="43.486672016565876" lon="12.016869323021554"><ele>615.0</ele><time>2026-04-26T08:16:41.999Z</time></trkpt><trkpt lat="43.486770457682255" lon="12.016845472013445"><ele>614.0</ele><time>2026-04-26T08:16:42.999Z</time></trkpt><trkpt lat="43.48687490309074" lon="12.01680561705347"><ele>614.0</ele><time>2026-04-26T08:16:43.999Z</time></trkpt><trkpt lat="43.48699511987706" lon="12.016759317873023"><ele>614.0</ele><time>2026-04-26T08:16:44.999Z</time></trkpt><trkpt lat="43.487111644835366" lon="12.016730824530491"><ele>614.0</ele><time>2026-04-26T08:16:45.999Z</time></trkpt><trkpt lat="43.48721047215651" lon="12.016710999434562"><ele>614.0</ele><time>2026-04-26T08:16:46.999Z</time></trkpt><trkpt lat="43.48730115042268" lon="12.016678917779677"><ele>614.0</ele><time>2026-04-26T08:16:47.999Z</time></trkpt><trkpt lat="43.48737794038806" lon="12.01665635697466"><ele>614.1666666666666</ele><time>2026-04-26T08:16:48.999Z</time></trkpt><trkpt lat="43.48746661774889" lon="12.016646422595333"><ele>614.3333333333333</ele><time>2026-04-26T08:16:49.999Z</time></trkpt><trkpt lat="43.4875591763774" lon="12.016667811556408"><ele>614.5</ele><time>2026-04-26T08:16:50.999Z</time></trkpt><trkpt lat="43.48765121225074" lon="12.01670251064741"><ele>614.6666666666666</ele><time>2026-04-26T08:16:51.999Z</time></trkpt><trkpt lat="43.487742577603704" lon="12.016732006728011"><ele>614.8333333333334</ele><time>2026-04-26T08:16:52.999Z</time></trkpt><trkpt lat="43.48781386835666" lon="12.01674565316167"><ele>615.0</ele><time>2026-04-26T08:16:53.999Z</time></trkpt><trkpt lat="43.487880223426664" lon="12.016747181367794"><ele>615.0</ele><time>2026-04-26T08:16:54.999Z</time></trkpt><trkpt lat="43.48794422361224" lon="12.016773107744566"><ele>615.0</ele><time>2026-04-26T08:16:55.999Z</time></trkpt><trkpt lat="43.488003185172786" lon="12.016727407611425"><ele>615.0</ele><time>2026-04-26T08:16:56.999Z</time></trkpt><trkpt lat="43.488069531017395" lon="12.016714531439074"><ele>615.0</ele><time>2026-04-26T08:16:57.999Z</time></trkpt><trkpt lat="43.48813362997023" lon="12.016655550929244"><ele>615.0</ele><time>2026-04-26T08:16:58.999Z</time></trkpt><trkpt lat="43.4881834698874" lon="12.016573423214282"><ele>615.0</ele><time>2026-04-26T08:16:59.999Z</time></trkpt><trkpt lat="43.48822893004088" lon="12.016491743406373"><ele>615.0</ele><time>2026-04-26T08:17:00.999Z</time></trkpt><trkpt lat="43.48827291617817" lon="12.016392873100061"><ele>613.0</ele><time>2026-04-26T08:17:01.999Z</time></trkpt><trkpt lat="43.48830911331529" lon="12.016313581016208"><ele>611.0</ele><time>2026-04-26T08:17:02.999Z</time></trkpt><trkpt lat="43.48834896597915" lon="12.016244114885692"><ele>609.0</ele><time>2026-04-26T08:17:03.999Z</time></trkpt><trkpt lat="43.48843980932603" lon="12.016123912843012"><ele>607.0</ele><time>2026-04-26T08:17:06Z</time></trkpt><trkpt lat="43.488506135438755" lon="12.016094638833547"><ele>605.0</ele><time>2026-04-26T08:17:07Z</time></trkpt><trkpt lat="43.48857170522654" lon="12.016083397700525"><ele>603.0</ele><time>2026-04-26T08:17:08Z</time></trkpt><trkpt lat="43.48868400249181" lon="12.016078579342715"><ele>601.1999999999999</ele><time>2026-04-26T08:17:10Z</time></trkpt><trkpt lat="43.48879607890296" lon="12.016085659259186"><ele>599.4</ele><time>2026-04-26T08:17:12Z</time></trkpt><trkpt lat="43.48886163495825" lon="12.016090776723091"><ele>597.5999999999999</ele><time>2026-04-26T08:17:13Z</time></trkpt><trkpt lat="43.48892335215503" lon="12.01610904706442"><ele>595.8</ele><time>2026-04-26T08:17:14Z</time></trkpt><trkpt lat="43.489038461779245" lon="12.01615477252671"><ele>594.0</ele><time>2026-04-26T08:17:16Z</time></trkpt><trkpt lat="43.489152800607165" lon="12.016177710746645"><ele>594.0</ele><time>2026-04-26T08:17:18Z</time></trkpt><trkpt lat="43.48926161062666" lon="12.016235628826543"><ele>594.0</ele><time>2026-04-26T08:17:20Z</time></trkpt><trkpt lat="43.489368955836134" lon="12.01628131018316"><ele>594.0</ele><time>2026-04-26T08:17:22Z</time></trkpt><trkpt lat="43.48945491421921" lon="12.016369200184274"><ele>594.0</ele><time>2026-04-26T08:17:24Z</time></trkpt><trkpt lat="43.489513395203566" lon="12.016490242028695"><ele>594.0</ele><time>2026-04-26T08:17:26Z</time></trkpt><trkpt lat="43.489593129395715" lon="12.016602391355867"><ele>593.6666666666666</ele><time>2026-04-26T08:17:28Z</time></trkpt><trkpt lat="43.489662051180005" lon="12.016730369226254"><ele>593.3333333333334</ele><time>2026-04-26T08:17:30Z</time></trkpt><trkpt lat="43.48971558264173" lon="12.01678453946207"><ele>593.0</ele><time>2026-04-26T08:17:31Z</time></trkpt><trkpt lat="43.489784793226264" lon="12.016831418210273"><ele>592.6666666666667</ele><time>2026-04-26T08:17:32Z</time></trkpt><trkpt lat="43.48986459123666" lon="12.016863711725186"><ele>592.3333333333334</ele><time>2026-04-26T08:17:33Z</time></trkpt><trkpt lat="43.48994999342741" lon="12.016875213605507"><ele>592.0</ele><time>2026-04-26T08:17:34Z</time></trkpt><trkpt lat="43.49003388720031" lon="12.016867248682198"><ele>592.0</ele><time>2026-04-26T08:17:35Z</time></trkpt><trkpt lat="43.49012077562963" lon="12.016868575566543"><ele>592.0</ele><time>2026-04-26T08:17:36Z</time></trkpt><trkpt lat="43.49020050091203" lon="12.016854086698784"><ele>592.0</ele><time>2026-04-26T08:17:37Z</time></trkpt><trkpt lat="43.490272812697135" lon="12.016838400208472"><ele>592.0</ele><time>2026-04-26T08:17:38Z</time></trkpt><trkpt lat="43.490350293423994" lon="12.016818523939415"><ele>592.0</ele><time>2026-04-26T08:17:39Z</time></trkpt><trkpt lat="43.490433577394406" lon="12.016794026014944"><ele>592.0</ele><time>2026-04-26T08:17:40Z</time></trkpt><trkpt lat="43.49051020200008" lon="12.016746466590703"><ele>590.8333333333334</ele><time>2026-04-26T08:17:41Z</time></trkpt><trkpt lat="43.49057783874851" lon="12.016723462289956"><ele>589.6666666666667</ele><time>2026-04-26T08:17:42Z</time></trkpt><trkpt lat="43.490642296637716" lon="12.016691002255108"><ele>588.5</ele><time>2026-04-26T08:17:43Z</time></trkpt><trkpt lat="43.49072010495342" lon="12.01664447800242"><ele>587.3333333333334</ele><time>2026-04-26T08:17:44Z</time></trkpt><trkpt lat="43.49079931171429" lon="12.016571137007942"><ele>586.1666666666666</ele><time>2026-04-26T08:17:45Z</time></trkpt><trkpt lat="43.49089787847291" lon="12.016478496846872"><ele>585.0</ele><time>2026-04-26T08:17:46Z</time></trkpt><trkpt lat="43.4909790347452" lon="12.016395201904931"><ele>583.3333333333334</ele><time>2026-04-26T08:17:47Z</time></trkpt><trkpt lat="43.49105155028652" lon="12.016331300135953"><ele>581.6666666666666</ele><time>2026-04-26T08:17:48Z</time></trkpt><trkpt lat="43.49111047780056" lon="12.01625683277007"><ele>580.0</ele><time>2026-04-26T08:17:49Z</time></trkpt><trkpt lat="43.4911760572687" lon="12.016185374851265"><ele>578.3333333333333</ele><time>2026-04-26T08:17:50Z</time></trkpt><trkpt lat="43.49123941703011" lon="12.016121409807017"><ele>576.6666666666666</ele><time>2026-04-26T08:17:51Z</time></trkpt><trkpt lat="43.49129582368771" lon="12.01607936702101"><ele>575.0</ele><time>2026-04-26T08:17:52Z</time></trkpt><trkpt lat="43.49140078372495" lon="12.016035646004026"><ele>574.8</ele><time>2026-04-26T08:17:54Z</time></trkpt><trkpt lat="43.49150390079878" lon="12.016063969416965"><ele>574.6</ele><time>2026-04-26T08:17:56Z</time></trkpt><trkpt lat="43.49158650025785" lon="12.016160205887454"><ele>574.4</ele><time>2026-04-26T08:17:58Z</time></trkpt><trkpt lat="43.491633112593675" lon="12.01627974823647"><ele>574.2</ele><time>2026-04-26T08:18:00Z</time></trkpt><trkpt lat="43.491615152589475" lon="12.016412839826847"><ele>574.0</ele><time>2026-04-26T08:18:02Z</time></trkpt><trkpt lat="43.49158288767958" lon="12.01657221655872"><ele>574.1666666666667</ele><time>2026-04-26T08:18:04Z</time></trkpt><trkpt lat="43.49157654181914" lon="12.016687836361921"><ele>574.3333333333334</ele><time>2026-04-26T08:18:05Z</time></trkpt><trkpt lat="43.49155907407524" lon="12.016802607382708"><ele>574.5</ele><time>2026-04-26T08:18:06Z</time></trkpt><trkpt lat="43.491550370649" lon="12.016911345774925"><ele>574.6666666666666</ele><time>2026-04-26T08:18:07Z</time></trkpt><trkpt lat="43.49153972493359" lon="12.017013013524975"><ele>574.8333333333333</ele><time>2026-04-26T08:18:08Z</time></trkpt><trkpt lat="43.49152545233397" lon="12.017105809331037"><ele>575.0</ele><time>2026-04-26T08:18:09Z</time></trkpt><trkpt lat="43.49150768364535" lon="12.017210633106787"><ele>575.0</ele><time>2026-04-26T08:18:10Z</time></trkpt><trkpt lat="43.491506142956716" lon="12.01731351767041"><ele>575.0</ele><time>2026-04-26T08:18:11Z</time></trkpt><trkpt lat="43.49152589969666" lon="12.017407549858204"><ele>575.0</ele><time>2026-04-26T08:18:12Z</time></trkpt><trkpt lat="43.491562251812994" lon="12.017500898354214"><ele>575.0</ele><time>2026-04-26T08:18:13Z</time></trkpt><trkpt lat="43.491598455914385" lon="12.017582194857077"><ele>575.0</ele><time>2026-04-26T08:18:14Z</time></trkpt><trkpt lat="43.491616161432425" lon="12.017667034965463"><ele>575.0</ele><time>2026-04-26T08:18:15Z</time></trkpt><trkpt lat="43.49163443243054" lon="12.01775100664894"><ele>575.0</ele><time>2026-04-26T08:18:16Z</time></trkpt><trkpt lat="43.49171173766497" lon="12.017884546757404"><ele>574.4285714285714</ele><time>2026-04-26T08:18:18Z</time></trkpt><trkpt lat="43.49176158175412" lon="12.017957266234246"><ele>573.8571428571428</ele><time>2026-04-26T08:18:19Z</time></trkpt><trkpt lat="43.49181399916674" lon="12.018022576523117"><ele>573.2857142857142</ele><time>2026-04-26T08:18:20Z</time></trkpt><trkpt lat="43.491875062455634" lon="12.018076995083604"><ele>572.7142857142857</ele><time>2026-04-26T08:18:21Z</time></trkpt><trkpt lat="43.49195113515321" lon="12.018103560096563"><ele>572.1428571428571</ele><time>2026-04-26T08:18:22Z</time></trkpt><trkpt lat="43.492033174003986" lon="12.018112618855769"><ele>571.5714285714286</ele><time>2026-04-26T08:18:23Z</time></trkpt><trkpt lat="43.49209594939891" lon="12.018132944628544"><ele>571.0</ele><time>2026-04-26T08:18:24Z</time></trkpt><trkpt lat="43.49221097062944" lon="12.018138815289465"><ele>568.8333333333334</ele><time>2026-04-26T08:18:26Z</time></trkpt><trkpt lat="43.49231500011186" lon="12.018209493005"><ele>566.6666666666667</ele><time>2026-04-26T08:18:27.999Z</time></trkpt><trkpt lat="43.49236512907252" lon="12.01827236880022"><ele>564.5</ele><time>2026-04-26T08:18:28.999Z</time></trkpt><trkpt lat="43.49241420477124" lon="12.018333699519182"><ele>562.3333333333334</ele><time>2026-04-26T08:18:29.999Z</time></trkpt><trkpt lat="43.49246631972435" lon="12.01838615154948"><ele>560.1666666666666</ele><time>2026-04-26T08:18:30.999Z</time></trkpt><trkpt lat="43.49252962715132" lon="12.018415107030934"><ele>558.0</ele><time>2026-04-26T08:18:31.999Z</time></trkpt><trkpt lat="43.492658735005726" lon="12.018387068165705"><ele>558.0</ele><time>2026-04-26T08:18:33.999Z</time></trkpt><trkpt lat="43.4927296051969" lon="12.018344491334073"><ele>558.0</ele><time>2026-04-26T08:18:34.999Z</time></trkpt><trkpt lat="43.492799178878236" lon="12.018308751311311"><ele>558.0</ele><time>2026-04-26T08:18:35.999Z</time></trkpt><trkpt lat="43.49285558749686" lon="12.018254956159538"><ele>558.0</ele><time>2026-04-26T08:18:36.999Z</time></trkpt><trkpt lat="43.492960127143" lon="12.018164103491904"><ele>558.0</ele><time>2026-04-26T08:18:38.999Z</time></trkpt><trkpt lat="43.49307866652698" lon="12.018114299737292"><ele>555.3333333333334</ele><time>2026-04-26T08:18:40.999Z</time></trkpt><trkpt lat="43.49314475536681" lon="12.01813916880609"><ele>552.6666666666666</ele><time>2026-04-26T08:18:41.999Z</time></trkpt><trkpt lat="43.49320793932521" lon="12.01817778935701"><ele>550.0</ele><time>2026-04-26T08:18:42.999Z</time></trkpt><trkpt lat="43.493265589826905" lon="12.018217400673727"><ele>547.3333333333333</ele><time>2026-04-26T08:18:43.999Z</time></trkpt><trkpt lat="43.493320162255976" lon="12.01826546248131"><ele>544.6666666666666</ele><time>2026-04-26T08:18:44.999Z</time></trkpt><trkpt lat="43.49339175640582" lon="12.01837536850463"><ele>542.0</ele><time>2026-04-26T08:18:46.999Z</time></trkpt><trkpt lat="43.493455231679164" lon="12.018501293590722"><ele>542.0</ele><time>2026-04-26T08:18:48.999Z</time></trkpt><trkpt lat="43.49350154843138" lon="12.018573302827322"><ele>542.0</ele><time>2026-04-26T08:18:49.999Z</time></trkpt><trkpt lat="43.49352485304645" lon="12.018670514897389"><ele>542.0</ele><time>2026-04-26T08:18:50.999Z</time></trkpt><trkpt lat="43.49354364356839" lon="12.01876054690253"><ele>542.0</ele><time>2026-04-26T08:18:51.999Z</time></trkpt><trkpt lat="43.49356637696524" lon="12.018844705473889"><ele>542.0</ele><time>2026-04-26T08:18:52.999Z</time></trkpt><trkpt lat="43.493633560410814" lon="12.01898629650887"><ele>542.0</ele><time>2026-04-26T08:18:54.999Z</time></trkpt><trkpt lat="43.49367192765383" lon="12.019074459282193"><ele>542.0</ele><time>2026-04-26T08:18:55.999Z</time></trkpt><trkpt lat="43.49373150037299" lon="12.01913729955443"><ele>542.0</ele><time>2026-04-26T08:18:56.999Z</time></trkpt><trkpt lat="43.49377446207259" lon="12.019212900153274"><ele>542.0</ele><time>2026-04-26T08:18:57.999Z</time></trkpt><trkpt lat="43.49381911154171" lon="12.019277957285041"><ele>542.0</ele><time>2026-04-26T08:18:58.999Z</time></trkpt><trkpt lat="43.49387798077846" lon="12.019310821176063"><ele>542.0</ele><time>2026-04-26T08:18:59.999Z</time></trkpt><trkpt lat="43.49394138383007" lon="12.019331447568854"><ele>542.0</ele><time>2026-04-26T08:19:00.999Z</time></trkpt><trkpt lat="43.49400278960933" lon="12.019360660248154"><ele>542.0</ele><time>2026-04-26T08:19:01.999Z</time></trkpt><trkpt lat="43.49405837236455" lon="12.01940186463243"><ele>538.1666666666666</ele><time>2026-04-26T08:19:02.999Z</time></trkpt><trkpt lat="43.4941698216232" lon="12.019491302839093"><ele>534.3333333333333</ele><time>2026-04-26T08:19:04.999Z</time></trkpt><trkpt lat="43.49422838330713" lon="12.019545733471947"><ele>530.5</ele><time>2026-04-26T08:19:05.999Z</time></trkpt><trkpt lat="43.49429698406868" lon="12.019598766187318"><ele>526.6666666666666</ele><time>2026-04-26T08:19:06.999Z</time></trkpt><trkpt lat="43.49436850534713" lon="12.019648474503505"><ele>522.8333333333334</ele><time>2026-04-26T08:19:07.999Z</time></trkpt><trkpt lat="43.49443227287853" lon="12.019700581891705"><ele>519.0</ele><time>2026-04-26T08:19:08.999Z</time></trkpt><trkpt lat="43.49448851189102" lon="12.01975349322964"><ele>519.0</ele><time>2026-04-26T08:19:09.999Z</time></trkpt><trkpt lat="43.49453401912189" lon="12.019818818564346"><ele>519.0</ele><time>2026-04-26T08:19:11Z</time></trkpt><trkpt lat="43.49457849120589" lon="12.019894522970777"><ele>519.0</ele><time>2026-04-26T08:19:12Z</time></trkpt><trkpt lat="43.49461433449382" lon="12.019980964187262"><ele>519.0</ele><time>2026-04-26T08:19:13Z</time></trkpt><trkpt lat="43.49464890886616" lon="12.020082009861355"><ele>519.0</ele><time>2026-04-26T08:19:14Z</time></trkpt><trkpt lat="43.49467129214397" lon="12.020175214968571"><ele>519.0</ele><time>2026-04-26T08:19:15Z</time></trkpt><trkpt lat="43.49469496952768" lon="12.020261004548022"><ele>519.0</ele><time>2026-04-26T08:19:16Z</time></trkpt><trkpt lat="43.49474837167445" lon="12.020367735874112"><ele>516.3333333333334</ele><time>2026-04-26T08:19:18Z</time></trkpt><trkpt lat="43.49481471534061" lon="12.02039958558618"><ele>513.6666666666666</ele><time>2026-04-26T08:19:20Z</time></trkpt><trkpt lat="43.49489865955436" lon="12.020314488718594"><ele>511.0</ele><time>2026-04-26T08:19:22Z</time></trkpt><trkpt lat="43.494890503443735" lon="12.020225758302018"><ele>508.3333333333333</ele><time>2026-04-26T08:19:23Z</time></trkpt><trkpt lat="43.4948781845063" lon="12.020103401052502"><ele>505.66666666666663</ele><time>2026-04-26T08:19:25Z</time></trkpt><trkpt lat="43.494889517699285" lon="12.019946792667"><ele>503.0</ele><time>2026-04-26T08:19:27Z</time></trkpt><trkpt lat="43.4948663344524" lon="12.019793389864837"><ele>500.3333333333333</ele><time>2026-04-26T08:19:29Z</time></trkpt><trkpt lat="43.49483709316214" lon="12.019703416151263"><ele>497.66666666666663</ele><time>2026-04-26T08:19:31Z</time></trkpt><trkpt lat="43.49481288296827" lon="12.019598684053255"><ele>495.0</ele><time>2026-04-26T08:19:34Z</time></trkpt><trkpt lat="43.49486966829603" lon="12.019536051889588"><ele>492.33333333333337</ele><time>2026-04-26T08:19:36Z</time></trkpt><trkpt lat="43.49494013646542" lon="12.019537059607668"><ele>489.6666666666667</ele><time>2026-04-26T08:19:38Z</time></trkpt><trkpt lat="43.495019892747735" lon="12.019555811835378"><ele>487.0</ele><time>2026-04-26T08:19:40Z</time></trkpt><trkpt lat="43.495107092947535" lon="12.019583498788991"><ele>487.0</ele><time>2026-04-26T08:19:42Z</time></trkpt><trkpt lat="43.495210289818694" lon="12.01966115875599"><ele>487.00000000000006</ele><time>2026-04-26T08:19:44Z</time></trkpt><trkpt lat="43.49527128124295" lon="12.01976870365162"><ele>487.00000000000006</ele><time>2026-04-26T08:19:46Z</time></trkpt><trkpt lat="43.49529519795408" lon="12.019891424684998"><ele>487.0</ele><time>2026-04-26T08:19:48Z</time></trkpt><trkpt lat="43.495283886403556" lon="12.019976928862263"><ele>487.0</ele><time>2026-04-26T08:19:50Z</time></trkpt><trkpt lat="43.49524791337315" lon="12.020102458905646"><ele>490.20000000000005</ele><time>2026-04-26T08:19:52Z</time></trkpt><trkpt lat="43.495206660101886" lon="12.020227690261379"><ele>493.40000000000003</ele><time>2026-04-26T08:19:54Z</time></trkpt><trkpt lat="43.4951855009202" lon="12.020354814558619"><ele>496.59999999999997</ele><time>2026-04-26T08:19:56Z</time></trkpt><trkpt lat="43.495163363038756" lon="12.020517838380954"><ele>499.79999999999995</ele><time>2026-04-26T08:19:58Z</time></trkpt><trkpt lat="43.495141235005974" lon="12.020673139887922"><ele>503.0</ele><time>2026-04-26T08:20:00Z</time></trkpt><trkpt lat="43.49513720494236" lon="12.020760056631008"><ele>501.5</ele><time>2026-04-26T08:20:01Z</time></trkpt><trkpt lat="43.49513389523815" lon="12.020927612240845"><ele>500.0</ele><time>2026-04-26T08:20:03Z</time></trkpt><trkpt lat="43.49512812043953" lon="12.021082245433556"><ele>498.5</ele><time>2026-04-26T08:20:05Z</time></trkpt><trkpt lat="43.49511715756177" lon="12.021233345956098"><ele>497.0</ele><time>2026-04-26T08:20:07Z</time></trkpt><trkpt lat="43.49507408289671" lon="12.021384610867953"><ele>497.0</ele><time>2026-04-26T08:20:09Z</time></trkpt><trkpt lat="43.495026319775214" lon="12.021520862489451"><ele>497.00000000000006</ele><time>2026-04-26T08:20:11Z</time></trkpt><trkpt lat="43.494970558978345" lon="12.021653377342766"><ele>497.00000000000006</ele><time>2026-04-26T08:20:13Z</time></trkpt><trkpt lat="43.49491051702852" lon="12.021767709001908"><ele>497.0</ele><time>2026-04-26T08:20:15Z</time></trkpt><trkpt lat="43.49484816793984" lon="12.021870036384211"><ele>497.0</ele><time>2026-04-26T08:20:17Z</time></trkpt><trkpt lat="43.49476699105726" lon="12.021954513392865"><ele>497.8</ele><time>2026-04-26T08:20:19Z</time></trkpt><trkpt lat="43.49468756595256" lon="12.022094185545203"><ele>498.6</ele><time>2026-04-26T08:20:21Z</time></trkpt><trkpt lat="43.494682298443784" lon="12.022198148258378"><ele>499.40000000000003</ele><time>2026-04-26T08:20:22Z</time></trkpt><trkpt lat="43.49464243282633" lon="12.02234280903717"><ele>500.20000000000005</ele><time>2026-04-26T08:20:24Z</time></trkpt><trkpt lat="43.49459514909401" lon="12.022489865746428"><ele>501.0</ele><time>2026-04-26T08:20:26Z</time></trkpt><trkpt lat="43.49455615854471" lon="12.022567826550356"><ele>501.0</ele><time>2026-04-26T08:20:27Z</time></trkpt><trkpt lat="43.49453379710945" lon="12.022661633731717"><ele>501.0</ele><time>2026-04-26T08:20:28Z</time></trkpt><trkpt lat="43.494486504418965" lon="12.022745261857617"><ele>501.0</ele><time>2026-04-26T08:20:29Z</time></trkpt><trkpt lat="43.49445797914026" lon="12.022843892574883"><ele>501.0</ele><time>2026-04-26T08:20:30Z</time></trkpt><trkpt lat="43.49444369876056" lon="12.022939894865067"><ele>501.0</ele><time>2026-04-26T08:20:31Z</time></trkpt><trkpt lat="43.49444215395871" lon="12.023030755974137"><ele>501.0</ele><time>2026-04-26T08:20:32Z</time></trkpt><trkpt lat="43.49447823411299" lon="12.02313116228968"><ele>501.0</ele><time>2026-04-26T08:20:33Z</time></trkpt><trkpt lat="43.49451376993752" lon="12.023224341890483"><ele>501.0</ele><time>2026-04-26T08:20:34Z</time></trkpt><trkpt lat="43.49456464978332" lon="12.023312473289902"><ele>501.0</ele><time>2026-04-26T08:20:35Z</time></trkpt><trkpt lat="43.494620627310546" lon="12.023394524991515"><ele>501.0</ele><time>2026-04-26T08:20:36Z</time></trkpt><trkpt lat="43.49468005371142" lon="12.023445588309635"><ele>501.0</ele><time>2026-04-26T08:20:37Z</time></trkpt><trkpt lat="43.49480479345839" lon="12.023482342333704"><ele>501.0</ele><time>2026-04-26T08:20:39Z</time></trkpt><trkpt lat="43.49487826884168" lon="12.023479012229352"><ele>501.0</ele><time>2026-04-26T08:20:40Z</time></trkpt><trkpt lat="43.49495034629848" lon="12.023469642124175"><ele>492.0</ele><time>2026-04-26T08:20:41Z</time></trkpt><trkpt lat="43.495025164482705" lon="12.02347339477904"><ele>483.0</ele><time>2026-04-26T08:20:42Z</time></trkpt><trkpt lat="43.49509709628173" lon="12.023470705744087"><ele>474.0</ele><time>2026-04-26T08:20:43Z</time></trkpt><trkpt lat="43.495218930457206" lon="12.023473264869475"><ele>465.0</ele><time>2026-04-26T08:20:45Z</time></trkpt><trkpt lat="43.495334011588" lon="12.023480353773866"><ele>456.0</ele><time>2026-04-26T08:20:47Z</time></trkpt><trkpt lat="43.49541593807111" lon="12.023563694999238"><ele>453.6666666666667</ele><time>2026-04-26T08:20:49Z</time></trkpt><trkpt lat="43.49549155546617" lon="12.02362555857263"><ele>451.33333333333337</ele><time>2026-04-26T08:20:50.999Z</time></trkpt><trkpt lat="43.49557578289202" lon="12.0237102589725"><ele>449.0</ele><time>2026-04-26T08:20:52.999Z</time></trkpt><trkpt lat="43.49563454271409" lon="12.023750361219907"><ele>446.6666666666667</ele><time>2026-04-26T08:20:53.999Z</time></trkpt><trkpt lat="43.49568038715516" lon="12.023812263526773"><ele>444.33333333333337</ele><time>2026-04-26T08:20:54.999Z</time></trkpt><trkpt lat="43.49573447069842" lon="12.023953769038542"><ele>442.0</ele><time>2026-04-26T08:20:56.999Z</time></trkpt><trkpt lat="43.49578706802811" lon="12.024062502056001"><ele>442.83333333333337</ele><time>2026-04-26T08:20:58.999Z</time></trkpt><trkpt lat="43.495770037886096" lon="12.024184228529228"><ele>443.6666666666667</ele><time>2026-04-26T08:21:00.999Z</time></trkpt><trkpt lat="43.495717249180416" lon="12.024288741435237"><ele>444.5</ele><time>2026-04-26T08:21:02.999Z</time></trkpt><trkpt lat="43.49568241123322" lon="12.024377852348314"><ele>445.33333333333337</ele><time>2026-04-26T08:21:03.999Z</time></trkpt><trkpt lat="43.49564055588593" lon="12.024483533775884"><ele>446.1666666666667</ele><time>2026-04-26T08:21:04.999Z</time></trkpt><trkpt lat="43.49557467858463" lon="12.02457433535399"><ele>447.0</ele><time>2026-04-26T08:21:05.999Z</time></trkpt><trkpt lat="43.49554095723186" lon="12.024675266058775"><ele>447.0</ele><time>2026-04-26T08:21:06.999Z</time></trkpt><trkpt lat="43.495507117228996" lon="12.024759316672327"><ele>447.0</ele><time>2026-04-26T08:21:07.999Z</time></trkpt><trkpt lat="43.49549287887757" lon="12.024852044899285"><ele>447.0</ele><time>2026-04-26T08:21:08.999Z</time></trkpt><trkpt lat="43.495492598923924" lon="12.02494435963785"><ele>447.0</ele><time>2026-04-26T08:21:09.999Z</time></trkpt><trkpt lat="43.49550688640594" lon="12.025037277859772"><ele>447.0</ele><time>2026-04-26T08:21:10.999Z</time></trkpt><trkpt lat="43.495595450523766" lon="12.025155863306011"><ele>447.0</ele><time>2026-04-26T08:21:12.999Z</time></trkpt><trkpt lat="43.495670662147035" lon="12.025185374200387"><ele>445.8</ele><time>2026-04-26T08:21:13.999Z</time></trkpt><trkpt lat="43.49576098351556" lon="12.0251859224196"><ele>444.6</ele><time>2026-04-26T08:21:14.999Z</time></trkpt><trkpt lat="43.49586379618014" lon="12.025156637347271"><ele>443.40000000000003</ele><time>2026-04-26T08:21:15.999Z</time></trkpt><trkpt lat="43.49596759183409" lon="12.025156842429146"><ele>442.20000000000005</ele><time>2026-04-26T08:21:17Z</time></trkpt><trkpt lat="43.49606842792489" lon="12.02516432275287"><ele>441.0</ele><time>2026-04-26T08:21:18Z</time></trkpt><trkpt lat="43.49616782413216" lon="12.025160205805596"><ele>440.20000000000005</ele><time>2026-04-26T08:21:19Z</time></trkpt><trkpt lat="43.49625700570809" lon="12.025199069168366"><ele>439.40000000000003</ele><time>2026-04-26T08:21:20Z</time></trkpt><trkpt lat="43.496343135468756" lon="12.02521810883112"><ele>438.6</ele><time>2026-04-26T08:21:21Z</time></trkpt><trkpt lat="43.496428094732494" lon="12.025235896327132"><ele>437.8</ele><time>2026-04-26T08:21:22Z</time></trkpt><trkpt lat="43.4965225640319" lon="12.025251788182073"><ele>437.0</ele><time>2026-04-26T08:21:23Z</time></trkpt><trkpt lat="43.49662482450536" lon="12.025248303344164"><ele>436.99999999999994</ele><time>2026-04-26T08:21:24Z</time></trkpt><trkpt lat="43.4967119950422" lon="12.025278508818149"><ele>437.0</ele><time>2026-04-26T08:21:25Z</time></trkpt><trkpt lat="43.49679212192365" lon="12.025309605785322"><ele>437.0</ele><time>2026-04-26T08:21:26Z</time></trkpt><trkpt lat="43.496868658978286" lon="12.02534998969301"><ele>437.0</ele><time>2026-04-26T08:21:27Z</time></trkpt><trkpt lat="43.49692930272068" lon="12.025420863781418"><ele>436.99999999999994</ele><time>2026-04-26T08:21:28Z</time></trkpt><trkpt lat="43.49700807857665" lon="12.0254801177944"><ele>437.0</ele><time>2026-04-26T08:21:29Z</time></trkpt><trkpt lat="43.49706410450043" lon="12.025577440646178"><ele>434.3333333333333</ele><time>2026-04-26T08:21:30Z</time></trkpt><trkpt lat="43.49710289255251" lon="12.025684513139417"><ele>431.66666666666663</ele><time>2026-04-26T08:21:31Z</time></trkpt><trkpt lat="43.49712511886847" lon="12.025798790194901"><ele>429.0</ele><time>2026-04-26T08:21:32Z</time></trkpt><trkpt lat="43.497134174548975" lon="12.025904266519374"><ele>426.33333333333337</ele><time>2026-04-26T08:21:33Z</time></trkpt><trkpt lat="43.497154213613896" lon="12.025997292157903"><ele>423.6666666666667</ele><time>2026-04-26T08:21:34Z</time></trkpt><trkpt lat="43.49719258806243" lon="12.026066328338917"><ele>421.0</ele><time>2026-04-26T08:21:35Z</time></trkpt><trkpt lat="43.49726508895147" lon="12.026093237564098"><ele>421.0</ele><time>2026-04-26T08:21:36Z</time></trkpt><trkpt lat="43.497332314094734" lon="12.026040183672375"><ele>421.0</ele><time>2026-04-26T08:21:37Z</time></trkpt><trkpt lat="43.49746157513257" lon="12.0259319431533"><ele>421.0</ele><time>2026-04-26T08:21:39Z</time></trkpt><trkpt lat="43.49754152043593" lon="12.025855163197223"><ele>421.0</ele><time>2026-04-26T08:21:40Z</time></trkpt><trkpt lat="43.49761417067787" lon="12.025788794054929"><ele>421.0</ele><time>2026-04-26T08:21:41Z</time></trkpt><trkpt lat="43.497692102493616" lon="12.025743753288822"><ele>419.8</ele><time>2026-04-26T08:21:42Z</time></trkpt><trkpt lat="43.497773771396716" lon="12.025712723259886"><ele>418.6</ele><time>2026-04-26T08:21:43Z</time></trkpt><trkpt lat="43.497858643511385" lon="12.025700781915974"><ele>417.4</ele><time>2026-04-26T08:21:44Z</time></trkpt><trkpt lat="43.49795108494796" lon="12.02570880388457"><ele>416.2</ele><time>2026-04-26T08:21:45Z</time></trkpt><trkpt lat="43.49805191545291" lon="12.02574046332542"><ele>415.0</ele><time>2026-04-26T08:21:46Z</time></trkpt><trkpt lat="43.498140205266104" lon="12.025790834256158"><ele>414.1666666666667</ele><time>2026-04-26T08:21:47Z</time></trkpt><trkpt lat="43.49822935494098" lon="12.025835491110929"><ele>413.33333333333337</ele><time>2026-04-26T08:21:48Z</time></trkpt><trkpt lat="43.49831378265853" lon="12.025858839196472"><ele>412.5</ele><time>2026-04-26T08:21:49Z</time></trkpt><trkpt lat="43.49839839583215" lon="12.025875472835972"><ele>411.66666666666663</ele><time>2026-04-26T08:21:50Z</time></trkpt><trkpt lat="43.49846758544563" lon="12.025901306288457"><ele>410.8333333333333</ele><time>2026-04-26T08:21:51Z</time></trkpt><trkpt lat="43.49853961017543" lon="12.025956639002914"><ele>410.0</ele><time>2026-04-26T08:21:52Z</time></trkpt><trkpt lat="43.49862263130643" lon="12.026051164565263"><ele>410.0</ele><time>2026-04-26T08:21:53Z</time></trkpt><trkpt lat="43.49870502002877" lon="12.026159544617576"><ele>410.0</ele><time>2026-04-26T08:21:54Z</time></trkpt><trkpt lat="43.49877998095837" lon="12.026258047076306"><ele>410.0</ele><time>2026-04-26T08:21:55Z</time></trkpt><trkpt lat="43.49883641136559" lon="12.026350562834239"><ele>410.0</ele><time>2026-04-26T08:21:56Z</time></trkpt><trkpt lat="43.498866919067645" lon="12.026439986991827"><ele>410.0</ele><time>2026-04-26T08:21:57Z</time></trkpt><trkpt lat="43.49888324356179" lon="12.02654812529876"><ele>408.6</ele><time>2026-04-26T08:21:58Z</time></trkpt><trkpt lat="43.498882343327224" lon="12.02666234067642"><ele>407.2</ele><time>2026-04-26T08:21:59Z</time></trkpt><trkpt lat="43.49886232467665" lon="12.026767947851786"><ele>405.79999999999995</ele><time>2026-04-26T08:22:00Z</time></trkpt><trkpt lat="43.49889185428873" lon="12.026923295945876"><ele>404.4</ele><time>2026-04-26T08:22:02Z</time></trkpt><trkpt lat="43.49901489044477" lon="12.0269173716014"><ele>403.0</ele><time>2026-04-26T08:22:04Z</time></trkpt><trkpt lat="43.49906145770273" lon="12.026839063095258"><ele>403.0</ele><time>2026-04-26T08:22:05Z</time></trkpt><trkpt lat="43.4990857159974" lon="12.026708452615116"><ele>403.0</ele><time>2026-04-26T08:22:06Z</time></trkpt><trkpt lat="43.49913413219523" lon="12.026566113528185"><ele>403.0</ele><time>2026-04-26T08:22:07Z</time></trkpt><trkpt lat="43.49921526893362" lon="12.026366085905691"><ele>403.0</ele><time>2026-04-26T08:22:08Z</time></trkpt><trkpt lat="43.49930454761325" lon="12.026175603516483"><ele>402.79999999999995</ele><time>2026-04-26T08:22:09Z</time></trkpt><trkpt lat="43.49937211313439" lon="12.026029387347167"><ele>402.6</ele><time>2026-04-26T08:22:10Z</time></trkpt><trkpt lat="43.49943375654345" lon="12.025911997569622"><ele>402.4</ele><time>2026-04-26T08:22:11Z</time></trkpt><trkpt lat="43.49949926054257" lon="12.025792803662615"><ele>402.20000000000005</ele><time>2026-04-26T08:22:12Z</time></trkpt><trkpt lat="43.49955431027574" lon="12.025690039843408"><ele>402.0</ele><time>2026-04-26T08:22:13Z</time></trkpt><trkpt lat="43.49958405530687" lon="12.025592731963421"><ele>402.0</ele><time>2026-04-26T08:22:14Z</time></trkpt><trkpt lat="43.499660894994136" lon="12.025506649484715"><ele>402.0</ele><time>2026-04-26T08:22:16Z</time></trkpt><trkpt lat="43.499765851014445" lon="12.025557243459781"><ele>402.0</ele><time>2026-04-26T08:22:17Z</time></trkpt><trkpt lat="43.49989529301405" lon="12.025545108393933"><ele>402.0</ele><time>2026-04-26T08:22:18Z</time></trkpt><trkpt lat="43.50005120552169" lon="12.02555794070488"><ele>402.0</ele><time>2026-04-26T08:22:19Z</time></trkpt><trkpt lat="43.50020192201847" lon="12.025541503666538"><ele>402.0</ele><time>2026-04-26T08:22:20Z</time></trkpt><trkpt lat="43.50031698510886" lon="12.025532682724597"><ele>402.0</ele><time>2026-04-26T08:22:21Z</time></trkpt><trkpt lat="43.50041500294732" lon="12.025560192455597"><ele>402.0</ele><time>2026-04-26T08:22:22Z</time></trkpt><trkpt lat="43.50051734995403" lon="12.0256460323516"><ele>404.0</ele><time>2026-04-26T08:22:23Z</time></trkpt><trkpt lat="43.500614449472025" lon="12.025792297278075"><ele>406.0</ele><time>2026-04-26T08:22:24Z</time></trkpt><trkpt lat="43.50072698227135" lon="12.025933567467998"><ele>408.0</ele><time>2026-04-26T08:22:25Z</time></trkpt><trkpt lat="43.50082188932226" lon="12.02611280369251"><ele>405.75</ele><time>2026-04-26T08:22:26Z</time></trkpt><trkpt lat="43.500909884179585" lon="12.0262680805844"><ele>403.5</ele><time>2026-04-26T08:22:27Z</time></trkpt><trkpt lat="43.501009422897376" lon="12.026390931298694"><ele>401.25</ele><time>2026-04-26T08:22:28Z</time></trkpt><trkpt lat="43.501135090159316" lon="12.026498887671584"><ele>399.0</ele><time>2026-04-26T08:22:29Z</time></trkpt><trkpt lat="43.50126434823656" lon="12.026597003663756"><ele>393.3333333333333</ele><time>2026-04-26T08:22:30Z</time></trkpt><trkpt lat="43.50138593696148" lon="12.026689120109232"><ele>387.66666666666663</ele><time>2026-04-26T08:22:31Z</time></trkpt><trkpt lat="43.50149712346281" lon="12.026809974390742"><ele>382.0</ele><time>2026-04-26T08:22:32Z</time></trkpt><trkpt lat="43.50161759336836" lon="12.027003672826334"><ele>382.0</ele><time>2026-04-26T08:22:33Z</time></trkpt><trkpt lat="43.50173154945878" lon="12.027216171665017"><ele>382.0</ele><time>2026-04-26T08:22:34Z</time></trkpt><trkpt lat="43.501820591547194" lon="12.027407614978614"><ele>382.0</ele><time>2026-04-26T08:22:35Z</time></trkpt><trkpt lat="43.50190411477732" lon="12.02758104854425"><ele>382.66666666666663</ele><time>2026-04-26T08:22:36Z</time></trkpt><trkpt lat="43.50199597642596" lon="12.027732678058207"><ele>383.3333333333333</ele><time>2026-04-26T08:22:37Z</time></trkpt><trkpt lat="43.50211065376457" lon="12.027875698768199"><ele>384.0</ele><time>2026-04-26T08:22:38Z</time></trkpt><trkpt lat="43.50224837224939" lon="12.02798541182006"><ele>384.0</ele><time>2026-04-26T08:22:39Z</time></trkpt><trkpt lat="43.50239612576909" lon="12.028069922735938"><ele>384.0</ele><time>2026-04-26T08:22:40Z</time></trkpt><trkpt lat="43.50253449270768" lon="12.02814664650218"><ele>384.0</ele><time>2026-04-26T08:22:41Z</time></trkpt><trkpt lat="43.50266447365687" lon="12.028202878553053"><ele>384.0</ele><time>2026-04-26T08:22:42Z</time></trkpt><trkpt lat="43.502802281925526" lon="12.028222938360454"><ele>385.25</ele><time>2026-04-26T08:22:43Z</time></trkpt><trkpt lat="43.50294019657605" lon="12.028228712447625"><ele>386.5</ele><time>2026-04-26T08:22:44Z</time></trkpt><trkpt lat="43.503065359784976" lon="12.028246905919424"><ele>387.75</ele><time>2026-04-26T08:22:45Z</time></trkpt><trkpt lat="43.50317746144143" lon="12.02829354387805"><ele>389.0</ele><time>2026-04-26T08:22:46Z</time></trkpt><trkpt lat="43.50328980279366" lon="12.028373838333929"><ele>386.0</ele><time>2026-04-26T08:22:47Z</time></trkpt><trkpt lat="43.5033955891226" lon="12.028481466745834"><ele>383.0</ele><time>2026-04-26T08:22:48Z</time></trkpt><trkpt lat="43.503492114219526" lon="12.02859559601629"><ele>380.0</ele><time>2026-04-26T08:22:49Z</time></trkpt><trkpt lat="43.503586891491025" lon="12.02870981988136"><ele>377.0</ele><time>2026-04-26T08:22:50Z</time></trkpt><trkpt lat="43.50367999707455" lon="12.028823586318074"><ele>376.25</ele><time>2026-04-26T08:22:51Z</time></trkpt><trkpt lat="43.50376720785251" lon="12.028944341367795"><ele>375.5</ele><time>2026-04-26T08:22:52Z</time></trkpt><trkpt lat="43.50384561774362" lon="12.029069826254755"><ele>374.75</ele><time>2026-04-26T08:22:53Z</time></trkpt><trkpt lat="43.50391499549228" lon="12.029185580928784"><ele>374.0</ele><time>2026-04-26T08:22:54Z</time></trkpt><trkpt lat="43.5039842561615" lon="12.029286317520466"><ele>374.0</ele><time>2026-04-26T08:22:55Z</time></trkpt><trkpt lat="43.50406108208284" lon="12.029366902527654"><ele>374.0</ele><time>2026-04-26T08:22:56Z</time></trkpt><trkpt lat="43.50414317873892" lon="12.029443620285917"><ele>374.0</ele><time>2026-04-26T08:22:57Z</time></trkpt><trkpt lat="43.504235946388015" lon="12.029516024611086"><ele>374.0</ele><time>2026-04-26T08:22:58Z</time></trkpt><trkpt lat="43.50434751027462" lon="12.029584494108729"><ele>374.0</ele><time>2026-04-26T08:22:59Z</time></trkpt><trkpt lat="43.50447592784596" lon="12.029629114117553"><ele>373.6666666666667</ele><time>2026-04-26T08:23:00Z</time></trkpt><trkpt lat="43.50464012059605" lon="12.029669789029088"><ele>373.3333333333333</ele><time>2026-04-26T08:23:01Z</time></trkpt><trkpt lat="43.5048168616636" lon="12.029717053216897"><ele>373.0</ele><time>2026-04-26T08:23:02Z</time></trkpt><trkpt lat="43.50496612348379" lon="12.029773118802407"><ele>373.0</ele><time>2026-04-26T08:23:03Z</time></trkpt><trkpt lat="43.505101086681876" lon="12.029851712714478"><ele>373.0</ele><time>2026-04-26T08:23:04Z</time></trkpt><trkpt lat="43.505236801694174" lon="12.029964223823384"><ele>373.0</ele><time>2026-04-26T08:23:05Z</time></trkpt><trkpt lat="43.50535246290016" lon="12.030098807513957"><ele>371.75</ele><time>2026-04-26T08:23:06Z</time></trkpt><trkpt lat="43.50545190419977" lon="12.030244795874731"><ele>370.5</ele><time>2026-04-26T08:23:07Z</time></trkpt><trkpt lat="43.50556094264155" lon="12.030369619766912"><ele>369.25</ele><time>2026-04-26T08:23:08Z</time></trkpt><trkpt lat="43.50569062607579" lon="12.030464108160533"><ele>368.0</ele><time>2026-04-26T08:23:09Z</time></trkpt><trkpt lat="43.50581779484178" lon="12.030555386158548"><ele>368.0</ele><time>2026-04-26T08:23:09.999Z</time></trkpt><trkpt lat="43.505962359645274" lon="12.030635877448134"><ele>368.0</ele><time>2026-04-26T08:23:10.999Z</time></trkpt><trkpt lat="43.50613702572364" lon="12.030722106500399"><ele>368.0</ele><time>2026-04-26T08:23:11.999Z</time></trkpt><trkpt lat="43.506311153981265" lon="12.030792141322"><ele>365.33333333333337</ele><time>2026-04-26T08:23:12.999Z</time></trkpt><trkpt lat="43.50646134746204" lon="12.030851094638875"><ele>362.6666666666667</ele><time>2026-04-26T08:23:13.999Z</time></trkpt><trkpt lat="43.506607008579934" lon="12.030910782294969"><ele>360.0</ele><time>2026-04-26T08:23:14.999Z</time></trkpt><trkpt lat="43.50674976880523" lon="12.030955616809415"><ele>360.0</ele><time>2026-04-26T08:23:15.999Z</time></trkpt><trkpt lat="43.50690094126679" lon="12.030976067390695"><ele>360.0</ele><time>2026-04-26T08:23:16.999Z</time></trkpt><trkpt lat="43.507071387745164" lon="12.030989706196477"><ele>360.0</ele><time>2026-04-26T08:23:17.999Z</time></trkpt><trkpt lat="43.50723625235592" lon="12.03099821479385"><ele>360.3333333333333</ele><time>2026-04-26T08:23:18.999Z</time></trkpt><trkpt lat="43.507389178036924" lon="12.031008003749017"><ele>360.66666666666663</ele><time>2026-04-26T08:23:19.999Z</time></trkpt><trkpt lat="43.50755539687512" lon="12.031022192721606"><ele>361.0</ele><time>2026-04-26T08:23:20.999Z</time></trkpt><trkpt lat="43.50772370633144" lon="12.031036721160598"><ele>361.0</ele><time>2026-04-26T08:23:21.999Z</time></trkpt><trkpt lat="43.50787064303231" lon="12.03105247488688"><ele>361.0</ele><time>2026-04-26T08:23:23.001Z</time></trkpt><trkpt lat="43.50801435686934" lon="12.031076438761573"><ele>361.0</ele><time>2026-04-26T08:23:24.001Z</time></trkpt><trkpt lat="43.508145667233734" lon="12.031120048269875"><ele>361.0</ele><time>2026-04-26T08:23:25.001Z</time></trkpt><trkpt lat="43.50826752917396" lon="12.031179253175594"><ele>361.0</ele><time>2026-04-26T08:23:26.001Z</time></trkpt><trkpt lat="43.50838352538038" lon="12.03121692630543"><ele>361.0</ele><time>2026-04-26T08:23:27.001Z</time></trkpt><trkpt lat="43.50849898410013" lon="12.031253529045726"><ele>361.0</ele><time>2026-04-26T08:23:28.001Z</time></trkpt><trkpt lat="43.50862021094953" lon="12.031225251906937"><ele>361.0</ele><time>2026-04-26T08:23:29.001Z</time></trkpt><trkpt lat="43.50873377669905" lon="12.031185394249247"><ele>358.20000000000005</ele><time>2026-04-26T08:23:30.001Z</time></trkpt><trkpt lat="43.508846071024415" lon="12.031119221030425"><ele>355.40000000000003</ele><time>2026-04-26T08:23:31.001Z</time></trkpt><trkpt lat="43.5089533312784" lon="12.03103516203112"><ele>352.6</ele><time>2026-04-26T08:23:32.001Z</time></trkpt><trkpt lat="43.50904507637843" lon="12.03095199073401"><ele>349.8</ele><time>2026-04-26T08:23:33.001Z</time></trkpt><trkpt lat="43.5091053989392" lon="12.030896803270867"><ele>347.0</ele><time>2026-04-26T08:23:34.001Z</time></trkpt><trkpt lat="43.50919366601915" lon="12.030802478041922"><ele>347.0</ele><time>2026-04-26T08:23:36Z</time></trkpt><trkpt lat="43.50932196511894" lon="12.030905032184162"><ele>347.0</ele><time>2026-04-26T08:23:38Z</time></trkpt><trkpt lat="43.50942771812461" lon="12.031009936813474"><ele>347.0</ele><time>2026-04-26T08:23:38.999Z</time></trkpt><trkpt lat="43.50956087424828" lon="12.031151220626233"><ele>347.0</ele><time>2026-04-26T08:23:39.999Z</time></trkpt><trkpt lat="43.509701649693184" lon="12.031311175754077"><ele>346.6666666666667</ele><time>2026-04-26T08:23:40.999Z</time></trkpt><trkpt lat="43.50982372425625" lon="12.031509934390623"><ele>346.3333333333333</ele><time>2026-04-26T08:23:41.999Z</time></trkpt><trkpt lat="43.50992869156034" lon="12.031733026941282"><ele>346.0</ele><time>2026-04-26T08:23:42.999Z</time></trkpt><trkpt lat="43.510061927759054" lon="12.031988942211267"><ele>345.0</ele><time>2026-04-26T08:23:43.999Z</time></trkpt><trkpt lat="43.51018153531145" lon="12.032216156994027"><ele>344.0</ele><time>2026-04-26T08:23:44.999Z</time></trkpt><trkpt lat="43.51029401217742" lon="12.032395262220422"><ele>343.0</ele><time>2026-04-26T08:23:45.999Z</time></trkpt><trkpt lat="43.510398297017865" lon="12.032578014785155"><ele>343.3333333333333</ele><time>2026-04-26T08:23:46.999Z</time></trkpt><trkpt lat="43.51049375464711" lon="12.032751956642791"><ele>343.6666666666667</ele><time>2026-04-26T08:23:47.999Z</time></trkpt><trkpt lat="43.51057036849805" lon="12.032920496942467"><ele>344.0</ele><time>2026-04-26T08:23:48.999Z</time></trkpt><trkpt lat="43.51063765840484" lon="12.033109623608762"><ele>342.6666666666667</ele><time>2026-04-26T08:23:49.999Z</time></trkpt><trkpt lat="43.51067886432948" lon="12.033315513857772"><ele>341.3333333333333</ele><time>2026-04-26T08:23:50.999Z</time></trkpt><trkpt lat="43.5107119077477" lon="12.033523672696454"><ele>340.0</ele><time>2026-04-26T08:23:51.999Z</time></trkpt><trkpt lat="43.5107442761435" lon="12.033731924192667"><ele>340.0</ele><time>2026-04-26T08:23:52.999Z</time></trkpt><trkpt lat="43.51078667000708" lon="12.033928278875774"><ele>340.0</ele><time>2026-04-26T08:23:53.999Z</time></trkpt><trkpt lat="43.51084463448734" lon="12.034102731229467"><ele>340.0</ele><time>2026-04-26T08:23:54.999Z</time></trkpt><trkpt lat="43.51091938917229" lon="12.034240128045191"><ele>340.0</ele><time>2026-04-26T08:23:55.999Z</time></trkpt><trkpt lat="43.51101448381721" lon="12.03436820217097"><ele>339.75</ele><time>2026-04-26T08:23:56.999Z</time></trkpt><trkpt lat="43.5111231786229" lon="12.034484775756209"><ele>339.5</ele><time>2026-04-26T08:23:57.999Z</time></trkpt><trkpt lat="43.51124276757818" lon="12.0345852447593"><ele>339.25</ele><time>2026-04-26T08:23:58.999Z</time></trkpt><trkpt lat="43.51135251068591" lon="12.034677233326837"><ele>339.0</ele><time>2026-04-26T08:23:59.999Z</time></trkpt><trkpt lat="43.51145525525715" lon="12.034753150408186"><ele>339.5</ele><time>2026-04-26T08:24:00.999Z</time></trkpt><trkpt lat="43.51156900219939" lon="12.034807616099197"><ele>340.0</ele><time>2026-04-26T08:24:01.999Z</time></trkpt><trkpt lat="43.511687791495845" lon="12.034835595237885"><ele>340.5</ele><time>2026-04-26T08:24:02.999Z</time></trkpt><trkpt lat="43.51180467581534" lon="12.034843732293627"><ele>341.0</ele><time>2026-04-26T08:24:03.999Z</time></trkpt><trkpt lat="43.511911574184076" lon="12.03489945861633"><ele>341.0</ele><time>2026-04-26T08:24:04.999Z</time></trkpt><trkpt lat="43.51202793752592" lon="12.03494799248155"><ele>341.0</ele><time>2026-04-26T08:24:05.999Z</time></trkpt><trkpt lat="43.512131136191215" lon="12.03506024290841"><ele>341.0</ele><time>2026-04-26T08:24:06.999Z</time></trkpt><trkpt lat="43.51221460659745" lon="12.035215233017954"><ele>341.0</ele><time>2026-04-26T08:24:07.999Z</time></trkpt><trkpt lat="43.512276846993494" lon="12.035393750624518"><ele>342.0</ele><time>2026-04-26T08:24:08.999Z</time></trkpt><trkpt lat="43.512331072118" lon="12.03558473335734"><ele>343.0</ele><time>2026-04-26T08:24:09.999Z</time></trkpt><trkpt lat="43.51239366809668" lon="12.035780697623045"><ele>344.0</ele><time>2026-04-26T08:24:10.999Z</time></trkpt><trkpt lat="43.51246263373848" lon="12.035972996032653"><ele>344.0</ele><time>2026-04-26T08:24:11.999Z</time></trkpt><trkpt lat="43.51253130678092" lon="12.036171435502883"><ele>344.0</ele><time>2026-04-26T08:24:12.999Z</time></trkpt><trkpt lat="43.512598253876995" lon="12.03638509638652"><ele>344.0</ele><time>2026-04-26T08:24:13.999Z</time></trkpt><trkpt lat="43.51266193391894" lon="12.036573106595151"><ele>341.6666666666667</ele><time>2026-04-26T08:24:14.999Z</time></trkpt><trkpt lat="43.51272294599499" lon="12.036778622025835"><ele>339.3333333333333</ele><time>2026-04-26T08:24:15.999Z</time></trkpt><trkpt lat="43.51278986877836" lon="12.036979052907812"><ele>337.0</ele><time>2026-04-26T08:24:16.999Z</time></trkpt><trkpt lat="43.512880419916506" lon="12.037173372602718"><ele>340.0</ele><time>2026-04-26T08:24:17.999Z</time></trkpt><trkpt lat="43.51299418197678" lon="12.037358028332596"><ele>343.0</ele><time>2026-04-26T08:24:18.999Z</time></trkpt><trkpt lat="43.51311577003094" lon="12.037534873970287"><ele>346.0</ele><time>2026-04-26T08:24:19.999Z</time></trkpt><trkpt lat="43.51323562336379" lon="12.037733080031277"><ele>346.0</ele><time>2026-04-26T08:24:20.999Z</time></trkpt><trkpt lat="43.513398696938644" lon="12.037941552202074"><ele>346.0</ele><time>2026-04-26T08:24:21.999Z</time></trkpt><trkpt lat="43.51354388707489" lon="12.038159761425748"><ele>346.0</ele><time>2026-04-26T08:24:22.999Z</time></trkpt><trkpt lat="43.5136937183039" lon="12.03838008168621"><ele>346.3333333333333</ele><time>2026-04-26T08:24:23.999Z</time></trkpt><trkpt lat="43.51384414041254" lon="12.038601556406837"><ele>346.6666666666667</ele><time>2026-04-26T08:24:24.999Z</time></trkpt><trkpt lat="43.513970511311825" lon="12.038801274031956"><ele>347.0</ele><time>2026-04-26T08:24:25.999Z</time></trkpt><trkpt lat="43.514085239791946" lon="12.038993197856438"><ele>343.33333333333337</ele><time>2026-04-26T08:24:26.999Z</time></trkpt><trkpt lat="43.514196338449466" lon="12.039190702543545"><ele>339.6666666666667</ele><time>2026-04-26T08:24:27.999Z</time></trkpt><trkpt lat="43.51432125744217" lon="12.039398303878322"><ele>336.0</ele><time>2026-04-26T08:24:28.999Z</time></trkpt><trkpt lat="43.514459475910755" lon="12.03961360219017"><ele>336.6666666666667</ele><time>2026-04-26T08:24:29.999Z</time></trkpt><trkpt lat="43.51460226071085" lon="12.039826369939277"><ele>337.33333333333337</ele><time>2026-04-26T08:24:30.999Z</time></trkpt><trkpt lat="43.51474329346297" lon="12.040033286765073"><ele>338.0</ele><time>2026-04-26T08:24:31.999Z</time></trkpt><trkpt lat="43.51487603851312" lon="12.040217944697547"><ele>338.0</ele><time>2026-04-26T08:24:32.999Z</time></trkpt><trkpt lat="43.51499448744368" lon="12.040381920282"><ele>338.0</ele><time>2026-04-26T08:24:33.999Z</time></trkpt><trkpt lat="43.515092340701045" lon="12.040535186472423"><ele>338.0</ele><time>2026-04-26T08:24:34.999Z</time></trkpt><trkpt lat="43.51520641798731" lon="12.04070147016581"><ele>338.0</ele><time>2026-04-26T08:24:35.999Z</time></trkpt><trkpt lat="43.51534213589881" lon="12.040871493815857"><ele>338.0</ele><time>2026-04-26T08:24:36.999Z</time></trkpt><trkpt lat="43.51551737314521" lon="12.041074080928327"><ele>338.0</ele><time>2026-04-26T08:24:37.999Z</time></trkpt><trkpt lat="43.51568751620032" lon="12.041281115054597"><ele>338.0</ele><time>2026-04-26T08:24:38.999Z</time></trkpt><trkpt lat="43.51584317772346" lon="12.041453814710026"><ele>338.0</ele><time>2026-04-26T08:24:39.999Z</time></trkpt><trkpt lat="43.515982534860015" lon="12.04160310191643"><ele>338.0</ele><time>2026-04-26T08:24:40.999Z</time></trkpt><trkpt lat="43.51613861689936" lon="12.041665192980975"><ele>338.5</ele><time>2026-04-26T08:24:41.999Z</time></trkpt><trkpt lat="43.51624751862781" lon="12.04179529268262"><ele>339.0</ele><time>2026-04-26T08:24:42.999Z</time></trkpt><trkpt lat="43.51634469729521" lon="12.04193637542211"><ele>339.5</ele><time>2026-04-26T08:24:43.999Z</time></trkpt><trkpt lat="43.51642504274324" lon="12.042083656096285"><ele>340.0</ele><time>2026-04-26T08:24:44.999Z</time></trkpt><trkpt lat="43.51649263706291" lon="12.042233930714003"><ele>340.0</ele><time>2026-04-26T08:24:45.999Z</time></trkpt><trkpt lat="43.516554920077034" lon="12.042387018194493"><ele>340.0</ele><time>2026-04-26T08:24:46.999Z</time></trkpt><trkpt lat="43.51663177921439" lon="12.042548905502038"><ele>340.0</ele><time>2026-04-26T08:24:47.999Z</time></trkpt><trkpt lat="43.51672227731436" lon="12.042710678360919"><ele>340.0</ele><time>2026-04-26T08:24:48.999Z</time></trkpt><trkpt lat="43.51682496540636" lon="12.042856729221048"><ele>342.3333333333333</ele><time>2026-04-26T08:24:49.999Z</time></trkpt><trkpt lat="43.516945473534086" lon="12.042997671596563"><ele>344.6666666666667</ele><time>2026-04-26T08:24:50.999Z</time></trkpt><trkpt lat="43.51709343309457" lon="12.043142996574671"><ele>347.0</ele><time>2026-04-26T08:24:51.999Z</time></trkpt><trkpt lat="43.517264600226504" lon="12.043283557802061"><ele>340.0</ele><time>2026-04-26T08:24:52.999Z</time></trkpt><trkpt lat="43.51746536735149" lon="12.043422777829349"><ele>333.0</ele><time>2026-04-26T08:24:53.999Z</time></trkpt><trkpt lat="43.51767112242608" lon="12.043567266120748"><ele>333.0</ele><time>2026-04-26T08:24:54.999Z</time></trkpt><trkpt lat="43.51785820796258" lon="12.043731456094495"><ele>333.0</ele><time>2026-04-26T08:24:55.999Z</time></trkpt><trkpt lat="43.51804277079007" lon="12.043920055240731"><ele>333.3333333333333</ele><time>2026-04-26T08:24:56.999Z</time></trkpt><trkpt lat="43.51820751599469" lon="12.044111833828202"><ele>333.66666666666663</ele><time>2026-04-26T08:24:57.999Z</time></trkpt><trkpt lat="43.51836554737569" lon="12.04431445985546"><ele>334.0</ele><time>2026-04-26T08:24:58.999Z</time></trkpt><trkpt lat="43.5185007806276" lon="12.04452350846597"><ele>334.66666666666663</ele><time>2026-04-26T08:24:59.999Z</time></trkpt><trkpt lat="43.51862504728252" lon="12.044717007146895"><ele>335.3333333333333</ele><time>2026-04-26T08:25:00.999Z</time></trkpt><trkpt lat="43.51873970428535" lon="12.044890555187674"><ele>336.0</ele><time>2026-04-26T08:25:01.999Z</time></trkpt><trkpt lat="43.518857456719104" lon="12.045048401121779"><ele>334.5</ele><time>2026-04-26T08:25:02.999Z</time></trkpt><trkpt lat="43.518974732587004" lon="12.045174290609646"><ele>333.0</ele><time>2026-04-26T08:25:03.999Z</time></trkpt><trkpt lat="43.51907490829235" lon="12.045281063287678"><ele>331.5</ele><time>2026-04-26T08:25:04.999Z</time></trkpt><trkpt lat="43.51921498088201" lon="12.04539252738909"><ele>330.0</ele><time>2026-04-26T08:25:05.999Z</time></trkpt><trkpt lat="43.51931331232654" lon="12.04550707633608"><ele>330.0</ele><time>2026-04-26T08:25:06.999Z</time></trkpt><trkpt lat="43.51943065875614" lon="12.045609508809152"><ele>330.0</ele><time>2026-04-26T08:25:07.999Z</time></trkpt><trkpt lat="43.519582378696605" lon="12.045580131620214"><ele>330.0</ele><time>2026-04-26T08:25:08.999Z</time></trkpt><trkpt lat="43.51982382475333" lon="12.045610370614138"><ele>326.0</ele><time>2026-04-26T08:25:09.999Z</time></trkpt><trkpt lat="43.52031306469327" lon="12.045789083613696"><ele>326.0</ele><time>2026-04-26T08:25:10.999Z</time></trkpt><trkpt lat="43.520184780663314" lon="12.045364479059835"><ele>326.0</ele><time>2026-04-26T08:25:11.999Z</time></trkpt><trkpt lat="43.52045052964916" lon="12.045145842395934"><ele>325.5</ele><time>2026-04-26T08:25:12.999Z</time></trkpt><trkpt lat="43.52072079586868" lon="12.044957346694614"><ele>325.0</ele><time>2026-04-26T08:25:13.999Z</time></trkpt><trkpt lat="43.520929778571784" lon="12.044830371940922"><ele>325.0</ele><time>2026-04-26T08:25:14.999Z</time></trkpt><trkpt lat="43.52113395411859" lon="12.044698434873956"><ele>325.0</ele><time>2026-04-26T08:25:15.999Z</time></trkpt><trkpt lat="43.52131154242735" lon="12.044592355601724"><ele>325.0</ele><time>2026-04-26T08:25:16.999Z</time></trkpt><trkpt lat="43.521494720023945" lon="12.044434463750523"><ele>325.0</ele><time>2026-04-26T08:25:17.999Z</time></trkpt><trkpt lat="43.52169525363784" lon="12.044242779628297"><ele>325.0</ele><time>2026-04-26T08:25:18.999Z</time></trkpt><trkpt lat="43.52189212188822" lon="12.044016134323414"><ele>325.0</ele><time>2026-04-26T08:25:19.999Z</time></trkpt><trkpt lat="43.522055380113365" lon="12.043804823271063"><ele>325.0</ele><time>2026-04-26T08:25:20.999Z</time></trkpt><trkpt lat="43.522195220197695" lon="12.043609928896965"><ele>325.0</ele><time>2026-04-26T08:25:21.998Z</time></trkpt><trkpt lat="43.52230904908229" lon="12.043414578180975"><ele>326.3333333333333</ele><time>2026-04-26T08:25:22.998Z</time></trkpt><trkpt lat="43.522420324886866" lon="12.043233941461386"><ele>327.6666666666667</ele><time>2026-04-26T08:25:23.998Z</time></trkpt><trkpt lat="43.522533267452026" lon="12.043074962610847"><ele>329.0</ele><time>2026-04-26T08:25:24.998Z</time></trkpt><trkpt lat="43.522635182911564" lon="12.042877625597098"><ele>329.0</ele><time>2026-04-26T08:25:25.998Z</time></trkpt><trkpt lat="43.52274405994754" lon="12.042705378518463"><ele>329.0</ele><time>2026-04-26T08:25:26.998Z</time></trkpt><trkpt lat="43.52286935487814" lon="12.042551433130685"><ele>329.0</ele><time>2026-04-26T08:25:27.998Z</time></trkpt><trkpt lat="43.522979461705454" lon="12.0424007941161"><ele>328.75</ele><time>2026-04-26T08:25:29Z</time></trkpt><trkpt lat="43.52309212609587" lon="12.04226866244631"><ele>328.5</ele><time>2026-04-26T08:25:30Z</time></trkpt><trkpt lat="43.5232007332257" lon="12.04216097343228"><ele>328.25</ele><time>2026-04-26T08:25:31Z</time></trkpt><trkpt lat="43.52330412914399" lon="12.0420673784448"><ele>328.0</ele><time>2026-04-26T08:25:32Z</time></trkpt><trkpt lat="43.523422314963824" lon="12.041974172919375"><ele>328.0</ele><time>2026-04-26T08:25:33Z</time></trkpt><trkpt lat="43.523584030561935" lon="12.041873351960323"><ele>328.0</ele><time>2026-04-26T08:25:34Z</time></trkpt><trkpt lat="43.52376785130942" lon="12.041779881517739"><ele>328.0</ele><time>2026-04-26T08:25:35Z</time></trkpt><trkpt lat="43.52393034666399" lon="12.041707280614864"><ele>327.75</ele><time>2026-04-26T08:25:36Z</time></trkpt><trkpt lat="43.52407873660618" lon="12.04164003074022"><ele>327.5</ele><time>2026-04-26T08:25:37Z</time></trkpt><trkpt lat="43.5242093865199" lon="12.041580820607514"><ele>327.25</ele><time>2026-04-26T08:25:38Z</time></trkpt><trkpt lat="43.52434192325503" lon="12.041504351452605"><ele>327.0</ele><time>2026-04-26T08:25:39Z</time></trkpt><trkpt lat="43.52448562207477" lon="12.041440772516193"><ele>326.0</ele><time>2026-04-26T08:25:40Z</time></trkpt><trkpt lat="43.5246250517292" lon="12.041376686353813"><ele>325.0</ele><time>2026-04-26T08:25:41Z</time></trkpt><trkpt lat="43.52477020904673" lon="12.041308354723327"><ele>324.0</ele><time>2026-04-26T08:25:42Z</time></trkpt><trkpt lat="43.52491791371173" lon="12.041237833451149"><ele>324.0</ele><time>2026-04-26T08:25:43Z</time></trkpt><trkpt lat="43.52505675075174" lon="12.041194106455729"><ele>324.0</ele><time>2026-04-26T08:25:44Z</time></trkpt><trkpt lat="43.525175656018284" lon="12.041140577381865"><ele>324.0</ele><time>2026-04-26T08:25:45Z</time></trkpt><trkpt lat="43.52527761284719" lon="12.041097116861181"><ele>324.0</ele><time>2026-04-26T08:25:46Z</time></trkpt><trkpt lat="43.525372612035156" lon="12.041062331913205"><ele>324.0</ele><time>2026-04-26T08:25:47Z</time></trkpt><trkpt lat="43.525464018416365" lon="12.04104352808878"><ele>324.0</ele><time>2026-04-26T08:25:48Z</time></trkpt><trkpt lat="43.52555202543635" lon="12.041081779463843"><ele>324.0</ele><time>2026-04-26T08:25:48.999Z</time></trkpt><trkpt lat="43.52561842811381" lon="12.041161365453629"><ele>324.0</ele><time>2026-04-26T08:25:49.999Z</time></trkpt><trkpt lat="43.52565020050982" lon="12.041287577617986"><ele>324.0</ele><time>2026-04-26T08:25:50.999Z</time></trkpt><trkpt lat="43.52571912710933" lon="12.041404208603197"><ele>324.0</ele><time>2026-04-26T08:25:51.999Z</time></trkpt><trkpt lat="43.52578599116869" lon="12.041573488955601"><ele>324.0</ele><time>2026-04-26T08:25:53Z</time></trkpt><trkpt lat="43.52587303335336" lon="12.04176832127908"><ele>324.0</ele><time>2026-04-26T08:25:53.999Z</time></trkpt><trkpt lat="43.525971414740596" lon="12.041980406040231"><ele>323.6666666666667</ele><time>2026-04-26T08:25:54.999Z</time></trkpt><trkpt lat="43.52607488690586" lon="12.04220787474234"><ele>323.33333333333337</ele><time>2026-04-26T08:25:55.999Z</time></trkpt><trkpt lat="43.52618067314799" lon="12.042436153789282"><ele>323.0</ele><time>2026-04-26T08:25:56.999Z</time></trkpt><trkpt lat="43.52627643082979" lon="12.042649966694878"><ele>323.6666666666667</ele><time>2026-04-26T08:25:57.999Z</time></trkpt><trkpt lat="43.52636227392534" lon="12.042841264523249"><ele>324.3333333333333</ele><time>2026-04-26T08:25:58.999Z</time></trkpt><trkpt lat="43.52644766752794" lon="12.043019902532004"><ele>325.0</ele><time>2026-04-26T08:25:59.999Z</time></trkpt><trkpt lat="43.526550878951966" lon="12.043210280421357"><ele>325.3333333333333</ele><time>2026-04-26T08:26:00.999Z</time></trkpt><trkpt lat="43.52666953113334" lon="12.04339477686864"><ele>325.6666666666667</ele><time>2026-04-26T08:26:01.999Z</time></trkpt><trkpt lat="43.52680714235185" lon="12.043571887395299"><ele>326.0</ele><time>2026-04-26T08:26:02.999Z</time></trkpt><trkpt lat="43.526955889648484" lon="12.043752597359738"><ele>326.0</ele><time>2026-04-26T08:26:03.999Z</time></trkpt><trkpt lat="43.5271275103078" lon="12.043963866768644"><ele>326.0</ele><time>2026-04-26T08:26:04.999Z</time></trkpt><trkpt lat="43.527328430988035" lon="12.044207956470688"><ele>326.0</ele><time>2026-04-26T08:26:05.999Z</time></trkpt><trkpt lat="43.52754325107699" lon="12.044469345965934"><ele>326.0</ele><time>2026-04-26T08:26:06.999Z</time></trkpt><trkpt lat="43.52776760259301" lon="12.044745992324168"><ele>326.0</ele><time>2026-04-26T08:26:07.999Z</time></trkpt><trkpt lat="43.52799302197302" lon="12.045034078877606"><ele>326.0</ele><time>2026-04-26T08:26:08.999Z</time></trkpt><trkpt lat="43.52820474206511" lon="12.045292026249538"><ele>326.0</ele><time>2026-04-26T08:26:09.999Z</time></trkpt><trkpt lat="43.52833169535667" lon="12.045424359172168"><ele>326.0</ele><time>2026-04-26T08:26:10.999Z</time></trkpt><trkpt lat="43.528488753162186" lon="12.045614457989497"><ele>326.0</ele><time>2026-04-26T08:26:11.999Z</time></trkpt><trkpt lat="43.528615953470954" lon="12.045782757122831"><ele>326.33333333333337</ele><time>2026-04-26T08:26:12.999Z</time></trkpt><trkpt lat="43.52870065281521" lon="12.045902243927193"><ele>326.6666666666667</ele><time>2026-04-26T08:26:13.999Z</time></trkpt><trkpt lat="43.528828060162326" lon="12.046059241728"><ele>327.0</ele><time>2026-04-26T08:26:14.999Z</time></trkpt><trkpt lat="43.52899106140204" lon="12.04622613951599"><ele>328.20000000000005</ele><time>2026-04-26T08:26:15.999Z</time></trkpt><trkpt lat="43.52913025835028" lon="12.046256784487872"><ele>329.4</ele><time>2026-04-26T08:26:16.999Z</time></trkpt><trkpt lat="43.529060290731785" lon="12.046166492134763"><ele>330.6</ele><time>2026-04-26T08:26:20.999Z</time></trkpt><trkpt lat="43.529047519051325" lon="12.046018338088071"><ele>331.79999999999995</ele><time>2026-04-26T08:26:29.999Z</time></trkpt><trkpt lat="43.52912582740413" lon="12.04597941781702"><ele>333.0</ele><time>2026-04-26T08:26:31.999Z</time></trkpt><trkpt lat="43.52931005209821" lon="12.045988257575424"><ele>333.0</ele><time>2026-04-26T08:26:33.999Z</time></trkpt><trkpt lat="43.52943134372891" lon="12.04596286492663"><ele>333.0</ele><time>2026-04-26T08:26:34.999Z</time></trkpt><trkpt lat="43.52954776800156" lon="12.045968919340176"><ele>333.0</ele><time>2026-04-26T08:26:35.999Z</time></trkpt><trkpt lat="43.52970342741" lon="12.045972724197453"><ele>333.0</ele><time>2026-04-26T08:26:36.999Z</time></trkpt><trkpt lat="43.52985753663747" lon="12.046002602537172"><ele>334.6666666666667</ele><time>2026-04-26T08:26:37.999Z</time></trkpt><trkpt lat="43.53001592536225" lon="12.0459917044685"><ele>336.33333333333337</ele><time>2026-04-26T08:26:38.999Z</time></trkpt><trkpt lat="43.53016424285088" lon="12.04596648887749"><ele>338.0</ele><time>2026-04-26T08:26:39.999Z</time></trkpt><trkpt lat="43.53030969247781" lon="12.045934452115159"><ele>338.75</ele><time>2026-04-26T08:26:40.999Z</time></trkpt><trkpt lat="43.53045245142266" lon="12.045874037785353"><ele>339.5</ele><time>2026-04-26T08:26:41.999Z</time></trkpt><trkpt lat="43.53058812321009" lon="12.04578725841403"><ele>340.25</ele><time>2026-04-26T08:26:42.999Z</time></trkpt><trkpt lat="43.53071366211794" lon="12.04567649506409"><ele>341.0</ele><time>2026-04-26T08:26:43.999Z</time></trkpt><trkpt lat="43.53082780757178" lon="12.045545089791865"><ele>338.6666666666667</ele><time>2026-04-26T08:26:44.999Z</time></trkpt><trkpt lat="43.530929929371425" lon="12.04538327399493"><ele>336.3333333333333</ele><time>2026-04-26T08:26:45.999Z</time></trkpt><trkpt lat="43.53102266133168" lon="12.045204408388297"><ele>334.0</ele><time>2026-04-26T08:26:46.999Z</time></trkpt><trkpt lat="43.53112550691265" lon="12.045030303290105"><ele>335.0</ele><time>2026-04-26T08:26:47.999Z</time></trkpt><trkpt lat="43.53122416556091" lon="12.044847850429253"><ele>336.0</ele><time>2026-04-26T08:26:48.999Z</time></trkpt><trkpt lat="43.53132520967405" lon="12.044664700556151"><ele>337.0</ele><time>2026-04-26T08:26:49.999Z</time></trkpt><trkpt lat="43.5314260319923" lon="12.044481138823045"><ele>337.0</ele><time>2026-04-26T08:26:50.999Z</time></trkpt><trkpt lat="43.531526477139074" lon="12.044293050901153"><ele>337.0</ele><time>2026-04-26T08:26:51.999Z</time></trkpt><trkpt lat="43.531634642325685" lon="12.044087451668466"><ele>337.0</ele><time>2026-04-26T08:26:52.999Z</time></trkpt><trkpt lat="43.531757066230625" lon="12.043853913599179"><ele>336.66666666666663</ele><time>2026-04-26T08:26:53.999Z</time></trkpt><trkpt lat="43.53187356600124" lon="12.043645574740395"><ele>336.3333333333333</ele><time>2026-04-26T08:26:54.999Z</time></trkpt><trkpt lat="43.53199394546294" lon="12.043478863972178"><ele>336.0</ele><time>2026-04-26T08:26:55.999Z</time></trkpt><trkpt lat="43.53212197464483" lon="12.043332811960969"><ele>335.0</ele><time>2026-04-26T08:26:56.999Z</time></trkpt><trkpt lat="43.53226564873352" lon="12.043203873949407"><ele>334.0</ele><time>2026-04-26T08:26:57.999Z</time></trkpt><trkpt lat="43.532426459612054" lon="12.043095476447755"><ele>333.0</ele><time>2026-04-26T08:26:58.999Z</time></trkpt><trkpt lat="43.53258736097743" lon="12.04299562971252"><ele>333.0</ele><time>2026-04-26T08:26:59.999Z</time></trkpt><trkpt lat="43.53276055862677" lon="12.042889533735494"><ele>333.0</ele><time>2026-04-26T08:27:00.999Z</time></trkpt><trkpt lat="43.53295368000821" lon="12.04275904002112"><ele>333.0</ele><time>2026-04-26T08:27:01.999Z</time></trkpt><trkpt lat="43.533131522097484" lon="12.042595477576267"><ele>334.3333333333333</ele><time>2026-04-26T08:27:02.999Z</time></trkpt><trkpt lat="43.53328086800637" lon="12.042471303713837"><ele>335.66666666666663</ele><time>2026-04-26T08:27:03.999Z</time></trkpt><trkpt lat="43.53340682194337" lon="12.042349300785217"><ele>337.0</ele><time>2026-04-26T08:27:04.999Z</time></trkpt><trkpt lat="43.533518408777766" lon="12.042230756779057"><ele>337.0</ele><time>2026-04-26T08:27:05.999Z</time></trkpt><trkpt lat="43.53365382385671" lon="12.042135458074371"><ele>337.0</ele><time>2026-04-26T08:27:06.999Z</time></trkpt><trkpt lat="43.533780177325525" lon="12.042030039545525"><ele>337.0</ele><time>2026-04-26T08:27:07.999Z</time></trkpt><trkpt lat="43.53389542610935" lon="12.041944938053303"><ele>337.0</ele><time>2026-04-26T08:27:08.999Z</time></trkpt><trkpt lat="43.53400126666077" lon="12.041866586861335"><ele>337.25</ele><time>2026-04-26T08:27:09.999Z</time></trkpt><trkpt lat="43.53411211240342" lon="12.04179100523277"><ele>337.5</ele><time>2026-04-26T08:27:10.999Z</time></trkpt><trkpt lat="43.534238587071236" lon="12.041732598472539"><ele>337.75</ele><time>2026-04-26T08:27:11.999Z</time></trkpt><trkpt lat="43.534368861363475" lon="12.041674318010799"><ele>338.0</ele><time>2026-04-26T08:27:12.999Z</time></trkpt><trkpt lat="43.53448507314769" lon="12.04161073020696"><ele>339.79999999999995</ele><time>2026-04-26T08:27:13.999Z</time></trkpt><trkpt lat="43.53458666964197" lon="12.041523126357065"><ele>341.6</ele><time>2026-04-26T08:27:14.999Z</time></trkpt><trkpt lat="43.534677040638066" lon="12.041445573519725"><ele>343.4</ele><time>2026-04-26T08:27:15.999Z</time></trkpt><trkpt lat="43.53473929532193" lon="12.041385409955643"><ele>345.20000000000005</ele><time>2026-04-26T08:27:16.999Z</time></trkpt><trkpt lat="43.53480579543062" lon="12.041295805513876"><ele>347.0</ele><time>2026-04-26T08:27:18.999Z</time></trkpt><trkpt lat="43.53487815078868" lon="12.04123531129332"><ele>347.0</ele><time>2026-04-26T08:27:20.999Z</time></trkpt><trkpt lat="43.534799770558344" lon="12.04105618948282"><ele>347.0</ele><time>2026-04-26T08:27:21.999Z</time></trkpt><trkpt lat="43.53475116212334" lon="12.040936354784204"><ele>347.0</ele><time>2026-04-26T08:27:22.999Z</time></trkpt><trkpt lat="43.53470667877092" lon="12.040790177376778"><ele>347.0</ele><time>2026-04-26T08:27:23.999Z</time></trkpt><trkpt lat="43.53469026320419" lon="12.040636086529561"><ele>346.75</ele><time>2026-04-26T08:27:24.999Z</time></trkpt><trkpt lat="43.534695233157585" lon="12.04047198966659"><ele>346.5</ele><time>2026-04-26T08:27:25.999Z</time></trkpt><trkpt lat="43.53473968197476" lon="12.040313508748474"><ele>346.25</ele><time>2026-04-26T08:27:26.999Z</time></trkpt><trkpt lat="43.53481400072323" lon="12.040164931608947"><ele>346.0</ele><time>2026-04-26T08:27:27.999Z</time></trkpt><trkpt lat="43.53492250658682" lon="12.040000862801168"><ele>347.0</ele><time>2026-04-26T08:27:28.999Z</time></trkpt><trkpt lat="43.535068667714114" lon="12.039802361469636"><ele>348.0</ele><time>2026-04-26T08:27:29.999Z</time></trkpt><trkpt lat="43.53524103073127" lon="12.039566072985924"><ele>349.0</ele><time>2026-04-26T08:27:30.999Z</time></trkpt><trkpt lat="43.5354204968765" lon="12.039320598242366"><ele>344.5</ele><time>2026-04-26T08:27:31.999Z</time></trkpt><trkpt lat="43.535606488849204" lon="12.039067295904868"><ele>340.0</ele><time>2026-04-26T08:27:32.999Z</time></trkpt><trkpt lat="43.53580284923533" lon="12.038806323010714"><ele>340.0</ele><time>2026-04-26T08:27:33.999Z</time></trkpt><trkpt lat="43.5359961856452" lon="12.038528515628123"><ele>340.0</ele><time>2026-04-26T08:27:34.999Z</time></trkpt><trkpt lat="43.53619767802218" lon="12.038310549663525"><ele>341.0</ele><time>2026-04-26T08:27:35.999Z</time></trkpt><trkpt lat="43.53636591573055" lon="12.03810271301915"><ele>342.0</ele><time>2026-04-26T08:27:36.999Z</time></trkpt><trkpt lat="43.53657234446685" lon="12.037911478778494"><ele>342.0</ele><time>2026-04-26T08:27:37.999Z</time></trkpt><trkpt lat="43.536740947023326" lon="12.03771902378872"><ele>342.0</ele><time>2026-04-26T08:27:38.999Z</time></trkpt><trkpt lat="43.53691673155389" lon="12.037543626142806"><ele>342.0</ele><time>2026-04-26T08:27:39.999Z</time></trkpt><trkpt lat="43.53707671786954" lon="12.037374296428714"><ele>342.25</ele><time>2026-04-26T08:27:41Z</time></trkpt><trkpt lat="43.5372205440027" lon="12.037223175998278"><ele>342.5</ele><time>2026-04-26T08:27:41.999Z</time></trkpt><trkpt lat="43.537329919834065" lon="12.037107789959368"><ele>342.75</ele><time>2026-04-26T08:27:42.999Z</time></trkpt><trkpt lat="43.53741527772751" lon="12.03702271307552"><ele>343.0</ele><time>2026-04-26T08:27:43.999Z</time></trkpt><trkpt lat="43.5374839947775" lon="12.036959201505665"><ele>343.0</ele><time>2026-04-26T08:27:44.999Z</time></trkpt><trkpt lat="43.53753762256671" lon="12.036909417200524"><ele>343.0</ele><time>2026-04-26T08:27:45.999Z</time></trkpt><trkpt lat="43.53760954334688" lon="12.036844836442857"><ele>343.0</ele><time>2026-04-26T08:27:47.999Z</time></trkpt><trkpt lat="43.53768079801088" lon="12.036859451210871"><ele>343.0</ele><time>2026-04-26T08:27:49.999Z</time></trkpt><trkpt lat="43.53767688247726" lon="12.036949090712723"><ele>343.0</ele><time>2026-04-26T08:27:50.999Z</time></trkpt><trkpt lat="43.53774480374061" lon="12.036994870896358"><ele>343.0</ele><time>2026-04-26T08:27:52.999Z</time></trkpt><trkpt lat="43.53782184928685" lon="12.037033077414586"><ele>343.0</ele><time>2026-04-26T08:27:54.999Z</time></trkpt><trkpt lat="43.5378644575141" lon="12.036963667900297"><ele>342.79999999999995</ele><time>2026-04-26T08:27:55.999Z</time></trkpt><trkpt lat="43.53796903672279" lon="12.036857882714484"><ele>342.6</ele><time>2026-04-26T08:27:57.999Z</time></trkpt><trkpt lat="43.53803757725673" lon="12.036790079052288"><ele>342.4</ele><time>2026-04-26T08:27:58.999Z</time></trkpt><trkpt lat="43.538107370395664" lon="12.036708874034236"><ele>342.20000000000005</ele><time>2026-04-26T08:27:59.999Z</time></trkpt><trkpt lat="43.53818346549933" lon="12.036633546181607"><ele>342.0</ele><time>2026-04-26T08:28:00.999Z</time></trkpt><trkpt lat="43.538259390501366" lon="12.03656068509024"><ele>342.0</ele><time>2026-04-26T08:28:01.999Z</time></trkpt><trkpt lat="43.53833622953676" lon="12.036495772480823"><ele>342.0</ele><time>2026-04-26T08:28:02.999Z</time></trkpt><trkpt lat="43.53839783253601" lon="12.036455787598463"><ele>342.0</ele><time>2026-04-26T08:28:03.999Z</time></trkpt><trkpt lat="43.53847982991377" lon="12.036391554523492"><ele>342.0</ele><time>2026-04-26T08:28:04.999Z</time></trkpt><trkpt lat="43.53856159497383" lon="12.036331813572623"><ele>342.0</ele><time>2026-04-26T08:28:05.999Z</time></trkpt><trkpt lat="43.538646972334945" lon="12.0362718845718"><ele>342.0</ele><time>2026-04-26T08:28:06.999Z</time></trkpt><trkpt lat="43.538736291143756" lon="12.03620609130077"><ele>344.6</ele><time>2026-04-26T08:28:07.999Z</time></trkpt><trkpt lat="43.538794357570964" lon="12.036148406797604"><ele>347.20000000000005</ele><time>2026-04-26T08:28:08.999Z</time></trkpt><trkpt lat="43.538886178186274" lon="12.036012444800047"><ele>349.8</ele><time>2026-04-26T08:28:10.999Z</time></trkpt><trkpt lat="43.53897408454288" lon="12.035908691730333"><ele>352.4</ele><time>2026-04-26T08:28:12.999Z</time></trkpt><trkpt lat="43.53903457789315" lon="12.035858175243455"><ele>355.0</ele><time>2026-04-26T08:28:13.999Z</time></trkpt><trkpt lat="43.539096247099685" lon="12.035807332810233"><ele>353.57142857142856</ele><time>2026-04-26T08:28:14.999Z</time></trkpt><trkpt lat="43.53915870037908" lon="12.035755112048555"><ele>352.14285714285717</ele><time>2026-04-26T08:28:15.999Z</time></trkpt><trkpt lat="43.53921444061003" lon="12.035698759723724"><ele>350.7142857142857</ele><time>2026-04-26T08:28:16.999Z</time></trkpt><trkpt lat="43.53926488146091" lon="12.035638116483147"><ele>349.2857142857143</ele><time>2026-04-26T08:28:17.999Z</time></trkpt><trkpt lat="43.539310210239066" lon="12.03557452443887"><ele>347.85714285714283</ele><time>2026-04-26T08:28:18.999Z</time></trkpt><trkpt lat="43.53936288770204" lon="12.035497025383208"><ele>346.42857142857144</ele><time>2026-04-26T08:28:19.999Z</time></trkpt><trkpt lat="43.53941508725161" lon="12.035417917920629"><ele>345.0</ele><time>2026-04-26T08:28:20.999Z</time></trkpt><trkpt lat="43.53946716611064" lon="12.035337903399444"><ele>345.0</ele><time>2026-04-26T08:28:21.999Z</time></trkpt><trkpt lat="43.53952469681757" lon="12.035247276497486"><ele>345.0</ele><time>2026-04-26T08:28:22.999Z</time></trkpt><trkpt lat="43.53958543595277" lon="12.035145026427328"><ele>345.0</ele><time>2026-04-26T08:28:23.999Z</time></trkpt><trkpt lat="43.53964447368033" lon="12.03504140816617"><ele>345.0</ele><time>2026-04-26T08:28:24.999Z</time></trkpt><trkpt lat="43.5396963776492" lon="12.034938050937889"><ele>345.0</ele><time>2026-04-26T08:28:25.999Z</time></trkpt><trkpt lat="43.53973829167362" lon="12.034845078536344"><ele>345.0</ele><time>2026-04-26T08:28:26.999Z</time></trkpt><trkpt lat="43.53977106190884" lon="12.034760132077539"><ele>344.8</ele><time>2026-04-26T08:28:27.999Z</time></trkpt><trkpt lat="43.53979855072937" lon="12.03467280503627"><ele>344.6</ele><time>2026-04-26T08:28:28.999Z</time></trkpt><trkpt lat="43.539814847168415" lon="12.034587484752741"><ele>344.4</ele><time>2026-04-26T08:28:29.999Z</time></trkpt><trkpt lat="43.53983128390821" lon="12.034402602866157"><ele>344.2</ele><time>2026-04-26T08:28:31.999Z</time></trkpt><trkpt lat="43.53991037936537" lon="12.034295315206219"><ele>344.0</ele><time>2026-04-26T08:28:32.999Z</time></trkpt><trkpt lat="43.53998036693619" lon="12.034113122931252"><ele>344.0</ele><time>2026-04-26T08:28:33.999Z</time></trkpt><trkpt lat="43.5400453187173" lon="12.03391032505386"><ele>344.0</ele><time>2026-04-26T08:28:34.999Z</time></trkpt><trkpt lat="43.54011489928674" lon="12.033685250899081"><ele>344.0</ele><time>2026-04-26T08:28:35.999Z</time></trkpt><trkpt lat="43.54019640551709" lon="12.033421331118438"><ele>344.0</ele><time>2026-04-26T08:28:36.999Z</time></trkpt><trkpt lat="43.54027987864799" lon="12.033150895828815"><ele>344.0</ele><time>2026-04-26T08:28:37.999Z</time></trkpt><trkpt lat="43.540351777054596" lon="12.032917959987008"><ele>344.0</ele><time>2026-04-26T08:28:38.999Z</time></trkpt><trkpt lat="43.54041768321153" lon="12.032704438246368"><ele>344.6666666666667</ele><time>2026-04-26T08:28:39.999Z</time></trkpt><trkpt lat="43.54048326475668" lon="12.032491967450277"><ele>345.3333333333333</ele><time>2026-04-26T08:28:40.999Z</time></trkpt><trkpt lat="43.54055442243913" lon="12.032263794697814"><ele>346.0</ele><time>2026-04-26T08:28:41.999Z</time></trkpt><trkpt lat="43.540640640814225" lon="12.031986764709984"><ele>346.0</ele><time>2026-04-26T08:28:42.999Z</time></trkpt><trkpt lat="43.54074001087935" lon="12.031666736703833"><ele>346.0</ele><time>2026-04-26T08:28:43.999Z</time></trkpt><trkpt lat="43.54085136035119" lon="12.031307075573052"><ele>344.0</ele><time>2026-04-26T08:28:44.999Z</time></trkpt><trkpt lat="43.54096811158359" lon="12.030927688502366"><ele>342.0</ele><time>2026-04-26T08:28:45.999Z</time></trkpt><trkpt lat="43.54109278761753" lon="12.03052255022683"><ele>342.0</ele><time>2026-04-26T08:28:46.999Z</time></trkpt><trkpt lat="43.541218312579645" lon="12.030114653167786"><ele>342.0</ele><time>2026-04-26T08:28:47.999Z</time></trkpt><trkpt lat="43.541333279008185" lon="12.029741579057344"><ele>342.0</ele><time>2026-04-26T08:28:48.999Z</time></trkpt><trkpt lat="43.54143697741045" lon="12.029406280871788"><ele>342.0</ele><time>2026-04-26T08:28:49.999Z</time></trkpt><trkpt lat="43.5415353739682" lon="12.02908953000548"><ele>342.3333333333333</ele><time>2026-04-26T08:28:50.999Z</time></trkpt><trkpt lat="43.541626539324625" lon="12.028798053529748"><ele>342.66666666666663</ele><time>2026-04-26T08:28:51.999Z</time></trkpt><trkpt lat="43.541708403980614" lon="12.028536313565843"><ele>343.0</ele><time>2026-04-26T08:28:52.999Z</time></trkpt><trkpt lat="43.5417760309616" lon="12.028327317239395"><ele>343.25</ele><time>2026-04-26T08:28:53.999Z</time></trkpt><trkpt lat="43.54183902804278" lon="12.028142945150526"><ele>343.5</ele><time>2026-04-26T08:28:54.999Z</time></trkpt><trkpt lat="43.541909083952746" lon="12.027973899150576"><ele>343.75</ele><time>2026-04-26T08:28:55.999Z</time></trkpt><trkpt lat="43.54198755515401" lon="12.027822626427104"><ele>344.0</ele><time>2026-04-26T08:28:56.999Z</time></trkpt><trkpt lat="43.54208013559943" lon="12.027686054580462"><ele>344.0</ele><time>2026-04-26T08:28:57.999Z</time></trkpt><trkpt lat="43.54219266602986" lon="12.02756552548674"><ele>344.0</ele><time>2026-04-26T08:28:58.999Z</time></trkpt><trkpt lat="43.54230735442592" lon="12.027461284979442"><ele>344.0</ele><time>2026-04-26T08:28:59.999Z</time></trkpt><trkpt lat="43.542412748680086" lon="12.027348503695048"><ele>344.0</ele><time>2026-04-26T08:29:00.999Z</time></trkpt><trkpt lat="43.54253635458347" lon="12.027260314111995"><ele>343.75</ele><time>2026-04-26T08:29:01.999Z</time></trkpt><trkpt lat="43.54266284457575" lon="12.02716959846401"><ele>343.5</ele><time>2026-04-26T08:29:02.999Z</time></trkpt><trkpt lat="43.54279297348234" lon="12.0270773545123"><ele>343.25</ele><time>2026-04-26T08:29:03.999Z</time></trkpt><trkpt lat="43.54292110643269" lon="12.026987993141548"><ele>343.0</ele><time>2026-04-26T08:29:04.999Z</time></trkpt><trkpt lat="43.54304965437731" lon="12.026891641998931"><ele>343.25</ele><time>2026-04-26T08:29:05.999Z</time></trkpt><trkpt lat="43.54318102737299" lon="12.026794252488749"><ele>343.5</ele><time>2026-04-26T08:29:06.999Z</time></trkpt><trkpt lat="43.54331198786058" lon="12.026693972265944"><ele>343.75</ele><time>2026-04-26T08:29:07.999Z</time></trkpt><trkpt lat="43.543440938090704" lon="12.026596644029883"><ele>344.0</ele><time>2026-04-26T08:29:08.999Z</time></trkpt><trkpt lat="43.543574333999885" lon="12.026501607377535"><ele>344.0</ele><time>2026-04-26T08:29:09.999Z</time></trkpt><trkpt lat="43.54370902209172" lon="12.026404332176906"><ele>344.0</ele><time>2026-04-26T08:29:10.999Z</time></trkpt><trkpt lat="43.543844936792105" lon="12.026301513726995"><ele>344.0</ele><time>2026-04-26T08:29:11.999Z</time></trkpt><trkpt lat="43.54398434722159" lon="12.02619734808334"><ele>344.5</ele><time>2026-04-26T08:29:12.999Z</time></trkpt><trkpt lat="43.54412949414459" lon="12.026114170224833"><ele>345.0</ele><time>2026-04-26T08:29:13.999Z</time></trkpt><trkpt lat="43.54424613902154" lon="12.026003644710865"><ele>345.5</ele><time>2026-04-26T08:29:14.999Z</time></trkpt><trkpt lat="43.54435993255053" lon="12.025916452915368"><ele>346.0</ele><time>2026-04-26T08:29:15.999Z</time></trkpt><trkpt lat="43.54447394788276" lon="12.0258183876155"><ele>346.0</ele><time>2026-04-26T08:29:16.999Z</time></trkpt><trkpt lat="43.54459470996194" lon="12.025696864869841"><ele>346.0</ele><time>2026-04-26T08:29:17.999Z</time></trkpt><trkpt lat="43.54471049218169" lon="12.025553839667227"><ele>346.0</ele><time>2026-04-26T08:29:18.999Z</time></trkpt><trkpt lat="43.54481291000869" lon="12.025382398586876"><ele>346.0</ele><time>2026-04-26T08:29:19.999Z</time></trkpt><trkpt lat="43.54490287886536" lon="12.025198738706969"><ele>346.0</ele><time>2026-04-26T08:29:20.999Z</time></trkpt><trkpt lat="43.54500937670243" lon="12.025018438293209"><ele>346.0</ele><time>2026-04-26T08:29:21.999Z</time></trkpt><trkpt lat="43.54510154475487" lon="12.024825199091579"><ele>346.3333333333333</ele><time>2026-04-26T08:29:22.999Z</time></trkpt><trkpt lat="43.54519237002458" lon="12.024630962258144"><ele>346.6666666666667</ele><time>2026-04-26T08:29:23.999Z</time></trkpt><trkpt lat="43.545280984936426" lon="12.02443732917451"><ele>347.0</ele><time>2026-04-26T08:29:24.999Z</time></trkpt><trkpt lat="43.54537165986902" lon="12.02424456797628"><ele>348.0</ele><time>2026-04-26T08:29:25.999Z</time></trkpt><trkpt lat="43.545460379115234" lon="12.024055399161504"><ele>349.0</ele><time>2026-04-26T08:29:26.999Z</time></trkpt><trkpt lat="43.54554476354459" lon="12.023866771644316"><ele>350.0</ele><time>2026-04-26T08:29:27.999Z</time></trkpt><trkpt lat="43.545613998761496" lon="12.02366085668195"><ele>350.0</ele><time>2026-04-26T08:29:28.999Z</time></trkpt><trkpt lat="43.545680998169686" lon="12.023457064700203"><ele>350.0</ele><time>2026-04-26T08:29:29.999Z</time></trkpt><trkpt lat="43.54574807551871" lon="12.02324930417069"><ele>350.0</ele><time>2026-04-26T08:29:30.999Z</time></trkpt><trkpt lat="43.54581624105262" lon="12.023034465404452"><ele>350.0</ele><time>2026-04-26T08:29:31.999Z</time></trkpt><trkpt lat="43.545885580102826" lon="12.022815927965034"><ele>350.0</ele><time>2026-04-26T08:29:32.999Z</time></trkpt><trkpt lat="43.54595048945026" lon="12.022611351898838"><ele>350.0</ele><time>2026-04-26T08:29:33.999Z</time></trkpt><trkpt lat="43.546011912470405" lon="12.022416684712198"><ele>350.0</ele><time>2026-04-26T08:29:34.999Z</time></trkpt><trkpt lat="43.546071071563894" lon="12.022226248659118"><ele>350.0</ele><time>2026-04-26T08:29:35.999Z</time></trkpt><trkpt lat="43.5461339130333" lon="12.02202395448863"><ele>350.0</ele><time>2026-04-26T08:29:36.999Z</time></trkpt><trkpt lat="43.54619146583865" lon="12.021838398076465"><ele>351.2</ele><time>2026-04-26T08:29:37.999Z</time></trkpt><trkpt lat="43.546242750604804" lon="12.021674489094986"><ele>352.4</ele><time>2026-04-26T08:29:38.999Z</time></trkpt><trkpt lat="43.546272105778165" lon="12.02152351590533"><ele>353.6</ele><time>2026-04-26T08:29:39.999Z</time></trkpt><trkpt lat="43.546311677479665" lon="12.021399160870839"><ele>354.8</ele><time>2026-04-26T08:29:40.999Z</time></trkpt><trkpt lat="43.54634961732462" lon="12.021284135988115"><ele>356.0</ele><time>2026-04-26T08:29:41.999Z</time></trkpt><trkpt lat="43.5463948769423" lon="12.02118868330579"><ele>356.0</ele><time>2026-04-26T08:29:42.999Z</time></trkpt><trkpt lat="43.54642422370956" lon="12.02109496637343"><ele>356.0</ele><time>2026-04-26T08:29:43.999Z</time></trkpt><trkpt lat="43.54645071057763" lon="12.021010382312777"><ele>356.0</ele><time>2026-04-26T08:29:44.999Z</time></trkpt><trkpt lat="43.546336879685065" lon="12.020874934962592"><ele>356.0</ele><time>2026-04-26T08:29:45.999Z</time></trkpt><trkpt lat="43.54627766570648" lon="12.020819105172459"><ele>356.0</ele><time>2026-04-26T08:29:46.999Z</time></trkpt><trkpt lat="43.54620379637498" lon="12.020720991330574"><ele>355.0</ele><time>2026-04-26T08:29:47.999Z</time></trkpt><trkpt lat="43.54611086986964" lon="12.02062806495313"><ele>354.0</ele><time>2026-04-26T08:29:48.999Z</time></trkpt><trkpt lat="43.54600233348649" lon="12.02051952840483"><ele>353.0</ele><time>2026-04-26T08:29:49.999Z</time></trkpt><trkpt lat="43.545884257877496" lon="12.020401452876786"><ele>352.0</ele><time>2026-04-26T08:29:50.999Z</time></trkpt><trkpt lat="43.5457628184193" lon="12.02028001352746"><ele>352.0</ele><time>2026-04-26T08:29:51.999Z</time></trkpt><trkpt lat="43.54565429802106" lon="12.02017128030972"><ele>352.0</ele><time>2026-04-26T08:29:52.999Z</time></trkpt><trkpt lat="43.545566841571706" lon="12.020085164185126"><ele>352.0</ele><time>2026-04-26T08:29:53.999Z</time></trkpt><trkpt lat="43.545485612437574" lon="12.020002978526332"><ele>352.0</ele><time>2026-04-26T08:29:54.999Z</time></trkpt><trkpt lat="43.54540653185973" lon="12.019931830057278"><ele>352.0</ele><time>2026-04-26T08:29:55.999Z</time></trkpt><trkpt lat="43.54531419926646" lon="12.019880700474273"><ele>353.66666666666663</ele><time>2026-04-26T08:29:56.999Z</time></trkpt><trkpt lat="43.545186820259836" lon="12.019930947639558"><ele>355.3333333333333</ele><time>2026-04-26T08:29:57.999Z</time></trkpt><trkpt lat="43.5450268889161" lon="12.019953517457981"><ele>357.0</ele><time>2026-04-26T08:29:58.999Z</time></trkpt><trkpt lat="43.54484282297377" lon="12.019992411884873"><ele>357.0</ele><time>2026-04-26T08:29:59.999Z</time></trkpt><trkpt lat="43.544690865859835" lon="12.020030602482985"><ele>357.0</ele><time>2026-04-26T08:30:00.999Z</time></trkpt><trkpt lat="43.54458194750736" lon="12.020086215406199"><ele>357.0</ele><time>2026-04-26T08:30:01.999Z</time></trkpt><trkpt lat="43.544480963483494" lon="12.020122710444467"><ele>357.0</ele><time>2026-04-26T08:30:02.999Z</time></trkpt><trkpt lat="43.5443864001482" lon="12.020135605647488"><ele>357.40000000000003</ele><time>2026-04-26T08:30:03.999Z</time></trkpt><trkpt lat="43.544299146050435" lon="12.020148663078162"><ele>357.8</ele><time>2026-04-26T08:30:04.999Z</time></trkpt><trkpt lat="43.54420786611945" lon="12.02013084051088"><ele>358.2</ele><time>2026-04-26T08:30:05.999Z</time></trkpt><trkpt lat="43.54413124020706" lon="12.020033860142464"><ele>358.6</ele><time>2026-04-26T08:30:07.999Z</time></trkpt><trkpt lat="43.54405912946898" lon="12.019902746514996"><ele>359.0</ele><time>2026-04-26T08:30:09.999Z</time></trkpt><trkpt lat="43.54400432847719" lon="12.019804986093142"><ele>359.2</ele><time>2026-04-26T08:30:10.999Z</time></trkpt><trkpt lat="43.54395247058757" lon="12.01970842982453"><ele>359.4</ele><time>2026-04-26T08:30:11.999Z</time></trkpt><trkpt lat="43.543880351430964" lon="12.019611489899157"><ele>359.6</ele><time>2026-04-26T08:30:12.999Z</time></trkpt><trkpt lat="43.543822414988036" lon="12.019503135611574"><ele>359.8</ele><time>2026-04-26T08:30:13.999Z</time></trkpt><trkpt lat="43.54377053156267" lon="12.019357629498966"><ele>360.0</ele><time>2026-04-26T08:30:14.999Z</time></trkpt><trkpt lat="43.54370035992332" lon="12.0192065908821"><ele>364.0</ele><time>2026-04-26T08:30:15.999Z</time></trkpt><trkpt lat="43.543635005020704" lon="12.019065919978413"><ele>368.0</ele><time>2026-04-26T08:30:16.999Z</time></trkpt><trkpt lat="43.54356393802031" lon="12.01891387186359"><ele>372.0</ele><time>2026-04-26T08:30:17.999Z</time></trkpt><trkpt lat="43.543507742572224" lon="12.018794912511762"><ele>376.0</ele><time>2026-04-26T08:30:18.999Z</time></trkpt><trkpt lat="43.54345248554747" lon="12.01867704516403"><ele>376.0</ele><time>2026-04-26T08:30:19.999Z</time></trkpt><trkpt lat="43.543402195809726" lon="12.018568131855034"><ele>376.0</ele><time>2026-04-26T08:30:20.999Z</time></trkpt><trkpt lat="43.543351612482546" lon="12.01845594486814"><ele>376.0</ele><time>2026-04-26T08:30:21.999Z</time></trkpt><trkpt lat="43.54329576216125" lon="12.018350148687576"><ele>376.0</ele><time>2026-04-26T08:30:22.999Z</time></trkpt><trkpt lat="43.54324983886597" lon="12.018249866667507"><ele>376.0</ele><time>2026-04-26T08:30:23.999Z</time></trkpt><trkpt lat="43.54323620066165" lon="12.018136438323417"><ele>377.8</ele><time>2026-04-26T08:30:24.999Z</time></trkpt><trkpt lat="43.5432228054086" lon="12.018012358441695"><ele>379.6</ele><time>2026-04-26T08:30:25.999Z</time></trkpt><trkpt lat="43.543222650178635" lon="12.017864146320944"><ele>381.4</ele><time>2026-04-26T08:30:26.999Z</time></trkpt><trkpt lat="43.54322921033712" lon="12.017738411506766"><ele>383.2</ele><time>2026-04-26T08:30:27.999Z</time></trkpt><trkpt lat="43.5432321464151" lon="12.017639951959975"><ele>385.0</ele><time>2026-04-26T08:30:28.999Z</time></trkpt><trkpt lat="43.543234289064344" lon="12.01748349544655"><ele>385.0</ele><time>2026-04-26T08:30:30.999Z</time></trkpt><trkpt lat="43.54321574592118" lon="12.017315789743781"><ele>385.0</ele><time>2026-04-26T08:30:32.999Z</time></trkpt><trkpt lat="43.54312970319335" lon="12.017163161055121"><ele>385.0</ele><time>2026-04-26T08:30:34.999Z</time></trkpt><trkpt lat="43.54308641912955" lon="12.017055004787055"><ele>385.0</ele><time>2026-04-26T08:30:35.999Z</time></trkpt><trkpt lat="43.54305885439355" lon="12.016945122666282"><ele>385.0</ele><time>2026-04-26T08:30:36.999Z</time></trkpt><trkpt lat="43.543054166603675" lon="12.016841236423854"><ele>385.0</ele><time>2026-04-26T08:30:37.999Z</time></trkpt><trkpt lat="43.54306838421493" lon="12.01672526434625"><ele>385.0</ele><time>2026-04-26T08:30:38.999Z</time></trkpt><trkpt lat="43.54307345243822" lon="12.016599934057824"><ele>385.0</ele><time>2026-04-26T08:30:39.999Z</time></trkpt><trkpt lat="43.54311152301679" lon="12.016488285652601"><ele>385.0</ele><time>2026-04-26T08:30:40.999Z</time></trkpt><trkpt lat="43.54311942813257" lon="12.016351102478604"><ele>385.0</ele><time>2026-04-26T08:30:41.999Z</time></trkpt><trkpt lat="43.543093492197826" lon="12.016199367084354"><ele>385.6</ele><time>2026-04-26T08:30:42.999Z</time></trkpt><trkpt lat="43.5430445613735" lon="12.01605826705651"><ele>386.2</ele><time>2026-04-26T08:30:43.999Z</time></trkpt><trkpt lat="43.54298937945629" lon="12.015945488608642"><ele>386.79999999999995</ele><time>2026-04-26T08:30:44.999Z</time></trkpt><trkpt lat="43.542916704447286" lon="12.015848337015855"><ele>387.4</ele><time>2026-04-26T08:30:45.999Z</time></trkpt><trkpt lat="43.542814009564914" lon="12.015742475015829"><ele>388.0</ele><time>2026-04-26T08:30:46.999Z</time></trkpt><trkpt lat="43.54271951299738" lon="12.015660139980575"><ele>385.4</ele><time>2026-04-26T08:30:47.999Z</time></trkpt><trkpt lat="43.54262498195238" lon="12.015574556314007"><ele>382.79999999999995</ele><time>2026-04-26T08:30:48.999Z</time></trkpt><trkpt lat="43.54253124092321" lon="12.01549353639321"><ele>380.2</ele><time>2026-04-26T08:30:49.999Z</time></trkpt><trkpt lat="43.54244161867471" lon="12.015418583937347"><ele>377.6</ele><time>2026-04-26T08:30:50.999Z</time></trkpt><trkpt lat="43.542348300212694" lon="12.01534836931506"><ele>375.0</ele><time>2026-04-26T08:30:51.999Z</time></trkpt><trkpt lat="43.54225049912977" lon="12.015291889100595"><ele>375.0</ele><time>2026-04-26T08:30:52.999Z</time></trkpt><trkpt lat="43.542153912152145" lon="12.015271874740655"><ele>375.0</ele><time>2026-04-26T08:30:53.999Z</time></trkpt><trkpt lat="43.54206098336554" lon="12.015203906500844"><ele>375.0</ele><time>2026-04-26T08:30:54.999Z</time></trkpt><trkpt lat="43.54198319356296" lon="12.015080697166791"><ele>375.0</ele><time>2026-04-26T08:30:55.999Z</time></trkpt><trkpt lat="43.541871743220206" lon="12.014975204619159"><ele>371.0</ele><time>2026-04-26T08:30:56.999Z</time></trkpt><trkpt lat="43.54175136453946" lon="12.014848573251284"><ele>367.0</ele><time>2026-04-26T08:30:57.999Z</time></trkpt><trkpt lat="43.541618798028686" lon="12.014715033861355"><ele>363.0</ele><time>2026-04-26T08:30:58.999Z</time></trkpt><trkpt lat="43.541491285841815" lon="12.014617181779105"><ele>363.0</ele><time>2026-04-26T08:30:59.999Z</time></trkpt><trkpt lat="43.541388010421684" lon="12.014506155808963"><ele>363.0</ele><time>2026-04-26T08:31:00.999Z</time></trkpt><trkpt lat="43.5412740969221" lon="12.01442388294592"><ele>363.0</ele><time>2026-04-26T08:31:01.999Z</time></trkpt><trkpt lat="43.54116687619642" lon="12.01431756581141"><ele>363.0</ele><time>2026-04-26T08:31:02.999Z</time></trkpt><trkpt lat="43.5410734202648" lon="12.014184621954916"><ele>363.5</ele><time>2026-04-26T08:31:03.999Z</time></trkpt><trkpt lat="43.54099867656957" lon="12.014062147585577"><ele>364.0</ele><time>2026-04-26T08:31:04.999Z</time></trkpt><trkpt lat="43.54091412457846" lon="12.013906320757775"><ele>364.5</ele><time>2026-04-26T08:31:05.999Z</time></trkpt><trkpt lat="43.54081160845875" lon="12.013716474011387"><ele>365.0</ele><time>2026-04-26T08:31:06.999Z</time></trkpt><trkpt lat="43.540707630395985" lon="12.0135148183356"><ele>369.6666666666667</ele><time>2026-04-26T08:31:07.999Z</time></trkpt><trkpt lat="43.54060180902359" lon="12.013312713356477"><ele>374.3333333333333</ele><time>2026-04-26T08:31:08.999Z</time></trkpt><trkpt lat="43.540503275465824" lon="12.013152601572653"><ele>379.0</ele><time>2026-04-26T08:31:09.999Z</time></trkpt><trkpt lat="43.54040319064221" lon="12.013006717640609"><ele>375.66666666666663</ele><time>2026-04-26T08:31:10.999Z</time></trkpt><trkpt lat="43.54028957782257" lon="12.012867100791956"><ele>372.3333333333333</ele><time>2026-04-26T08:31:11.999Z</time></trkpt><trkpt lat="43.54016372258759" lon="12.012750920294492"><ele>369.0</ele><time>2026-04-26T08:31:12.999Z</time></trkpt><trkpt lat="43.54002809763878" lon="12.01263057444936"><ele>369.0</ele><time>2026-04-26T08:31:13.999Z</time></trkpt><trkpt lat="43.539888858204" lon="12.012510838667465"><ele>369.0</ele><time>2026-04-26T08:31:14.999Z</time></trkpt><trkpt lat="43.53974826989727" lon="12.012396904946197"><ele>369.0</ele><time>2026-04-26T08:31:15.999Z</time></trkpt><trkpt lat="43.53961722552361" lon="12.012282689971308"><ele>369.25</ele><time>2026-04-26T08:31:16.999Z</time></trkpt><trkpt lat="43.53948985514081" lon="12.012174370271989"><ele>369.5</ele><time>2026-04-26T08:31:17.999Z</time></trkpt><trkpt lat="43.539377032363845" lon="12.012078327046297"><ele>369.75</ele><time>2026-04-26T08:31:18.999Z</time></trkpt><trkpt lat="43.53927648219711" lon="12.011981572775753"><ele>370.0</ele><time>2026-04-26T08:31:19.999Z</time></trkpt><trkpt lat="43.53918135305356" lon="12.011877324228115"><ele>370.0</ele><time>2026-04-26T08:31:20.999Z</time></trkpt><trkpt lat="43.53908292580429" lon="12.011752019678898"><ele>370.0</ele><time>2026-04-26T08:31:21.999Z</time></trkpt><trkpt lat="43.53898969998842" lon="12.011609490821712"><ele>370.0</ele><time>2026-04-26T08:31:22.999Z</time></trkpt><trkpt lat="43.5389064634552" lon="12.011452941838918"><ele>370.0</ele><time>2026-04-26T08:31:23.999Z</time></trkpt><trkpt lat="43.53884195147066" lon="12.011298021580023"><ele>371.75</ele><time>2026-04-26T08:31:24.999Z</time></trkpt><trkpt lat="43.538782183781535" lon="12.011132115148786"><ele>373.5</ele><time>2026-04-26T08:31:25.999Z</time></trkpt><trkpt lat="43.53873267056492" lon="12.01095410654194"><ele>375.25</ele><time>2026-04-26T08:31:26.999Z</time></trkpt><trkpt lat="43.538682189223394" lon="12.01078134489362"><ele>377.0</ele><time>2026-04-26T08:31:27.999Z</time></trkpt><trkpt lat="43.53861875939432" lon="12.010609307489498"><ele>377.0</ele><time>2026-04-26T08:31:28.999Z</time></trkpt><trkpt lat="43.53853042750457" lon="12.010436495410874"><ele>377.0</ele><time>2026-04-26T08:31:29.999Z</time></trkpt><trkpt lat="43.538426034793716" lon="12.010271486105992"><ele>377.0</ele><time>2026-04-26T08:31:30.999Z</time></trkpt><trkpt lat="43.538320995948375" lon="12.010108085815347"><ele>379.0</ele><time>2026-04-26T08:31:31.999Z</time></trkpt><trkpt lat="43.53822602417382" lon="12.009947226347283"><ele>381.0</ele><time>2026-04-26T08:31:32.999Z</time></trkpt><trkpt lat="43.5381390903022" lon="12.009781388016675"><ele>383.0</ele><time>2026-04-26T08:31:33.999Z</time></trkpt><trkpt lat="43.53806393729988" lon="12.009609771855022"><ele>385.0</ele><time>2026-04-26T08:31:34.999Z</time></trkpt><trkpt lat="43.53800126739644" lon="12.00942345073677"><ele>385.0</ele><time>2026-04-26T08:31:35.999Z</time></trkpt><trkpt lat="43.53793313651621" lon="12.009190016936534"><ele>385.0</ele><time>2026-04-26T08:31:36.999Z</time></trkpt><trkpt lat="43.53784796935333" lon="12.008906253071826"><ele>385.0</ele><time>2026-04-26T08:31:37.999Z</time></trkpt><trkpt lat="43.5377629478045" lon="12.00860985042729"><ele>383.6666666666667</ele><time>2026-04-26T08:31:38.999Z</time></trkpt><trkpt lat="43.53770034577772" lon="12.008357080645043"><ele>382.33333333333337</ele><time>2026-04-26T08:31:39.999Z</time></trkpt><trkpt lat="43.53765175502244" lon="12.008124657326233"><ele>381.0</ele><time>2026-04-26T08:31:40.999Z</time></trkpt><trkpt lat="43.53760667570496" lon="12.007904475145978"><ele>381.0</ele><time>2026-04-26T08:31:41.999Z</time></trkpt><trkpt lat="43.5375779346822" lon="12.007706107512865"><ele>381.0</ele><time>2026-04-26T08:31:42.999Z</time></trkpt><trkpt lat="43.53755633881617" lon="12.007523195745861"><ele>381.0</ele><time>2026-04-26T08:31:43.999Z</time></trkpt><trkpt lat="43.53754591471612" lon="12.007348568739054"><ele>381.0</ele><time>2026-04-26T08:31:44.999Z</time></trkpt><trkpt lat="43.53754689378699" lon="12.007177840675537"><ele>381.25</ele><time>2026-04-26T08:31:45.999Z</time></trkpt><trkpt lat="43.537554747796" lon="12.007002001283391"><ele>381.5</ele><time>2026-04-26T08:31:46.999Z</time></trkpt><trkpt lat="43.53757930945088" lon="12.006805915331844"><ele>381.75</ele><time>2026-04-26T08:31:47.999Z</time></trkpt><trkpt lat="43.53760869925822" lon="12.006587952204312"><ele>382.0</ele><time>2026-04-26T08:31:48.999Z</time></trkpt><trkpt lat="43.537634960254536" lon="12.006408542709933"><ele>381.3333333333333</ele><time>2026-04-26T08:31:49.999Z</time></trkpt><trkpt lat="43.53764477418897" lon="12.006222314031687"><ele>380.6666666666667</ele><time>2026-04-26T08:31:50.999Z</time></trkpt><trkpt lat="43.53767993069337" lon="12.006016756332427"><ele>380.0</ele><time>2026-04-26T08:31:51.999Z</time></trkpt><trkpt lat="43.53768426459937" lon="12.005787359712686"><ele>381.33333333333337</ele><time>2026-04-26T08:31:52.999Z</time></trkpt><trkpt lat="43.5376695983994" lon="12.005556650689142"><ele>382.6666666666667</ele><time>2026-04-26T08:31:53.999Z</time></trkpt><trkpt lat="43.537649710641745" lon="12.005340600832302"><ele>384.0</ele><time>2026-04-26T08:31:54.999Z</time></trkpt><trkpt lat="43.53761871597196" lon="12.0051477199151"><ele>383.6</ele><time>2026-04-26T08:31:55.999Z</time></trkpt><trkpt lat="43.53758394875508" lon="12.004987354922573"><ele>383.2</ele><time>2026-04-26T08:31:56.999Z</time></trkpt><trkpt lat="43.537507325408605" lon="12.004876188983545"><ele>382.8</ele><time>2026-04-26T08:31:57.999Z</time></trkpt><trkpt lat="43.53744133096641" lon="12.004782708975174"><ele>382.40000000000003</ele><time>2026-04-26T08:31:58.999Z</time></trkpt><trkpt lat="43.53735031342091" lon="12.004724378220866"><ele>382.0</ele><time>2026-04-26T08:31:59.999Z</time></trkpt><trkpt lat="43.53725055254278" lon="12.004671331053515"><ele>382.0</ele><time>2026-04-26T08:32:00.999Z</time></trkpt><trkpt lat="43.537147548604565" lon="12.004596020819855"><ele>382.0</ele><time>2026-04-26T08:32:01.999Z</time></trkpt><trkpt lat="43.53703412290326" lon="12.004572102139866"><ele>382.0</ele><time>2026-04-26T08:32:02.999Z</time></trkpt><trkpt lat="43.53694650386102" lon="12.004523456552501"><ele>382.0</ele><time>2026-04-26T08:32:03.999Z</time></trkpt><trkpt lat="43.5368672033827" lon="12.004481625999338"><ele>382.0</ele><time>2026-04-26T08:32:04.999Z</time></trkpt><trkpt lat="43.53680503274791" lon="12.004441797292381"><ele>382.6</ele><time>2026-04-26T08:32:05.999Z</time></trkpt><trkpt lat="43.536775119185144" lon="12.004364004365275"><ele>383.20000000000005</ele><time>2026-04-26T08:32:06.999Z</time></trkpt><trkpt lat="43.536731528783854" lon="12.00420612587291"><ele>383.8</ele><time>2026-04-26T08:32:08.999Z</time></trkpt><trkpt lat="43.536755058487145" lon="12.004096838952766"><ele>384.4</ele><time>2026-04-26T08:32:09.999Z</time></trkpt><trkpt lat="43.536771919044455" lon="12.00396162270949"><ele>385.0</ele><time>2026-04-26T08:32:10.999Z</time></trkpt><trkpt lat="43.53678513934056" lon="12.003805913757471"><ele>386.2</ele><time>2026-04-26T08:32:11.999Z</time></trkpt><trkpt lat="43.53677578942562" lon="12.003624672165303"><ele>387.4</ele><time>2026-04-26T08:32:12.999Z</time></trkpt><trkpt lat="43.53677765184756" lon="12.00348113494004"><ele>388.6</ele><time>2026-04-26T08:32:13.999Z</time></trkpt><trkpt lat="43.53675754449238" lon="12.003372852639664"><ele>389.8</ele><time>2026-04-26T08:32:14.999Z</time></trkpt><trkpt lat="43.53675527886192" lon="12.00328333246067"><ele>391.0</ele><time>2026-04-26T08:32:15.999Z</time></trkpt><trkpt lat="43.53672251405719" lon="12.003127471705104"><ele>391.0</ele><time>2026-04-26T08:32:17.999Z</time></trkpt><trkpt lat="43.5366685448106" lon="12.003076168984823"><ele>391.0</ele><time>2026-04-26T08:32:18.999Z</time></trkpt><trkpt lat="43.53658197087058" lon="12.003092512168447"><ele>391.0</ele><time>2026-04-26T08:32:19.999Z</time></trkpt><trkpt lat="43.536518034339814" lon="12.003228470588457"><ele>391.0</ele><time>2026-04-26T08:32:21.999Z</time></trkpt><trkpt lat="43.53649958056417" lon="12.003378208682792"><ele>391.0</ele><time>2026-04-26T08:32:23.999Z</time></trkpt><trkpt lat="43.53651352839361" lon="12.003589625425434"><ele>391.0</ele><time>2026-04-26T08:32:25.999Z</time></trkpt><trkpt lat="43.536497516289145" lon="12.003725114818899"><ele>391.0</ele><time>2026-04-26T08:32:26.999Z</time></trkpt><trkpt lat="43.536499917353666" lon="12.003833718016404"><ele>391.0</ele><time>2026-04-26T08:32:27.999Z</time></trkpt><trkpt lat="43.53647210427889" lon="12.003932170667822"><ele>391.0</ele><time>2026-04-26T08:32:28.999Z</time></trkpt><trkpt lat="43.536402183231154" lon="12.004035342946366"><ele>391.0</ele><time>2026-04-26T08:32:30.999Z</time></trkpt><trkpt lat="43.53627994210991" lon="12.004055576113279"><ele>393.8</ele><time>2026-04-26T08:32:32.999Z</time></trkpt><trkpt lat="43.53620856736151" lon="12.004078528154983"><ele>396.6</ele><time>2026-04-26T08:32:33.999Z</time></trkpt><trkpt lat="43.53611241668057" lon="12.004120760378628"><ele>399.4</ele><time>2026-04-26T08:32:34.999Z</time></trkpt><trkpt lat="43.53600826465158" lon="12.004161821637835"><ele>402.2</ele><time>2026-04-26T08:32:35.999Z</time></trkpt><trkpt lat="43.53591473226341" lon="12.00419246933951"><ele>405.0</ele><time>2026-04-26T08:32:36.999Z</time></trkpt><trkpt lat="43.53581397942759" lon="12.004224990045568"><ele>405.0</ele><time>2026-04-26T08:32:37.999Z</time></trkpt><trkpt lat="43.5357252321231" lon="12.004249883168475"><ele>405.0</ele><time>2026-04-26T08:32:38.999Z</time></trkpt><trkpt lat="43.535629974806255" lon="12.004251143089697"><ele>405.0</ele><time>2026-04-26T08:32:39.999Z</time></trkpt><trkpt lat="43.535503775417425" lon="12.004263186044485"><ele>405.0</ele><time>2026-04-26T08:32:41.999Z</time></trkpt><trkpt lat="43.5354032283231" lon="12.004218167700834"><ele>405.0</ele><time>2026-04-26T08:32:43.999Z</time></trkpt><trkpt lat="43.53537097023929" lon="12.004081266918094"><ele>406.2857142857143</ele><time>2026-04-26T08:32:45.999Z</time></trkpt><trkpt lat="43.53539072458652" lon="12.00392793951797"><ele>407.57142857142856</ele><time>2026-04-26T08:32:47.999Z</time></trkpt><trkpt lat="43.53539313494392" lon="12.003839389575496"><ele>408.8571428571429</ele><time>2026-04-26T08:32:48.999Z</time></trkpt><trkpt lat="43.535399023088246" lon="12.003751604237497"><ele>410.1428571428571</ele><time>2026-04-26T08:32:49.999Z</time></trkpt><trkpt lat="43.53540567134698" lon="12.003660322503144"><ele>411.42857142857144</ele><time>2026-04-26T08:32:50.999Z</time></trkpt><trkpt lat="43.535411290322486" lon="12.003568152580513"><ele>412.7142857142857</ele><time>2026-04-26T08:32:51.999Z</time></trkpt><trkpt lat="43.535415787047924" lon="12.00347572722349"><ele>414.0</ele><time>2026-04-26T08:32:52.999Z</time></trkpt><trkpt lat="43.535414129176196" lon="12.003378385404899"><ele>414.79999999999995</ele><time>2026-04-26T08:32:53.999Z</time></trkpt><trkpt lat="43.53539715149911" lon="12.003269891539905"><ele>415.59999999999997</ele><time>2026-04-26T08:32:54.999Z</time></trkpt><trkpt lat="43.53535440703585" lon="12.003160261421394"><ele>416.4</ele><time>2026-04-26T08:32:55.999Z</time></trkpt><trkpt lat="43.53531334583208" lon="12.003039481145677"><ele>417.2</ele><time>2026-04-26T08:32:56.999Z</time></trkpt><trkpt lat="43.53526856814164" lon="12.002919474298322"><ele>418.0</ele><time>2026-04-26T08:32:57.999Z</time></trkpt><trkpt lat="43.535196935839494" lon="12.002799081502564"><ele>420.50000000000006</ele><time>2026-04-26T08:32:59.999Z</time></trkpt><trkpt lat="43.53513957860425" lon="12.00272558724458"><ele>423.0</ele><time>2026-04-26T08:33:01.999Z</time></trkpt><trkpt lat="43.53502192876649" lon="12.002785001040086"><ele>425.5</ele><time>2026-04-26T08:33:03.999Z</time></trkpt><trkpt lat="43.53499706385564" lon="12.002866152320037"><ele>428.0</ele><time>2026-04-26T08:33:04.999Z</time></trkpt><trkpt lat="43.53501573412555" lon="12.002966091875717"><ele>430.50000000000006</ele><time>2026-04-26T08:33:05.999Z</time></trkpt><trkpt lat="43.53501541081749" lon="12.00305731923296"><ele>433.0</ele><time>2026-04-26T08:33:06.999Z</time></trkpt><trkpt lat="43.535025866706796" lon="12.003163893963903"><ele>433.00000000000006</ele><time>2026-04-26T08:33:07.999Z</time></trkpt><trkpt lat="43.535012239710234" lon="12.003303823329196"><ele>433.0</ele><time>2026-04-26T08:33:09.999Z</time></trkpt><trkpt lat="43.53494403261084" lon="12.003359107755"><ele>433.0</ele><time>2026-04-26T08:33:11.999Z</time></trkpt><trkpt lat="43.534860471075554" lon="12.00332991234627"><ele>433.0</ele><time>2026-04-26T08:33:13.999Z</time></trkpt><trkpt lat="43.53482257236539" lon="12.003259422337948"><ele>433.00000000000006</ele><time>2026-04-26T08:33:15.999Z</time></trkpt><trkpt lat="43.53478872963604" lon="12.00310751199474"><ele>433.0</ele><time>2026-04-26T08:33:17.999Z</time></trkpt><trkpt lat="43.534760711370474" lon="12.00300817523358"><ele>433.00000000000006</ele><time>2026-04-26T08:33:18.999Z</time></trkpt><trkpt lat="43.534715569903504" lon="12.002892107818862"><ele>433.0</ele><time>2026-04-26T08:33:19.999Z</time></trkpt><trkpt lat="43.53466323782314" lon="12.002794088308638"><ele>433.0</ele><time>2026-04-26T08:33:20.999Z</time></trkpt><trkpt lat="43.534619198846" lon="12.002708544789309"><ele>433.0</ele><time>2026-04-26T08:33:21.999Z</time></trkpt><trkpt lat="43.534579018530756" lon="12.002612321755986"><ele>433.00000000000006</ele><time>2026-04-26T08:33:22.999Z</time></trkpt><trkpt lat="43.53453791877318" lon="12.002504089189188"><ele>433.0</ele><time>2026-04-26T08:33:23.999Z</time></trkpt><trkpt lat="43.534495561413294" lon="12.002391771615555"><ele>435.79999999999995</ele><time>2026-04-26T08:33:24.999Z</time></trkpt><trkpt lat="43.53445708715223" lon="12.002277708012738"><ele>438.59999999999997</ele><time>2026-04-26T08:33:25.999Z</time></trkpt><trkpt lat="43.534427098955064" lon="12.002168184443066"><ele>441.40000000000003</ele><time>2026-04-26T08:33:26.999Z</time></trkpt><trkpt lat="43.53439770664338" lon="12.002020616582705"><ele>444.20000000000005</ele><time>2026-04-26T08:33:28.999Z</time></trkpt><trkpt lat="43.534383959428034" lon="12.001918984404538"><ele>447.0</ele><time>2026-04-26T08:33:29.999Z</time></trkpt><trkpt lat="43.53437865001699" lon="12.001780578282348"><ele>449.8</ele><time>2026-04-26T08:33:30.999Z</time></trkpt><trkpt lat="43.53438685108684" lon="12.001626381105643"><ele>452.6</ele><time>2026-04-26T08:33:31.999Z</time></trkpt><trkpt lat="43.53440439600129" lon="12.001483066699857"><ele>455.40000000000003</ele><time>2026-04-26T08:33:32.999Z</time></trkpt><trkpt lat="43.534434178552985" lon="12.001349694795294"><ele>458.20000000000005</ele><time>2026-04-26T08:33:33.999Z</time></trkpt><trkpt lat="43.534471006555265" lon="12.001222853452882"><ele>461.0</ele><time>2026-04-26T08:33:34.999Z</time></trkpt><trkpt lat="43.53451106959734" lon="12.001109922418378"><ele>459.25</ele><time>2026-04-26T08:33:35.999Z</time></trkpt><trkpt lat="43.53456316090874" lon="12.000977516073544"><ele>457.5</ele><time>2026-04-26T08:33:36.999Z</time></trkpt><trkpt lat="43.53462364119864" lon="12.000841188495269"><ele>455.75</ele><time>2026-04-26T08:33:37.999Z</time></trkpt><trkpt lat="43.53470186917052" lon="12.000713829374224"><ele>454.0</ele><time>2026-04-26T08:33:38.999Z</time></trkpt><trkpt lat="43.53477529901502" lon="12.000591139770604"><ele>454.00000000000006</ele><time>2026-04-26T08:33:39.999Z</time></trkpt><trkpt lat="43.53483076024194" lon="12.000495265800275"><ele>454.0</ele><time>2026-04-26T08:33:40.999Z</time></trkpt><trkpt lat="43.53486942975408" lon="12.000407487296046"><ele>454.0</ele><time>2026-04-26T08:33:41.999Z</time></trkpt><trkpt lat="43.534888375061925" lon="12.000305280437168"><ele>454.0</ele><time>2026-04-26T08:33:42.999Z</time></trkpt><trkpt lat="43.534903649982056" lon="12.000146697817277"><ele>454.00000000000006</ele><time>2026-04-26T08:33:44.999Z</time></trkpt><trkpt lat="43.5348530316234" lon="12.000059090064628"><ele>454.0</ele><time>2026-04-26T08:33:45.999Z</time></trkpt><trkpt lat="43.53477644593503" lon="12.00000443696056"><ele>454.0</ele><time>2026-04-26T08:33:46.999Z</time></trkpt><trkpt lat="43.53471221584474" lon="11.999981205191471"><ele>454.0</ele><time>2026-04-26T08:33:47.999Z</time></trkpt><trkpt lat="43.53459013901295" lon="12.000003556502758"><ele>454.0</ele><time>2026-04-26T08:33:49.999Z</time></trkpt><trkpt lat="43.53447761030609" lon="12.000110209962141"><ele>454.0</ele><time>2026-04-26T08:33:51.999Z</time></trkpt><trkpt lat="43.534421729814056" lon="12.000179133076916"><ele>454.0</ele><time>2026-04-26T08:33:52.999Z</time></trkpt><trkpt lat="43.53435637265775" lon="12.000246080353858"><ele>457.4</ele><time>2026-04-26T08:33:53.999Z</time></trkpt><trkpt lat="43.53427281252141" lon="12.000288131818916"><ele>460.79999999999995</ele><time>2026-04-26T08:33:54.999Z</time></trkpt><trkpt lat="43.53419541980551" lon="12.000302228226666"><ele>464.20000000000005</ele><time>2026-04-26T08:33:55.999Z</time></trkpt><trkpt lat="43.53407529626271" lon="12.000272951792178"><ele>467.6</ele><time>2026-04-26T08:33:57.999Z</time></trkpt><trkpt lat="43.53403865545694" lon="12.000198666881651"><ele>471.0</ele><time>2026-04-26T08:33:58.999Z</time></trkpt><trkpt lat="43.533998837865084" lon="12.000056956669937"><ele>471.0</ele><time>2026-04-26T08:34:00.999Z</time></trkpt><trkpt lat="43.53399069412925" lon="11.999874101650361"><ele>471.0</ele><time>2026-04-26T08:34:02.999Z</time></trkpt><trkpt lat="43.53398723628152" lon="11.999738623968797"><ele>471.0</ele><time>2026-04-26T08:34:04Z</time></trkpt><trkpt lat="43.53397971298419" lon="11.999626337085893"><ele>471.0</ele><time>2026-04-26T08:34:05Z</time></trkpt><trkpt lat="43.53396835326664" lon="11.999528383376084"><ele>471.0</ele><time>2026-04-26T08:34:06Z</time></trkpt><trkpt lat="43.53394041292429" lon="11.999425128085473"><ele>471.0</ele><time>2026-04-26T08:34:07Z</time></trkpt><trkpt lat="43.533858950747195" lon="11.999376081261948"><ele>471.0</ele><time>2026-04-26T08:34:08Z</time></trkpt><trkpt lat="43.53379623696785" lon="11.99931823079094"><ele>471.0</ele><time>2026-04-26T08:34:08.999Z</time></trkpt><trkpt lat="43.53371763764756" lon="11.999269355394986"><ele>471.0</ele><time>2026-04-26T08:34:09.999Z</time></trkpt><trkpt lat="43.533636312075444" lon="11.999224516964112"><ele>471.0</ele><time>2026-04-26T08:34:10.999Z</time></trkpt><trkpt lat="43.53354839912822" lon="11.999183247876312"><ele>471.0</ele><time>2026-04-26T08:34:11.999Z</time></trkpt><trkpt lat="43.533455124012164" lon="11.999143340586699"><ele>473.0</ele><time>2026-04-26T08:34:12.999Z</time></trkpt><trkpt lat="43.53336487866961" lon="11.999108315163292"><ele>475.0</ele><time>2026-04-26T08:34:13.999Z</time></trkpt><trkpt lat="43.533284115610684" lon="11.999083696442087"><ele>477.0</ele><time>2026-04-26T08:34:14.999Z</time></trkpt><trkpt lat="43.53321713585036" lon="11.999053152100881"><ele>479.0</ele><time>2026-04-26T08:34:15.999Z</time></trkpt><trkpt lat="43.53315521159458" lon="11.999008210624151"><ele>481.0</ele><time>2026-04-26T08:34:16.999Z</time></trkpt><trkpt lat="43.533124305834036" lon="11.998916478934715"><ele>483.0</ele><time>2026-04-26T08:34:17.999Z</time></trkpt><trkpt lat="43.53310332710481" lon="11.99878898156969"><ele>483.0</ele><time>2026-04-26T08:34:19.999Z</time></trkpt><trkpt lat="43.53306678285363" lon="11.998590154334979"><ele>482.99999999999994</ele><time>2026-04-26T08:34:21.999Z</time></trkpt><trkpt lat="43.53303930156407" lon="11.998477096091895"><ele>482.99999999999994</ele><time>2026-04-26T08:34:22.999Z</time></trkpt><trkpt lat="43.533012279996335" lon="11.998362200588353"><ele>483.0</ele><time>2026-04-26T08:34:23.999Z</time></trkpt><trkpt lat="43.53298729679206" lon="11.998255570310157"><ele>483.0</ele><time>2026-04-26T08:34:24.999Z</time></trkpt><trkpt lat="43.53295702491404" lon="11.998162631383007"><ele>482.8333333333333</ele><time>2026-04-26T08:34:25.999Z</time></trkpt><trkpt lat="43.53290044715256" lon="11.998042201946756"><ele>482.66666666666663</ele><time>2026-04-26T08:34:27.999Z</time></trkpt><trkpt lat="43.532789932668706" lon="11.99799763114196"><ele>482.5</ele><time>2026-04-26T08:34:29.999Z</time></trkpt><trkpt lat="43.532720630644" lon="11.997996193214387"><ele>482.3333333333333</ele><time>2026-04-26T08:34:30.999Z</time></trkpt><trkpt lat="43.53265596389234" lon="11.998002648692252"><ele>482.16666666666663</ele><time>2026-04-26T08:34:31.999Z</time></trkpt><trkpt lat="43.53258811023049" lon="11.998000963088085"><ele>482.0</ele><time>2026-04-26T08:34:32.999Z</time></trkpt><trkpt lat="43.532513699243204" lon="11.99798655653747"><ele>484.66666666666663</ele><time>2026-04-26T08:34:33.999Z</time></trkpt><trkpt lat="43.53244291234752" lon="11.997959176105855"><ele>487.3333333333333</ele><time>2026-04-26T08:34:34.999Z</time></trkpt><trkpt lat="43.532369938030385" lon="11.997922678459018"><ele>490.0</ele><time>2026-04-26T08:34:35.999Z</time></trkpt><trkpt lat="43.53228692456597" lon="11.997880855060568"><ele>492.66666666666663</ele><time>2026-04-26T08:34:36.999Z</time></trkpt><trkpt lat="43.53220432675609" lon="11.997861058197342"><ele>495.3333333333333</ele><time>2026-04-26T08:34:37.999Z</time></trkpt><trkpt lat="43.53212053225285" lon="11.997862468788009"><ele>498.0</ele><time>2026-04-26T08:34:38.999Z</time></trkpt><trkpt lat="43.532030961697714" lon="11.997877336993152"><ele>498.79999999999995</ele><time>2026-04-26T08:34:39.999Z</time></trkpt><trkpt lat="43.531958724183106" lon="11.997904182379648"><ele>499.59999999999997</ele><time>2026-04-26T08:34:40.999Z</time></trkpt><trkpt lat="43.53183380116885" lon="11.997949090113309"><ele>500.40000000000003</ele><time>2026-04-26T08:34:42.999Z</time></trkpt><trkpt lat="43.53173375529082" lon="11.997993924192933"><ele>501.20000000000005</ele><time>2026-04-26T08:34:44.999Z</time></trkpt><trkpt lat="43.53166216716332" lon="11.99803531546069"><ele>502.0</ele><time>2026-04-26T08:34:46.999Z</time></trkpt><trkpt lat="43.53161120212231" lon="11.998100127912169"><ele>502.00000000000006</ele><time>2026-04-26T08:34:49.999Z</time></trkpt><trkpt lat="43.53154317863765" lon="11.99826057414376"><ele>502.0</ele><time>2026-04-26T08:34:51.999Z</time></trkpt><trkpt lat="43.5314966734929" lon="11.998336323440189"><ele>502.0</ele><time>2026-04-26T08:34:52.999Z</time></trkpt><trkpt lat="43.53144052709451" lon="11.99839646877764"><ele>502.0</ele><time>2026-04-26T08:34:53.999Z</time></trkpt><trkpt lat="43.53137339013754" lon="11.998425723934238"><ele>502.00000000000006</ele><time>2026-04-26T08:34:54.999Z</time></trkpt><trkpt lat="43.53127906682147" lon="11.99845702048625"><ele>502.0</ele><time>2026-04-26T08:34:56.999Z</time></trkpt><trkpt lat="43.53118969653509" lon="11.998465114478531"><ele>502.50000000000006</ele><time>2026-04-26T08:34:58.999Z</time></trkpt><trkpt lat="43.5311224389489" lon="11.998433369880962"><ele>503.0</ele><time>2026-04-26T08:35:02.999Z</time></trkpt><trkpt lat="43.531152238987836" lon="11.99833484608516"><ele>503.5</ele><time>2026-04-26T08:35:03.999Z</time></trkpt><trkpt lat="43.5311230137633" lon="11.998242959906852"><ele>504.0</ele><time>2026-04-26T08:35:06.999Z</time></trkpt><trkpt lat="43.53107271638981" lon="11.998161298166027"><ele>504.50000000000006</ele><time>2026-04-26T08:35:11.999Z</time></trkpt><trkpt lat="43.53102716473335" lon="11.998046334153043"><ele>505.0</ele><time>2026-04-26T08:35:13.999Z</time></trkpt><trkpt lat="43.53094045698235" lon="11.997943037240171"><ele>505.00000000000006</ele><time>2026-04-26T08:35:15.999Z</time></trkpt><trkpt lat="43.53084875111272" lon="11.99783950179742"><ele>505.0</ele><time>2026-04-26T08:35:17.999Z</time></trkpt><trkpt lat="43.53079148209571" lon="11.99776052747561"><ele>505.0</ele><time>2026-04-26T08:35:18.999Z</time></trkpt><trkpt lat="43.53073170500179" lon="11.997683713946184"><ele>505.0</ele><time>2026-04-26T08:35:19.999Z</time></trkpt><trkpt lat="43.530688022828905" lon="11.997593139011489"><ele>505.00000000000006</ele><time>2026-04-26T08:35:20.999Z</time></trkpt><trkpt lat="43.530627708133416" lon="11.99751065214104"><ele>505.0</ele><time>2026-04-26T08:35:21.999Z</time></trkpt><trkpt lat="43.53056276972396" lon="11.997452689018774"><ele>508.0</ele><time>2026-04-26T08:35:22.999Z</time></trkpt><trkpt lat="43.53051684936207" lon="11.997392562937325"><ele>511.0</ele><time>2026-04-26T08:35:23.999Z</time></trkpt><trkpt lat="43.530453133190996" lon="11.997303158254521"><ele>514.0</ele><time>2026-04-26T08:35:25.999Z</time></trkpt><trkpt lat="43.530334189548576" lon="11.997243790542658"><ele>517.0</ele><time>2026-04-26T08:35:27.999Z</time></trkpt><trkpt lat="43.53026469442772" lon="11.997244718218258"><ele>520.0</ele><time>2026-04-26T08:35:28.999Z</time></trkpt><trkpt lat="43.53015333601926" lon="11.997313995872833"><ele>522.4</ele><time>2026-04-26T08:35:30.999Z</time></trkpt><trkpt lat="43.5300422651564" lon="11.99739005691304"><ele>524.8</ele><time>2026-04-26T08:35:32.999Z</time></trkpt><trkpt lat="43.52998346930966" lon="11.997444797611006"><ele>527.2</ele><time>2026-04-26T08:35:33.999Z</time></trkpt><trkpt lat="43.52989631844717" lon="11.997461032711973"><ele>529.6</ele><time>2026-04-26T08:35:35.999Z</time></trkpt><trkpt lat="43.52984019577939" lon="11.997414253989598"><ele>532.0</ele><time>2026-04-26T08:35:37.999Z</time></trkpt><trkpt lat="43.52976180503735" lon="11.997325309325928"><ele>532.0</ele><time>2026-04-26T08:35:39.999Z</time></trkpt><trkpt lat="43.52968246320501" lon="11.997249847049359"><ele>532.0</ele><time>2026-04-26T08:35:41.999Z</time></trkpt><trkpt lat="43.52963420525012" lon="11.997184038158402"><ele>532.0</ele><time>2026-04-26T08:35:42.999Z</time></trkpt><trkpt lat="43.5295553436971" lon="11.997132479986892"><ele>532.0</ele><time>2026-04-26T08:35:43.999Z</time></trkpt><trkpt lat="43.52949611250956" lon="11.997044330097097"><ele>532.0</ele><time>2026-04-26T08:35:44.999Z</time></trkpt><trkpt lat="43.52943716321443" lon="11.996965893448136"><ele>532.0</ele><time>2026-04-26T08:35:45.999Z</time></trkpt><trkpt lat="43.52938540164177" lon="11.9968984574998"><ele>532.6</ele><time>2026-04-26T08:35:46.999Z</time></trkpt><trkpt lat="43.52933069011579" lon="11.99677671259697"><ele>533.2</ele><time>2026-04-26T08:35:48.999Z</time></trkpt><trkpt lat="43.52917278651779" lon="11.996890470938022"><ele>533.8</ele><time>2026-04-26T08:35:49.999Z</time></trkpt><trkpt lat="43.52909805179199" lon="11.996849613171657"><ele>534.4</ele><time>2026-04-26T08:35:51.999Z</time></trkpt><trkpt lat="43.529041030344125" lon="11.996769808945473"><ele>535.0</ele><time>2026-04-26T08:35:53.999Z</time></trkpt><trkpt lat="43.52901781744931" lon="11.996659770672094"><ele>537.3333333333334</ele><time>2026-04-26T08:35:56.999Z</time></trkpt><trkpt lat="43.529063360809964" lon="11.996544848588615"><ele>539.6666666666667</ele><time>2026-04-26T08:35:58.999Z</time></trkpt><trkpt lat="43.529138457922684" lon="11.996450649814916"><ele>542.0</ele><time>2026-04-26T08:36:00.999Z</time></trkpt><trkpt lat="43.5291912548098" lon="11.996377288609738"><ele>544.3333333333334</ele><time>2026-04-26T08:36:02.999Z</time></trkpt><trkpt lat="43.52922897047579" lon="11.996304687903558"><ele>546.6666666666666</ele><time>2026-04-26T08:36:04Z</time></trkpt><trkpt lat="43.52929367056864" lon="11.99619949347039"><ele>549.0</ele><time>2026-04-26T08:36:06Z</time></trkpt><trkpt lat="43.52944791016509" lon="11.996071464824222"><ele>549.0</ele><time>2026-04-26T08:36:09Z</time></trkpt><trkpt lat="43.52944935445989" lon="11.9958860546565"><ele>549.0</ele><time>2026-04-26T08:36:12Z</time></trkpt><trkpt lat="43.52944268092503" lon="11.995798110649597"><ele>549.0</ele><time>2026-04-26T08:36:13Z</time></trkpt><trkpt lat="43.529385579101465" lon="11.99565242353319"><ele>549.0</ele><time>2026-04-26T08:36:15Z</time></trkpt><trkpt lat="43.52934119594811" lon="11.995569729111962"><ele>549.0</ele><time>2026-04-26T08:36:16Z</time></trkpt><trkpt lat="43.529255932702824" lon="11.995452234389694"><ele>551.2</ele><time>2026-04-26T08:36:18Z</time></trkpt><trkpt lat="43.52918634868684" lon="11.995335701838327"><ele>553.4</ele><time>2026-04-26T08:36:20Z</time></trkpt><trkpt lat="43.529157628826084" lon="11.995245624559407"><ele>555.6</ele><time>2026-04-26T08:36:21Z</time></trkpt><trkpt lat="43.52909125691344" lon="11.995133845080021"><ele>557.8</ele><time>2026-04-26T08:36:23Z</time></trkpt><trkpt lat="43.52903665938147" lon="11.99497194882675"><ele>560.0</ele><time>2026-04-26T08:36:25Z</time></trkpt><trkpt lat="43.528985888601085" lon="11.994857244510897"><ele>562.8</ele><time>2026-04-26T08:36:27Z</time></trkpt><trkpt lat="43.52891016857241" lon="11.99472500485366"><ele>565.6</ele><time>2026-04-26T08:36:29Z</time></trkpt><trkpt lat="43.5288410211714" lon="11.994666037243707"><ele>568.4</ele><time>2026-04-26T08:36:32Z</time></trkpt><trkpt lat="43.52874187948852" lon="11.994668028151626"><ele>571.2</ele><time>2026-04-26T08:36:35Z</time></trkpt><trkpt lat="43.52867190362464" lon="11.994667332457844"><ele>574.0</ele><time>2026-04-26T08:36:36Z</time></trkpt><trkpt lat="43.528568525264596" lon="11.994680076011578"><ele>574.1666666666667</ele><time>2026-04-26T08:36:38Z</time></trkpt><trkpt lat="43.5284909099098" lon="11.99468308154405"><ele>574.3333333333334</ele><time>2026-04-26T08:36:40Z</time></trkpt><trkpt lat="43.528415320352465" lon="11.994679538699831"><ele>574.5</ele><time>2026-04-26T08:36:41Z</time></trkpt><trkpt lat="43.52833651197032" lon="11.994605662884629"><ele>574.6666666666666</ele><time>2026-04-26T08:36:42Z</time></trkpt><trkpt lat="43.528248364932516" lon="11.994579253928112"><ele>574.8333333333333</ele><time>2026-04-26T08:36:43Z</time></trkpt><trkpt lat="43.528175418604356" lon="11.994555385707804"><ele>575.0</ele><time>2026-04-26T08:36:44Z</time></trkpt><trkpt lat="43.528097171379656" lon="11.99454317617811"><ele>575.0</ele><time>2026-04-26T08:36:45Z</time></trkpt><trkpt lat="43.52802453366806" lon="11.994510569328067"><ele>575.0</ele><time>2026-04-26T08:36:46Z</time></trkpt><trkpt lat="43.527966628480065" lon="11.994451301686864"><ele>575.0</ele><time>2026-04-26T08:36:47Z</time></trkpt><trkpt lat="43.527907221604586" lon="11.994397471463234"><ele>575.0</ele><time>2026-04-26T08:36:48Z</time></trkpt><trkpt lat="43.52780415113045" lon="11.994289192359574"><ele>575.0</ele><time>2026-04-26T08:36:50Z</time></trkpt><trkpt lat="43.52773771630628" lon="11.994200376403601"><ele>575.0</ele><time>2026-04-26T08:36:51Z</time></trkpt><trkpt lat="43.5276891220146" lon="11.994109230612958"><ele>577.3333333333333</ele><time>2026-04-26T08:36:52Z</time></trkpt><trkpt lat="43.52764354859061" lon="11.994012092597645"><ele>579.6666666666666</ele><time>2026-04-26T08:36:53Z</time></trkpt><trkpt lat="43.5275958176779" lon="11.99391083925163"><ele>582.0</ele><time>2026-04-26T08:36:54Z</time></trkpt><trkpt lat="43.527564945177076" lon="11.993824716948291"><ele>584.3333333333334</ele><time>2026-04-26T08:36:55Z</time></trkpt><trkpt lat="43.52753291873833" lon="11.993747063674302"><ele>586.6666666666667</ele><time>2026-04-26T08:36:56Z</time></trkpt><trkpt lat="43.52747330001843" lon="11.993672423247336"><ele>589.0</ele><time>2026-04-26T08:36:57Z</time></trkpt><trkpt lat="43.52736756777213" lon="11.993647675161478"><ele>589.0</ele><time>2026-04-26T08:36:58Z</time></trkpt><trkpt lat="43.52728716141747" lon="11.99357667523062"><ele>589.0</ele><time>2026-04-26T08:36:59Z</time></trkpt><trkpt lat="43.52719947765818" lon="11.993548043703827"><ele>589.0</ele><time>2026-04-26T08:37:00Z</time></trkpt><trkpt lat="43.527111910268594" lon="11.993471000547943"><ele>589.0</ele><time>2026-04-26T08:37:01Z</time></trkpt><trkpt lat="43.52700547144548" lon="11.993404066311319"><ele>589.0</ele><time>2026-04-26T08:37:02Z</time></trkpt><trkpt lat="43.52689032335297" lon="11.993323389788404"><ele>590.3333333333334</ele><time>2026-04-26T08:37:03Z</time></trkpt><trkpt lat="43.526815366934386" lon="11.993268017690218"><ele>591.6666666666667</ele><time>2026-04-26T08:37:04Z</time></trkpt><trkpt lat="43.5267514964844" lon="11.993240357859477"><ele>593.0</ele><time>2026-04-26T08:37:05Z</time></trkpt><trkpt lat="43.52664106319807" lon="11.99316102343589"><ele>594.3333333333334</ele><time>2026-04-26T08:37:07Z</time></trkpt><trkpt lat="43.52658077879602" lon="11.9930915744445"><ele>595.6666666666666</ele><time>2026-04-26T08:37:08Z</time></trkpt><trkpt lat="43.52650441765724" lon="11.993034040537557"><ele>597.0</ele><time>2026-04-26T08:37:09Z</time></trkpt><trkpt lat="43.526419119237914" lon="11.992985379248774"><ele>597.0</ele><time>2026-04-26T08:37:10Z</time></trkpt><trkpt lat="43.52632935233792" lon="11.992896931551906"><ele>597.0</ele><time>2026-04-26T08:37:11Z</time></trkpt><trkpt lat="43.526218825933015" lon="11.992820597330665"><ele>597.0</ele><time>2026-04-26T08:37:12Z</time></trkpt><trkpt lat="43.52608068443591" lon="11.992706254462314"><ele>597.0</ele><time>2026-04-26T08:37:13Z</time></trkpt><trkpt lat="43.52594205018674" lon="11.99257356551237"><ele>598.25</ele><time>2026-04-26T08:37:14Z</time></trkpt><trkpt lat="43.52583982760884" lon="11.99245156791043"><ele>599.5</ele><time>2026-04-26T08:37:15Z</time></trkpt><trkpt lat="43.52574676253717" lon="11.992359257181478"><ele>600.75</ele><time>2026-04-26T08:37:16Z</time></trkpt><trkpt lat="43.525659852021036" lon="11.99227305105349"><ele>602.0</ele><time>2026-04-26T08:37:17Z</time></trkpt><trkpt lat="43.52556793151495" lon="11.992202999886448"><ele>602.0</ele><time>2026-04-26T08:37:18Z</time></trkpt><trkpt lat="43.52548705557285" lon="11.992125692120444"><ele>602.0</ele><time>2026-04-26T08:37:19Z</time></trkpt><trkpt lat="43.52540894121986" lon="11.99206643537994"><ele>602.0</ele><time>2026-04-26T08:37:20Z</time></trkpt><trkpt lat="43.52533367777496" lon="11.992028567668262"><ele>602.0</ele><time>2026-04-26T08:37:21Z</time></trkpt><trkpt lat="43.52525472340208" lon="11.992031912736357"><ele>602.0</ele><time>2026-04-26T08:37:22Z</time></trkpt><trkpt lat="43.5251594374396" lon="11.992040119250749"><ele>602.0</ele><time>2026-04-26T08:37:23Z</time></trkpt><trkpt lat="43.52506959488012" lon="11.992051522635258"><ele>602.2</ele><time>2026-04-26T08:37:24Z</time></trkpt><trkpt lat="43.524972190690406" lon="11.992059656472046"><ele>602.4000000000001</ele><time>2026-04-26T08:37:25Z</time></trkpt><trkpt lat="43.52487585884888" lon="11.992063767304202"><ele>602.5999999999999</ele><time>2026-04-26T08:37:26Z</time></trkpt><trkpt lat="43.524785771390654" lon="11.992015565737871"><ele>602.8</ele><time>2026-04-26T08:37:27Z</time></trkpt><trkpt lat="43.524700953185814" lon="11.991965630365518"><ele>603.0</ele><time>2026-04-26T08:37:28Z</time></trkpt><trkpt lat="43.52461876876019" lon="11.991915775244884"><ele>603.4</ele><time>2026-04-26T08:37:29Z</time></trkpt><trkpt lat="43.52453032173638" lon="11.99185938248889"><ele>603.8</ele><time>2026-04-26T08:37:30Z</time></trkpt><trkpt lat="43.52444266486471" lon="11.991798177954118"><ele>604.2</ele><time>2026-04-26T08:37:31Z</time></trkpt><trkpt lat="43.52436218223353" lon="11.99176037107993"><ele>604.6</ele><time>2026-04-26T08:37:32Z</time></trkpt><trkpt lat="43.52429096620054" lon="11.991693795029297"><ele>605.0</ele><time>2026-04-26T08:37:33Z</time></trkpt><trkpt lat="43.524215451238604" lon="11.99162691896086"><ele>607.6666666666666</ele><time>2026-04-26T08:37:34Z</time></trkpt><trkpt lat="43.52413733650467" lon="11.991559428744894"><ele>610.3333333333333</ele><time>2026-04-26T08:37:35Z</time></trkpt><trkpt lat="43.52406004779225" lon="11.99150271111103"><ele>613.0</ele><time>2026-04-26T08:37:36Z</time></trkpt><trkpt lat="43.52399718489504" lon="11.991481802611153"><ele>615.6666666666666</ele><time>2026-04-26T08:37:37Z</time></trkpt><trkpt lat="43.523931324856335" lon="11.991455246623334"><ele>618.3333333333334</ele><time>2026-04-26T08:37:38Z</time></trkpt><trkpt lat="43.52384106961847" lon="11.991435945670565"><ele>621.0</ele><time>2026-04-26T08:37:39Z</time></trkpt><trkpt lat="43.52373271767357" lon="11.991433425286477"><ele>620.8333333333334</ele><time>2026-04-26T08:37:40Z</time></trkpt><trkpt lat="43.5236529998333" lon="11.99141983981692"><ele>620.6666666666666</ele><time>2026-04-26T08:37:41Z</time></trkpt><trkpt lat="43.523588870362794" lon="11.99141475711897"><ele>620.5</ele><time>2026-04-26T08:37:42Z</time></trkpt><trkpt lat="43.523477533352676" lon="11.991318081863739"><ele>620.3333333333333</ele><time>2026-04-26T08:37:44Z</time></trkpt><trkpt lat="43.523417538321105" lon="11.99125304154079"><ele>620.1666666666666</ele><time>2026-04-26T08:37:45Z</time></trkpt><trkpt lat="43.523355976872466" lon="11.991165588261206"><ele>620.0</ele><time>2026-04-26T08:37:46Z</time></trkpt><trkpt lat="43.523303922424404" lon="11.991080024818404"><ele>620.0</ele><time>2026-04-26T08:37:47Z</time></trkpt><trkpt lat="43.52324111872306" lon="11.990975626445755"><ele>620.0</ele><time>2026-04-26T08:37:48Z</time></trkpt><trkpt lat="43.523184925885126" lon="11.990881961989322"><ele>620.0</ele><time>2026-04-26T08:37:49Z</time></trkpt><trkpt lat="43.523140741786996" lon="11.990807817598391"><ele>620.0</ele><time>2026-04-26T08:37:50Z</time></trkpt><trkpt lat="43.523084537380534" lon="11.990743138020386"><ele>620.0</ele><time>2026-04-26T08:37:51Z</time></trkpt><trkpt lat="43.523015209864404" lon="11.990692776535639"><ele>620.0</ele><time>2026-04-26T08:37:52Z</time></trkpt><trkpt lat="43.52294808888191" lon="11.99067004994789"><ele>623.2</ele><time>2026-04-26T08:37:53Z</time></trkpt><trkpt lat="43.52287632272273" lon="11.990710221935934"><ele>626.4</ele><time>2026-04-26T08:37:54Z</time></trkpt><trkpt lat="43.522752090515716" lon="11.990690952553235"><ele>629.6</ele><time>2026-04-26T08:37:56Z</time></trkpt><trkpt lat="43.522687029591026" lon="11.990610340353557"><ele>632.8</ele><time>2026-04-26T08:37:57Z</time></trkpt><trkpt lat="43.52257212967508" lon="11.990576111496939"><ele>636.0</ele><time>2026-04-26T08:37:58Z</time></trkpt><trkpt lat="43.52247097871632" lon="11.990588873081856"><ele>636.0</ele><time>2026-04-26T08:37:59Z</time></trkpt><trkpt lat="43.52236830652438" lon="11.9905772239762"><ele>636.0</ele><time>2026-04-26T08:38:01Z</time></trkpt><trkpt lat="43.522366133249484" lon="11.99037958766829"><ele>636.0</ele><time>2026-04-26T08:38:05Z</time></trkpt><trkpt lat="43.522361772280746" lon="11.990231403359026"><ele>636.0</ele><time>2026-04-26T08:38:07Z</time></trkpt><trkpt lat="43.52241715827795" lon="11.990103400838203"><ele>638.0</ele><time>2026-04-26T08:38:09Z</time></trkpt><trkpt lat="43.52244765725957" lon="11.989995047320463"><ele>640.0</ele><time>2026-04-26T08:38:11Z</time></trkpt><trkpt lat="43.522477429393625" lon="11.989866480609093"><ele>642.0</ele><time>2026-04-26T08:38:13Z</time></trkpt><trkpt lat="43.5224853495335" lon="11.989706448158348"><ele>644.0</ele><time>2026-04-26T08:38:15Z</time></trkpt><trkpt lat="43.52247163928624" lon="11.98954529123442"><ele>646.0</ele><time>2026-04-26T08:38:17Z</time></trkpt><trkpt lat="43.52245005811342" lon="11.989440375591744"><ele>646.0</ele><time>2026-04-26T08:38:18Z</time></trkpt><trkpt lat="43.52241346529934" lon="11.989327183125283"><ele>646.0</ele><time>2026-04-26T08:38:19Z</time></trkpt><trkpt lat="43.52237683433987" lon="11.989241947002585"><ele>646.0</ele><time>2026-04-26T08:38:20Z</time></trkpt><trkpt lat="43.52231481733821" lon="11.989139820849369"><ele>646.0</ele><time>2026-04-26T08:38:22Z</time></trkpt><trkpt lat="43.52229414264003" lon="11.989057724494762"><ele>646.0</ele><time>2026-04-26T08:38:24Z</time></trkpt><trkpt lat="43.522317194185206" lon="11.988921875227968"><ele>646.0</ele><time>2026-04-26T08:38:27Z</time></trkpt><trkpt lat="43.5223282279887" lon="11.98880647617843"><ele>646.5999999999999</ele><time>2026-04-26T08:38:29Z</time></trkpt><trkpt lat="43.52232213780776" lon="11.98869255417315"><ele>647.2</ele><time>2026-04-26T08:38:31Z</time></trkpt><trkpt lat="43.52227946431032" lon="11.988563838932206"><ele>647.8</ele><time>2026-04-26T08:38:33Z</time></trkpt><trkpt lat="43.52222830371674" lon="11.988450449454858"><ele>648.4000000000001</ele><time>2026-04-26T08:38:35Z</time></trkpt><trkpt lat="43.522178505219536" lon="11.988343338828518"><ele>649.0</ele><time>2026-04-26T08:38:37Z</time></trkpt><trkpt lat="43.5221075493283" lon="11.988202446229806"><ele>646.2</ele><time>2026-04-26T08:38:39Z</time></trkpt><trkpt lat="43.52205322657112" lon="11.988080634677367"><ele>643.4000000000001</ele><time>2026-04-26T08:38:41Z</time></trkpt><trkpt lat="43.52201893135317" lon="11.987966009889787"><ele>640.6</ele><time>2026-04-26T08:38:43Z</time></trkpt><trkpt lat="43.5219827431388" lon="11.987857126755815"><ele>637.8</ele><time>2026-04-26T08:38:45Z</time></trkpt><trkpt lat="43.52190943923249" lon="11.987700179599354"><ele>635.0</ele><time>2026-04-26T08:38:47Z</time></trkpt><trkpt lat="43.52187243822745" lon="11.987629784703495"><ele>636.4</ele><time>2026-04-26T08:38:48Z</time></trkpt><trkpt lat="43.52181942962274" lon="11.987506617339543"><ele>637.8</ele><time>2026-04-26T08:38:50Z</time></trkpt><trkpt lat="43.52179577514559" lon="11.987375178544012"><ele>639.2</ele><time>2026-04-26T08:38:52Z</time></trkpt><trkpt lat="43.521796849521415" lon="11.987246673972333"><ele>640.6</ele><time>2026-04-26T08:38:54Z</time></trkpt><trkpt lat="43.52181914952351" lon="11.987093556637598"><ele>642.0</ele><time>2026-04-26T08:38:56Z</time></trkpt><trkpt lat="43.52179793215203" lon="11.986925624999156"><ele>642.0</ele><time>2026-04-26T08:38:58Z</time></trkpt><trkpt lat="43.521748643924" lon="11.986832324344551"><ele>642.0</ele><time>2026-04-26T08:38:59Z</time></trkpt><trkpt lat="43.52170960628948" lon="11.986738364883317"><ele>642.0</ele><time>2026-04-26T08:39:00Z</time></trkpt><trkpt lat="43.52166132562945" lon="11.986619344118127"><ele>642.0</ele><time>2026-04-26T08:39:02Z</time></trkpt><trkpt lat="43.52162973414234" lon="11.986523629168012"><ele>642.0</ele><time>2026-04-26T08:39:04Z</time></trkpt><trkpt lat="43.52162779524683" lon="11.986419891413034"><ele>642.0</ele><time>2026-04-26T08:39:07Z</time></trkpt><trkpt lat="43.521647663806284" lon="11.986270890395856"><ele>642.8</ele><time>2026-04-26T08:39:09Z</time></trkpt><trkpt lat="43.521663749790925" lon="11.986185628514496"><ele>643.6</ele><time>2026-04-26T08:39:10Z</time></trkpt><trkpt lat="43.5216802372809" lon="11.986067353589776"><ele>644.4</ele><time>2026-04-26T08:39:12Z</time></trkpt><trkpt lat="43.52169485782646" lon="11.985898270415447"><ele>645.1999999999999</ele><time>2026-04-26T08:39:14Z</time></trkpt><trkpt lat="43.521695649521966" lon="11.985795307223077"><ele>646.0</ele><time>2026-04-26T08:39:15Z</time></trkpt><trkpt lat="43.521666538289416" lon="11.985659982923357"><ele>646.0</ele><time>2026-04-26T08:39:17Z</time></trkpt><trkpt lat="43.52159065137641" lon="11.985538129546581"><ele>646.0</ele><time>2026-04-26T08:39:19Z</time></trkpt><trkpt lat="43.52150472606844" lon="11.985457195765584"><ele>646.0</ele><time>2026-04-26T08:39:21Z</time></trkpt><trkpt lat="43.521474748265724" lon="11.985340888657461"><ele>646.0</ele><time>2026-04-26T08:39:23Z</time></trkpt><trkpt lat="43.52144483495898" lon="11.98522255167137"><ele>646.0</ele><time>2026-04-26T08:39:25Z</time></trkpt><trkpt lat="43.521426920007904" lon="11.985086818400092"><ele>644.8</ele><time>2026-04-26T08:39:27Z</time></trkpt><trkpt lat="43.521419277464176" lon="11.984990057204953"><ele>643.5999999999999</ele><time>2026-04-26T08:39:28Z</time></trkpt><trkpt lat="43.521411611063364" lon="11.984885444084847"><ele>642.4</ele><time>2026-04-26T08:39:29Z</time></trkpt><trkpt lat="43.5214026995553" lon="11.984790719230137"><ele>641.2</ele><time>2026-04-26T08:39:30Z</time></trkpt><trkpt lat="43.521370348494656" lon="11.984631141440705"><ele>640.0</ele><time>2026-04-26T08:39:32Z</time></trkpt><trkpt lat="43.52133628449676" lon="11.984474250163101"><ele>640.0</ele><time>2026-04-26T08:39:34Z</time></trkpt><trkpt lat="43.52132014763466" lon="11.984299943944857"><ele>640.0</ele><time>2026-04-26T08:39:36Z</time></trkpt><trkpt lat="43.5213105639529" lon="11.984203197477706"><ele>640.0</ele><time>2026-04-26T08:39:37Z</time></trkpt><trkpt lat="43.52130146482634" lon="11.984105440289335"><ele>640.0</ele><time>2026-04-26T08:39:38Z</time></trkpt><trkpt lat="43.521304591165524" lon="11.983953459449426"><ele>640.0</ele><time>2026-04-26T08:39:40Z</time></trkpt><trkpt lat="43.52131234914882" lon="11.9838631714625"><ele>640.0</ele><time>2026-04-26T08:39:42Z</time></trkpt><trkpt lat="43.5212349002937" lon="11.983750907520395"><ele>641.6</ele><time>2026-04-26T08:39:44Z</time></trkpt><trkpt lat="43.52115145600187" lon="11.983695091084016"><ele>643.2</ele><time>2026-04-26T08:39:46Z</time></trkpt><trkpt lat="43.521066879429895" lon="11.983632268676518"><ele>644.8</ele><time>2026-04-26T08:39:48Z</time></trkpt><trkpt lat="43.52099089593347" lon="11.983535391698892"><ele>646.4</ele><time>2026-04-26T08:39:50Z</time></trkpt><trkpt lat="43.52094336022601" lon="11.983424363094894"><ele>648.0</ele><time>2026-04-26T08:39:52Z</time></trkpt><trkpt lat="43.52088694220911" lon="11.98333144334234"><ele>650.5999999999999</ele><time>2026-04-26T08:39:54Z</time></trkpt><trkpt lat="43.520855936394405" lon="11.983237870137541"><ele>653.1999999999999</ele><time>2026-04-26T08:39:55Z</time></trkpt><trkpt lat="43.52078480217681" lon="11.983100460033489"><ele>655.8</ele><time>2026-04-26T08:39:57Z</time></trkpt><trkpt lat="43.52068909468436" lon="11.982973116072372"><ele>658.4</ele><time>2026-04-26T08:39:59Z</time></trkpt><trkpt lat="43.52060804662702" lon="11.982872113341458"><ele>661.0</ele><time>2026-04-26T08:40:01Z</time></trkpt><trkpt lat="43.520501994186134" lon="11.982788889363656"><ele>661.0</ele><time>2026-04-26T08:40:03Z</time></trkpt><trkpt lat="43.52040432837479" lon="11.982697442175748"><ele>661.0</ele><time>2026-04-26T08:40:05Z</time></trkpt><trkpt lat="43.520355107738126" lon="11.982634298955317"><ele>661.0</ele><time>2026-04-26T08:40:06Z</time></trkpt><trkpt lat="43.52032689161328" lon="11.982530714242271"><ele>661.0</ele><time>2026-04-26T08:40:08Z</time></trkpt><trkpt lat="43.52033899954799" lon="11.982438046280937"><ele>661.0</ele><time>2026-04-26T08:40:10Z</time></trkpt><trkpt lat="43.5203735828814" lon="11.98231001588407"><ele>661.0</ele><time>2026-04-26T08:40:12Z</time></trkpt><trkpt lat="43.52038679209251" lon="11.982151720388115"><ele>662.2857142857142</ele><time>2026-04-26T08:40:14Z</time></trkpt><trkpt lat="43.52036681701743" lon="11.982065324893608"><ele>663.5714285714286</ele><time>2026-04-26T08:40:15Z</time></trkpt><trkpt lat="43.52033824868132" lon="11.981952658141074"><ele>664.8571428571429</ele><time>2026-04-26T08:40:17Z</time></trkpt><trkpt lat="43.52031811017337" lon="11.981869871611165"><ele>666.1428571428571</ele><time>2026-04-26T08:40:18Z</time></trkpt><trkpt lat="43.520296550999504" lon="11.981775853530982"><ele>667.4285714285714</ele><time>2026-04-26T08:40:19Z</time></trkpt><trkpt lat="43.520275252131654" lon="11.981683097509109"><ele>668.7142857142857</ele><time>2026-04-26T08:40:20Z</time></trkpt><trkpt lat="43.52025376549771" lon="11.981589523671989"><ele>670.0</ele><time>2026-04-26T08:40:21Z</time></trkpt><trkpt lat="43.52022909850056" lon="11.981482099459472"><ele>671.0</ele><time>2026-04-26T08:40:22Z</time></trkpt><trkpt lat="43.52020761960913" lon="11.981385949615575"><ele>672.0</ele><time>2026-04-26T08:40:23Z</time></trkpt><trkpt lat="43.52018727491042" lon="11.981294506667817"><ele>673.0</ele><time>2026-04-26T08:40:24Z</time></trkpt><trkpt lat="43.520165068865055" lon="11.98119469810668"><ele>674.0</ele><time>2026-04-26T08:40:25Z</time></trkpt><trkpt lat="43.520136393044396" lon="11.981088093067068"><ele>675.0</ele><time>2026-04-26T08:40:26Z</time></trkpt><trkpt lat="43.5201071657991" lon="11.980982614844542"><ele>676.0</ele><time>2026-04-26T08:40:27Z</time></trkpt><trkpt lat="43.52006479505338" lon="11.980882846061593"><ele>674.5</ele><time>2026-04-26T08:40:28Z</time></trkpt><trkpt lat="43.52001849907958" lon="11.980793144446546"><ele>673.0</ele><time>2026-04-26T08:40:29Z</time></trkpt><trkpt lat="43.51996740365216" lon="11.9807136538915"><ele>671.5</ele><time>2026-04-26T08:40:30Z</time></trkpt><trkpt lat="43.519916247008844" lon="11.980640019791588"><ele>670.0</ele><time>2026-04-26T08:40:31Z</time></trkpt><trkpt lat="43.51986466716956" lon="11.980565835376783"><ele>668.5</ele><time>2026-04-26T08:40:32Z</time></trkpt><trkpt lat="43.519802999871565" lon="11.98050753971069"><ele>667.0</ele><time>2026-04-26T08:40:33Z</time></trkpt><trkpt lat="43.519759151379716" lon="11.980433062666764"><ele>667.0</ele><time>2026-04-26T08:40:34Z</time></trkpt><trkpt lat="43.51972536614912" lon="11.980349940379984"><ele>667.0</ele><time>2026-04-26T08:40:35Z</time></trkpt><trkpt lat="43.51968196468566" lon="11.980277949576386"><ele>667.0</ele><time>2026-04-26T08:40:36Z</time></trkpt><trkpt lat="43.51964415937286" lon="11.980206580240033"><ele>667.0</ele><time>2026-04-26T08:40:37Z</time></trkpt><trkpt lat="43.51960691196776" lon="11.980135532682194"><ele>667.0</ele><time>2026-04-26T08:40:38Z</time></trkpt><trkpt lat="43.51953972962653" lon="11.979990962030024"><ele>667.0</ele><time>2026-04-26T08:40:40Z</time></trkpt><trkpt lat="43.519504452030155" lon="11.97987410499056"><ele>666.25</ele><time>2026-04-26T08:40:41Z</time></trkpt><trkpt lat="43.5194681832476" lon="11.979714099296599"><ele>665.5</ele><time>2026-04-26T08:40:42Z</time></trkpt><trkpt lat="43.51942236913542" lon="11.979539699297893"><ele>664.75</ele><time>2026-04-26T08:40:43Z</time></trkpt><trkpt lat="43.519380183186634" lon="11.979383352546453"><ele>664.0</ele><time>2026-04-26T08:40:44Z</time></trkpt><trkpt lat="43.51933182840798" lon="11.979262556087479"><ele>664.5</ele><time>2026-04-26T08:40:45Z</time></trkpt><trkpt lat="43.519307297192064" lon="11.979165734086658"><ele>665.0</ele><time>2026-04-26T08:40:46Z</time></trkpt><trkpt lat="43.51929830066754" lon="11.979077130668596"><ele>665.5</ele><time>2026-04-26T08:40:46.999Z</time></trkpt><trkpt lat="43.51927422881748" lon="11.978918096221479"><ele>666.0</ele><time>2026-04-26T08:40:48.999Z</time></trkpt><trkpt lat="43.519269800378645" lon="11.978819246929628"><ele>666.5</ele><time>2026-04-26T08:40:49.999Z</time></trkpt><trkpt lat="43.51926804946487" lon="11.978695737308593"><ele>667.0</ele><time>2026-04-26T08:40:50.999Z</time></trkpt><trkpt lat="43.519271667029244" lon="11.978567157191193"><ele>667.0</ele><time>2026-04-26T08:40:51.999Z</time></trkpt><trkpt lat="43.51927720504611" lon="11.978415879550878"><ele>667.0</ele><time>2026-04-26T08:40:52.999Z</time></trkpt><trkpt lat="43.51928151976179" lon="11.978298017888886"><ele>667.0</ele><time>2026-04-26T08:40:53.999Z</time></trkpt><trkpt lat="43.51928164945483" lon="11.978199202221433"><ele>667.0</ele><time>2026-04-26T08:40:54.999Z</time></trkpt><trkpt lat="43.51927176797513" lon="11.978085064770996"><ele>667.0</ele><time>2026-04-26T08:40:55.999Z</time></trkpt><trkpt lat="43.51927156043242" lon="11.977949463189798"><ele>667.0</ele><time>2026-04-26T08:40:56.999Z</time></trkpt><trkpt lat="43.51927185488509" lon="11.977823141607255"><ele>668.2857142857143</ele><time>2026-04-26T08:40:57.999Z</time></trkpt><trkpt lat="43.519286067590144" lon="11.977722819437"><ele>669.5714285714286</ele><time>2026-04-26T08:40:58.999Z</time></trkpt><trkpt lat="43.5193120640477" lon="11.977626691971508"><ele>670.8571428571429</ele><time>2026-04-26T08:40:59.999Z</time></trkpt><trkpt lat="43.519373760499086" lon="11.977561593612954"><ele>672.1428571428571</ele><time>2026-04-26T08:41:00.999Z</time></trkpt><trkpt lat="43.51942688506173" lon="11.97750746011606"><ele>673.4285714285714</ele><time>2026-04-26T08:41:01.999Z</time></trkpt><trkpt lat="43.51949020744553" lon="11.977462396786207"><ele>674.7142857142858</ele><time>2026-04-26T08:41:02.999Z</time></trkpt><trkpt lat="43.51956086461235" lon="11.97743032684076"><ele>676.0</ele><time>2026-04-26T08:41:03.999Z</time></trkpt><trkpt lat="43.519640499247004" lon="11.977430251893503"><ele>677.0</ele><time>2026-04-26T08:41:04.999Z</time></trkpt><trkpt lat="43.519726595978966" lon="11.977416406029178"><ele>678.0</ele><time>2026-04-26T08:41:05.999Z</time></trkpt><trkpt lat="43.51982500802134" lon="11.977405531030598"><ele>679.0</ele><time>2026-04-26T08:41:06.999Z</time></trkpt><trkpt lat="43.51992188347993" lon="11.977399379473502"><ele>680.0</ele><time>2026-04-26T08:41:07.999Z</time></trkpt><trkpt lat="43.52002940685521" lon="11.977404427457024"><ele>681.0</ele><time>2026-04-26T08:41:08.999Z</time></trkpt><trkpt lat="43.5201461036156" lon="11.977415931584492"><ele>681.0</ele><time>2026-04-26T08:41:09.999Z</time></trkpt><trkpt lat="43.52026586687229" lon="11.977417722249696"><ele>681.0</ele><time>2026-04-26T08:41:10.999Z</time></trkpt><trkpt lat="43.52035644035576" lon="11.977395230238812"><ele>681.0</ele><time>2026-04-26T08:41:11.999Z</time></trkpt><trkpt lat="43.52042939142922" lon="11.977359741494892"><ele>681.0</ele><time>2026-04-26T08:41:12.999Z</time></trkpt><trkpt lat="43.52049646481735" lon="11.977254562411535"><ele>681.0</ele><time>2026-04-26T08:41:14.999Z</time></trkpt><trkpt lat="43.520503486844696" lon="11.977157521718858"><ele>678.0</ele><time>2026-04-26T08:41:15.999Z</time></trkpt><trkpt lat="43.52049910921132" lon="11.977052019314513"><ele>675.0</ele><time>2026-04-26T08:41:16.999Z</time></trkpt><trkpt lat="43.520463278672004" lon="11.976887064778447"><ele>672.0</ele><time>2026-04-26T08:41:18.999Z</time></trkpt><trkpt lat="43.52038756265258" lon="11.976583507388405"><ele>669.0</ele><time>2026-04-26T08:41:19.999Z</time></trkpt><trkpt lat="43.52036828766259" lon="11.976415841018147"><ele>675.25</ele><time>2026-04-26T08:41:20.999Z</time></trkpt><trkpt lat="43.520360349435286" lon="11.976247870077195"><ele>681.5</ele><time>2026-04-26T08:41:21.999Z</time></trkpt><trkpt lat="43.52037435037968" lon="11.976068395101002"><ele>687.75</ele><time>2026-04-26T08:41:22.999Z</time></trkpt><trkpt lat="43.52038681853535" lon="11.975894639918124"><ele>694.0</ele><time>2026-04-26T08:41:23.999Z</time></trkpt><trkpt lat="43.520371580299745" lon="11.975767552109282"><ele>694.2</ele><time>2026-04-26T08:41:24.999Z</time></trkpt><trkpt lat="43.52035758153366" lon="11.975635200398024"><ele>694.4000000000001</ele><time>2026-04-26T08:41:25.999Z</time></trkpt><trkpt lat="43.520321543224505" lon="11.97550222818029"><ele>694.6</ele><time>2026-04-26T08:41:26.999Z</time></trkpt><trkpt lat="43.52026675546206" lon="11.975367949809018"><ele>694.8</ele><time>2026-04-26T08:41:27.999Z</time></trkpt><trkpt lat="43.520236948530695" lon="11.975245201514454"><ele>695.0</ele><time>2026-04-26T08:41:28.999Z</time></trkpt><trkpt lat="43.520205092604314" lon="11.975099980738253"><ele>695.2</ele><time>2026-04-26T08:41:29.999Z</time></trkpt><trkpt lat="43.520199519738874" lon="11.974951855454156"><ele>695.4</ele><time>2026-04-26T08:41:30.999Z</time></trkpt><trkpt lat="43.52020074604262" lon="11.97480317193954"><ele>695.5999999999999</ele><time>2026-04-26T08:41:31.999Z</time></trkpt><trkpt lat="43.52022297338305" lon="11.974668520889905"><ele>695.8</ele><time>2026-04-26T08:41:32.999Z</time></trkpt><trkpt lat="43.520262825942154" lon="11.974541912062941"><ele>696.0</ele><time>2026-04-26T08:41:33.999Z</time></trkpt><trkpt lat="43.52029299382942" lon="11.974433858494377"><ele>696.0</ele><time>2026-04-26T08:41:34.999Z</time></trkpt><trkpt lat="43.520333873757906" lon="11.974287051547561"><ele>696.0</ele><time>2026-04-26T08:41:36.999Z</time></trkpt><trkpt lat="43.52038081524768" lon="11.974214084265899"><ele>696.0</ele><time>2026-04-26T08:41:37.999Z</time></trkpt><trkpt lat="43.52049891408411" lon="11.974216025776704"><ele>696.0</ele><time>2026-04-26T08:41:39.999Z</time></trkpt><trkpt lat="43.520561595988454" lon="11.97423993169329"><ele>696.0</ele><time>2026-04-26T08:41:40.999Z</time></trkpt><trkpt lat="43.52064902783897" lon="11.974264581746853"><ele>694.0</ele><time>2026-04-26T08:41:41.999Z</time></trkpt><trkpt lat="43.52073462999667" lon="11.974289500212008"><ele>692.0</ele><time>2026-04-26T08:41:42.999Z</time></trkpt><trkpt lat="43.5208169910452" lon="11.97430360869328"><ele>690.0</ele><time>2026-04-26T08:41:43.999Z</time></trkpt><trkpt lat="43.52090305084027" lon="11.97429583290542"><ele>688.0</ele><time>2026-04-26T08:41:44.999Z</time></trkpt><trkpt lat="43.520976985698084" lon="11.97426119298894"><ele>686.0</ele><time>2026-04-26T08:41:45.999Z</time></trkpt><trkpt lat="43.52103554920061" lon="11.974179061912675"><ele>684.0</ele><time>2026-04-26T08:41:46.999Z</time></trkpt><trkpt lat="43.52107514208566" lon="11.974086028105036"><ele>684.0</ele><time>2026-04-26T08:41:47.999Z</time></trkpt><trkpt lat="43.52107999592552" lon="11.973971102865159"><ele>684.0</ele><time>2026-04-26T08:41:48.999Z</time></trkpt><trkpt lat="43.521056593157844" lon="11.97386506029209"><ele>684.0</ele><time>2026-04-26T08:41:49.999Z</time></trkpt><trkpt lat="43.52100010661424" lon="11.973767402602657"><ele>684.0</ele><time>2026-04-26T08:41:50.999Z</time></trkpt><trkpt lat="43.52095166116278" lon="11.973657077297648"><ele>684.0</ele><time>2026-04-26T08:41:51.999Z</time></trkpt><trkpt lat="43.520905580177164" lon="11.973517077213659"><ele>684.0</ele><time>2026-04-26T08:41:52.999Z</time></trkpt><trkpt lat="43.5208233592591" lon="11.973382115710368"><ele>684.0</ele><time>2026-04-26T08:41:53.999Z</time></trkpt><trkpt lat="43.52077377973877" lon="11.973198105769688"><ele>684.0</ele><time>2026-04-26T08:41:54.999Z</time></trkpt><trkpt lat="43.52071658429558" lon="11.973010255889081"><ele>684.0</ele><time>2026-04-26T08:41:55.999Z</time></trkpt><trkpt lat="43.52065923968257" lon="11.972810110953887"><ele>684.75</ele><time>2026-04-26T08:41:56.999Z</time></trkpt><trkpt lat="43.52060506805007" lon="11.97262877929417"><ele>685.5</ele><time>2026-04-26T08:41:57.999Z</time></trkpt><trkpt lat="43.520557077082515" lon="11.972486268381722"><ele>686.25</ele><time>2026-04-26T08:41:58.999Z</time></trkpt><trkpt lat="43.5205077971205" lon="11.972367205210668"><ele>687.0</ele><time>2026-04-26T08:41:59.999Z</time></trkpt><trkpt lat="43.520439230800065" lon="11.972275996460711"><ele>689.2</ele><time>2026-04-26T08:42:00.999Z</time></trkpt><trkpt lat="43.52037306989404" lon="11.972197834932407"><ele>691.4000000000001</ele><time>2026-04-26T08:42:01.999Z</time></trkpt><trkpt lat="43.52028425255779" lon="11.97214371394802"><ele>693.5999999999999</ele><time>2026-04-26T08:42:02.999Z</time></trkpt><trkpt lat="43.520176695986365" lon="11.972083773228816"><ele>695.8</ele><time>2026-04-26T08:42:03.999Z</time></trkpt><trkpt lat="43.52006959387413" lon="11.972013821566106"><ele>698.0</ele><time>2026-04-26T08:42:04.999Z</time></trkpt><trkpt lat="43.51998406306381" lon="11.971928128153596"><ele>698.0</ele><time>2026-04-26T08:42:05.999Z</time></trkpt><trkpt lat="43.51990488249842" lon="11.971792741127583"><ele>698.0</ele><time>2026-04-26T08:42:06.999Z</time></trkpt><trkpt lat="43.519827996895316" lon="11.971659043738645"><ele>698.0</ele><time>2026-04-26T08:42:07.999Z</time></trkpt><trkpt lat="43.519750946325246" lon="11.971540597153107"><ele>698.0</ele><time>2026-04-26T08:42:08.999Z</time></trkpt><trkpt lat="43.51966701367615" lon="11.971417621633611"><ele>697.8</ele><time>2026-04-26T08:42:09.999Z</time></trkpt><trkpt lat="43.51958694884709" lon="11.97130919727643"><ele>697.5999999999999</ele><time>2026-04-26T08:42:10.999Z</time></trkpt><trkpt lat="43.51950680700288" lon="11.971226826947708"><ele>697.4000000000001</ele><time>2026-04-26T08:42:11.999Z</time></trkpt><trkpt lat="43.519447530647916" lon="11.97112976690148"><ele>697.2</ele><time>2026-04-26T08:42:12.999Z</time></trkpt><trkpt lat="43.519415424853605" lon="11.97101924541281"><ele>697.0</ele><time>2026-04-26T08:42:13.999Z</time></trkpt><trkpt lat="43.519390708656175" lon="11.970908539528125"><ele>694.4000000000001</ele><time>2026-04-26T08:42:14.999Z</time></trkpt><trkpt lat="43.519378731669505" lon="11.970787521994279"><ele>691.8000000000001</ele><time>2026-04-26T08:42:15.999Z</time></trkpt><trkpt lat="43.51940921921625" lon="11.970669764389863"><ele>689.2</ele><time>2026-04-26T08:42:16.999Z</time></trkpt><trkpt lat="43.519450689433754" lon="11.970547675626284"><ele>686.6</ele><time>2026-04-26T08:42:17.999Z</time></trkpt><trkpt lat="43.519496184615406" lon="11.97040305380822"><ele>684.0</ele><time>2026-04-26T08:42:18.999Z</time></trkpt><trkpt lat="43.519556810391215" lon="11.970232741952792"><ele>681.6666666666666</ele><time>2026-04-26T08:42:19.999Z</time></trkpt><trkpt lat="43.51963140446404" lon="11.970029814492811"><ele>679.3333333333333</ele><time>2026-04-26T08:42:20.999Z</time></trkpt><trkpt lat="43.51971178143037" lon="11.969814309240082"><ele>677.0</ele><time>2026-04-26T08:42:21.999Z</time></trkpt><trkpt lat="43.5197913051147" lon="11.969606015427269"><ele>677.0</ele><time>2026-04-26T08:42:22.999Z</time></trkpt><trkpt lat="43.519856155300985" lon="11.969404211562043"><ele>677.0</ele><time>2026-04-26T08:42:23.999Z</time></trkpt><trkpt lat="43.51992831795624" lon="11.969219434395626"><ele>677.0</ele><time>2026-04-26T08:42:24.999Z</time></trkpt><trkpt lat="43.519987306609764" lon="11.969075744105476"><ele>677.0</ele><time>2026-04-26T08:42:25.999Z</time></trkpt><trkpt lat="43.52004055954405" lon="11.968929833929685"><ele>678.2</ele><time>2026-04-26T08:42:26.999Z</time></trkpt><trkpt lat="43.52008824411743" lon="11.968809890693134"><ele>679.4000000000001</ele><time>2026-04-26T08:42:27.999Z</time></trkpt><trkpt lat="43.520137774860906" lon="11.96869076763678"><ele>680.5999999999999</ele><time>2026-04-26T08:42:28.999Z</time></trkpt><trkpt lat="43.52019297981756" lon="11.968600277896849"><ele>681.8</ele><time>2026-04-26T08:42:29.999Z</time></trkpt><trkpt lat="43.52026259513807" lon="11.96852572047055"><ele>683.0</ele><time>2026-04-26T08:42:30.999Z</time></trkpt><trkpt lat="43.520348182890395" lon="11.968488507766443"><ele>680.4</ele><time>2026-04-26T08:42:31.999Z</time></trkpt><trkpt lat="43.520446819831264" lon="11.96847031189017"><ele>677.8</ele><time>2026-04-26T08:42:32.999Z</time></trkpt><trkpt lat="43.520558426133505" lon="11.968469263159758"><ele>675.2</ele><time>2026-04-26T08:42:33.999Z</time></trkpt><trkpt lat="43.5206837905403" lon="11.96848891407506"><ele>672.6</ele><time>2026-04-26T08:42:34.999Z</time></trkpt><trkpt lat="43.52079442323135" lon="11.968493279488612"><ele>670.0</ele><time>2026-04-26T08:42:35.999Z</time></trkpt><trkpt lat="43.52088533733267" lon="11.96848841576903"><ele>670.0</ele><time>2026-04-26T08:42:36.999Z</time></trkpt><trkpt lat="43.52096415985487" lon="11.968456670075994"><ele>670.0</ele><time>2026-04-26T08:42:37.999Z</time></trkpt><trkpt lat="43.52102882496584" lon="11.968382497908545"><ele>670.0</ele><time>2026-04-26T08:42:38.999Z</time></trkpt><trkpt lat="43.52107745418061" lon="11.968267193926742"><ele>670.0</ele><time>2026-04-26T08:42:39.999Z</time></trkpt><trkpt lat="43.52111230230742" lon="11.96811538908884"><ele>670.0</ele><time>2026-04-26T08:42:40.999Z</time></trkpt><trkpt lat="43.5211486956878" lon="11.96794750233166"><ele>669.0</ele><time>2026-04-26T08:42:41.999Z</time></trkpt><trkpt lat="43.52121123152903" lon="11.967739830272025"><ele>668.0</ele><time>2026-04-26T08:42:42.999Z</time></trkpt><trkpt lat="43.52128598256629" lon="11.967499904182535"><ele>667.0</ele><time>2026-04-26T08:42:43.999Z</time></trkpt><trkpt lat="43.52134500126162" lon="11.967264576955396"><ele>667.0</ele><time>2026-04-26T08:42:44.999Z</time></trkpt><trkpt lat="43.52139548918645" lon="11.967050623580139"><ele>667.0</ele><time>2026-04-26T08:42:45.999Z</time></trkpt><trkpt lat="43.52144409559001" lon="11.966844285951506"><ele>667.0</ele><time>2026-04-26T08:42:46.999Z</time></trkpt><trkpt lat="43.52149072012414" lon="11.9666463613782"><ele>668.25</ele><time>2026-04-26T08:42:47.999Z</time></trkpt><trkpt lat="43.521533526590275" lon="11.966464644876256"><ele>669.5</ele><time>2026-04-26T08:42:48.999Z</time></trkpt><trkpt lat="43.52157722999944" lon="11.966287418451405"><ele>670.75</ele><time>2026-04-26T08:42:49.999Z</time></trkpt><trkpt lat="43.521618130343505" lon="11.96612953247156"><ele>672.0</ele><time>2026-04-26T08:42:50.999Z</time></trkpt><trkpt lat="43.521668517309216" lon="11.966013252015527"><ele>672.0</ele><time>2026-04-26T08:42:51.999Z</time></trkpt><trkpt lat="43.521726060954705" lon="11.965896815165095"><ele>672.0</ele><time>2026-04-26T08:42:52.999Z</time></trkpt><trkpt lat="43.521791170730395" lon="11.965819230394446"><ele>672.0</ele><time>2026-04-26T08:42:53.999Z</time></trkpt><trkpt lat="43.521883149674125" lon="11.965739070551136"><ele>672.0</ele><time>2026-04-26T08:42:54.999Z</time></trkpt><trkpt lat="43.52200419049329" lon="11.96565635741688"><ele>672.0</ele><time>2026-04-26T08:42:55.999Z</time></trkpt><trkpt lat="43.522145266818086" lon="11.965568676814122"><ele>667.6666666666666</ele><time>2026-04-26T08:42:56.999Z</time></trkpt><trkpt lat="43.522307128237905" lon="11.965478947827792"><ele>663.3333333333333</ele><time>2026-04-26T08:42:57.999Z</time></trkpt><trkpt lat="43.52246649406546" lon="11.965390129977255"><ele>659.0</ele><time>2026-04-26T08:42:58.999Z</time></trkpt><trkpt lat="43.522655134588724" lon="11.965283496057504"><ele>659.0</ele><time>2026-04-26T08:42:59.999Z</time></trkpt><trkpt lat="43.52282743724162" lon="11.965188037791112"><ele>659.0</ele><time>2026-04-26T08:43:00.999Z</time></trkpt><trkpt lat="43.522988975674444" lon="11.965098543130127"><ele>659.0</ele><time>2026-04-26T08:43:01.999Z</time></trkpt><trkpt lat="43.52313075979158" lon="11.965026509153336"><ele>658.3333333333333</ele><time>2026-04-26T08:43:02.999Z</time></trkpt><trkpt lat="43.52327917796163" lon="11.964965553902466"><ele>657.6666666666666</ele><time>2026-04-26T08:43:03.999Z</time></trkpt><trkpt lat="43.523454611902665" lon="11.9649078970825"><ele>657.0</ele><time>2026-04-26T08:43:04.999Z</time></trkpt><trkpt lat="43.52365159248435" lon="11.964859326508474"><ele>656.3333333333334</ele><time>2026-04-26T08:43:05.999Z</time></trkpt><trkpt lat="43.52384726391404" lon="11.964821639855993"><ele>655.6666666666667</ele><time>2026-04-26T08:43:06.999Z</time></trkpt><trkpt lat="43.52404567703547" lon="11.96478194206592"><ele>655.0</ele><time>2026-04-26T08:43:07.999Z</time></trkpt><trkpt lat="43.524227214534655" lon="11.964744602469292"><ele>655.0</ele><time>2026-04-26T08:43:08.999Z</time></trkpt><trkpt lat="43.524395353745334" lon="11.964707493320017"><ele>655.0</ele><time>2026-04-26T08:43:09.999Z</time></trkpt><trkpt lat="43.52453776147254" lon="11.964675582153852"><ele>655.0</ele><time>2026-04-26T08:43:10.999Z</time></trkpt><trkpt lat="43.52466852869499" lon="11.964645059795817"><ele>655.0</ele><time>2026-04-26T08:43:11.999Z</time></trkpt><trkpt lat="43.52478894903215" lon="11.964617069611654"><ele>655.0</ele><time>2026-04-26T08:43:12.999Z</time></trkpt><trkpt lat="43.524907846308835" lon="11.964589137719772"><ele>655.0</ele><time>2026-04-26T08:43:13.999Z</time></trkpt><trkpt lat="43.52499941407117" lon="11.964564333066258"><ele>655.0</ele><time>2026-04-26T08:43:14.999Z</time></trkpt><trkpt lat="43.5250928705755" lon="11.96453098150774"><ele>655.0</ele><time>2026-04-26T08:43:15.999Z</time></trkpt><trkpt lat="43.52518869925166" lon="11.96448809453052"><ele>655.0</ele><time>2026-04-26T08:43:16.999Z</time></trkpt><trkpt lat="43.5252821883983" lon="11.964419738172476"><ele>655.0</ele><time>2026-04-26T08:43:17.999Z</time></trkpt><trkpt lat="43.525362163921756" lon="11.964320112585504"><ele>655.0</ele><time>2026-04-26T08:43:18.999Z</time></trkpt><trkpt lat="43.52542446916764" lon="11.964174993128776"><ele>655.0</ele><time>2026-04-26T08:43:19.999Z</time></trkpt><trkpt lat="43.52548293410134" lon="11.964045920002553"><ele>655.0</ele><time>2026-04-26T08:43:20.999Z</time></trkpt><trkpt lat="43.52554462728679" lon="11.963905954327318"><ele>655.0</ele><time>2026-04-26T08:43:21.999Z</time></trkpt><trkpt lat="43.525606658155944" lon="11.963784068608183"><ele>655.0</ele><time>2026-04-26T08:43:22.999Z</time></trkpt><trkpt lat="43.52567160128494" lon="11.963697498271323"><ele>655.0</ele><time>2026-04-26T08:43:23.999Z</time></trkpt><trkpt lat="43.52573621828914" lon="11.963628080467059"><ele>655.0</ele><time>2026-04-26T08:43:24.999Z</time></trkpt><trkpt lat="43.52579980958514" lon="11.963624670917604"><ele>655.0</ele><time>2026-04-26T08:43:25.999Z</time></trkpt><trkpt lat="43.525929177617854" lon="11.963692273345274"><ele>655.0</ele><time>2026-04-26T08:43:27.999Z</time></trkpt><trkpt lat="43.52601602017403" lon="11.963756129463468"><ele>655.0</ele><time>2026-04-26T08:43:28.999Z</time></trkpt><trkpt lat="43.52611574353845" lon="11.963815675439637"><ele>655.0</ele><time>2026-04-26T08:43:29.999Z</time></trkpt><trkpt lat="43.526208779106184" lon="11.96383946206581"><ele>655.0</ele><time>2026-04-26T08:43:30.999Z</time></trkpt><trkpt lat="43.52630488552624" lon="11.963810057981345"><ele>655.0</ele><time>2026-04-26T08:43:31.999Z</time></trkpt><trkpt lat="43.526400346796315" lon="11.963713241710503"><ele>654.8</ele><time>2026-04-26T08:43:32.999Z</time></trkpt><trkpt lat="43.52647501189186" lon="11.963624119639006"><ele>654.6</ele><time>2026-04-26T08:43:33.999Z</time></trkpt><trkpt lat="43.52653229665821" lon="11.96351467835603"><ele>654.4000000000001</ele><time>2026-04-26T08:43:34.999Z</time></trkpt><trkpt lat="43.52660033066537" lon="11.963398741871135"><ele>654.2</ele><time>2026-04-26T08:43:35.999Z</time></trkpt><trkpt lat="43.526666636006276" lon="11.963284809985833"><ele>654.0</ele><time>2026-04-26T08:43:36.999Z</time></trkpt><trkpt lat="43.52674076035107" lon="11.96317807377999"><ele>654.0</ele><time>2026-04-26T08:43:37.999Z</time></trkpt><trkpt lat="43.526840301671356" lon="11.963067458886341"><ele>654.0</ele><time>2026-04-26T08:43:38.999Z</time></trkpt><trkpt lat="43.52695195523807" lon="11.962969561030677"><ele>654.0</ele><time>2026-04-26T08:43:39.999Z</time></trkpt><trkpt lat="43.527076341443056" lon="11.962906147422798"><ele>654.0</ele><time>2026-04-26T08:43:40.999Z</time></trkpt><trkpt lat="43.52722368737984" lon="11.962852467168226"><ele>650.6666666666666</ele><time>2026-04-26T08:43:41.999Z</time></trkpt><trkpt lat="43.52738963621917" lon="11.962800198666654"><ele>647.3333333333333</ele><time>2026-04-26T08:43:42.999Z</time></trkpt><trkpt lat="43.527574662447854" lon="11.9627475361288"><ele>644.0</ele><time>2026-04-26T08:43:43.999Z</time></trkpt><trkpt lat="43.52775970474096" lon="11.962688655097997"><ele>643.6666666666666</ele><time>2026-04-26T08:43:44.999Z</time></trkpt><trkpt lat="43.527926456237815" lon="11.962670995882593"><ele>643.3333333333334</ele><time>2026-04-26T08:43:45.999Z</time></trkpt><trkpt lat="43.52807983258806" lon="11.962671173537283"><ele>643.0</ele><time>2026-04-26T08:43:46.999Z</time></trkpt><trkpt lat="43.52821331712574" lon="11.962679823020776"><ele>643.0</ele><time>2026-04-26T08:43:47.999Z</time></trkpt><trkpt lat="43.52833789732333" lon="11.962695673923463"><ele>643.0</ele><time>2026-04-26T08:43:48.999Z</time></trkpt><trkpt lat="43.52846396506695" lon="11.962716928093169"><ele>643.0</ele><time>2026-04-26T08:43:49.999Z</time></trkpt><trkpt lat="43.52857620306504" lon="11.962725604198047"><ele>643.0</ele><time>2026-04-26T08:43:50.999Z</time></trkpt><trkpt lat="43.528713495043206" lon="11.962764857647107"><ele>643.8</ele><time>2026-04-26T08:43:51.999Z</time></trkpt><trkpt lat="43.52882403188173" lon="11.962824055465502"><ele>644.5999999999999</ele><time>2026-04-26T08:43:52.999Z</time></trkpt><trkpt lat="43.52893141735231" lon="11.962846521472843"><ele>645.4000000000001</ele><time>2026-04-26T08:43:53.999Z</time></trkpt><trkpt lat="43.52901900965559" lon="11.96290124703433"><ele>646.2</ele><time>2026-04-26T08:43:54.999Z</time></trkpt><trkpt lat="43.5291131695812" lon="11.962977430069165"><ele>647.0</ele><time>2026-04-26T08:43:55.999Z</time></trkpt><trkpt lat="43.529208247645435" lon="11.963037321337053"><ele>647.0</ele><time>2026-04-26T08:43:56.999Z</time></trkpt><trkpt lat="43.52931666085892" lon="11.963140948131677"><ele>647.0</ele><time>2026-04-26T08:43:57.999Z</time></trkpt><trkpt lat="43.52941207054829" lon="11.963267165846924"><ele>647.0</ele><time>2026-04-26T08:43:58.999Z</time></trkpt><trkpt lat="43.52952040322504" lon="11.96340072920578"><ele>647.0</ele><time>2026-04-26T08:43:59.999Z</time></trkpt><trkpt lat="43.529606529074464" lon="11.963518884023898"><ele>646.4000000000001</ele><time>2026-04-26T08:44:00.999Z</time></trkpt><trkpt lat="43.52968364643544" lon="11.963633369892808"><ele>645.8000000000001</ele><time>2026-04-26T08:44:01.999Z</time></trkpt><trkpt lat="43.52975442158923" lon="11.963738139118444"><ele>645.2</ele><time>2026-04-26T08:44:02.999Z</time></trkpt><trkpt lat="43.52982317754712" lon="11.963833770260017"><ele>644.6</ele><time>2026-04-26T08:44:03.999Z</time></trkpt><trkpt lat="43.52989902570921" lon="11.9639289038998"><ele>644.0</ele><time>2026-04-26T08:44:04.999Z</time></trkpt><trkpt lat="43.5299865411883" lon="11.963998762322946"><ele>644.0</ele><time>2026-04-26T08:44:05.999Z</time></trkpt><trkpt lat="43.53008553006985" lon="11.96407524458551"><ele>644.0</ele><time>2026-04-26T08:44:06.999Z</time></trkpt><trkpt lat="43.530211806547904" lon="11.964103025800148"><ele>644.0</ele><time>2026-04-26T08:44:07.999Z</time></trkpt><trkpt lat="43.5303453284135" lon="11.964109303495173"><ele>644.0</ele><time>2026-04-26T08:44:08.999Z</time></trkpt><trkpt lat="43.5304879755181" lon="11.964106876336713"><ele>641.75</ele><time>2026-04-26T08:44:09.999Z</time></trkpt><trkpt lat="43.530628747805714" lon="11.964106571894586"><ele>639.5</ele><time>2026-04-26T08:44:10.999Z</time></trkpt><trkpt lat="43.530767735765814" lon="11.964107529671812"><ele>637.25</ele><time>2026-04-26T08:44:11.999Z</time></trkpt><trkpt lat="43.53092544444878" lon="11.96410861645725"><ele>635.0</ele><time>2026-04-26T08:44:12.999Z</time></trkpt><trkpt lat="43.53111855173608" lon="11.96411517977816"><ele>633.6666666666666</ele><time>2026-04-26T08:44:13.999Z</time></trkpt><trkpt lat="43.53130277544916" lon="11.964134668437834"><ele>632.3333333333334</ele><time>2026-04-26T08:44:14.999Z</time></trkpt><trkpt lat="43.53146571978106" lon="11.964161965828305"><ele>631.0</ele><time>2026-04-26T08:44:15.999Z</time></trkpt><trkpt lat="43.5316291292511" lon="11.964197081276827"><ele>630.0</ele><time>2026-04-26T08:44:16.999Z</time></trkpt><trkpt lat="43.53179444608377" lon="11.964237908040776"><ele>629.0</ele><time>2026-04-26T08:44:17.999Z</time></trkpt><trkpt lat="43.531946314409005" lon="11.96427439300343"><ele>628.0</ele><time>2026-04-26T08:44:18.999Z</time></trkpt><trkpt lat="43.53208398157176" lon="11.964306481728007"><ele>627.0</ele><time>2026-04-26T08:44:19.999Z</time></trkpt><trkpt lat="43.532232700503336" lon="11.964347069681335"><ele>626.0</ele><time>2026-04-26T08:44:20.999Z</time></trkpt><trkpt lat="43.53239209419203" lon="11.964401818753352"><ele>625.0</ele><time>2026-04-26T08:44:21.999Z</time></trkpt><trkpt lat="43.53253293330908" lon="11.964462578633778"><ele>625.0</ele><time>2026-04-26T08:44:22.999Z</time></trkpt><trkpt lat="43.532681977910784" lon="11.964538399851307"><ele>625.0</ele><time>2026-04-26T08:44:23.999Z</time></trkpt><trkpt lat="43.5328477111363" lon="11.964619610162536"><ele>625.0</ele><time>2026-04-26T08:44:24.999Z</time></trkpt><trkpt lat="43.53300111298356" lon="11.96471717048141"><ele>626.6666666666667</ele><time>2026-04-26T08:44:25.999Z</time></trkpt><trkpt lat="43.533140809078574" lon="11.964825882852082"><ele>628.3333333333334</ele><time>2026-04-26T08:44:26.999Z</time></trkpt><trkpt lat="43.533292429789796" lon="11.964916917425223"><ele>630.0</ele><time>2026-04-26T08:44:27.999Z</time></trkpt><trkpt lat="43.53344145996338" lon="11.964991463798823"><ele>631.0</ele><time>2026-04-26T08:44:28.999Z</time></trkpt><trkpt lat="43.53358962171127" lon="11.965041952647951"><ele>632.0</ele><time>2026-04-26T08:44:29.999Z</time></trkpt><trkpt lat="43.53374961371762" lon="11.965080684770756"><ele>633.0</ele><time>2026-04-26T08:44:30.999Z</time></trkpt><trkpt lat="43.53392251135844" lon="11.965095587656883"><ele>633.0</ele><time>2026-04-26T08:44:31.999Z</time></trkpt><trkpt lat="43.53412478892405" lon="11.965085134576897"><ele>633.0</ele><time>2026-04-26T08:44:32.999Z</time></trkpt><trkpt lat="43.5343395365656" lon="11.965046156545474"><ele>633.0</ele><time>2026-04-26T08:44:33.999Z</time></trkpt><trkpt lat="43.53455504258451" lon="11.965012968947212"><ele>633.75</ele><time>2026-04-26T08:44:34.999Z</time></trkpt><trkpt lat="43.53471330829924" lon="11.964994591637344"><ele>634.5</ele><time>2026-04-26T08:44:36.999Z</time></trkpt><trkpt lat="43.5348277076598" lon="11.964986626567056"><ele>635.25</ele><time>2026-04-26T08:44:37.999Z</time></trkpt><trkpt lat="43.53492677693786" lon="11.964983508151839"><ele>636.0</ele><time>2026-04-26T08:44:38.999Z</time></trkpt><trkpt lat="43.5350227435675" lon="11.964990889788467"><ele>636.0</ele><time>2026-04-26T08:44:39.999Z</time></trkpt><trkpt lat="43.53512064771389" lon="11.965019531747878"><ele>636.0</ele><time>2026-04-26T08:44:40.999Z</time></trkpt><trkpt lat="43.535202166343296" lon="11.96506738510199"><ele>636.0</ele><time>2026-04-26T08:44:41.999Z</time></trkpt><trkpt lat="43.535272856135116" lon="11.965131991944538"><ele>636.0</ele><time>2026-04-26T08:44:42.999Z</time></trkpt><trkpt lat="43.53535466923116" lon="11.965227140929155"><ele>636.0</ele><time>2026-04-26T08:44:43.999Z</time></trkpt><trkpt lat="43.53542807524705" lon="11.96535343939363"><ele>637.25</ele><time>2026-04-26T08:44:44.999Z</time></trkpt><trkpt lat="43.53552420933955" lon="11.965473162018917"><ele>638.5</ele><time>2026-04-26T08:44:45.999Z</time></trkpt><trkpt lat="43.535670768388414" lon="11.965544021775475"><ele>639.75</ele><time>2026-04-26T08:44:46.999Z</time></trkpt><trkpt lat="43.53578906217862" lon="11.965599832027145"><ele>641.0</ele><time>2026-04-26T08:44:47.999Z</time></trkpt><trkpt lat="43.53589438636384" lon="11.965639941019372"><ele>641.0</ele><time>2026-04-26T08:44:48.999Z</time></trkpt><trkpt lat="43.53598641044136" lon="11.96569176835474"><ele>641.0</ele><time>2026-04-26T08:44:49.999Z</time></trkpt><trkpt lat="43.53608070066" lon="11.965717153024768"><ele>641.0</ele><time>2026-04-26T08:44:50.999Z</time></trkpt><trkpt lat="43.53619500928505" lon="11.965720885212148"><ele>641.0</ele><time>2026-04-26T08:44:51.999Z</time></trkpt><trkpt lat="43.536314176623726" lon="11.965693396379939"><ele>641.0</ele><time>2026-04-26T08:44:52.999Z</time></trkpt><trkpt lat="43.53642514756979" lon="11.965659504318818"><ele>639.4</ele><time>2026-04-26T08:44:53.999Z</time></trkpt><trkpt lat="43.53652717081017" lon="11.965645287487714"><ele>637.8</ele><time>2026-04-26T08:44:54.999Z</time></trkpt><trkpt lat="43.536626242411316" lon="11.96566240622821"><ele>636.1999999999999</ele><time>2026-04-26T08:44:55.999Z</time></trkpt><trkpt lat="43.536740218991866" lon="11.965687214659797"><ele>634.5999999999999</ele><time>2026-04-26T08:44:56.999Z</time></trkpt><trkpt lat="43.53686068000894" lon="11.965720681525935"><ele>633.0</ele><time>2026-04-26T08:44:57.999Z</time></trkpt><trkpt lat="43.53698141454521" lon="11.965748891796862"><ele>630.4</ele><time>2026-04-26T08:44:58.999Z</time></trkpt><trkpt lat="43.53709187811764" lon="11.965747204207805"><ele>627.8</ele><time>2026-04-26T08:44:59.999Z</time></trkpt><trkpt lat="43.53719503438502" lon="11.965768155460923"><ele>625.2</ele><time>2026-04-26T08:45:00.999Z</time></trkpt><trkpt lat="43.53728996299286" lon="11.96580374686317"><ele>622.6</ele><time>2026-04-26T08:45:01.999Z</time></trkpt><trkpt lat="43.5373823213214" lon="11.965807909455059"><ele>620.0</ele><time>2026-04-26T08:45:02.999Z</time></trkpt><trkpt lat="43.537470583692006" lon="11.965858601597121"><ele>623.8</ele><time>2026-04-26T08:45:03.999Z</time></trkpt><trkpt lat="43.53755547615302" lon="11.965924137547745"><ele>627.6</ele><time>2026-04-26T08:45:04.999Z</time></trkpt><trkpt lat="43.53762135811551" lon="11.966034513698753"><ele>631.4</ele><time>2026-04-26T08:45:05.999Z</time></trkpt><trkpt lat="43.53768679838333" lon="11.966137817466572"><ele>635.2</ele><time>2026-04-26T08:45:06.999Z</time></trkpt><trkpt lat="43.53775358890505" lon="11.966235645533956"><ele>639.0</ele><time>2026-04-26T08:45:07.999Z</time></trkpt><trkpt lat="43.53782755807157" lon="11.96631265518743"><ele>635.4</ele><time>2026-04-26T08:45:08.999Z</time></trkpt><trkpt lat="43.53792442248392" lon="11.966344247011422"><ele>631.8</ele><time>2026-04-26T08:45:09.999Z</time></trkpt><trkpt lat="43.5380162836826" lon="11.966360809263644"><ele>628.2</ele><time>2026-04-26T08:45:10.999Z</time></trkpt><trkpt lat="43.53810922936602" lon="11.966368666929625"><ele>624.6</ele><time>2026-04-26T08:45:11.999Z</time></trkpt><trkpt lat="43.53820139653082" lon="11.966368745421233"><ele>621.0</ele><time>2026-04-26T08:45:12.999Z</time></trkpt><trkpt lat="43.53828507948529" lon="11.96638494723534"><ele>621.0</ele><time>2026-04-26T08:45:13.999Z</time></trkpt><trkpt lat="43.53838767553742" lon="11.966417581697156"><ele>621.0</ele><time>2026-04-26T08:45:14.999Z</time></trkpt><trkpt lat="43.53849761732576" lon="11.966447489860602"><ele>621.0</ele><time>2026-04-26T08:45:15.999Z</time></trkpt><trkpt lat="43.53859693620655" lon="11.966494405094465"><ele>621.0</ele><time>2026-04-26T08:45:16.999Z</time></trkpt><trkpt lat="43.53869157478608" lon="11.96654838335273"><ele>621.0</ele><time>2026-04-26T08:45:17.999Z</time></trkpt><trkpt lat="43.53878447131535" lon="11.9665976380002"><ele>620.8</ele><time>2026-04-26T08:45:18.999Z</time></trkpt><trkpt lat="43.538868533670474" lon="11.96663966876321"><ele>620.6</ele><time>2026-04-26T08:45:19.999Z</time></trkpt><trkpt lat="43.538956677637444" lon="11.966671814708151"><ele>620.4</ele><time>2026-04-26T08:45:20.999Z</time></trkpt><trkpt lat="43.53906694931571" lon="11.966682874856575"><ele>620.2</ele><time>2026-04-26T08:45:21.999Z</time></trkpt><trkpt lat="43.5391822304517" lon="11.966702337797825"><ele>620.0</ele><time>2026-04-26T08:45:22.999Z</time></trkpt><trkpt lat="43.53930919234892" lon="11.966714673839844"><ele>620.0</ele><time>2026-04-26T08:45:23.999Z</time></trkpt><trkpt lat="43.539427802012604" lon="11.96672894704881"><ele>620.0</ele><time>2026-04-26T08:45:24.999Z</time></trkpt><trkpt lat="43.539533969457146" lon="11.966714961618084"><ele>620.0</ele><time>2026-04-26T08:45:25.999Z</time></trkpt><trkpt lat="43.53963790197307" lon="11.966669935403374"><ele>620.0</ele><time>2026-04-26T08:45:26.999Z</time></trkpt><trkpt lat="43.53974188980842" lon="11.966597041992157"><ele>617.8</ele><time>2026-04-26T08:45:27.999Z</time></trkpt><trkpt lat="43.53983931043603" lon="11.966505280129779"><ele>615.6</ele><time>2026-04-26T08:45:28.999Z</time></trkpt><trkpt lat="43.539932824818635" lon="11.966462256102247"><ele>613.4</ele><time>2026-04-26T08:45:29.999Z</time></trkpt><trkpt lat="43.54003821045494" lon="11.966490914442469"><ele>611.2</ele><time>2026-04-26T08:45:30.999Z</time></trkpt><trkpt lat="43.54014926409308" lon="11.966460526216359"><ele>609.0</ele><time>2026-04-26T08:45:31.999Z</time></trkpt><trkpt lat="43.54026744606215" lon="11.96640459676303"><ele>609.0</ele><time>2026-04-26T08:45:32.999Z</time></trkpt><trkpt lat="43.54038274821129" lon="11.966323035467338"><ele>609.0</ele><time>2026-04-26T08:45:33.999Z</time></trkpt><trkpt lat="43.54050377961883" lon="11.966257856634801"><ele>609.0</ele><time>2026-04-26T08:45:34.999Z</time></trkpt><trkpt lat="43.54059337145469" lon="11.966202848687221"><ele>609.0</ele><time>2026-04-26T08:45:35.999Z</time></trkpt><trkpt lat="43.540680213006766" lon="11.966167556134721"><ele>609.0</ele><time>2026-04-26T08:45:36.999Z</time></trkpt><trkpt lat="43.54077395861807" lon="11.966119725056378"><ele>608.8</ele><time>2026-04-26T08:45:37.999Z</time></trkpt><trkpt lat="43.54087345377906" lon="11.966071410304487"><ele>608.5999999999999</ele><time>2026-04-26T08:45:38.999Z</time></trkpt><trkpt lat="43.54097589120569" lon="11.966012433843053"><ele>608.4</ele><time>2026-04-26T08:45:39.999Z</time></trkpt><trkpt lat="43.54108158330783" lon="11.965946828119124"><ele>608.1999999999999</ele><time>2026-04-26T08:45:40.999Z</time></trkpt><trkpt lat="43.541184922539706" lon="11.965883539969596"><ele>608.0</ele><time>2026-04-26T08:45:41.999Z</time></trkpt><trkpt lat="43.541296526076664" lon="11.965827967463508"><ele>607.0</ele><time>2026-04-26T08:45:42.999Z</time></trkpt><trkpt lat="43.54140070365927" lon="11.96577782501778"><ele>606.0</ele><time>2026-04-26T08:45:43.999Z</time></trkpt><trkpt lat="43.54148573251998" lon="11.965737552632714"><ele>605.0</ele><time>2026-04-26T08:45:44.999Z</time></trkpt><trkpt lat="43.5415704023629" lon="11.965706083147177"><ele>604.0</ele><time>2026-04-26T08:45:45.999Z</time></trkpt><trkpt lat="43.54167253785059" lon="11.965686957956478"><ele>603.0</ele><time>2026-04-26T08:45:46.999Z</time></trkpt><trkpt lat="43.5417796032289" lon="11.965677744349993"><ele>603.0</ele><time>2026-04-26T08:45:47.999Z</time></trkpt><trkpt lat="43.54188762431503" lon="11.965668284447716"><ele>603.0</ele><time>2026-04-26T08:45:48.999Z</time></trkpt><trkpt lat="43.541998196274996" lon="11.965658392131733"><ele>603.0</ele><time>2026-04-26T08:45:49.999Z</time></trkpt><trkpt lat="43.542115330010745" lon="11.96564377734595"><ele>603.0</ele><time>2026-04-26T08:45:50.999Z</time></trkpt><trkpt lat="43.542226592359874" lon="11.96563196633202"><ele>603.0</ele><time>2026-04-26T08:45:51.999Z</time></trkpt><trkpt lat="43.54232488027077" lon="11.965622706220177"><ele>601.8</ele><time>2026-04-26T08:45:52.999Z</time></trkpt><trkpt lat="43.54241977267315" lon="11.965598356853311"><ele>600.5999999999999</ele><time>2026-04-26T08:45:53.999Z</time></trkpt><trkpt lat="43.54250808736369" lon="11.965553578699769"><ele>599.4000000000001</ele><time>2026-04-26T08:45:54.999Z</time></trkpt><trkpt lat="43.54259126008961" lon="11.965481650799157"><ele>598.2</ele><time>2026-04-26T08:45:55.999Z</time></trkpt><trkpt lat="43.5426653547359" lon="11.965363654345493"><ele>597.0</ele><time>2026-04-26T08:45:56.999Z</time></trkpt><trkpt lat="43.542728021384136" lon="11.965235289377784"><ele>597.0</ele><time>2026-04-26T08:45:57.999Z</time></trkpt><trkpt lat="43.54279243110787" lon="11.965103202271175"><ele>597.0</ele><time>2026-04-26T08:45:58.999Z</time></trkpt><trkpt lat="43.5428566571491" lon="11.964977872011039"><ele>597.0</ele><time>2026-04-26T08:45:59.999Z</time></trkpt><trkpt lat="43.54291490501094" lon="11.964871772747667"><ele>597.0</ele><time>2026-04-26T08:46:00.999Z</time></trkpt><trkpt lat="43.54297188371178" lon="11.964778325927558"><ele>597.0</ele><time>2026-04-26T08:46:01.999Z</time></trkpt><trkpt lat="43.543044646405164" lon="11.964718360075985"><ele>596.6</ele><time>2026-04-26T08:46:02.999Z</time></trkpt><trkpt lat="43.543136932484" lon="11.964679716429986"><ele>596.2</ele><time>2026-04-26T08:46:03.999Z</time></trkpt><trkpt lat="43.5432215305541" lon="11.96466524911535"><ele>595.8</ele><time>2026-04-26T08:46:04.999Z</time></trkpt><trkpt lat="43.543317971016585" lon="11.964672554967219"><ele>595.4</ele><time>2026-04-26T08:46:05.999Z</time></trkpt><trkpt lat="43.54340956142043" lon="11.964685683439441"><ele>595.0</ele><time>2026-04-26T08:46:06.999Z</time></trkpt><trkpt lat="43.54349348100764" lon="11.964694902233935"><ele>595.0</ele><time>2026-04-26T08:46:07.999Z</time></trkpt><trkpt lat="43.54358613993139" lon="11.964672537293689"><ele>595.0</ele><time>2026-04-26T08:46:08.999Z</time></trkpt><trkpt lat="43.54367698764385" lon="11.964616671794301"><ele>595.0</ele><time>2026-04-26T08:46:09.999Z</time></trkpt><trkpt lat="43.54376503370134" lon="11.964500453651686"><ele>595.0</ele><time>2026-04-26T08:46:10.999Z</time></trkpt><trkpt lat="43.54385749781013" lon="11.96439809271052"><ele>595.0</ele><time>2026-04-26T08:46:11.999Z</time></trkpt><trkpt lat="43.54395958506608" lon="11.96430635567252"><ele>595.75</ele><time>2026-04-26T08:46:12.999Z</time></trkpt><trkpt lat="43.544059030535536" lon="11.964220846126455"><ele>596.5</ele><time>2026-04-26T08:46:13.999Z</time></trkpt><trkpt lat="43.54415562046926" lon="11.964136148104188"><ele>597.25</ele><time>2026-04-26T08:46:14.999Z</time></trkpt><trkpt lat="43.544247225243296" lon="11.96405890511346"><ele>598.0</ele><time>2026-04-26T08:46:15.999Z</time></trkpt><trkpt lat="43.54435511190559" lon="11.963989820205475"><ele>595.4</ele><time>2026-04-26T08:46:16.999Z</time></trkpt><trkpt lat="43.544469689295966" lon="11.96392764391419"><ele>592.8</ele><time>2026-04-26T08:46:17.999Z</time></trkpt><trkpt lat="43.5445745314375" lon="11.963875247186571"><ele>590.2</ele><time>2026-04-26T08:46:18.999Z</time></trkpt><trkpt lat="43.54466489587666" lon="11.96383297460763"><ele>587.6</ele><time>2026-04-26T08:46:19.999Z</time></trkpt><trkpt lat="43.544744441734785" lon="11.963790331539814"><ele>585.0</ele><time>2026-04-26T08:46:20.999Z</time></trkpt><trkpt lat="43.544820632988305" lon="11.963741162386771"><ele>584.8333333333334</ele><time>2026-04-26T08:46:21.999Z</time></trkpt><trkpt lat="43.544896406079154" lon="11.96369041178125"><ele>584.6666666666666</ele><time>2026-04-26T08:46:22.999Z</time></trkpt><trkpt lat="43.54497296546592" lon="11.963631134305974"><ele>584.5</ele><time>2026-04-26T08:46:23.999Z</time></trkpt><trkpt lat="43.54504630658657" lon="11.963554842479445"><ele>584.3333333333333</ele><time>2026-04-26T08:46:24.999Z</time></trkpt><trkpt lat="43.545100745678546" lon="11.963451879502552"><ele>584.1666666666666</ele><time>2026-04-26T08:46:25.999Z</time></trkpt><trkpt lat="43.54511854504434" lon="11.963326933218797"><ele>584.0</ele><time>2026-04-26T08:46:26.999Z</time></trkpt><trkpt lat="43.54514343743373" lon="11.963232113882722"><ele>583.8333333333333</ele><time>2026-04-26T08:46:28Z</time></trkpt><trkpt lat="43.545134766160004" lon="11.963123213990972"><ele>583.6666666666666</ele><time>2026-04-26T08:46:29Z</time></trkpt><trkpt lat="43.5451755860183" lon="11.963035224296123"><ele>583.5</ele><time>2026-04-26T08:46:30Z</time></trkpt><trkpt lat="43.54524457346349" lon="11.962972569154521"><ele>583.3333333333334</ele><time>2026-04-26T08:46:31Z</time></trkpt><trkpt lat="43.54533478296948" lon="11.962921637075588"><ele>583.1666666666667</ele><time>2026-04-26T08:46:32Z</time></trkpt><trkpt lat="43.545435613017474" lon="11.962943681861487"><ele>583.0</ele><time>2026-04-26T08:46:33Z</time></trkpt><trkpt lat="43.54552789310508" lon="11.96296736823585"><ele>583.0</ele><time>2026-04-26T08:46:34Z</time></trkpt><trkpt lat="43.545670230521196" lon="11.963009720732025"><ele>583.0</ele><time>2026-04-26T08:46:35Z</time></trkpt><trkpt lat="43.545804335469015" lon="11.963050933933157"><ele>583.0</ele><time>2026-04-26T08:46:36Z</time></trkpt><trkpt lat="43.54591857574426" lon="11.963083745146585"><ele>583.0</ele><time>2026-04-26T08:46:37Z</time></trkpt><trkpt lat="43.54602867888041" lon="11.963106299712697"><ele>583.0</ele><time>2026-04-26T08:46:38Z</time></trkpt><trkpt lat="43.546129529071024" lon="11.96309264856743"><ele>583.0</ele><time>2026-04-26T08:46:39Z</time></trkpt><trkpt lat="43.54622071424163" lon="11.963119242686377"><ele>583.0</ele><time>2026-04-26T08:46:40Z</time></trkpt><trkpt lat="43.546307340904626" lon="11.963125556978175"><ele>583.0</ele><time>2026-04-26T08:46:41Z</time></trkpt><trkpt lat="43.546378494336295" lon="11.963150141875134"><ele>583.0</ele><time>2026-04-26T08:46:42Z</time></trkpt><trkpt lat="43.546440925374114" lon="11.963182722641355"><ele>583.0</ele><time>2026-04-26T08:46:43Z</time></trkpt><trkpt lat="43.54648234580787" lon="11.963255340510988"><ele>583.4</ele><time>2026-04-26T08:46:44Z</time></trkpt><trkpt lat="43.54650590946819" lon="11.963369837603311"><ele>583.8</ele><time>2026-04-26T08:46:45Z</time></trkpt><trkpt lat="43.5465314253647" lon="11.963515493809497"><ele>584.2</ele><time>2026-04-26T08:46:46Z</time></trkpt><trkpt lat="43.54657841417452" lon="11.96363948483743"><ele>584.6</ele><time>2026-04-26T08:46:47Z</time></trkpt><trkpt lat="43.54664745683" lon="11.963706512154829"><ele>585.0</ele><time>2026-04-26T08:46:48Z</time></trkpt><trkpt lat="43.54673895509922" lon="11.96378965641328"><ele>585.0</ele><time>2026-04-26T08:46:49Z</time></trkpt><trkpt lat="43.546840617389385" lon="11.963879353584352"><ele>585.0</ele><time>2026-04-26T08:46:50Z</time></trkpt><trkpt lat="43.54694533242823" lon="11.963939028416837"><ele>585.0</ele><time>2026-04-26T08:46:51Z</time></trkpt><trkpt lat="43.547045510643095" lon="11.963973156937673"><ele>585.0</ele><time>2026-04-26T08:46:52Z</time></trkpt><trkpt lat="43.54715309666214" lon="11.96397780520313"><ele>585.0</ele><time>2026-04-26T08:46:53Z</time></trkpt><trkpt lat="43.547269983312354" lon="11.963968387739078"><ele>584.2</ele><time>2026-04-26T08:46:54Z</time></trkpt><trkpt lat="43.54737552061236" lon="11.963947481910786"><ele>583.4</ele><time>2026-04-26T08:46:55Z</time></trkpt><trkpt lat="43.54746446674693" lon="11.963929003955716"><ele>582.6</ele><time>2026-04-26T08:46:56Z</time></trkpt><trkpt lat="43.547538227468216" lon="11.963931752390389"><ele>581.8</ele><time>2026-04-26T08:46:57Z</time></trkpt><trkpt lat="43.54764699759235" lon="11.964037733540733"><ele>581.0</ele><time>2026-04-26T08:46:59Z</time></trkpt><trkpt lat="43.54772169489704" lon="11.964150307091854"><ele>580.8</ele><time>2026-04-26T08:47:00Z</time></trkpt><trkpt lat="43.547819552198426" lon="11.96426100075129"><ele>580.6</ele><time>2026-04-26T08:47:01Z</time></trkpt><trkpt lat="43.54790907799493" lon="11.964329407228993"><ele>580.4</ele><time>2026-04-26T08:47:02Z</time></trkpt><trkpt lat="43.54800197851112" lon="11.964399082637856"><ele>580.2</ele><time>2026-04-26T08:47:03Z</time></trkpt><trkpt lat="43.54808516565141" lon="11.964461162319116"><ele>580.0</ele><time>2026-04-26T08:47:04Z</time></trkpt><trkpt lat="43.5481625648038" lon="11.96451729418659"><ele>579.2</ele><time>2026-04-26T08:47:05Z</time></trkpt><trkpt lat="43.54823098667289" lon="11.964566914489659"><ele>578.4</ele><time>2026-04-26T08:47:06Z</time></trkpt><trkpt lat="43.54831746966649" lon="11.96462764450903"><ele>577.6</ele><time>2026-04-26T08:47:08Z</time></trkpt><trkpt lat="43.54840479688947" lon="11.964687916506367"><ele>576.8</ele><time>2026-04-26T08:47:10Z</time></trkpt><trkpt lat="43.54850723257458" lon="11.964720644223696"><ele>576.0</ele><time>2026-04-26T08:47:11Z</time></trkpt><trkpt lat="43.54861048460403" lon="11.964770584583764"><ele>576.0</ele><time>2026-04-26T08:47:12Z</time></trkpt><trkpt lat="43.54869680500734" lon="11.964825919970561"><ele>576.0</ele><time>2026-04-26T08:47:13Z</time></trkpt><trkpt lat="43.54876256585944" lon="11.96487367077547"><ele>576.0</ele><time>2026-04-26T08:47:14Z</time></trkpt><trkpt lat="43.54881099317701" lon="11.964939512409451"><ele>576.0</ele><time>2026-04-26T08:47:15Z</time></trkpt><trkpt lat="43.548870826471095" lon="11.965042929909401"><ele>576.0</ele><time>2026-04-26T08:47:16Z</time></trkpt><trkpt lat="43.54893543500637" lon="11.965166031352325"><ele>576.0</ele><time>2026-04-26T08:47:17Z</time></trkpt><trkpt lat="43.54901761143327" lon="11.96528387524929"><ele>576.8</ele><time>2026-04-26T08:47:18Z</time></trkpt><trkpt lat="43.54908668775401" lon="11.965422201810968"><ele>577.6</ele><time>2026-04-26T08:47:19Z</time></trkpt><trkpt lat="43.54916743071592" lon="11.96553086815024"><ele>578.4</ele><time>2026-04-26T08:47:20Z</time></trkpt><trkpt lat="43.54922871502086" lon="11.96563744408393"><ele>579.2</ele><time>2026-04-26T08:47:21Z</time></trkpt><trkpt lat="43.54931315869284" lon="11.965711544152795"><ele>580.0</ele><time>2026-04-26T08:47:22Z</time></trkpt><trkpt lat="43.54939241631678" lon="11.965764925027738"><ele>580.0</ele><time>2026-04-26T08:47:23Z</time></trkpt><trkpt lat="43.549491143271474" lon="11.965807919763545"><ele>580.0</ele><time>2026-04-26T08:47:24Z</time></trkpt><trkpt lat="43.549601669781204" lon="11.965808420353374"><ele>580.0</ele><time>2026-04-26T08:47:25Z</time></trkpt><trkpt lat="43.549688938347295" lon="11.965850888913852"><ele>580.0</ele><time>2026-04-26T08:47:26Z</time></trkpt><trkpt lat="43.54976153347823" lon="11.965933542118417"><ele>580.0</ele><time>2026-04-26T08:47:27Z</time></trkpt><trkpt lat="43.54981943787401" lon="11.966049805882994"><ele>583.0</ele><time>2026-04-26T08:47:28Z</time></trkpt><trkpt lat="43.54990496359735" lon="11.966173518227542"><ele>586.0</ele><time>2026-04-26T08:47:29Z</time></trkpt><trkpt lat="43.55001802618002" lon="11.966332836587233"><ele>589.0</ele><time>2026-04-26T08:47:30Z</time></trkpt><trkpt lat="43.550134488167494" lon="11.966489830432284"><ele>592.0</ele><time>2026-04-26T08:47:31Z</time></trkpt><trkpt lat="43.55023114680053" lon="11.966613588987865"><ele>592.25</ele><time>2026-04-26T08:47:32Z</time></trkpt><trkpt lat="43.55031180502992" lon="11.966716701998307"><ele>592.5</ele><time>2026-04-26T08:47:33Z</time></trkpt><trkpt lat="43.55039945313581" lon="11.966829082699679"><ele>592.75</ele><time>2026-04-26T08:47:34Z</time></trkpt><trkpt lat="43.550492533098186" lon="11.966925494056625"><ele>593.0</ele><time>2026-04-26T08:47:35Z</time></trkpt><trkpt lat="43.5505820126369" lon="11.967063828672023"><ele>593.0</ele><time>2026-04-26T08:47:36Z</time></trkpt><trkpt lat="43.55065775605875" lon="11.967197705161233"><ele>593.0</ele><time>2026-04-26T08:47:37Z</time></trkpt><trkpt lat="43.550720213893186" lon="11.967318465392184"><ele>593.0</ele><time>2026-04-26T08:47:38Z</time></trkpt><trkpt lat="43.550775951158236" lon="11.967423791737692"><ele>593.0</ele><time>2026-04-26T08:47:39Z</time></trkpt><trkpt lat="43.5508355352778" lon="11.967517254582237"><ele>593.0</ele><time>2026-04-26T08:47:40Z</time></trkpt><trkpt lat="43.5508980373446" lon="11.967599032526259"><ele>593.1666666666666</ele><time>2026-04-26T08:47:41Z</time></trkpt><trkpt lat="43.55095945457312" lon="11.967671733837442"><ele>593.3333333333333</ele><time>2026-04-26T08:47:42Z</time></trkpt><trkpt lat="43.55101582864746" lon="11.967746854753058"><ele>593.5</ele><time>2026-04-26T08:47:43Z</time></trkpt><trkpt lat="43.55108948525731" lon="11.967794509940434"><ele>593.6666666666666</ele><time>2026-04-26T08:47:44Z</time></trkpt><trkpt lat="43.55118426461768" lon="11.967789327680117"><ele>593.8333333333334</ele><time>2026-04-26T08:47:45Z</time></trkpt><trkpt lat="43.55127162197941" lon="11.967751361981387"><ele>594.0</ele><time>2026-04-26T08:47:46Z</time></trkpt><trkpt lat="43.55136247527087" lon="11.967690274459576"><ele>594.0</ele><time>2026-04-26T08:47:47Z</time></trkpt><trkpt lat="43.551433767762674" lon="11.967594246943946"><ele>594.0</ele><time>2026-04-26T08:47:48Z</time></trkpt><trkpt lat="43.55150642591888" lon="11.967489928117224"><ele>594.0</ele><time>2026-04-26T08:47:49Z</time></trkpt><trkpt lat="43.55158575058745" lon="11.967370357735257"><ele>594.0</ele><time>2026-04-26T08:47:50Z</time></trkpt><trkpt lat="43.551667765610425" lon="11.967241328245656"><ele>594.0</ele><time>2026-04-26T08:47:51Z</time></trkpt><trkpt lat="43.55173260501628" lon="11.967134971791335"><ele>595.25</ele><time>2026-04-26T08:47:52Z</time></trkpt><trkpt lat="43.55179343682732" lon="11.967032503275309"><ele>596.5</ele><time>2026-04-26T08:47:53Z</time></trkpt><trkpt lat="43.55186949405144" lon="11.966910424189518"><ele>597.75</ele><time>2026-04-26T08:47:54Z</time></trkpt><trkpt lat="43.551957663671274" lon="11.966795026016188"><ele>599.0</ele><time>2026-04-26T08:47:55Z</time></trkpt><trkpt lat="43.55207091418748" lon="11.966655784391758"><ele>599.75</ele><time>2026-04-26T08:47:56Z</time></trkpt><trkpt lat="43.55218500541736" lon="11.96652528069673"><ele>600.5</ele><time>2026-04-26T08:47:57Z</time></trkpt><trkpt lat="43.552294298614186" lon="11.966409512933906"><ele>601.25</ele><time>2026-04-26T08:47:58Z</time></trkpt><trkpt lat="43.552399289602604" lon="11.966298629956052"><ele>602.0</ele><time>2026-04-26T08:47:59Z</time></trkpt><trkpt lat="43.55249646438014" lon="11.966166685926385"><ele>602.0</ele><time>2026-04-26T08:48:00Z</time></trkpt><trkpt lat="43.55258449795501" lon="11.966023692186754"><ele>602.0</ele><time>2026-04-26T08:48:01Z</time></trkpt><trkpt lat="43.55267258297689" lon="11.96586446786487"><ele>602.0</ele><time>2026-04-26T08:48:02Z</time></trkpt><trkpt lat="43.55275621633544" lon="11.965697905540777"><ele>602.0</ele><time>2026-04-26T08:48:03Z</time></trkpt><trkpt lat="43.552833745665495" lon="11.965544165629977"><ele>601.2</ele><time>2026-04-26T08:48:04Z</time></trkpt><trkpt lat="43.55290803620344" lon="11.96540560528877"><ele>600.4000000000001</ele><time>2026-04-26T08:48:05Z</time></trkpt><trkpt lat="43.55297990156599" lon="11.96529227455099"><ele>599.5999999999999</ele><time>2026-04-26T08:48:06Z</time></trkpt><trkpt lat="43.553053753028955" lon="11.965200248966202"><ele>598.8</ele><time>2026-04-26T08:48:07Z</time></trkpt><trkpt lat="43.553127798738714" lon="11.965149565852204"><ele>598.0</ele><time>2026-04-26T08:48:08Z</time></trkpt><trkpt lat="43.55319915216811" lon="11.965109625717579"><ele>598.0</ele><time>2026-04-26T08:48:09Z</time></trkpt><trkpt lat="43.5532823971078" lon="11.965092532900709"><ele>598.0</ele><time>2026-04-26T08:48:10Z</time></trkpt><trkpt lat="43.55336496848219" lon="11.965105427221994"><ele>598.0</ele><time>2026-04-26T08:48:11Z</time></trkpt><trkpt lat="43.553453027987814" lon="11.965142745311368"><ele>598.0</ele><time>2026-04-26T08:48:12Z</time></trkpt><trkpt lat="43.55354868343542" lon="11.965201288896699"><ele>598.0</ele><time>2026-04-26T08:48:13Z</time></trkpt><trkpt lat="43.553664503460794" lon="11.965272741065595"><ele>599.5</ele><time>2026-04-26T08:48:14Z</time></trkpt><trkpt lat="43.55379526961768" lon="11.965353788437355"><ele>601.0</ele><time>2026-04-26T08:48:15Z</time></trkpt><trkpt lat="43.55392822140369" lon="11.965413726340755"><ele>602.5</ele><time>2026-04-26T08:48:16Z</time></trkpt><trkpt lat="43.55406386624256" lon="11.965451799306518"><ele>604.0</ele><time>2026-04-26T08:48:17Z</time></trkpt><trkpt lat="43.554189549088726" lon="11.965466599274388"><ele>604.0</ele><time>2026-04-26T08:48:18Z</time></trkpt><trkpt lat="43.55431648140959" lon="11.965457039922079"><ele>604.0</ele><time>2026-04-26T08:48:19Z</time></trkpt><trkpt lat="43.55443614767342" lon="11.965432183649828"><ele>604.0</ele><time>2026-04-26T08:48:20Z</time></trkpt><trkpt lat="43.55454595804443" lon="11.965384572319367"><ele>604.0</ele><time>2026-04-26T08:48:21Z</time></trkpt><trkpt lat="43.55464532959187" lon="11.965329344653808"><ele>605.0</ele><time>2026-04-26T08:48:22Z</time></trkpt><trkpt lat="43.55475545903833" lon="11.965272903703557"><ele>606.0</ele><time>2026-04-26T08:48:23Z</time></trkpt><trkpt lat="43.554853744907234" lon="11.96522875027154"><ele>607.0</ele><time>2026-04-26T08:48:24Z</time></trkpt><trkpt lat="43.55495514099778" lon="11.965212660166344"><ele>608.0</ele><time>2026-04-26T08:48:25Z</time></trkpt><trkpt lat="43.55506021810657" lon="11.965238431692006"><ele>609.0</ele><time>2026-04-26T08:48:26Z</time></trkpt><trkpt lat="43.555183053432074" lon="11.965261575950949"><ele>609.0</ele><time>2026-04-26T08:48:27Z</time></trkpt><trkpt lat="43.555294475124626" lon="11.965275898737612"><ele>609.0</ele><time>2026-04-26T08:48:28Z</time></trkpt><trkpt lat="43.55538118212209" lon="11.965264024204869"><ele>609.0</ele><time>2026-04-26T08:48:29Z</time></trkpt><trkpt lat="43.555458218267695" lon="11.965207605730006"><ele>609.0</ele><time>2026-04-26T08:48:30Z</time></trkpt><trkpt lat="43.555530157825274" lon="11.965164859174749"><ele>609.0</ele><time>2026-04-26T08:48:31Z</time></trkpt><trkpt lat="43.555611382906534" lon="11.965126662759625"><ele>612.2</ele><time>2026-04-26T08:48:32Z</time></trkpt><trkpt lat="43.555693256501215" lon="11.965112306593236"><ele>615.4</ele><time>2026-04-26T08:48:33Z</time></trkpt><trkpt lat="43.555784223464315" lon="11.965118859415904"><ele>618.6</ele><time>2026-04-26T08:48:34Z</time></trkpt><trkpt lat="43.55588211288588" lon="11.965142209775177"><ele>621.8</ele><time>2026-04-26T08:48:35Z</time></trkpt><trkpt lat="43.55601787751901" lon="11.965168662112639"><ele>625.0</ele><time>2026-04-26T08:48:36Z</time></trkpt><trkpt lat="43.55617859686771" lon="11.965193961324488"><ele>627.0</ele><time>2026-04-26T08:48:37Z</time></trkpt><trkpt lat="43.55631665253062" lon="11.965222549008928"><ele>629.0</ele><time>2026-04-26T08:48:38Z</time></trkpt><trkpt lat="43.55642287477743" lon="11.96525066440805"><ele>631.0</ele><time>2026-04-26T08:48:39Z</time></trkpt><trkpt lat="43.55650708402635" lon="11.96527927366318"><ele>633.0</ele><time>2026-04-26T08:48:40Z</time></trkpt><trkpt lat="43.55659023621512" lon="11.965314207218022"><ele>635.0</ele><time>2026-04-26T08:48:41Z</time></trkpt><trkpt lat="43.55668600093147" lon="11.96535591899662"><ele>635.0</ele><time>2026-04-26T08:48:42Z</time></trkpt><trkpt lat="43.556780252111274" lon="11.965431154961045"><ele>635.0</ele><time>2026-04-26T08:48:43Z</time></trkpt><trkpt lat="43.55686739909383" lon="11.965497842254102"><ele>635.0</ele><time>2026-04-26T08:48:44Z</time></trkpt><trkpt lat="43.55695145753123" lon="11.965548163547485"><ele>635.0</ele><time>2026-04-26T08:48:45Z</time></trkpt><trkpt lat="43.55704192260598" lon="11.965589744748682"><ele>635.0</ele><time>2026-04-26T08:48:46Z</time></trkpt><trkpt lat="43.557136014007966" lon="11.96564832378304"><ele>636.0</ele><time>2026-04-26T08:48:47Z</time></trkpt><trkpt lat="43.55722846235568" lon="11.965654241239305"><ele>637.0</ele><time>2026-04-26T08:48:48Z</time></trkpt><trkpt lat="43.55731334392126" lon="11.965661656933058"><ele>638.0</ele><time>2026-04-26T08:48:49Z</time></trkpt><trkpt lat="43.55740242296591" lon="11.965668863789153"><ele>639.0</ele><time>2026-04-26T08:48:50Z</time></trkpt><trkpt lat="43.55749418119193" lon="11.965680663754371"><ele>640.0</ele><time>2026-04-26T08:48:51Z</time></trkpt><trkpt lat="43.5575748694081" lon="11.965725505105665"><ele>641.0</ele><time>2026-04-26T08:48:52Z</time></trkpt><trkpt lat="43.55764861040463" lon="11.965792949585579"><ele>641.0</ele><time>2026-04-26T08:48:53Z</time></trkpt><trkpt lat="43.55773142666279" lon="11.965864540864038"><ele>641.0</ele><time>2026-04-26T08:48:54Z</time></trkpt><trkpt lat="43.55781404440944" lon="11.96593596053557"><ele>641.0</ele><time>2026-04-26T08:48:55Z</time></trkpt><trkpt lat="43.55791741974582" lon="11.966003044776803"><ele>641.0</ele><time>2026-04-26T08:48:56Z</time></trkpt><trkpt lat="43.55801379323187" lon="11.966091490441663"><ele>641.0</ele><time>2026-04-26T08:48:57Z</time></trkpt><trkpt lat="43.55810761912835" lon="11.9661668578167"><ele>640.6666666666666</ele><time>2026-04-26T08:48:58Z</time></trkpt><trkpt lat="43.55819407778193" lon="11.96623145182769"><ele>640.3333333333333</ele><time>2026-04-26T08:48:59Z</time></trkpt><trkpt lat="43.55828441482986" lon="11.966262919733527"><ele>640.0</ele><time>2026-04-26T08:49:00Z</time></trkpt><trkpt lat="43.55837275247741" lon="11.966264000463749"><ele>639.6666666666666</ele><time>2026-04-26T08:49:01Z</time></trkpt><trkpt lat="43.5584367244874" lon="11.966244242110102"><ele>639.3333333333334</ele><time>2026-04-26T08:49:02Z</time></trkpt><trkpt lat="43.55853499725461" lon="11.966203893866643"><ele>639.0</ele><time>2026-04-26T08:49:03Z</time></trkpt><trkpt lat="43.55862029398255" lon="11.966169300164538"><ele>640.4</ele><time>2026-04-26T08:49:04Z</time></trkpt><trkpt lat="43.55870171479186" lon="11.966127512689189"><ele>641.8</ele><time>2026-04-26T08:49:05Z</time></trkpt><trkpt lat="43.55879615376691" lon="11.966098430364815"><ele>643.1999999999999</ele><time>2026-04-26T08:49:06Z</time></trkpt><trkpt lat="43.55890014269245" lon="11.965998693687462"><ele>644.5999999999999</ele><time>2026-04-26T08:49:07Z</time></trkpt><trkpt lat="43.55898922930246" lon="11.965932600394948"><ele>646.0</ele><time>2026-04-26T08:49:08Z</time></trkpt><trkpt lat="43.559071039246106" lon="11.965843901610196"><ele>649.0</ele><time>2026-04-26T08:49:09Z</time></trkpt><trkpt lat="43.55913726050982" lon="11.965735747175405"><ele>652.0</ele><time>2026-04-26T08:49:10Z</time></trkpt><trkpt lat="43.55916143306973" lon="11.965630542556436"><ele>655.0</ele><time>2026-04-26T08:49:11Z</time></trkpt><trkpt lat="43.5592211980458" lon="11.96550171329892"><ele>658.0</ele><time>2026-04-26T08:49:13Z</time></trkpt><trkpt lat="43.55928082795215" lon="11.96544675594607"><ele>661.0</ele><time>2026-04-26T08:49:14Z</time></trkpt><trkpt lat="43.559382886231354" lon="11.96538944007016"><ele>661.0</ele><time>2026-04-26T08:49:16Z</time></trkpt><trkpt lat="43.55945620693763" lon="11.965375089765594"><ele>661.0</ele><time>2026-04-26T08:49:17Z</time></trkpt><trkpt lat="43.55954784026061" lon="11.96535809374671"><ele>661.0</ele><time>2026-04-26T08:49:18Z</time></trkpt><trkpt lat="43.559636071984066" lon="11.965315426762935"><ele>661.0</ele><time>2026-04-26T08:49:19Z</time></trkpt><trkpt lat="43.55974664458453" lon="11.965231795650688"><ele>661.0</ele><time>2026-04-26T08:49:20Z</time></trkpt><trkpt lat="43.559858566645794" lon="11.965123869925392"><ele>662.75</ele><time>2026-04-26T08:49:21Z</time></trkpt><trkpt lat="43.55997330044206" lon="11.965004391055258"><ele>664.5</ele><time>2026-04-26T08:49:22Z</time></trkpt><trkpt lat="43.5600701094567" lon="11.964902078418428"><ele>666.25</ele><time>2026-04-26T08:49:23Z</time></trkpt><trkpt lat="43.56015139373456" lon="11.964820867539894"><ele>668.0</ele><time>2026-04-26T08:49:24Z</time></trkpt><trkpt lat="43.56022375598809" lon="11.964753986205908"><ele>668.0</ele><time>2026-04-26T08:49:25Z</time></trkpt><trkpt lat="43.56030666968219" lon="11.964686388401448"><ele>668.0</ele><time>2026-04-26T08:49:26Z</time></trkpt><trkpt lat="43.56037300317598" lon="11.964640850717055"><ele>668.0</ele><time>2026-04-26T08:49:27Z</time></trkpt><trkpt lat="43.56043670698375" lon="11.96460379937014"><ele>668.0</ele><time>2026-04-26T08:49:28Z</time></trkpt><trkpt lat="43.56053639119027" lon="11.964561103988025"><ele>668.0</ele><time>2026-04-26T08:49:30Z</time></trkpt><trkpt lat="43.56064296107397" lon="11.964529554153184"><ele>668.4</ele><time>2026-04-26T08:49:32Z</time></trkpt><trkpt lat="43.56075841459612" lon="11.964507196179898"><ele>668.8</ele><time>2026-04-26T08:49:34Z</time></trkpt><trkpt lat="43.56086823418729" lon="11.964500483881915"><ele>669.2</ele><time>2026-04-26T08:49:36Z</time></trkpt><trkpt lat="43.560973351048894" lon="11.964521522166917"><ele>669.6</ele><time>2026-04-26T08:49:38Z</time></trkpt><trkpt lat="43.561077121310824" lon="11.96458097943739"><ele>670.0</ele><time>2026-04-26T08:49:40Z</time></trkpt><trkpt lat="43.561199377412734" lon="11.964624340305495"><ele>668.8333333333334</ele><time>2026-04-26T08:49:42Z</time></trkpt><trkpt lat="43.56127318157764" lon="11.964595747613114"><ele>667.6666666666667</ele><time>2026-04-26T08:49:43Z</time></trkpt><trkpt lat="43.56139400456258" lon="11.9645518394853"><ele>666.5</ele><time>2026-04-26T08:49:45Z</time></trkpt><trkpt lat="43.56145835858069" lon="11.964527225616388"><ele>665.3333333333334</ele><time>2026-04-26T08:49:46Z</time></trkpt><trkpt lat="43.56152165137613" lon="11.964504031443628"><ele>664.1666666666666</ele><time>2026-04-26T08:49:47Z</time></trkpt><trkpt lat="43.56158496212592" lon="11.964482128165075"><ele>663.0</ele><time>2026-04-26T08:49:48Z</time></trkpt><trkpt lat="43.56165654344114" lon="11.964466118840164"><ele>663.0</ele><time>2026-04-26T08:49:49Z</time></trkpt><trkpt lat="43.56173357565241" lon="11.96445277213989"><ele>663.0</ele><time>2026-04-26T08:49:50Z</time></trkpt><trkpt lat="43.5618212436758" lon="11.964437953662436"><ele>663.0</ele><time>2026-04-26T08:49:51Z</time></trkpt><trkpt lat="43.56189817634784" lon="11.964421460550005"><ele>663.0</ele><time>2026-04-26T08:49:52Z</time></trkpt><trkpt lat="43.56197626694871" lon="11.964405794358397"><ele>663.0</ele><time>2026-04-26T08:49:53Z</time></trkpt><trkpt lat="43.56206193220105" lon="11.964386126450634"><ele>663.0</ele><time>2026-04-26T08:49:54Z</time></trkpt><trkpt lat="43.562139483873786" lon="11.964348591743368"><ele>662.3333333333334</ele><time>2026-04-26T08:49:55Z</time></trkpt><trkpt lat="43.56221181807447" lon="11.964282214917839"><ele>661.6666666666666</ele><time>2026-04-26T08:49:56Z</time></trkpt><trkpt lat="43.562275021560765" lon="11.964199726091469"><ele>661.0</ele><time>2026-04-26T08:49:57Z</time></trkpt><trkpt lat="43.562333850483824" lon="11.964125787488044"><ele>660.3333333333333</ele><time>2026-04-26T08:49:58Z</time></trkpt><trkpt lat="43.56238777428723" lon="11.964053807738127"><ele>659.6666666666666</ele><time>2026-04-26T08:49:59Z</time></trkpt><trkpt lat="43.562443966258066" lon="11.963980409370086"><ele>659.0</ele><time>2026-04-26T08:50:00Z</time></trkpt><trkpt lat="43.56250121390574" lon="11.963911180178615"><ele>658.6666666666666</ele><time>2026-04-26T08:50:01Z</time></trkpt><trkpt lat="43.56256076880574" lon="11.963850893479258"><ele>658.3333333333333</ele><time>2026-04-26T08:50:02Z</time></trkpt><trkpt lat="43.562617623296454" lon="11.963810462023252"><ele>658.0</ele><time>2026-04-26T08:50:03Z</time></trkpt><trkpt lat="43.56273734416014" lon="11.963775829562824"><ele>657.6666666666666</ele><time>2026-04-26T08:50:05Z</time></trkpt><trkpt lat="43.56280794073752" lon="11.96374049050057"><ele>657.3333333333334</ele><time>2026-04-26T08:50:06Z</time></trkpt><trkpt lat="43.56287468940324" lon="11.963691195894532"><ele>657.0</ele><time>2026-04-26T08:50:07Z</time></trkpt><trkpt lat="43.5629322254548" lon="11.963618167416788"><ele>657.0</ele><time>2026-04-26T08:50:08Z</time></trkpt><trkpt lat="43.562965470946224" lon="11.963539496744"><ele>657.0</ele><time>2026-04-26T08:50:09Z</time></trkpt><trkpt lat="43.56295210269591" lon="11.96342298643397"><ele>657.0</ele><time>2026-04-26T08:50:10Z</time></trkpt><trkpt lat="43.56293086130273" lon="11.963310614554489"><ele>657.0</ele><time>2026-04-26T08:50:11Z</time></trkpt><trkpt lat="43.56291950944106" lon="11.963172860624132"><ele>657.0</ele><time>2026-04-26T08:50:12Z</time></trkpt><trkpt lat="43.56290856748857" lon="11.963040081986247"><ele>657.0</ele><time>2026-04-26T08:50:13Z</time></trkpt><trkpt lat="43.56290984942077" lon="11.962926799360174"><ele>657.3333333333334</ele><time>2026-04-26T08:50:14Z</time></trkpt><trkpt lat="43.56292710927069" lon="11.962835254585855"><ele>657.6666666666666</ele><time>2026-04-26T08:50:15Z</time></trkpt><trkpt lat="43.56295996365138" lon="11.962752358832793"><ele>658.0</ele><time>2026-04-26T08:50:16Z</time></trkpt><trkpt lat="43.56299217084267" lon="11.962627856759154"><ele>658.3333333333333</ele><time>2026-04-26T08:50:17Z</time></trkpt><trkpt lat="43.562998296621274" lon="11.96249470724575"><ele>658.6666666666666</ele><time>2026-04-26T08:50:18Z</time></trkpt><trkpt lat="43.56300496278326" lon="11.962399083130506"><ele>659.0</ele><time>2026-04-26T08:50:19Z</time></trkpt><trkpt lat="43.563026466105256" lon="11.962259233162333"><ele>659.0</ele><time>2026-04-26T08:50:21Z</time></trkpt><trkpt lat="43.56307134960832" lon="11.962077605516377"><ele>659.0</ele><time>2026-04-26T08:50:23Z</time></trkpt><trkpt lat="43.56309990209792" lon="11.96197181901828"><ele>659.0</ele><time>2026-04-26T08:50:24Z</time></trkpt><trkpt lat="43.56312986373113" lon="11.961870560836099"><ele>659.0</ele><time>2026-04-26T08:50:25Z</time></trkpt><trkpt lat="43.5631599257472" lon="11.96177858688353"><ele>659.0</ele><time>2026-04-26T08:50:26Z</time></trkpt><trkpt lat="43.56318966187366" lon="11.961698139626456"><ele>659.0</ele><time>2026-04-26T08:50:27Z</time></trkpt><trkpt lat="43.563258968331226" lon="11.961554567576865"><ele>658.2</ele><time>2026-04-26T08:50:29Z</time></trkpt><trkpt lat="43.56331881382972" lon="11.961477972845636"><ele>657.4000000000001</ele><time>2026-04-26T08:50:30Z</time></trkpt><trkpt lat="43.563392577275955" lon="11.961414764062248"><ele>656.6</ele><time>2026-04-26T08:50:31Z</time></trkpt><trkpt lat="43.563486312258846" lon="11.961360629223334"><ele>655.8</ele><time>2026-04-26T08:50:32Z</time></trkpt><trkpt lat="43.56359478644126" lon="11.961337764796466"><ele>655.0</ele><time>2026-04-26T08:50:33Z</time></trkpt><trkpt lat="43.56370112425933" lon="11.961296304706895"><ele>655.0</ele><time>2026-04-26T08:50:34Z</time></trkpt><trkpt lat="43.563788140856275" lon="11.961234299627487"><ele>655.0</ele><time>2026-04-26T08:50:35Z</time></trkpt><trkpt lat="43.5638625884769" lon="11.961163716857335"><ele>655.0</ele><time>2026-04-26T08:50:36Z</time></trkpt><trkpt lat="43.56392460305423" lon="11.961114489627734"><ele>655.0</ele><time>2026-04-26T08:50:37Z</time></trkpt><trkpt lat="43.564034595006376" lon="11.961066921132712"><ele>655.0</ele><time>2026-04-26T08:50:39Z</time></trkpt><trkpt lat="43.56414989834041" lon="11.961055006850396"><ele>655.0</ele><time>2026-04-26T08:50:41Z</time></trkpt><trkpt lat="43.56424557594989" lon="11.9610595279263"><ele>655.0</ele><time>2026-04-26T08:50:42Z</time></trkpt><trkpt lat="43.564357370483556" lon="11.961073906447806"><ele>655.0</ele><time>2026-04-26T08:50:43Z</time></trkpt><trkpt lat="43.56445785452538" lon="11.961088970176176"><ele>655.0</ele><time>2026-04-26T08:50:44Z</time></trkpt><trkpt lat="43.56454643404812" lon="11.961105512978481"><ele>655.0</ele><time>2026-04-26T08:50:45Z</time></trkpt><trkpt lat="43.56464040632447" lon="11.961123589283732"><ele>653.3333333333334</ele><time>2026-04-26T08:50:46Z</time></trkpt><trkpt lat="43.564728156788355" lon="11.96113962833202"><ele>651.6666666666667</ele><time>2026-04-26T08:50:47Z</time></trkpt><trkpt lat="43.5648134061026" lon="11.96115350290302"><ele>650.0</ele><time>2026-04-26T08:50:48Z</time></trkpt><trkpt lat="43.56489687720445" lon="11.961163817639575"><ele>648.3333333333334</ele><time>2026-04-26T08:50:49Z</time></trkpt><trkpt lat="43.56497147773432" lon="11.961172624668363"><ele>646.6666666666666</ele><time>2026-04-26T08:50:50Z</time></trkpt><trkpt lat="43.565052062871324" lon="11.961173995161003"><ele>645.0</ele><time>2026-04-26T08:50:51Z</time></trkpt><trkpt lat="43.56514075455523" lon="11.961147234365903"><ele>645.0</ele><time>2026-04-26T08:50:52Z</time></trkpt><trkpt lat="43.56521559420816" lon="11.96110794127138"><ele>645.0</ele><time>2026-04-26T08:50:53Z</time></trkpt><trkpt lat="43.56529216826178" lon="11.961056786920237"><ele>645.0</ele><time>2026-04-26T08:50:54Z</time></trkpt><trkpt lat="43.56535272149623" lon="11.961011581256713"><ele>645.0</ele><time>2026-04-26T08:50:55Z</time></trkpt><trkpt lat="43.565442409997175" lon="11.960937794862687"><ele>645.0</ele><time>2026-04-26T08:50:57Z</time></trkpt><trkpt lat="43.56552408365194" lon="11.960865320448736"><ele>645.0</ele><time>2026-04-26T08:50:59Z</time></trkpt><trkpt lat="43.565622951762776" lon="11.96077220027161"><ele>643.1666666666666</ele><time>2026-04-26T08:51:01Z</time></trkpt><trkpt lat="43.56571916119281" lon="11.960680006591991"><ele>641.3333333333334</ele><time>2026-04-26T08:51:03Z</time></trkpt><trkpt lat="43.56577150404999" lon="11.960626702695205"><ele>639.5</ele><time>2026-04-26T08:51:04Z</time></trkpt><trkpt lat="43.56583581463213" lon="11.960561902255687"><ele>637.6666666666667</ele><time>2026-04-26T08:51:05Z</time></trkpt><trkpt lat="43.56589070160421" lon="11.96050853043759"><ele>635.8333333333334</ele><time>2026-04-26T08:51:06Z</time></trkpt><trkpt lat="43.56594821433159" lon="11.960458991497552"><ele>634.0</ele><time>2026-04-26T08:51:07Z</time></trkpt><trkpt lat="43.56600883690201" lon="11.960410135811376"><ele>634.0</ele><time>2026-04-26T08:51:08Z</time></trkpt><trkpt lat="43.566065169924705" lon="11.960366810364814"><ele>634.0</ele><time>2026-04-26T08:51:09Z</time></trkpt><trkpt lat="43.566160253080106" lon="11.960293566509627"><ele>634.0</ele><time>2026-04-26T08:51:11Z</time></trkpt><trkpt lat="43.566243227787915" lon="11.960217362668255"><ele>634.0</ele><time>2026-04-26T08:51:13Z</time></trkpt><trkpt lat="43.566293521812" lon="11.960113470926588"><ele>634.0</ele><time>2026-04-26T08:51:15Z</time></trkpt><trkpt lat="43.56627096873081" lon="11.959965948998857"><ele>634.0</ele><time>2026-04-26T08:51:17Z</time></trkpt><trkpt lat="43.56622827868737" lon="11.959891982604146"><ele>634.0</ele><time>2026-04-26T08:51:18Z</time></trkpt><trkpt lat="43.56619705469654" lon="11.959806902482967"><ele>634.0</ele><time>2026-04-26T08:51:19Z</time></trkpt><trkpt lat="43.566169450817675" lon="11.959644434589464"><ele>634.0</ele><time>2026-04-26T08:51:21Z</time></trkpt><trkpt lat="43.56615731978362" lon="11.95955115388326"><ele>634.0</ele><time>2026-04-26T08:51:22Z</time></trkpt><trkpt lat="43.56614860748306" lon="11.959459370676557"><ele>634.0</ele><time>2026-04-26T08:51:23Z</time></trkpt><trkpt lat="43.56613578540834" lon="11.959308715336746"><ele>634.6</ele><time>2026-04-26T08:51:25Z</time></trkpt><trkpt lat="43.56614364804087" lon="11.959174934039169"><ele>635.2</ele><time>2026-04-26T08:51:27Z</time></trkpt><trkpt lat="43.566191232213846" lon="11.959068140627483"><ele>635.8000000000001</ele><time>2026-04-26T08:51:29Z</time></trkpt><trkpt lat="43.56628074680654" lon="11.959001010053441"><ele>636.4</ele><time>2026-04-26T08:51:31Z</time></trkpt><trkpt lat="43.56637891854013" lon="11.95907873609651"><ele>637.0</ele><time>2026-04-26T08:51:33Z</time></trkpt><trkpt lat="43.566451235496174" lon="11.959143418793456"><ele>638.3333333333334</ele><time>2026-04-26T08:51:34Z</time></trkpt><trkpt lat="43.56652454929254" lon="11.9592255811443"><ele>639.6666666666667</ele><time>2026-04-26T08:51:35Z</time></trkpt><trkpt lat="43.56658605550426" lon="11.959302276306682"><ele>641.0</ele><time>2026-04-26T08:51:36Z</time></trkpt><trkpt lat="43.56664041892081" lon="11.959368705087307"><ele>642.3333333333334</ele><time>2026-04-26T08:51:37Z</time></trkpt><trkpt lat="43.566696021517714" lon="11.959425412143684"><ele>643.6666666666666</ele><time>2026-04-26T08:51:38Z</time></trkpt><trkpt lat="43.56680151779769" lon="11.959459150758137"><ele>645.0</ele><time>2026-04-26T08:51:40Z</time></trkpt><trkpt lat="43.566888238397524" lon="11.959471401865333"><ele>645.0</ele><time>2026-04-26T08:51:41Z</time></trkpt><trkpt lat="43.56696499360749" lon="11.959488143654994"><ele>645.0</ele><time>2026-04-26T08:51:42Z</time></trkpt><trkpt lat="43.567094659895766" lon="11.95951614892103"><ele>645.0</ele><time>2026-04-26T08:51:44Z</time></trkpt><trkpt lat="43.567190295390375" lon="11.959535134010094"><ele>645.0</ele><time>2026-04-26T08:51:45Z</time></trkpt><trkpt lat="43.56726246314886" lon="11.959540329767574"><ele>645.0</ele><time>2026-04-26T08:51:46Z</time></trkpt><trkpt lat="43.567358399587576" lon="11.959523720767654"><ele>646.5</ele><time>2026-04-26T08:51:48Z</time></trkpt><trkpt lat="43.56747632743905" lon="11.95951100138067"><ele>648.0</ele><time>2026-04-26T08:51:50Z</time></trkpt><trkpt lat="43.56754080710289" lon="11.95949560332379"><ele>649.5</ele><time>2026-04-26T08:51:51Z</time></trkpt><trkpt lat="43.56761514281089" lon="11.95951017819721"><ele>651.0</ele><time>2026-04-26T08:51:52Z</time></trkpt><trkpt lat="43.56769209343305" lon="11.959503874791912"><ele>652.5</ele><time>2026-04-26T08:51:53Z</time></trkpt><trkpt lat="43.56780046123683" lon="11.959476954317436"><ele>654.0</ele><time>2026-04-26T08:51:55Z</time></trkpt><trkpt lat="43.56791047802127" lon="11.95945834043328"><ele>654.2</ele><time>2026-04-26T08:51:57Z</time></trkpt><trkpt lat="43.568024865750296" lon="11.959417443712441"><ele>654.4000000000001</ele><time>2026-04-26T08:51:59Z</time></trkpt><trkpt lat="43.568130233562705" lon="11.959395240904945"><ele>654.6</ele><time>2026-04-26T08:52:01Z</time></trkpt><trkpt lat="43.56823606112454" lon="11.959314308407887"><ele>654.8</ele><time>2026-04-26T08:52:03Z</time></trkpt><trkpt lat="43.56826288129623" lon="11.959230126430635"><ele>655.0</ele><time>2026-04-26T08:52:04Z</time></trkpt><trkpt lat="43.56825178677437" lon="11.959125178895949"><ele>655.2</ele><time>2026-04-26T08:52:05Z</time></trkpt><trkpt lat="43.56825454705075" lon="11.959003324891361"><ele>655.4</ele><time>2026-04-26T08:52:06Z</time></trkpt><trkpt lat="43.568256382365384" lon="11.958840564946158"><ele>655.5999999999999</ele><time>2026-04-26T08:52:07Z</time></trkpt><trkpt lat="43.56823069284689" lon="11.958701080413647"><ele>655.8</ele><time>2026-04-26T08:52:08Z</time></trkpt><trkpt lat="43.568218537122924" lon="11.958586819613156"><ele>656.0</ele><time>2026-04-26T08:52:09Z</time></trkpt><trkpt lat="43.56825014377092" lon="11.958421277096207"><ele>657.0</ele><time>2026-04-26T08:52:11Z</time></trkpt><trkpt lat="43.56826638713341" lon="11.958289207409543"><ele>658.0</ele><time>2026-04-26T08:52:12Z</time></trkpt><trkpt lat="43.56827388587073" lon="11.958145028020262"><ele>659.0</ele><time>2026-04-26T08:52:13Z</time></trkpt><trkpt lat="43.568271649373514" lon="11.958039820076749"><ele>660.0</ele><time>2026-04-26T08:52:14Z</time></trkpt><trkpt lat="43.568273965598316" lon="11.957945229496586"><ele>661.0</ele><time>2026-04-26T08:52:15Z</time></trkpt><trkpt lat="43.5682853889952" lon="11.957855577482588"><ele>662.0</ele><time>2026-04-26T08:52:16Z</time></trkpt><trkpt lat="43.568324691714636" lon="11.9577710491724"><ele>662.0</ele><time>2026-04-26T08:52:18Z</time></trkpt><trkpt lat="43.568410200941265" lon="11.957651546870508"><ele>662.0</ele><time>2026-04-26T08:52:20Z</time></trkpt><trkpt lat="43.5684560592947" lon="11.957584486817753"><ele>662.0</ele><time>2026-04-26T08:52:21Z</time></trkpt><trkpt lat="43.56851319539354" lon="11.957526755895913"><ele>662.0</ele><time>2026-04-26T08:52:22Z</time></trkpt><trkpt lat="43.56857368413401" lon="11.957491874642502"><ele>662.0</ele><time>2026-04-26T08:52:23Z</time></trkpt><trkpt lat="43.56862182548045" lon="11.957390925195545"><ele>662.0</ele><time>2026-04-26T08:52:24Z</time></trkpt><trkpt lat="43.56868667025172" lon="11.957336163953176"><ele>664.6666666666666</ele><time>2026-04-26T08:52:25Z</time></trkpt><trkpt lat="43.5687459896041" lon="11.957279118640168"><ele>667.3333333333333</ele><time>2026-04-26T08:52:26Z</time></trkpt><trkpt lat="43.568812063859404" lon="11.957203387557371"><ele>670.0</ele><time>2026-04-26T08:52:27Z</time></trkpt><trkpt lat="43.56886797907958" lon="11.957136054918367"><ele>672.6666666666666</ele><time>2026-04-26T08:52:28Z</time></trkpt><trkpt lat="43.56892628085682" lon="11.957069113298301"><ele>675.3333333333334</ele><time>2026-04-26T08:52:29Z</time></trkpt><trkpt lat="43.56901388181324" lon="11.956983180083895"><ele>678.0</ele><time>2026-04-26T08:52:31Z</time></trkpt><trkpt lat="43.56907265787135" lon="11.956880275567045"><ele>678.0</ele><time>2026-04-26T08:52:33Z</time></trkpt><trkpt lat="43.569160413927534" lon="11.956718957979769"><ele>678.0</ele><time>2026-04-26T08:52:35Z</time></trkpt><trkpt lat="43.56925090375784" lon="11.956664571275116"><ele>678.0</ele><time>2026-04-26T08:52:36Z</time></trkpt><trkpt lat="43.569292956928955" lon="11.956574569925879"><ele>678.0</ele><time>2026-04-26T08:52:37Z</time></trkpt><trkpt lat="43.56936878131538" lon="11.95643649613891"><ele>678.0</ele><time>2026-04-26T08:52:39Z</time></trkpt><trkpt lat="43.5694071775565" lon="11.95635943492164"><ele>676.2</ele><time>2026-04-26T08:52:40Z</time></trkpt><trkpt lat="43.5694518696638" lon="11.956244367229566"><ele>674.4</ele><time>2026-04-26T08:52:42Z</time></trkpt><trkpt lat="43.569407565273295" lon="11.95607133909737"><ele>672.6</ele><time>2026-04-26T08:52:44Z</time></trkpt><trkpt lat="43.56937790677661" lon="11.955981834541022"><ele>670.8000000000001</ele><time>2026-04-26T08:52:45Z</time></trkpt><trkpt lat="43.56934634571995" lon="11.955888335143518"><ele>669.0</ele><time>2026-04-26T08:52:46Z</time></trkpt><trkpt lat="43.56931155931293" lon="11.955786271956374"><ele>669.0</ele><time>2026-04-26T08:52:47Z</time></trkpt><trkpt lat="43.56925445703194" lon="11.955634534704462"><ele>669.0</ele><time>2026-04-26T08:52:49Z</time></trkpt><trkpt lat="43.56914089053112" lon="11.955529445415316"><ele>669.0</ele><time>2026-04-26T08:52:51Z</time></trkpt><trkpt lat="43.56904325875906" lon="11.955460401999545"><ele>669.0</ele><time>2026-04-26T08:52:53Z</time></trkpt><trkpt lat="43.5689807322897" lon="11.955411964510228"><ele>669.0</ele><time>2026-04-26T08:52:55Z</time></trkpt><trkpt lat="43.56890846174862" lon="11.955361936257885"><ele>669.0</ele><time>2026-04-26T08:52:57Z</time></trkpt><trkpt lat="43.56885432943758" lon="11.955261060980144"><ele>669.0</ele><time>2026-04-26T08:52:59Z</time></trkpt><trkpt lat="43.568810257099734" lon="11.955142841402129"><ele>669.0</ele><time>2026-04-26T08:53:01Z</time></trkpt><trkpt lat="43.56875229468864" lon="11.955046690579021"><ele>669.0</ele><time>2026-04-26T08:53:03Z</time></trkpt><trkpt lat="43.56870524065056" lon="11.954895409767042"><ele>669.0</ele><time>2026-04-26T08:53:05Z</time></trkpt><trkpt lat="43.56865585147027" lon="11.954767689219892"><ele>668.4000000000001</ele><time>2026-04-26T08:53:07Z</time></trkpt><trkpt lat="43.56862870208412" lon="11.954684735473931"><ele>667.8</ele><time>2026-04-26T08:53:08Z</time></trkpt><trkpt lat="43.568596363259736" lon="11.954540137460052"><ele>667.2</ele><time>2026-04-26T08:53:10Z</time></trkpt><trkpt lat="43.56858572860186" lon="11.954386006868098"><ele>666.5999999999999</ele><time>2026-04-26T08:53:12Z</time></trkpt><trkpt lat="43.56858803709802" lon="11.954255398620345"><ele>666.0</ele><time>2026-04-26T08:53:14Z</time></trkpt><trkpt lat="43.56861735214975" lon="11.954115900757968"><ele>666.0</ele><time>2026-04-26T08:53:17Z</time></trkpt><trkpt lat="43.568632328352216" lon="11.953980220458348"><ele>666.0</ele><time>2026-04-26T08:53:19Z</time></trkpt><trkpt lat="43.56862439362241" lon="11.953873669498167"><ele>666.0</ele><time>2026-04-26T08:53:20Z</time></trkpt><trkpt lat="43.56857574920127" lon="11.953797729049374"><ele>666.0</ele><time>2026-04-26T08:53:21Z</time></trkpt><trkpt lat="43.56848689851313" lon="11.953671525288215"><ele>666.0</ele><time>2026-04-26T08:53:23Z</time></trkpt><trkpt lat="43.56844415640291" lon="11.953596964295782"><ele>666.0</ele><time>2026-04-26T08:53:24Z</time></trkpt><trkpt lat="43.56836737961006" lon="11.953514594871036"><ele>666.0</ele><time>2026-04-26T08:53:26Z</time></trkpt><trkpt lat="43.56830882433061" lon="11.953451453007222"><ele>666.0</ele><time>2026-04-26T08:53:28Z</time></trkpt><trkpt lat="43.568239450627374" lon="11.953375831403628"><ele>666.0</ele><time>2026-04-26T08:53:30Z</time></trkpt><trkpt lat="43.568161766340936" lon="11.953290678347841"><ele>666.0</ele><time>2026-04-26T08:53:32Z</time></trkpt><trkpt lat="43.568097708602046" lon="11.953226371262476"><ele>666.0</ele><time>2026-04-26T08:53:34Z</time></trkpt><trkpt lat="43.56803041891306" lon="11.953158819333238"><ele>666.0</ele><time>2026-04-26T08:53:36Z</time></trkpt><trkpt lat="43.567960839342796" lon="11.953061241917332"><ele>666.5</ele><time>2026-04-26T08:53:39Z</time></trkpt><trkpt lat="43.56792851979456" lon="11.952964221511898"><ele>667.0</ele><time>2026-04-26T08:53:41Z</time></trkpt><trkpt lat="43.567913863503136" lon="11.952879124282862"><ele>667.5</ele><time>2026-04-26T08:53:42Z</time></trkpt><trkpt lat="43.567890325518555" lon="11.952785959372445"><ele>668.0</ele><time>2026-04-26T08:53:43Z</time></trkpt><trkpt lat="43.56782374142601" lon="11.952655389229019"><ele>668.5</ele><time>2026-04-26T08:53:45Z</time></trkpt><trkpt lat="43.56776867751202" lon="11.95259971784207"><ele>669.0</ele><time>2026-04-26T08:53:46Z</time></trkpt><trkpt lat="43.56770476222447" lon="11.95257702991271"><ele>669.8000000000001</ele><time>2026-04-26T08:53:47Z</time></trkpt><trkpt lat="43.56761190450143" lon="11.952499540417534"><ele>670.6</ele><time>2026-04-26T08:53:49Z</time></trkpt><trkpt lat="43.567497355452794" lon="11.95244492661307"><ele>671.4</ele><time>2026-04-26T08:53:51Z</time></trkpt><trkpt lat="43.56740060283025" lon="11.952421432477157"><ele>672.2</ele><time>2026-04-26T08:53:53Z</time></trkpt><trkpt lat="43.56734747089983" lon="11.952371949949285"><ele>673.0</ele><time>2026-04-26T08:53:55Z</time></trkpt><trkpt lat="43.56728566840816" lon="11.952337597617428"><ele>673.0</ele><time>2026-04-26T08:53:57Z</time></trkpt><trkpt lat="43.5671987326353" lon="11.952293296315077"><ele>673.0</ele><time>2026-04-26T08:54:00Z</time></trkpt><trkpt lat="43.56712205974085" lon="11.952213759826774"><ele>673.0</ele><time>2026-04-26T08:54:03Z</time></trkpt><trkpt lat="43.56706739213791" lon="11.952167955533003"><ele>673.0</ele><time>2026-04-26T08:54:05Z</time></trkpt><trkpt lat="43.56698346265743" lon="11.952128969943274"><ele>673.0</ele><time>2026-04-26T08:54:08Z</time></trkpt><trkpt lat="43.56690560553367" lon="11.952106867912336"><ele>673.0</ele><time>2026-04-26T08:54:11Z</time></trkpt><trkpt lat="43.566821018451826" lon="11.952075515007591"><ele>671.5714285714286</ele><time>2026-04-26T08:54:14Z</time></trkpt><trkpt lat="43.56674932517836" lon="11.95203225308325"><ele>670.1428571428571</ele><time>2026-04-26T08:54:17Z</time></trkpt><trkpt lat="43.56668304769775" lon="11.951986847016089"><ele>668.7142857142857</ele><time>2026-04-26T08:54:20Z</time></trkpt><trkpt lat="43.566616983636294" lon="11.95194556481906"><ele>667.2857142857142</ele><time>2026-04-26T08:54:23Z</time></trkpt><trkpt lat="43.566612020737935" lon="11.951845629731261"><ele>665.8571428571429</ele><time>2026-04-26T08:54:26Z</time></trkpt><trkpt lat="43.56662271123756" lon="11.951756053812554"><ele>664.4285714285713</ele><time>2026-04-26T08:54:29Z</time></trkpt><trkpt lat="43.56666571322685" lon="11.951664221601657"><ele>663.0</ele><time>2026-04-26T08:54:33Z</time></trkpt><trkpt lat="43.56670784325706" lon="11.951592360563406"><ele>663.0</ele><time>2026-04-26T08:54:35Z</time></trkpt><trkpt lat="43.56676214844048" lon="11.951491876684731"><ele>663.0</ele><time>2026-04-26T08:54:38Z</time></trkpt><trkpt lat="43.56679733293691" lon="11.951395415618682"><ele>663.0</ele><time>2026-04-26T08:54:40Z</time></trkpt><trkpt lat="43.56682002254433" lon="11.951243491381012"><ele>663.0</ele><time>2026-04-26T08:54:42Z</time></trkpt><trkpt lat="43.56681046169993" lon="11.951095905970812"><ele>663.0</ele><time>2026-04-26T08:54:44Z</time></trkpt><trkpt lat="43.56680441177827" lon="11.950982208102376"><ele>663.0</ele><time>2026-04-26T08:54:46Z</time></trkpt><trkpt lat="43.56681153179868" lon="11.950890313758373"><ele>663.0</ele><time>2026-04-26T08:54:48Z</time></trkpt><trkpt lat="43.56681902031059" lon="11.95078940225291"><ele>663.0</ele><time>2026-04-26T08:54:50Z</time></trkpt><trkpt lat="43.56682615139647" lon="11.95069330743973"><ele>663.0</ele><time>2026-04-26T08:54:51Z</time></trkpt><trkpt lat="43.56683366774491" lon="11.950597472680009"><ele>663.0</ele><time>2026-04-26T08:54:52Z</time></trkpt><trkpt lat="43.56685095409693" lon="11.950405201431277"><ele>663.0</ele><time>2026-04-26T08:54:54Z</time></trkpt><trkpt lat="43.56686733309097" lon="11.95025619188908"><ele>662.0</ele><time>2026-04-26T08:54:56Z</time></trkpt><trkpt lat="43.566871937404144" lon="11.950149790924138"><ele>661.0</ele><time>2026-04-26T08:54:57Z</time></trkpt><trkpt lat="43.56684509014414" lon="11.95002932413124"><ele>660.0</ele><time>2026-04-26T08:54:58Z</time></trkpt><trkpt lat="43.566849464886225" lon="11.949929403229607"><ele>659.0</ele><time>2026-04-26T08:54:59Z</time></trkpt><trkpt lat="43.566836911330704" lon="11.949779325410564"><ele>658.0</ele><time>2026-04-26T08:55:01Z</time></trkpt><trkpt lat="43.566775213923805" lon="11.949637197761067"><ele>658.0</ele><time>2026-04-26T08:55:03Z</time></trkpt><trkpt lat="43.566693599226184" lon="11.949611939466614"><ele>658.0</ele><time>2026-04-26T08:55:04Z</time></trkpt><trkpt lat="43.56664589005437" lon="11.949542885346158"><ele>658.0</ele><time>2026-04-26T08:55:05Z</time></trkpt><trkpt lat="43.566584141893564" lon="11.949499394938915"><ele>658.0</ele><time>2026-04-26T08:55:06Z</time></trkpt><trkpt lat="43.56649148551182" lon="11.94940548907479"><ele>658.0</ele><time>2026-04-26T08:55:08Z</time></trkpt><trkpt lat="43.566395651719546" lon="11.949333026884146"><ele>658.0</ele><time>2026-04-26T08:55:10Z</time></trkpt><trkpt lat="43.566316084183256" lon="11.949247126183115"><ele>660.8</ele><time>2026-04-26T08:55:12Z</time></trkpt><trkpt lat="43.566272779707504" lon="11.949122165378448"><ele>663.5999999999999</ele><time>2026-04-26T08:55:14Z</time></trkpt><trkpt lat="43.56627405754023" lon="11.94901284618657"><ele>666.4000000000001</ele><time>2026-04-26T08:55:16Z</time></trkpt><trkpt lat="43.566309034238174" lon="11.948865499441977"><ele>669.2</ele><time>2026-04-26T08:55:18Z</time></trkpt><trkpt lat="43.56634722871455" lon="11.948720332862996"><ele>672.0</ele><time>2026-04-26T08:55:20Z</time></trkpt><trkpt lat="43.5663571554957" lon="11.948580111639155"><ele>672.0</ele><time>2026-04-26T08:55:22Z</time></trkpt><trkpt lat="43.56633782563481" lon="11.948496796330382"><ele>672.0</ele><time>2026-04-26T08:55:23Z</time></trkpt><trkpt lat="43.5662973553692" lon="11.948427051255978"><ele>672.0</ele><time>2026-04-26T08:55:24Z</time></trkpt><trkpt lat="43.566244039986096" lon="11.948375723700462"><ele>672.0</ele><time>2026-04-26T08:55:25Z</time></trkpt><trkpt lat="43.56619298040264" lon="11.948323989693835"><ele>672.0</ele><time>2026-04-26T08:55:26Z</time></trkpt><trkpt lat="43.566092491726884" lon="11.948226070631549"><ele>672.0</ele><time>2026-04-26T08:55:28Z</time></trkpt><trkpt lat="43.56602957538831" lon="11.948169626150406"><ele>669.8333333333334</ele><time>2026-04-26T08:55:29Z</time></trkpt><trkpt lat="43.56592468330085" lon="11.948072789599061"><ele>667.6666666666666</ele><time>2026-04-26T08:55:31Z</time></trkpt><trkpt lat="43.56586922261237" lon="11.948013325758236"><ele>665.5</ele><time>2026-04-26T08:55:32Z</time></trkpt><trkpt lat="43.56581925577978" lon="11.947958573497994"><ele>663.3333333333333</ele><time>2026-04-26T08:55:33Z</time></trkpt><trkpt lat="43.56576356382655" lon="11.947895135754484"><ele>661.1666666666666</ele><time>2026-04-26T08:55:34Z</time></trkpt><trkpt lat="43.56567809579883" lon="11.947791963344855"><ele>659.0</ele><time>2026-04-26T08:55:36Z</time></trkpt><trkpt lat="43.56560689053231" lon="11.94772196724361"><ele>659.0</ele><time>2026-04-26T08:55:37Z</time></trkpt><trkpt lat="43.56553704997881" lon="11.94761210053395"><ele>659.0</ele><time>2026-04-26T08:55:38Z</time></trkpt><trkpt lat="43.56548512444527" lon="11.947533803737203"><ele>659.0</ele><time>2026-04-26T08:55:39Z</time></trkpt><trkpt lat="43.565437206279725" lon="11.947450013470519"><ele>659.0</ele><time>2026-04-26T08:55:41Z</time></trkpt><trkpt lat="43.56534089087809" lon="11.947367033776175"><ele>659.0</ele><time>2026-04-26T08:55:43Z</time></trkpt><trkpt lat="43.56526582437398" lon="11.947316916466738"><ele>658.6666666666666</ele><time>2026-04-26T08:55:44Z</time></trkpt><trkpt lat="43.5651936200371" lon="11.947270960085092"><ele>658.3333333333333</ele><time>2026-04-26T08:55:45Z</time></trkpt><trkpt lat="43.565122769923505" lon="11.947224314977804"><ele>658.0</ele><time>2026-04-26T08:55:46Z</time></trkpt><trkpt lat="43.565034487053865" lon="11.947163537235074"><ele>657.6666666666666</ele><time>2026-04-26T08:55:47Z</time></trkpt><trkpt lat="43.5649557576235" lon="11.947134326468067"><ele>657.3333333333334</ele><time>2026-04-26T08:55:48Z</time></trkpt><trkpt lat="43.56490461150707" lon="11.947083601419891"><ele>657.0</ele><time>2026-04-26T08:55:49Z</time></trkpt><trkpt lat="43.564848663806934" lon="11.947030279217561"><ele>657.0</ele><time>2026-04-26T08:55:50Z</time></trkpt><trkpt lat="43.5647581635688" lon="11.946958296755444"><ele>657.0</ele><time>2026-04-26T08:55:52Z</time></trkpt><trkpt lat="43.564696941110405" lon="11.94690143093583"><ele>657.0</ele><time>2026-04-26T08:55:54Z</time></trkpt><trkpt lat="43.56463146542754" lon="11.946832168974835"><ele>657.0</ele><time>2026-04-26T08:55:56Z</time></trkpt><trkpt lat="43.564576003077796" lon="11.946764578762497"><ele>657.0</ele><time>2026-04-26T08:55:58Z</time></trkpt><trkpt lat="43.5645011215902" lon="11.946702316443512"><ele>657.0</ele><time>2026-04-26T08:55:59Z</time></trkpt><trkpt lat="43.56441440193179" lon="11.946670520351343"><ele>657.5</ele><time>2026-04-26T08:56:01Z</time></trkpt><trkpt lat="43.564331028198886" lon="11.946634349856602"><ele>658.0</ele><time>2026-04-26T08:56:03Z</time></trkpt><trkpt lat="43.564259011625815" lon="11.946592134685192"><ele>658.5</ele><time>2026-04-26T08:56:05Z</time></trkpt><trkpt lat="43.56418570859092" lon="11.946545458695065"><ele>659.0</ele><time>2026-04-26T08:56:07Z</time></trkpt><trkpt lat="43.56412524481537" lon="11.946502802678651"><ele>659.5</ele><time>2026-04-26T08:56:09Z</time></trkpt><trkpt lat="43.56406323246399" lon="11.946469338024823"><ele>660.0</ele><time>2026-04-26T08:56:11Z</time></trkpt><trkpt lat="43.5640099839422" lon="11.946404100141093"><ele>660.0000000000001</ele><time>2026-04-26T08:56:13Z</time></trkpt><trkpt lat="43.56397182991848" lon="11.946318894048352"><ele>660.0</ele><time>2026-04-26T08:56:15Z</time></trkpt><trkpt lat="43.563926100874596" lon="11.94624242281364"><ele>660.0</ele><time>2026-04-26T08:56:17Z</time></trkpt><trkpt lat="43.56388488575996" lon="11.946155407021424"><ele>660.0</ele><time>2026-04-26T08:56:19Z</time></trkpt><trkpt lat="43.563866641744774" lon="11.946069113994765"><ele>660.0</ele><time>2026-04-26T08:56:21Z</time></trkpt><trkpt lat="43.563856978983324" lon="11.945958122173765"><ele>660.0000000000001</ele><time>2026-04-26T08:56:23Z</time></trkpt><trkpt lat="43.56384401002474" lon="11.94586695129908"><ele>660.0</ele><time>2026-04-26T08:56:25Z</time></trkpt><trkpt lat="43.5638244262346" lon="11.945763915113194"><ele>660.3333333333334</ele><time>2026-04-26T08:56:27Z</time></trkpt><trkpt lat="43.56380757814525" lon="11.945659315169909"><ele>660.6666666666666</ele><time>2026-04-26T08:56:29Z</time></trkpt><trkpt lat="43.56379662487563" lon="11.94554278228521"><ele>661.0</ele><time>2026-04-26T08:56:31Z</time></trkpt><trkpt lat="43.563790548651745" lon="11.9454297196315"><ele>661.3333333333333</ele><time>2026-04-26T08:56:33Z</time></trkpt><trkpt lat="43.5637844606818" lon="11.945320417051402"><ele>661.6666666666666</ele><time>2026-04-26T08:56:35Z</time></trkpt><trkpt lat="43.5637779141074" lon="11.945202880843292"><ele>662.0</ele><time>2026-04-26T08:56:37Z</time></trkpt><trkpt lat="43.5637627489089" lon="11.945083020055533"><ele>660.6666666666666</ele><time>2026-04-26T08:56:39Z</time></trkpt><trkpt lat="43.563757320144674" lon="11.944986261989644"><ele>659.3333333333333</ele><time>2026-04-26T08:56:41Z</time></trkpt><trkpt lat="43.56374584056749" lon="11.944843519019823"><ele>658.0</ele><time>2026-04-26T08:56:43Z</time></trkpt><trkpt lat="43.563721036395634" lon="11.944753225994088"><ele>656.6666666666666</ele><time>2026-04-26T08:56:44Z</time></trkpt><trkpt lat="43.5636937531247" lon="11.94467419720058"><ele>655.3333333333334</ele><time>2026-04-26T08:56:45Z</time></trkpt><trkpt lat="43.56365386052394" lon="11.94453682088899"><ele>654.0</ele><time>2026-04-26T08:56:47Z</time></trkpt><trkpt lat="43.56364559920887" lon="11.944420436683542"><ele>648.2</ele><time>2026-04-26T08:56:49Z</time></trkpt><trkpt lat="43.56362452735501" lon="11.944292300123076"><ele>642.4000000000001</ele><time>2026-04-26T08:56:51Z</time></trkpt><trkpt lat="43.563550479703295" lon="11.944174559116304"><ele>636.6</ele><time>2026-04-26T08:56:53Z</time></trkpt><trkpt lat="43.56347736770839" lon="11.944094114976147"><ele>630.8</ele><time>2026-04-26T08:56:55Z</time></trkpt><trkpt lat="43.56339853376674" lon="11.943990811474286"><ele>625.0</ele><time>2026-04-26T08:56:57Z</time></trkpt><trkpt lat="43.56332496910182" lon="11.943886561237514"><ele>625.0</ele><time>2026-04-26T08:56:59Z</time></trkpt><trkpt lat="43.56323652780156" lon="11.943749701468166"><ele>625.0</ele><time>2026-04-26T08:57:01Z</time></trkpt><trkpt lat="43.56319623689825" lon="11.943671765938618"><ele>625.0</ele><time>2026-04-26T08:57:02Z</time></trkpt><trkpt lat="43.563126124052246" lon="11.943546514694074"><ele>625.0</ele><time>2026-04-26T08:57:04Z</time></trkpt><trkpt lat="43.56306062048938" lon="11.943419359614195"><ele>625.0</ele><time>2026-04-26T08:57:06Z</time></trkpt><trkpt lat="43.56301866151757" lon="11.943282959818548"><ele>626.2</ele><time>2026-04-26T08:57:08Z</time></trkpt><trkpt lat="43.56297980227436" lon="11.943149594392143"><ele>627.4</ele><time>2026-04-26T08:57:10Z</time></trkpt><trkpt lat="43.56295286627181" lon="11.943009398790329"><ele>628.6</ele><time>2026-04-26T08:57:12Z</time></trkpt><trkpt lat="43.562973222691355" lon="11.9428708956786"><ele>629.8</ele><time>2026-04-26T08:57:14Z</time></trkpt><trkpt lat="43.563005786134234" lon="11.942741578385576"><ele>631.0</ele><time>2026-04-26T08:57:16Z</time></trkpt><trkpt lat="43.5630094239574" lon="11.942582407353084"><ele>630.0</ele><time>2026-04-26T08:57:18Z</time></trkpt><trkpt lat="43.56296830153163" lon="11.942512767461615"><ele>629.0</ele><time>2026-04-26T08:57:19Z</time></trkpt><trkpt lat="43.56291261716241" lon="11.942463843742013"><ele>628.0</ele><time>2026-04-26T08:57:20Z</time></trkpt><trkpt lat="43.562853211686566" lon="11.942417660526617"><ele>627.0</ele><time>2026-04-26T08:57:21Z</time></trkpt><trkpt lat="43.56279498223195" lon="11.942375883354321"><ele>626.0</ele><time>2026-04-26T08:57:22Z</time></trkpt><trkpt lat="43.56271811315125" lon="11.942311312994205"><ele>625.0</ele><time>2026-04-26T08:57:24Z</time></trkpt><trkpt lat="43.56266852252504" lon="11.942201088941145"><ele>624.0</ele><time>2026-04-26T08:57:26Z</time></trkpt><trkpt lat="43.56262666957355" lon="11.94208550039297"><ele>620.0</ele><time>2026-04-26T08:57:28Z</time></trkpt><trkpt lat="43.56256465165273" lon="11.941947532154636"><ele>616.0</ele><time>2026-04-26T08:57:30Z</time></trkpt><trkpt lat="43.562497369948396" lon="11.941835393874287"><ele>612.0</ele><time>2026-04-26T08:57:32Z</time></trkpt><trkpt lat="43.56242629415128" lon="11.941727943924151"><ele>608.0</ele><time>2026-04-26T08:57:34Z</time></trkpt><trkpt lat="43.562354947655564" lon="11.941625076182987"><ele>604.0</ele><time>2026-04-26T08:57:36Z</time></trkpt><trkpt lat="43.56230229694424" lon="11.941551076409153"><ele>604.0</ele><time>2026-04-26T08:57:38Z</time></trkpt><trkpt lat="43.56225956432411" lon="11.941464950755812"><ele>604.0</ele><time>2026-04-26T08:57:40Z</time></trkpt><trkpt lat="43.56226145790209" lon="11.941361185106151"><ele>604.0</ele><time>2026-04-26T08:57:42Z</time></trkpt><trkpt lat="43.56220814869011" lon="11.941220877035054"><ele>604.0</ele><time>2026-04-26T08:57:44Z</time></trkpt><trkpt lat="43.56206223153965" lon="11.94114353788318"><ele>604.0</ele><time>2026-04-26T08:57:46Z</time></trkpt><trkpt lat="43.561959726233646" lon="11.941092101102813"><ele>602.2</ele><time>2026-04-26T08:57:47Z</time></trkpt><trkpt lat="43.561848945688475" lon="11.941029875376405"><ele>600.4</ele><time>2026-04-26T08:57:48Z</time></trkpt><trkpt lat="43.56173277565882" lon="11.940962535651558"><ele>598.6</ele><time>2026-04-26T08:57:49Z</time></trkpt><trkpt lat="43.561633825999685" lon="11.940904624021485"><ele>596.8</ele><time>2026-04-26T08:57:50Z</time></trkpt><trkpt lat="43.561550009716576" lon="11.940854363785512"><ele>595.0</ele><time>2026-04-26T08:57:51Z</time></trkpt><trkpt lat="43.561472589771846" lon="11.94080679765083"><ele>595.0</ele><time>2026-04-26T08:57:52Z</time></trkpt><trkpt lat="43.56140325269645" lon="11.940758975993308"><ele>595.0</ele><time>2026-04-26T08:57:53Z</time></trkpt><trkpt lat="43.561339173589865" lon="11.940706408931929"><ele>595.0</ele><time>2026-04-26T08:57:54Z</time></trkpt><trkpt lat="43.56128303618139" lon="11.940654386243287"><ele>595.0</ele><time>2026-04-26T08:57:55Z</time></trkpt><trkpt lat="43.561223169086766" lon="11.940595280780155"><ele>595.0</ele><time>2026-04-26T08:57:56Z</time></trkpt><trkpt lat="43.561162427223444" lon="11.94053135254025"><ele>595.0</ele><time>2026-04-26T08:57:57Z</time></trkpt><trkpt lat="43.56109600391118" lon="11.94045564103189"><ele>592.8333333333334</ele><time>2026-04-26T08:57:58Z</time></trkpt><trkpt lat="43.561027014865616" lon="11.940399962252995"><ele>590.6666666666667</ele><time>2026-04-26T08:57:59Z</time></trkpt><trkpt lat="43.5609803462268" lon="11.940331545678543"><ele>588.5</ele><time>2026-04-26T08:58:00Z</time></trkpt><trkpt lat="43.56091636077369" lon="11.940257349136951"><ele>586.3333333333334</ele><time>2026-04-26T08:58:01Z</time></trkpt><trkpt lat="43.5608552510245" lon="11.940181166559169"><ele>584.1666666666666</ele><time>2026-04-26T08:58:02Z</time></trkpt><trkpt lat="43.56078995325007" lon="11.940127385698803"><ele>582.0</ele><time>2026-04-26T08:58:03Z</time></trkpt><trkpt lat="43.5607216430135" lon="11.940070585115185"><ele>582.3333333333334</ele><time>2026-04-26T08:58:04Z</time></trkpt><trkpt lat="43.56064539953373" lon="11.940001854581714"><ele>582.6666666666666</ele><time>2026-04-26T08:58:05Z</time></trkpt><trkpt lat="43.56057679559583" lon="11.939939246718236"><ele>583.0</ele><time>2026-04-26T08:58:06Z</time></trkpt><trkpt lat="43.56051343839682" lon="11.939876707254971"><ele>583.3333333333333</ele><time>2026-04-26T08:58:07Z</time></trkpt><trkpt lat="43.560457894275" lon="11.939808944981632"><ele>583.6666666666666</ele><time>2026-04-26T08:58:08Z</time></trkpt><trkpt lat="43.560409257451944" lon="11.939740549450516"><ele>584.0</ele><time>2026-04-26T08:58:09Z</time></trkpt><trkpt lat="43.56032404577874" lon="11.939609038539908"><ele>584.0</ele><time>2026-04-26T08:58:11Z</time></trkpt><trkpt lat="43.5602774222391" lon="11.939538123560634"><ele>584.0</ele><time>2026-04-26T08:58:12Z</time></trkpt><trkpt lat="43.56019286362437" lon="11.939410854178018"><ele>584.0</ele><time>2026-04-26T08:58:14Z</time></trkpt><trkpt lat="43.56013265740809" lon="11.939327959138385"><ele>584.0</ele><time>2026-04-26T08:58:15Z</time></trkpt><trkpt lat="43.56006969099799" lon="11.939242512207171"><ele>584.0</ele><time>2026-04-26T08:58:16Z</time></trkpt><trkpt lat="43.560016604657456" lon="11.939165399760336"><ele>584.0</ele><time>2026-04-26T08:58:17Z</time></trkpt><trkpt lat="43.55995990851553" lon="11.939073053364604"><ele>584.4</ele><time>2026-04-26T08:58:18Z</time></trkpt><trkpt lat="43.55989981914981" lon="11.938978757955937"><ele>584.8</ele><time>2026-04-26T08:58:19Z</time></trkpt><trkpt lat="43.559838302985206" lon="11.938894058201164"><ele>585.2</ele><time>2026-04-26T08:58:20Z</time></trkpt><trkpt lat="43.55977229625747" lon="11.938819137845144"><ele>585.6</ele><time>2026-04-26T08:58:21Z</time></trkpt><trkpt lat="43.55969243824889" lon="11.938749071856344"><ele>586.0</ele><time>2026-04-26T08:58:22Z</time></trkpt><trkpt lat="43.55960403042478" lon="11.938668692301542"><ele>583.8</ele><time>2026-04-26T08:58:23Z</time></trkpt><trkpt lat="43.55951777921791" lon="11.938606186442852"><ele>581.6</ele><time>2026-04-26T08:58:24Z</time></trkpt><trkpt lat="43.559437510010795" lon="11.93854202617707"><ele>579.4</ele><time>2026-04-26T08:58:25Z</time></trkpt><trkpt lat="43.559356244935685" lon="11.938477069839141"><ele>577.2</ele><time>2026-04-26T08:58:26Z</time></trkpt><trkpt lat="43.55927314144927" lon="11.938412736281078"><ele>575.0</ele><time>2026-04-26T08:58:27Z</time></trkpt><trkpt lat="43.55918140502284" lon="11.93837703095964"><ele>575.0</ele><time>2026-04-26T08:58:28Z</time></trkpt><trkpt lat="43.559105586384504" lon="11.93832897645497"><ele>575.0</ele><time>2026-04-26T08:58:29Z</time></trkpt><trkpt lat="43.559042521488024" lon="11.938307826214281"><ele>575.0</ele><time>2026-04-26T08:58:30Z</time></trkpt><trkpt lat="43.55897558679956" lon="11.938313725501601"><ele>575.0</ele><time>2026-04-26T08:58:31Z</time></trkpt><trkpt lat="43.55891046178286" lon="11.938355085565506"><ele>575.0</ele><time>2026-04-26T08:58:32Z</time></trkpt><trkpt lat="43.55885086022584" lon="11.938414669117437"><ele>575.0</ele><time>2026-04-26T08:58:33Z</time></trkpt><trkpt lat="43.55879590755255" lon="11.938489776514967"><ele>575.0</ele><time>2026-04-26T08:58:33.999Z</time></trkpt><trkpt lat="43.5587138133378" lon="11.938562423233249"><ele>571.8333333333333</ele><time>2026-04-26T08:58:35.999Z</time></trkpt><trkpt lat="43.558658574911796" lon="11.93847035424892"><ele>568.6666666666666</ele><time>2026-04-26T08:58:37.999Z</time></trkpt><trkpt lat="43.55861688468796" lon="11.938395808163618"><ele>565.5</ele><time>2026-04-26T08:58:38.999Z</time></trkpt><trkpt lat="43.55857616160841" lon="11.938301068164467"><ele>562.3333333333334</ele><time>2026-04-26T08:58:39.999Z</time></trkpt><trkpt lat="43.558500795505495" lon="11.938180963736091"><ele>559.1666666666667</ele><time>2026-04-26T08:58:41.999Z</time></trkpt><trkpt lat="43.55842426724722" lon="11.938114268021266"><ele>556.0</ele><time>2026-04-26T08:58:43.999Z</time></trkpt><trkpt lat="43.5583615676524" lon="11.938145486037122"><ele>556.0</ele><time>2026-04-26T08:58:45.999Z</time></trkpt><trkpt lat="43.55832845213891" lon="11.938285923751357"><ele>556.0</ele><time>2026-04-26T08:58:47.999Z</time></trkpt><trkpt lat="43.55827768421832" lon="11.93836733856364"><ele>556.0</ele><time>2026-04-26T08:58:49.999Z</time></trkpt><trkpt lat="43.55819046911761" lon="11.938309739749673"><ele>556.0</ele><time>2026-04-26T08:58:51.999Z</time></trkpt><trkpt lat="43.55811525557912" lon="11.93820320789209"><ele>556.0</ele><time>2026-04-26T08:58:53.999Z</time></trkpt><trkpt lat="43.558065787905804" lon="11.938077036302342"><ele>556.0</ele><time>2026-04-26T08:58:55.999Z</time></trkpt><trkpt lat="43.558063881986676" lon="11.937910256159865"><ele>556.0</ele><time>2026-04-26T08:58:57.999Z</time></trkpt><trkpt lat="43.558060040168634" lon="11.937747273078381"><ele>556.0</ele><time>2026-04-26T08:58:59.999Z</time></trkpt><trkpt lat="43.55805789438445" lon="11.937597146750335"><ele>556.0</ele><time>2026-04-26T08:59:01.999Z</time></trkpt><trkpt lat="43.55793844450221" lon="11.93748374166804"><ele>550.0</ele><time>2026-04-26T08:59:03.999Z</time></trkpt><trkpt lat="43.55785414930275" lon="11.937409196815928"><ele>544.0</ele><time>2026-04-26T08:59:04.999Z</time></trkpt><trkpt lat="43.557754185110944" lon="11.937329031888932"><ele>538.0</ele><time>2026-04-26T08:59:05.999Z</time></trkpt><trkpt lat="43.5576411201111" lon="11.937269946937922"><ele>532.0</ele><time>2026-04-26T08:59:06.999Z</time></trkpt><trkpt lat="43.55753729866798" lon="11.93720000715621"><ele>532.0</ele><time>2026-04-26T08:59:07.999Z</time></trkpt><trkpt lat="43.557428898775434" lon="11.937132726234424"><ele>532.0</ele><time>2026-04-26T08:59:08.999Z</time></trkpt><trkpt lat="43.55733027458331" lon="11.937036567805459"><ele>532.0</ele><time>2026-04-26T08:59:09.999Z</time></trkpt><trkpt lat="43.557235469959345" lon="11.936966070788912"><ele>532.0</ele><time>2026-04-26T08:59:10.999Z</time></trkpt><trkpt lat="43.557164520669104" lon="11.936913312627636"><ele>532.0</ele><time>2026-04-26T08:59:11.999Z</time></trkpt><trkpt lat="43.55708217244267" lon="11.936849790859311"><ele>528.8333333333334</ele><time>2026-04-26T08:59:13.999Z</time></trkpt><trkpt lat="43.556971299136634" lon="11.936779720972796"><ele>525.6666666666667</ele><time>2026-04-26T08:59:15.999Z</time></trkpt><trkpt lat="43.55688718906358" lon="11.936725696040234"><ele>522.5</ele><time>2026-04-26T08:59:17.999Z</time></trkpt><trkpt lat="43.55682527196579" lon="11.936666819849675"><ele>519.3333333333334</ele><time>2026-04-26T08:59:19.999Z</time></trkpt><trkpt lat="43.55676197634125" lon="11.936630793120939"><ele>516.1666666666666</ele><time>2026-04-26T08:59:21.999Z</time></trkpt><trkpt lat="43.55669971220634" lon="11.936658653477215"><ele>513.0</ele><time>2026-04-26T08:59:23.999Z</time></trkpt><trkpt lat="43.55671036911523" lon="11.936798463083427"><ele>512.3333333333334</ele><time>2026-04-26T08:59:24.999Z</time></trkpt><trkpt lat="43.55672491645693" lon="11.936902708695037"><ele>511.66666666666663</ele><time>2026-04-26T08:59:25.999Z</time></trkpt><trkpt lat="43.55674068826911" lon="11.936991751333887"><ele>511.0</ele><time>2026-04-26T08:59:26.999Z</time></trkpt><trkpt lat="43.55677880652187" lon="11.937116826743207"><ele>510.3333333333333</ele><time>2026-04-26T08:59:28.999Z</time></trkpt><trkpt lat="43.556847307529665" lon="11.937228830339055"><ele>509.66666666666663</ele><time>2026-04-26T08:59:30.999Z</time></trkpt><trkpt lat="43.55685007195216" lon="11.937316444267728"><ele>509.0</ele><time>2026-04-26T08:59:31.999Z</time></trkpt><trkpt lat="43.55681146835892" lon="11.93747000231535"><ele>508.99999999999994</ele><time>2026-04-26T08:59:33.999Z</time></trkpt><trkpt lat="43.55675100315927" lon="11.937550892718544"><ele>509.0</ele><time>2026-04-26T08:59:34.999Z</time></trkpt><trkpt lat="43.556692518472424" lon="11.937625011516031"><ele>509.0</ele><time>2026-04-26T08:59:35.999Z</time></trkpt><trkpt lat="43.556644463147585" lon="11.93771350014943"><ele>509.0</ele><time>2026-04-26T08:59:36.999Z</time></trkpt><trkpt lat="43.55663583658756" lon="11.93780600091207"><ele>508.99999999999994</ele><time>2026-04-26T08:59:37.999Z</time></trkpt><trkpt lat="43.55662979661077" lon="11.937931690913548"><ele>509.0</ele><time>2026-04-26T08:59:38.999Z</time></trkpt><trkpt lat="43.556649738382106" lon="11.938049211118567"><ele>507.8333333333333</ele><time>2026-04-26T08:59:39.999Z</time></trkpt><trkpt lat="43.55666951251863" lon="11.938179236825004"><ele>506.66666666666663</ele><time>2026-04-26T08:59:40.999Z</time></trkpt><trkpt lat="43.55669786250972" lon="11.938303421354602"><ele>505.5</ele><time>2026-04-26T08:59:41.999Z</time></trkpt><trkpt lat="43.55672268072002" lon="11.938414392003427"><ele>504.33333333333337</ele><time>2026-04-26T08:59:42.999Z</time></trkpt><trkpt lat="43.55674756850861" lon="11.938527463312676"><ele>503.1666666666667</ele><time>2026-04-26T08:59:43.999Z</time></trkpt><trkpt lat="43.556785333525326" lon="11.93863372996897"><ele>502.0</ele><time>2026-04-26T08:59:44.999Z</time></trkpt><trkpt lat="43.55680845468956" lon="11.93874779430409"><ele>503.20000000000005</ele><time>2026-04-26T08:59:45.999Z</time></trkpt><trkpt lat="43.55684373379511" lon="11.938874810652504"><ele>504.40000000000003</ele><time>2026-04-26T08:59:46.999Z</time></trkpt><trkpt lat="43.55689548141605" lon="11.939007629253783"><ele>505.59999999999997</ele><time>2026-04-26T08:59:47.999Z</time></trkpt><trkpt lat="43.55695648588355" lon="11.939116401409649"><ele>506.79999999999995</ele><time>2026-04-26T08:59:48.999Z</time></trkpt><trkpt lat="43.55701847783014" lon="11.939197181404802"><ele>508.0</ele><time>2026-04-26T08:59:49.999Z</time></trkpt><trkpt lat="43.55707186328533" lon="11.939264052627085"><ele>508.0</ele><time>2026-04-26T08:59:50.999Z</time></trkpt><trkpt lat="43.55711016324793" lon="11.939348382064107"><ele>507.99999999999994</ele><time>2026-04-26T08:59:51.999Z</time></trkpt><trkpt lat="43.557171695774805" lon="11.939477289010412"><ele>507.99999999999994</ele><time>2026-04-26T08:59:53.999Z</time></trkpt><trkpt lat="43.557081107633785" lon="11.939577517820213"><ele>508.0</ele><time>2026-04-26T08:59:55.999Z</time></trkpt><trkpt lat="43.55696295103973" lon="11.939516450893304"><ele>508.0</ele><time>2026-04-26T08:59:57.999Z</time></trkpt><trkpt lat="43.55691702004758" lon="11.939382644304946"><ele>503.25</ele><time>2026-04-26T08:59:58.999Z</time></trkpt><trkpt lat="43.55682014291211" lon="11.939277518884706"><ele>498.5</ele><time>2026-04-26T08:59:59.999Z</time></trkpt><trkpt lat="43.55670584633507" lon="11.939144414616534"><ele>493.75</ele><time>2026-04-26T09:00:00.999Z</time></trkpt><trkpt lat="43.556578590880896" lon="11.93898910390037"><ele>489.0</ele><time>2026-04-26T09:00:01.999Z</time></trkpt><trkpt lat="43.55647882540796" lon="11.938859668665044"><ele>489.0</ele><time>2026-04-26T09:00:02.999Z</time></trkpt><trkpt lat="43.55638663403962" lon="11.93873512851603"><ele>489.0</ele><time>2026-04-26T09:00:03.999Z</time></trkpt><trkpt lat="43.55629502340061" lon="11.93861598779441"><ele>489.0</ele><time>2026-04-26T09:00:04.999Z</time></trkpt><trkpt lat="43.55620058870052" lon="11.938515421577582"><ele>489.0</ele><time>2026-04-26T09:00:05.999Z</time></trkpt><trkpt lat="43.556149446277374" lon="11.938396184664372"><ele>486.0</ele><time>2026-04-26T09:00:06.999Z</time></trkpt><trkpt lat="43.5561019110291" lon="11.938286125625593"><ele>483.0</ele><time>2026-04-26T09:00:07.999Z</time></trkpt><trkpt lat="43.556052390736546" lon="11.93816729532075"><ele>480.0</ele><time>2026-04-26T09:00:08.999Z</time></trkpt><trkpt lat="43.556000486362215" lon="11.938051798778202"><ele>477.0</ele><time>2026-04-26T09:00:09.999Z</time></trkpt><trkpt lat="43.55594377914294" lon="11.937934601599604"><ele>474.0</ele><time>2026-04-26T09:00:10.999Z</time></trkpt><trkpt lat="43.55587497235395" lon="11.937839968505838"><ele>474.0</ele><time>2026-04-26T09:00:11.999Z</time></trkpt><trkpt lat="43.5557578644452" lon="11.937827617265322"><ele>474.0</ele><time>2026-04-26T09:00:12.999Z</time></trkpt><trkpt lat="43.55564509684133" lon="11.9378079141779"><ele>474.0</ele><time>2026-04-26T09:00:13.999Z</time></trkpt><trkpt lat="43.55552612875094" lon="11.93780700016565"><ele>474.0</ele><time>2026-04-26T09:00:14.999Z</time></trkpt><trkpt lat="43.55542491200314" lon="11.937761526666144"><ele>472.4</ele><time>2026-04-26T09:00:15.999Z</time></trkpt><trkpt lat="43.55532590453855" lon="11.937736458584551"><ele>470.79999999999995</ele><time>2026-04-26T09:00:16.999Z</time></trkpt><trkpt lat="43.55522571669396" lon="11.937703267201275"><ele>469.20000000000005</ele><time>2026-04-26T09:00:17.999Z</time></trkpt><trkpt lat="43.55511998640844" lon="11.937654915880556"><ele>467.6</ele><time>2026-04-26T09:00:18.999Z</time></trkpt><trkpt lat="43.55501347582584" lon="11.937579732096772"><ele>466.0</ele><time>2026-04-26T09:00:19.999Z</time></trkpt><trkpt lat="43.554914213420375" lon="11.937493969413955"><ele>466.0</ele><time>2026-04-26T09:00:20.999Z</time></trkpt><trkpt lat="43.55481398515891" lon="11.937405550515422"><ele>466.0</ele><time>2026-04-26T09:00:21.999Z</time></trkpt><trkpt lat="43.554695589247665" lon="11.937290981097334"><ele>466.0</ele><time>2026-04-26T09:00:22.999Z</time></trkpt><trkpt lat="43.55458257169257" lon="11.937165442287856"><ele>466.0</ele><time>2026-04-26T09:00:23.999Z</time></trkpt><trkpt lat="43.55448358806269" lon="11.93703831308996"><ele>463.75</ele><time>2026-04-26T09:00:24.999Z</time></trkpt><trkpt lat="43.55439396759299" lon="11.936906607201516"><ele>461.5</ele><time>2026-04-26T09:00:25.999Z</time></trkpt><trkpt lat="43.55431913903417" lon="11.936783538555828"><ele>459.25</ele><time>2026-04-26T09:00:26.999Z</time></trkpt><trkpt lat="43.55425696578602" lon="11.936658977631295"><ele>457.0</ele><time>2026-04-26T09:00:27.999Z</time></trkpt><trkpt lat="43.554199319632474" lon="11.936535962367378"><ele>457.0</ele><time>2026-04-26T09:00:28.999Z</time></trkpt><trkpt lat="43.55413914759904" lon="11.936412984589012"><ele>457.00000000000006</ele><time>2026-04-26T09:00:29.999Z</time></trkpt><trkpt lat="43.55406761922764" lon="11.936299778839608"><ele>457.00000000000006</ele><time>2026-04-26T09:00:30.999Z</time></trkpt><trkpt lat="43.553984529577455" lon="11.936232882511051"><ele>457.0</ele><time>2026-04-26T09:00:31.999Z</time></trkpt><trkpt lat="43.553912068856334" lon="11.936164180960654"><ele>457.0</ele><time>2026-04-26T09:00:32.999Z</time></trkpt><trkpt lat="43.55383232361999" lon="11.936125835314066"><ele>457.00000000000006</ele><time>2026-04-26T09:00:33.999Z</time></trkpt><trkpt lat="43.55374768745569" lon="11.93609962879909"><ele>457.0</ele><time>2026-04-26T09:00:34.999Z</time></trkpt><trkpt lat="43.553660337765145" lon="11.936083203395953"><ele>457.0</ele><time>2026-04-26T09:00:35.999Z</time></trkpt><trkpt lat="43.553589697410786" lon="11.9360341204859"><ele>457.0</ele><time>2026-04-26T09:00:36.999Z</time></trkpt><trkpt lat="43.553528836589244" lon="11.936003574542651"><ele>457.00000000000006</ele><time>2026-04-26T09:00:37.999Z</time></trkpt><trkpt lat="43.55346887258305" lon="11.935966435188236"><ele>457.0</ele><time>2026-04-26T09:00:38.999Z</time></trkpt><trkpt lat="43.553424912420226" lon="11.935860119032174"><ele>455.8</ele><time>2026-04-26T09:00:40.999Z</time></trkpt><trkpt lat="43.55341124148656" lon="11.935682919100406"><ele>454.6</ele><time>2026-04-26T09:00:42.999Z</time></trkpt><trkpt lat="43.55344189378067" lon="11.93553751019832"><ele>453.40000000000003</ele><time>2026-04-26T09:00:44.999Z</time></trkpt><trkpt lat="43.55351513795564" lon="11.935475006714578"><ele>452.20000000000005</ele><time>2026-04-26T09:00:46.999Z</time></trkpt><trkpt lat="43.55357851041298" lon="11.935453761174092"><ele>451.0</ele><time>2026-04-26T09:00:47.999Z</time></trkpt><trkpt lat="43.553687529757944" lon="11.93539925291296"><ele>453.5</ele><time>2026-04-26T09:00:48.999Z</time></trkpt><trkpt lat="43.55380786297046" lon="11.935329910652467"><ele>456.0</ele><time>2026-04-26T09:00:49.999Z</time></trkpt><trkpt lat="43.55392408407815" lon="11.935267480589031"><ele>458.5</ele><time>2026-04-26T09:00:50.999Z</time></trkpt><trkpt lat="43.554038693658995" lon="11.935202541823065"><ele>461.0</ele><time>2026-04-26T09:00:51.999Z</time></trkpt><trkpt lat="43.554125648824574" lon="11.935160645900032"><ele>461.0</ele><time>2026-04-26T09:00:52.999Z</time></trkpt><trkpt lat="43.5541893333796" lon="11.935141162893057"><ele>461.0</ele><time>2026-04-26T09:00:53.999Z</time></trkpt><trkpt lat="43.55432272132785" lon="11.93517981768354"><ele>461.0</ele><time>2026-04-26T09:00:55.999Z</time></trkpt><trkpt lat="43.554433117150744" lon="11.935243447537513"><ele>461.0</ele><time>2026-04-26T09:00:56.999Z</time></trkpt><trkpt lat="43.554576469194714" lon="11.935315108479928"><ele>461.25</ele><time>2026-04-26T09:00:57.999Z</time></trkpt><trkpt lat="43.554721761203254" lon="11.935390356996907"><ele>461.5</ele><time>2026-04-26T09:00:58.999Z</time></trkpt><trkpt lat="43.55481018654285" lon="11.935427930655734"><ele>461.75</ele><time>2026-04-26T09:00:59.999Z</time></trkpt><trkpt lat="43.554928146144" lon="11.935459294010391"><ele>462.0</ele><time>2026-04-26T09:01:01.999Z</time></trkpt><trkpt lat="43.55500846025262" lon="11.93539262813332"><ele>462.0</ele><time>2026-04-26T09:01:02.999Z</time></trkpt><trkpt lat="43.55503840186406" lon="11.935186913508211"><ele>462.0</ele><time>2026-04-26T09:01:03.999Z</time></trkpt><trkpt lat="43.555045037746694" lon="11.934973105977518"><ele>462.0</ele><time>2026-04-26T09:01:04.999Z</time></trkpt><trkpt lat="43.55503225816794" lon="11.934805293818755"><ele>462.0</ele><time>2026-04-26T09:01:05.999Z</time></trkpt><trkpt lat="43.5550273964899" lon="11.934672054658149"><ele>458.20000000000005</ele><time>2026-04-26T09:01:06.999Z</time></trkpt><trkpt lat="43.55504342074883" lon="11.934562638086144"><ele>454.40000000000003</ele><time>2026-04-26T09:01:07.999Z</time></trkpt><trkpt lat="43.555077048305144" lon="11.934449135775084"><ele>450.59999999999997</ele><time>2026-04-26T09:01:08.999Z</time></trkpt><trkpt lat="43.555120625841475" lon="11.93431697115624"><ele>446.79999999999995</ele><time>2026-04-26T09:01:10Z</time></trkpt><trkpt lat="43.55516636763868" lon="11.934217003149271"><ele>443.0</ele><time>2026-04-26T09:01:11Z</time></trkpt><trkpt lat="43.55527791246503" lon="11.934139960100913"><ele>441.25</ele><time>2026-04-26T09:01:13Z</time></trkpt><trkpt lat="43.55537307851626" lon="11.93412861086238"><ele>439.5</ele><time>2026-04-26T09:01:14Z</time></trkpt><trkpt lat="43.55553597645409" lon="11.934111851387831"><ele>437.75</ele><time>2026-04-26T09:01:15Z</time></trkpt><trkpt lat="43.55568480612801" lon="11.934107369535313"><ele>436.0</ele><time>2026-04-26T09:01:16Z</time></trkpt><trkpt lat="43.555786712440494" lon="11.934125453230935"><ele>436.0</ele><time>2026-04-26T09:01:17Z</time></trkpt><trkpt lat="43.555882911906814" lon="11.934115166881693"><ele>436.0</ele><time>2026-04-26T09:01:18Z</time></trkpt><trkpt lat="43.556019928785275" lon="11.934039997842374"><ele>436.0</ele><time>2026-04-26T09:01:19Z</time></trkpt><trkpt lat="43.556097744181535" lon="11.934031918575918"><ele>436.0</ele><time>2026-04-26T09:01:20Z</time></trkpt><trkpt lat="43.556168106818646" lon="11.933976604983"><ele>436.0</ele><time>2026-04-26T09:01:21Z</time></trkpt><trkpt lat="43.556204415861544" lon="11.933895138693712"><ele>436.0</ele><time>2026-04-26T09:01:22Z</time></trkpt><trkpt lat="43.55616650130208" lon="11.933754984688138"><ele>436.0</ele><time>2026-04-26T09:01:23Z</time></trkpt><trkpt lat="43.55610928127841" lon="11.93362688616492"><ele>436.0</ele><time>2026-04-26T09:01:24Z</time></trkpt><trkpt lat="43.556011772187915" lon="11.933491708285775"><ele>436.0</ele><time>2026-04-26T09:01:25Z</time></trkpt><trkpt lat="43.555915884813224" lon="11.933338846606942"><ele>431.4</ele><time>2026-04-26T09:01:26Z</time></trkpt><trkpt lat="43.555866389046095" lon="11.933182880637908"><ele>426.8</ele><time>2026-04-26T09:01:27Z</time></trkpt><trkpt lat="43.55583278485146" lon="11.933041562574662"><ele>422.2</ele><time>2026-04-26T09:01:28Z</time></trkpt><trkpt lat="43.55581305990578" lon="11.93291613467559"><ele>417.59999999999997</ele><time>2026-04-26T09:01:29Z</time></trkpt><trkpt lat="43.5558028622215" lon="11.932805038898145"><ele>413.0</ele><time>2026-04-26T09:01:30Z</time></trkpt><trkpt lat="43.55580575005968" lon="11.932717370263681"><ele>413.0</ele><time>2026-04-26T09:01:31Z</time></trkpt><trkpt lat="43.55574484283449" lon="11.9326130780058"><ele>413.0</ele><time>2026-04-26T09:01:33Z</time></trkpt><trkpt lat="43.555660488584735" lon="11.932715411339787"><ele>413.0</ele><time>2026-04-26T09:01:34Z</time></trkpt><trkpt lat="43.55564366907147" lon="11.932807158467122"><ele>413.0</ele><time>2026-04-26T09:01:35Z</time></trkpt><trkpt lat="43.555649674181105" lon="11.932947026020672"><ele>413.0</ele><time>2026-04-26T09:01:36Z</time></trkpt><trkpt lat="43.55566824564006" lon="11.933121476196174"><ele>413.0</ele><time>2026-04-26T09:01:37Z</time></trkpt><trkpt lat="43.555710771736244" lon="11.933253661358435"><ele>413.0</ele><time>2026-04-26T09:01:38Z</time></trkpt><trkpt lat="43.55574224977172" lon="11.93336088132281"><ele>413.0</ele><time>2026-04-26T09:01:39Z</time></trkpt><trkpt lat="43.55574009500087" lon="11.933526033278097"><ele>413.0</ele><time>2026-04-26T09:01:40Z</time></trkpt><trkpt lat="43.55567546765575" lon="11.933639139878839"><ele>413.0</ele><time>2026-04-26T09:01:42Z</time></trkpt><trkpt lat="43.55550787121226" lon="11.933606919268792"><ele>415.3333333333333</ele><time>2026-04-26T09:01:44Z</time></trkpt><trkpt lat="43.55533184377972" lon="11.933547903775533"><ele>417.66666666666663</ele><time>2026-04-26T09:01:45Z</time></trkpt><trkpt lat="43.555135626783944" lon="11.93347330044064"><ele>420.0</ele><time>2026-04-26T09:01:46Z</time></trkpt><trkpt lat="43.55501227106886" lon="11.933471511022523"><ele>420.0</ele><time>2026-04-26T09:01:47Z</time></trkpt><trkpt lat="43.5548846083377" lon="11.933500987126504"><ele>420.0</ele><time>2026-04-26T09:01:48Z</time></trkpt><trkpt lat="43.55477966772284" lon="11.933564914733944"><ele>420.0</ele><time>2026-04-26T09:01:49Z</time></trkpt><trkpt lat="43.55466111249489" lon="11.933627094534462"><ele>420.0</ele><time>2026-04-26T09:01:50Z</time></trkpt><trkpt lat="43.55455348255117" lon="11.933666474586822"><ele>418.2</ele><time>2026-04-26T09:01:51Z</time></trkpt><trkpt lat="43.554461013263634" lon="11.933662370081088"><ele>416.4</ele><time>2026-04-26T09:01:52Z</time></trkpt><trkpt lat="43.554377860966596" lon="11.933632057709731"><ele>414.6</ele><time>2026-04-26T09:01:53Z</time></trkpt><trkpt lat="43.554292917107865" lon="11.933546414082686"><ele>412.8</ele><time>2026-04-26T09:01:54Z</time></trkpt><trkpt lat="43.554179475312665" lon="11.933465936253972"><ele>411.0</ele><time>2026-04-26T09:01:55Z</time></trkpt><trkpt lat="43.554069144671274" lon="11.933359402940777"><ele>404.0</ele><time>2026-04-26T09:01:56Z</time></trkpt><trkpt lat="43.55394029476041" lon="11.93327693769873"><ele>397.0</ele><time>2026-04-26T09:01:57Z</time></trkpt><trkpt lat="43.55381959505157" lon="11.933231806908383"><ele>390.0</ele><time>2026-04-26T09:01:58Z</time></trkpt><trkpt lat="43.55370034181274" lon="11.933204332163305"><ele>383.0</ele><time>2026-04-26T09:01:59Z</time></trkpt><trkpt lat="43.55359158649109" lon="11.933162860467831"><ele>383.0</ele><time>2026-04-26T09:02:00Z</time></trkpt><trkpt lat="43.553499400805265" lon="11.933121146919332"><ele>383.0</ele><time>2026-04-26T09:02:01Z</time></trkpt><trkpt lat="43.55343677532322" lon="11.933048575834164"><ele>383.0</ele><time>2026-04-26T09:02:02Z</time></trkpt><trkpt lat="43.553373737144156" lon="11.932990582015112"><ele>383.0</ele><time>2026-04-26T09:02:03Z</time></trkpt><trkpt lat="43.55329765828967" lon="11.932844332178563"><ele>383.0</ele><time>2026-04-26T09:02:05Z</time></trkpt><trkpt lat="43.553226843961674" lon="11.932760093155967"><ele>383.0</ele><time>2026-04-26T09:02:06Z</time></trkpt><trkpt lat="43.553170328900705" lon="11.932673131324247"><ele>383.0</ele><time>2026-04-26T09:02:07Z</time></trkpt><trkpt lat="43.55309244427034" lon="11.932630951426258"><ele>383.0</ele><time>2026-04-26T09:02:08Z</time></trkpt><trkpt lat="43.55300585812375" lon="11.93266450991246"><ele>383.0</ele><time>2026-04-26T09:02:09Z</time></trkpt><trkpt lat="43.55288734570942" lon="11.932684698910922"><ele>383.0</ele><time>2026-04-26T09:02:10Z</time></trkpt><trkpt lat="43.552743987809244" lon="11.932699102538022"><ele>382.75</ele><time>2026-04-26T09:02:11Z</time></trkpt><trkpt lat="43.552619050560054" lon="11.93272756327088"><ele>382.5</ele><time>2026-04-26T09:02:12Z</time></trkpt><trkpt lat="43.55250898593455" lon="11.932734943758755"><ele>382.25</ele><time>2026-04-26T09:02:13Z</time></trkpt><trkpt lat="43.552421979710275" lon="11.932724760591812"><ele>382.0</ele><time>2026-04-26T09:02:14Z</time></trkpt><trkpt lat="43.5522923537365" lon="11.932699978742834"><ele>382.0</ele><time>2026-04-26T09:02:15Z</time></trkpt><trkpt lat="43.55213683101206" lon="11.932660032928839"><ele>382.0</ele><time>2026-04-26T09:02:16Z</time></trkpt><trkpt lat="43.55198551142906" lon="11.932626557208502"><ele>382.0</ele><time>2026-04-26T09:02:17Z</time></trkpt><trkpt lat="43.55183144694433" lon="11.932625046523732"><ele>379.75</ele><time>2026-04-26T09:02:18Z</time></trkpt><trkpt lat="43.55169587093669" lon="11.932632585150678"><ele>377.5</ele><time>2026-04-26T09:02:19Z</time></trkpt><trkpt lat="43.551585653247436" lon="11.932637688460577"><ele>375.25</ele><time>2026-04-26T09:02:20Z</time></trkpt><trkpt lat="43.55148683462988" lon="11.932658818031197"><ele>373.0</ele><time>2026-04-26T09:02:21Z</time></trkpt><trkpt lat="43.55138602873208" lon="11.932713280634141"><ele>373.0</ele><time>2026-04-26T09:02:22Z</time></trkpt><trkpt lat="43.55130429814875" lon="11.932759396769898"><ele>373.0</ele><time>2026-04-26T09:02:23Z</time></trkpt><trkpt lat="43.551244264736546" lon="11.932789530425906"><ele>373.0</ele><time>2026-04-26T09:02:24Z</time></trkpt><trkpt lat="43.55115926330332" lon="11.93271165686845"><ele>373.0</ele><time>2026-04-26T09:02:26Z</time></trkpt><trkpt lat="43.55120230047966" lon="11.932612663606337"><ele>373.0</ele><time>2026-04-26T09:02:27Z</time></trkpt><trkpt lat="43.55130711327145" lon="11.932557350528068"><ele>369.0</ele><time>2026-04-26T09:02:29Z</time></trkpt><trkpt lat="43.55140823150291" lon="11.932420468194445"><ele>365.0</ele><time>2026-04-26T09:02:30Z</time></trkpt><trkpt lat="43.55146886990803" lon="11.932294581975462"><ele>361.0</ele><time>2026-04-26T09:02:31Z</time></trkpt><trkpt lat="43.5515252190333" lon="11.93219240587844"><ele>357.0</ele><time>2026-04-26T09:02:32Z</time></trkpt><trkpt lat="43.55157963542117" lon="11.932116042799459"><ele>353.0</ele><time>2026-04-26T09:02:33Z</time></trkpt><trkpt lat="43.55164693523886" lon="11.932063550390001"><ele>353.0</ele><time>2026-04-26T09:02:34Z</time></trkpt><trkpt lat="43.551749760942194" lon="11.932082759634493"><ele>353.0</ele><time>2026-04-26T09:02:35Z</time></trkpt><trkpt lat="43.55185060801552" lon="11.932038730045841"><ele>353.0</ele><time>2026-04-26T09:02:36Z</time></trkpt><trkpt lat="43.55193546139573" lon="11.932007571384698"><ele>353.0</ele><time>2026-04-26T09:02:37Z</time></trkpt><trkpt lat="43.55202839827403" lon="11.932014878646466"><ele>353.0</ele><time>2026-04-26T09:02:38Z</time></trkpt><trkpt lat="43.552112329888246" lon="11.932033214810048"><ele>354.75</ele><time>2026-04-26T09:02:39Z</time></trkpt><trkpt lat="43.55217855068095" lon="11.932086672414286"><ele>356.5</ele><time>2026-04-26T09:02:40Z</time></trkpt><trkpt lat="43.552303294296664" lon="11.931995042661205"><ele>358.25</ele><time>2026-04-26T09:02:42Z</time></trkpt><trkpt lat="43.552297650278035" lon="11.931848561349671"><ele>360.0</ele><time>2026-04-26T09:02:43Z</time></trkpt><trkpt lat="43.55218207432859" lon="11.931765548603291"><ele>360.0</ele><time>2026-04-26T09:02:44Z</time></trkpt><trkpt lat="43.552069892097016" lon="11.931742615517742"><ele>360.0</ele><time>2026-04-26T09:02:45Z</time></trkpt><trkpt lat="43.55195434059936" lon="11.931674496248682"><ele>360.0</ele><time>2026-04-26T09:02:46Z</time></trkpt><trkpt lat="43.55180873197124" lon="11.931600212568986"><ele>360.0</ele><time>2026-04-26T09:02:47Z</time></trkpt><trkpt lat="43.551670937225985" lon="11.93154614507555"><ele>355.3333333333333</ele><time>2026-04-26T09:02:48Z</time></trkpt><trkpt lat="43.551573626970445" lon="11.931475758888057"><ele>350.6666666666667</ele><time>2026-04-26T09:02:49Z</time></trkpt><trkpt lat="43.55148916874844" lon="11.931428040563192"><ele>346.0</ele><time>2026-04-26T09:02:50Z</time></trkpt><trkpt lat="43.551425451835286" lon="11.931385031748459"><ele>341.33333333333337</ele><time>2026-04-26T09:02:51Z</time></trkpt><trkpt lat="43.55135368528392" lon="11.931338961266855"><ele>336.6666666666667</ele><time>2026-04-26T09:02:52Z</time></trkpt><trkpt lat="43.55128586750433" lon="11.93130040410415"><ele>332.0</ele><time>2026-04-26T09:02:53Z</time></trkpt><trkpt lat="43.5512198698275" lon="11.931286066608319"><ele>330.33333333333337</ele><time>2026-04-26T09:02:54Z</time></trkpt><trkpt lat="43.55115517808106" lon="11.931283398319508"><ele>328.6666666666667</ele><time>2026-04-26T09:02:55Z</time></trkpt><trkpt lat="43.55105204064934" lon="11.931284772386311"><ele>327.0</ele><time>2026-04-26T09:02:57Z</time></trkpt><trkpt lat="43.55098851561508" lon="11.931269122168933"><ele>325.3333333333333</ele><time>2026-04-26T09:02:59Z</time></trkpt><trkpt lat="43.550986282318476" lon="11.931141861311689"><ele>323.66666666666663</ele><time>2026-04-26T09:03:02Z</time></trkpt><trkpt lat="43.5510230073443" lon="11.931058001217405"><ele>322.0</ele><time>2026-04-26T09:03:03Z</time></trkpt><trkpt lat="43.55106791959151" lon="11.930926941014626"><ele>318.66666666666663</ele><time>2026-04-26T09:03:04Z</time></trkpt><trkpt lat="43.55111537486316" lon="11.930748580570992"><ele>315.3333333333333</ele><time>2026-04-26T09:03:05Z</time></trkpt><trkpt lat="43.5511600911619" lon="11.930552059774104"><ele>312.0</ele><time>2026-04-26T09:03:06Z</time></trkpt><trkpt lat="43.55119819182496" lon="11.930300883760202"><ele>312.6666666666667</ele><time>2026-04-26T09:03:07Z</time></trkpt><trkpt lat="43.5512489306986" lon="11.930068614533822"><ele>313.33333333333337</ele><time>2026-04-26T09:03:08Z</time></trkpt><trkpt lat="43.55128968691578" lon="11.929871013401529"><ele>314.0</ele><time>2026-04-26T09:03:09Z</time></trkpt><trkpt lat="43.55132565097123" lon="11.92969905563055"><ele>314.0</ele><time>2026-04-26T09:03:10Z</time></trkpt><trkpt lat="43.551344037336044" lon="11.929543352462414"><ele>314.0</ele><time>2026-04-26T09:03:11Z</time></trkpt><trkpt lat="43.55133262572219" lon="11.929388748835095"><ele>314.0</ele><time>2026-04-26T09:03:12Z</time></trkpt><trkpt lat="43.55128540519847" lon="11.929249175091083"><ele>314.0</ele><time>2026-04-26T09:03:13Z</time></trkpt><trkpt lat="43.55120000225729" lon="11.929137703177565"><ele>315.75</ele><time>2026-04-26T09:03:14Z</time></trkpt><trkpt lat="43.5510860082095" lon="11.929061808964734"><ele>317.5</ele><time>2026-04-26T09:03:15Z</time></trkpt><trkpt lat="43.550951231349785" lon="11.929030068166194"><ele>319.25</ele><time>2026-04-26T09:03:16Z</time></trkpt><trkpt lat="43.55080737001103" lon="11.929014062294604"><ele>321.0</ele><time>2026-04-26T09:03:17Z</time></trkpt><trkpt lat="43.55066925778116" lon="11.928993666195398"><ele>321.0</ele><time>2026-04-26T09:03:18Z</time></trkpt><trkpt lat="43.55054301375094" lon="11.928961361763399"><ele>321.0</ele><time>2026-04-26T09:03:19Z</time></trkpt><trkpt lat="43.5504124090486" lon="11.928926426180638"><ele>321.0</ele><time>2026-04-26T09:03:20Z</time></trkpt><trkpt lat="43.55027834108909" lon="11.928897335826191"><ele>321.0</ele><time>2026-04-26T09:03:21Z</time></trkpt><trkpt lat="43.55014124984489" lon="11.928872114534004"><ele>318.5</ele><time>2026-04-26T09:03:22Z</time></trkpt><trkpt lat="43.550008526602994" lon="11.928845535760535"><ele>316.0</ele><time>2026-04-26T09:03:23Z</time></trkpt><trkpt lat="43.54988481509342" lon="11.928815368757723"><ele>313.5</ele><time>2026-04-26T09:03:24Z</time></trkpt><trkpt lat="43.549772814808016" lon="11.928799298090619"><ele>311.0</ele><time>2026-04-26T09:03:25Z</time></trkpt><trkpt lat="43.549663873421785" lon="11.92875965579949"><ele>311.0</ele><time>2026-04-26T09:03:26Z</time></trkpt><trkpt lat="43.54956216759569" lon="11.928748936484766"><ele>311.0</ele><time>2026-04-26T09:03:27Z</time></trkpt><trkpt lat="43.54946425387483" lon="11.928706785649906"><ele>311.0</ele><time>2026-04-26T09:03:28Z</time></trkpt><trkpt lat="43.54936298733456" lon="11.928658515473927"><ele>311.0</ele><time>2026-04-26T09:03:29Z</time></trkpt><trkpt lat="43.54926099606327" lon="11.928603258824605"><ele>311.0</ele><time>2026-04-26T09:03:30Z</time></trkpt><trkpt lat="43.549160751889715" lon="11.928532418025329"><ele>311.5</ele><time>2026-04-26T09:03:31Z</time></trkpt><trkpt lat="43.54905909033312" lon="11.928457411074444"><ele>312.0</ele><time>2026-04-26T09:03:32Z</time></trkpt><trkpt lat="43.54894228311975" lon="11.928361032994948"><ele>312.5</ele><time>2026-04-26T09:03:33Z</time></trkpt><trkpt lat="43.548790384686036" lon="11.92825451017365"><ele>313.0</ele><time>2026-04-26T09:03:34Z</time></trkpt><trkpt lat="43.54863493299687" lon="11.928163333680205"><ele>311.25</ele><time>2026-04-26T09:03:35Z</time></trkpt><trkpt lat="43.54850717151285" lon="11.928061243056147"><ele>309.5</ele><time>2026-04-26T09:03:36Z</time></trkpt><trkpt lat="43.54839246762768" lon="11.927964772025918"><ele>307.75</ele><time>2026-04-26T09:03:37Z</time></trkpt><trkpt lat="43.54829267029018" lon="11.927857924807112"><ele>306.0</ele><time>2026-04-26T09:03:38Z</time></trkpt><trkpt lat="43.548214393309166" lon="11.927738904570434"><ele>306.0</ele><time>2026-04-26T09:03:39Z</time></trkpt><trkpt lat="43.5481698046038" lon="11.927598362469109"><ele>306.0</ele><time>2026-04-26T09:03:40Z</time></trkpt><trkpt lat="43.5481265504333" lon="11.92747129144639"><ele>306.0</ele><time>2026-04-26T09:03:41Z</time></trkpt><trkpt lat="43.548079722480814" lon="11.927354198326533"><ele>306.0</ele><time>2026-04-26T09:03:42Z</time></trkpt><trkpt lat="43.54805035677238" lon="11.927230710470402"><ele>306.0</ele><time>2026-04-26T09:03:43Z</time></trkpt><trkpt lat="43.5480365712288" lon="11.927081200886217"><ele>306.75</ele><time>2026-04-26T09:03:44Z</time></trkpt><trkpt lat="43.54800902828314" lon="11.926920966928808"><ele>307.5</ele><time>2026-04-26T09:03:45Z</time></trkpt><trkpt lat="43.54798073723707" lon="11.92675532701352"><ele>308.25</ele><time>2026-04-26T09:03:46Z</time></trkpt><trkpt lat="43.5479516721238" lon="11.926585154864416"><ele>309.0</ele><time>2026-04-26T09:03:47Z</time></trkpt><trkpt lat="43.54792174901018" lon="11.926408969635748"><ele>306.6666666666667</ele><time>2026-04-26T09:03:48Z</time></trkpt><trkpt lat="43.547873865675555" lon="11.926227000973887"><ele>304.33333333333337</ele><time>2026-04-26T09:03:49Z</time></trkpt><trkpt lat="43.54784457148412" lon="11.925996943599635"><ele>302.0</ele><time>2026-04-26T09:03:50Z</time></trkpt><trkpt lat="43.54780200656264" lon="11.925743733076848"><ele>302.0</ele><time>2026-04-26T09:03:51Z</time></trkpt><trkpt lat="43.54775643934478" lon="11.92548290711047"><ele>302.0</ele><time>2026-04-26T09:03:52Z</time></trkpt><trkpt lat="43.54771264651178" lon="11.925232273325424"><ele>302.0</ele><time>2026-04-26T09:03:53Z</time></trkpt><trkpt lat="43.54767521472456" lon="11.924995647633095"><ele>302.33333333333337</ele><time>2026-04-26T09:03:54Z</time></trkpt><trkpt lat="43.54763395799052" lon="11.92476156206146"><ele>302.6666666666667</ele><time>2026-04-26T09:03:55Z</time></trkpt><trkpt lat="43.54758424757136" lon="11.924469926961526"><ele>303.0</ele><time>2026-04-26T09:03:56Z</time></trkpt><trkpt lat="43.54754114816283" lon="11.924206139895237"><ele>303.3333333333333</ele><time>2026-04-26T09:03:57Z</time></trkpt><trkpt lat="43.54750132797752" lon="11.923969526459679"><ele>303.66666666666663</ele><time>2026-04-26T09:03:58Z</time></trkpt><trkpt lat="43.54746148058467" lon="11.923740514979999"><ele>304.0</ele><time>2026-04-26T09:03:59Z</time></trkpt><trkpt lat="43.54741350782476" lon="11.923527197083956"><ele>306.3333333333333</ele><time>2026-04-26T09:04:00Z</time></trkpt><trkpt lat="43.54733873929452" lon="11.923303188368868"><ele>308.6666666666667</ele><time>2026-04-26T09:04:01Z</time></trkpt><trkpt lat="43.54723778968447" lon="11.923096459247171"><ele>311.0</ele><time>2026-04-26T09:04:02Z</time></trkpt><trkpt lat="43.54710979752968" lon="11.922915801715506"><ele>310.33333333333337</ele><time>2026-04-26T09:04:03Z</time></trkpt><trkpt lat="43.54696366562582" lon="11.922738755407956"><ele>309.6666666666667</ele><time>2026-04-26T09:04:04Z</time></trkpt><trkpt lat="43.546824035218904" lon="11.922596938073898"><ele>309.0</ele><time>2026-04-26T09:04:05Z</time></trkpt><trkpt lat="43.54667734273427" lon="11.92247404874941"><ele>309.0</ele><time>2026-04-26T09:04:06Z</time></trkpt><trkpt lat="43.546536946352944" lon="11.922364348232993"><ele>309.0</ele><time>2026-04-26T09:04:07Z</time></trkpt><trkpt lat="43.54642312706037" lon="11.92223768938894"><ele>309.0</ele><time>2026-04-26T09:04:08Z</time></trkpt><trkpt lat="43.54634739763697" lon="11.922057577238643"><ele>309.0</ele><time>2026-04-26T09:04:09Z</time></trkpt><trkpt lat="43.54628321639295" lon="11.921873648066809"><ele>309.0</ele><time>2026-04-26T09:04:10Z</time></trkpt><trkpt lat="43.5462251973605" lon="11.921657179226008"><ele>309.0</ele><time>2026-04-26T09:04:11Z</time></trkpt><trkpt lat="43.54617002194512" lon="11.921422879569219"><ele>307.3333333333333</ele><time>2026-04-26T09:04:12Z</time></trkpt><trkpt lat="43.54611057632499" lon="11.921160317529186"><ele>305.66666666666663</ele><time>2026-04-26T09:04:13Z</time></trkpt><trkpt lat="43.5460467161011" lon="11.920869663079568"><ele>304.0</ele><time>2026-04-26T09:04:14Z</time></trkpt><trkpt lat="43.545980282585354" lon="11.920567651924173"><ele>304.0</ele><time>2026-04-26T09:04:15Z</time></trkpt><trkpt lat="43.5459205904014" lon="11.920284136952786"><ele>304.0</ele><time>2026-04-26T09:04:16Z</time></trkpt><trkpt lat="43.545871070406335" lon="11.920027297009925"><ele>304.0</ele><time>2026-04-26T09:04:17Z</time></trkpt><trkpt lat="43.545809784972434" lon="11.919765902042547"><ele>306.5</ele><time>2026-04-26T09:04:18Z</time></trkpt><trkpt lat="43.545712064571624" lon="11.9195005913792"><ele>309.0</ele><time>2026-04-26T09:04:19Z</time></trkpt><trkpt lat="43.545593415822424" lon="11.919190994739743"><ele>311.5</ele><time>2026-04-26T09:04:20Z</time></trkpt><trkpt lat="43.545453921647066" lon="11.918861897871933"><ele>314.0</ele><time>2026-04-26T09:04:21Z</time></trkpt><trkpt lat="43.54531342248529" lon="11.918555864853847"><ele>309.33333333333337</ele><time>2026-04-26T09:04:22Z</time></trkpt><trkpt lat="43.54519253287507" lon="11.918286947445324"><ele>304.6666666666667</ele><time>2026-04-26T09:04:23Z</time></trkpt><trkpt lat="43.5450824100531" lon="11.918046375562296"><ele>300.0</ele><time>2026-04-26T09:04:24Z</time></trkpt><trkpt lat="43.54497818951925" lon="11.917819424259315"><ele>300.0</ele><time>2026-04-26T09:04:25Z</time></trkpt><trkpt lat="43.54489351898129" lon="11.917587817861284"><ele>300.0</ele><time>2026-04-26T09:04:26Z</time></trkpt><trkpt lat="43.544808873987066" lon="11.917381172816059"><ele>300.0</ele><time>2026-04-26T09:04:27Z</time></trkpt><trkpt lat="43.54470484630722" lon="11.91717532663725"><ele>301.0</ele><time>2026-04-26T09:04:28Z</time></trkpt><trkpt lat="43.544608859161926" lon="11.91696622920309"><ele>302.0</ele><time>2026-04-26T09:04:29Z</time></trkpt><trkpt lat="43.544489154043774" lon="11.916791204244973"><ele>303.0</ele><time>2026-04-26T09:04:30Z</time></trkpt><trkpt lat="43.54433232509133" lon="11.916633517936669"><ele>303.0</ele><time>2026-04-26T09:04:31Z</time></trkpt><trkpt lat="43.54413659416123" lon="11.916483515316488"><ele>303.0</ele><time>2026-04-26T09:04:32Z</time></trkpt><trkpt lat="43.54392100410257" lon="11.916354219721583"><ele>303.0</ele><time>2026-04-26T09:04:33Z</time></trkpt><trkpt lat="43.54373464459392" lon="11.9162456142981"><ele>303.0</ele><time>2026-04-26T09:04:34Z</time></trkpt><trkpt lat="43.54359037398212" lon="11.916159081709724"><ele>303.0</ele><time>2026-04-26T09:04:35Z</time></trkpt><trkpt lat="43.54346488337391" lon="11.916072735360876"><ele>300.6666666666667</ele><time>2026-04-26T09:04:36Z</time></trkpt><trkpt lat="43.54336540938353" lon="11.915943111932199"><ele>298.33333333333337</ele><time>2026-04-26T09:04:37Z</time></trkpt><trkpt lat="43.54326160805182" lon="11.915786893945324"><ele>296.0</ele><time>2026-04-26T09:04:38Z</time></trkpt><trkpt lat="43.543158606049346" lon="11.915569433960018"><ele>296.0</ele><time>2026-04-26T09:04:39Z</time></trkpt><trkpt lat="43.543049599781675" lon="11.915299557469845"><ele>296.0</ele><time>2026-04-26T09:04:40Z</time></trkpt><trkpt lat="43.542934983129285" lon="11.915006598243647"><ele>293.0</ele><time>2026-04-26T09:04:41Z</time></trkpt><trkpt lat="43.54280837949233" lon="11.91468300058293"><ele>290.0</ele><time>2026-04-26T09:04:42Z</time></trkpt><trkpt lat="43.54266638997934" lon="11.914367054632931"><ele>290.0</ele><time>2026-04-26T09:04:43Z</time></trkpt><trkpt lat="43.54255610159583" lon="11.914081368870574"><ele>290.0</ele><time>2026-04-26T09:04:44Z</time></trkpt><trkpt lat="43.542459202827914" lon="11.913816078574742"><ele>290.0</ele><time>2026-04-26T09:04:45Z</time></trkpt><trkpt lat="43.54235574035555" lon="11.913545255358462"><ele>290.0</ele><time>2026-04-26T09:04:46Z</time></trkpt><trkpt lat="43.542252810604474" lon="11.913262863615513"><ele>290.0</ele><time>2026-04-26T09:04:47Z</time></trkpt><trkpt lat="43.542176899771704" lon="11.912956489087971"><ele>290.0</ele><time>2026-04-26T09:04:48Z</time></trkpt><trkpt lat="43.54209488848412" lon="11.912608282452073"><ele>288.0</ele><time>2026-04-26T09:04:49Z</time></trkpt><trkpt lat="43.54200671457578" lon="11.912220721957775"><ele>286.0</ele><time>2026-04-26T09:04:50Z</time></trkpt><trkpt lat="43.54190703185286" lon="11.911825509399574"><ele>286.0</ele><time>2026-04-26T09:04:51Z</time></trkpt><trkpt lat="43.54181482800945" lon="11.91143072532086"><ele>286.0</ele><time>2026-04-26T09:04:52Z</time></trkpt><trkpt lat="43.541741513005064" lon="11.911055320197413"><ele>286.0</ele><time>2026-04-26T09:04:53Z</time></trkpt><trkpt lat="43.54165320432853" lon="11.910668724084433"><ele>286.0</ele><time>2026-04-26T09:04:54Z</time></trkpt><trkpt lat="43.54156814961802" lon="11.910294772508818"><ele>286.5</ele><time>2026-04-26T09:04:55Z</time></trkpt><trkpt lat="43.541501050498596" lon="11.909997567415306"><ele>287.0</ele><time>2026-04-26T09:04:56Z</time></trkpt><trkpt lat="43.541432376170754" lon="11.909693385564212"><ele>287.0</ele><time>2026-04-26T09:04:57Z</time></trkpt><trkpt lat="43.54134996026153" lon="11.909374892442342"><ele>287.0</ele><time>2026-04-26T09:04:58Z</time></trkpt><trkpt lat="43.54125349406405" lon="11.909058195977561"><ele>286.5</ele><time>2026-04-26T09:04:59Z</time></trkpt><trkpt lat="43.541151209679285" lon="11.908729555579368"><ele>286.0</ele><time>2026-04-26T09:05:00Z</time></trkpt><trkpt lat="43.54104138392426" lon="11.908376684802805"><ele>286.0</ele><time>2026-04-26T09:05:01Z</time></trkpt><trkpt lat="43.54093955576506" lon="11.908048576039699"><ele>286.0</ele><time>2026-04-26T09:05:02Z</time></trkpt><trkpt lat="43.54084944392602" lon="11.907757275668121"><ele>284.0</ele><time>2026-04-26T09:05:03Z</time></trkpt><trkpt lat="43.54076539195863" lon="11.907485565134778"><ele>282.0</ele><time>2026-04-26T09:05:04Z</time></trkpt><trkpt lat="43.54068383555604" lon="11.907221921549166"><ele>280.0</ele><time>2026-04-26T09:05:05Z</time></trkpt><trkpt lat="43.540599702702146" lon="11.90695501634209"><ele>280.0</ele><time>2026-04-26T09:05:06Z</time></trkpt><trkpt lat="43.54050587941661" lon="11.90668021964842"><ele>280.0</ele><time>2026-04-26T09:05:07Z</time></trkpt><trkpt lat="43.540384440062624" lon="11.906412788040459"><ele>280.0</ele><time>2026-04-26T09:05:08Z</time></trkpt><trkpt lat="43.540248003335165" lon="11.90611552266011"><ele>278.5</ele><time>2026-04-26T09:05:09Z</time></trkpt><trkpt lat="43.540084814388564" lon="11.905796521815786"><ele>277.0</ele><time>2026-04-26T09:05:10Z</time></trkpt><trkpt lat="43.5399284160114" lon="11.905430858366968"><ele>276.5</ele><time>2026-04-26T09:05:11Z</time></trkpt><trkpt lat="43.53975111404424" lon="11.905062210586475"><ele>276.0</ele><time>2026-04-26T09:05:12Z</time></trkpt><trkpt lat="43.53956009794936" lon="11.904685840305499"><ele>276.5</ele><time>2026-04-26T09:05:13Z</time></trkpt><trkpt lat="43.53938587596945" lon="11.904332606040066"><ele>277.0</ele><time>2026-04-26T09:05:14Z</time></trkpt><trkpt lat="43.53922659376062" lon="11.904006057587353"><ele>277.0</ele><time>2026-04-26T09:05:15Z</time></trkpt><trkpt lat="43.53907105169455" lon="11.903686747906702"><ele>277.0</ele><time>2026-04-26T09:05:16Z</time></trkpt><trkpt lat="43.5389327874264" lon="11.903364230043557"><ele>277.5</ele><time>2026-04-26T09:05:17Z</time></trkpt><trkpt lat="43.5387592436714" lon="11.9030475691685"><ele>278.0</ele><time>2026-04-26T09:05:18Z</time></trkpt><trkpt lat="43.53856083832062" lon="11.902748960290689"><ele>277.0</ele><time>2026-04-26T09:05:19Z</time></trkpt><trkpt lat="43.53838906868593" lon="11.902467445697745"><ele>276.0</ele><time>2026-04-26T09:05:20Z</time></trkpt><trkpt lat="43.5382350508392" lon="11.902213206756036"><ele>276.0</ele><time>2026-04-26T09:05:21Z</time></trkpt><trkpt lat="43.53809328293286" lon="11.90198423680074"><ele>276.0</ele><time>2026-04-26T09:05:22Z</time></trkpt><trkpt lat="43.53795300299726" lon="11.901785356366856"><ele>276.0</ele><time>2026-04-26T09:05:23Z</time></trkpt><trkpt lat="43.5377865469439" lon="11.901587741847129"><ele>276.5</ele><time>2026-04-26T09:05:24Z</time></trkpt><trkpt lat="43.53758791441224" lon="11.901384450249662"><ele>277.0</ele><time>2026-04-26T09:05:25Z</time></trkpt><trkpt lat="43.53736686053789" lon="11.901178502246747"><ele>277.0</ele><time>2026-04-26T09:05:26Z</time></trkpt><trkpt lat="43.5371419780522" lon="11.900972851040935"><ele>277.0</ele><time>2026-04-26T09:05:27Z</time></trkpt><trkpt lat="43.5369487675799" lon="11.900792500270276"><ele>275.66666666666663</ele><time>2026-04-26T09:05:28Z</time></trkpt><trkpt lat="43.5367844430639" lon="11.900634376449664"><ele>274.3333333333333</ele><time>2026-04-26T09:05:29Z</time></trkpt><trkpt lat="43.536631767347565" lon="11.9004863915228"><ele>273.0</ele><time>2026-04-26T09:05:30Z</time></trkpt><trkpt lat="43.53648775319368" lon="11.900333176394355"><ele>273.0</ele><time>2026-04-26T09:05:31Z</time></trkpt><trkpt lat="43.53634803187948" lon="11.900157912536576"><ele>273.0</ele><time>2026-04-26T09:05:32Z</time></trkpt><trkpt lat="43.53622371628463" lon="11.899954217251148"><ele>273.0</ele><time>2026-04-26T09:05:33Z</time></trkpt><trkpt lat="43.53610419462736" lon="11.899732869591595"><ele>273.0</ele><time>2026-04-26T09:05:34Z</time></trkpt><trkpt lat="43.535977905989704" lon="11.899506306518433"><ele>273.0</ele><time>2026-04-26T09:05:35Z</time></trkpt><trkpt lat="43.53584209000019" lon="11.899280079397954"><ele>273.0</ele><time>2026-04-26T09:05:36Z</time></trkpt><trkpt lat="43.53570226463882" lon="11.899045536600736"><ele>273.0</ele><time>2026-04-26T09:05:37Z</time></trkpt><trkpt lat="43.53556828646722" lon="11.898822226298677"><ele>273.0</ele><time>2026-04-26T09:05:38Z</time></trkpt><trkpt lat="43.535445463287694" lon="11.89861627735271"><ele>273.0</ele><time>2026-04-26T09:05:39Z</time></trkpt><trkpt lat="43.535333226580114" lon="11.898426791792224"><ele>272.6666666666667</ele><time>2026-04-26T09:05:40Z</time></trkpt><trkpt lat="43.53522526310164" lon="11.89824482332659"><ele>272.33333333333337</ele><time>2026-04-26T09:05:41Z</time></trkpt><trkpt lat="43.53512028286413" lon="11.898071700495903"><ele>272.0</ele><time>2026-04-26T09:05:42Z</time></trkpt><trkpt lat="43.53501643902768" lon="11.897899413249872"><ele>272.0</ele><time>2026-04-26T09:05:43Z</time></trkpt><trkpt lat="43.53491377112272" lon="11.897727457756513"><ele>272.0</ele><time>2026-04-26T09:05:44Z</time></trkpt><trkpt lat="43.534806884994694" lon="11.897574356487281"><ele>272.0</ele><time>2026-04-26T09:05:45Z</time></trkpt><trkpt lat="43.534694058248405" lon="11.897454200403626"><ele>271.75</ele><time>2026-04-26T09:05:46Z</time></trkpt><trkpt lat="43.53457664353967" lon="11.897348432958694"><ele>271.5</ele><time>2026-04-26T09:05:47Z</time></trkpt><trkpt lat="43.53446435885729" lon="11.897251516603442"><ele>271.25</ele><time>2026-04-26T09:05:48Z</time></trkpt><trkpt lat="43.53436104465407" lon="11.897160112358243"><ele>271.0</ele><time>2026-04-26T09:05:49Z</time></trkpt><trkpt lat="43.5342678883003" lon="11.897073059117202"><ele>271.0</ele><time>2026-04-26T09:05:50Z</time></trkpt><trkpt lat="43.53418311540917" lon="11.89699194952997"><ele>271.0</ele><time>2026-04-26T09:05:51Z</time></trkpt><trkpt lat="43.53410635235722" lon="11.89692869348246"><ele>271.0</ele><time>2026-04-26T09:05:52Z</time></trkpt><trkpt lat="43.53404384465758" lon="11.896885844054056"><ele>271.0</ele><time>2026-04-26T09:05:53Z</time></trkpt><trkpt lat="43.53396433452731" lon="11.896917977598312"><ele>271.0</ele><time>2026-04-26T09:05:55Z</time></trkpt><trkpt lat="43.53396377032985" lon="11.897041991474426"><ele>271.0</ele><time>2026-04-26T09:05:57Z</time></trkpt><trkpt lat="43.53393462328795" lon="11.897176686482558"><ele>271.0</ele><time>2026-04-26T09:05:58Z</time></trkpt><trkpt lat="43.5338837731714" lon="11.897298857169186"><ele>271.0</ele><time>2026-04-26T09:05:59Z</time></trkpt><trkpt lat="43.53383703258769" lon="11.897386811598128"><ele>271.0</ele><time>2026-04-26T09:06:00Z</time></trkpt><trkpt lat="43.533800815831505" lon="11.897458170936924"><ele>271.0</ele><time>2026-04-26T09:06:01Z</time></trkpt><trkpt lat="43.53374787013034" lon="11.89760326113118"><ele>271.0</ele><time>2026-04-26T09:06:03Z</time></trkpt><trkpt lat="43.53366546904371" lon="11.897664660419096"><ele>271.0</ele><time>2026-04-26T09:06:05Z</time></trkpt><trkpt lat="43.53355393534131" lon="11.897623627367642"><ele>271.0</ele><time>2026-04-26T09:06:07Z</time></trkpt><trkpt lat="43.53346344104798" lon="11.897595714255486"><ele>271.0</ele><time>2026-04-26T09:06:08Z</time></trkpt><trkpt lat="43.53338074457283" lon="11.897565514453449"><ele>271.0</ele><time>2026-04-26T09:06:09Z</time></trkpt><trkpt lat="43.53330124600173" lon="11.8975461546395"><ele>271.0</ele><time>2026-04-26T09:06:10Z</time></trkpt><trkpt lat="43.53322488324217" lon="11.897518057475637"><ele>271.0</ele><time>2026-04-26T09:06:11Z</time></trkpt><trkpt lat="43.53315384712294" lon="11.8975052835921"><ele>271.0</ele><time>2026-04-26T09:06:12Z</time></trkpt><trkpt lat="43.53307473979287" lon="11.897487977030377"><ele>271.0</ele><time>2026-04-26T09:06:13Z</time></trkpt><trkpt lat="43.53297975996955" lon="11.897465305748579"><ele>271.0</ele><time>2026-04-26T09:06:14Z</time></trkpt><trkpt lat="43.53287916410592" lon="11.897433448211407"><ele>271.0</ele><time>2026-04-26T09:06:15Z</time></trkpt><trkpt lat="43.5327697827502" lon="11.897390600811672"><ele>270.8</ele><time>2026-04-26T09:06:16Z</time></trkpt><trkpt lat="43.53265249917753" lon="11.897344281568063"><ele>270.6</ele><time>2026-04-26T09:06:17Z</time></trkpt><trkpt lat="43.53254749469257" lon="11.897299995457244"><ele>270.4</ele><time>2026-04-26T09:06:18Z</time></trkpt><trkpt lat="43.53244806490342" lon="11.897260021541612"><ele>270.2</ele><time>2026-04-26T09:06:19Z</time></trkpt><trkpt lat="43.53233825319978" lon="11.897220653289509"><ele>270.0</ele><time>2026-04-26T09:06:20Z</time></trkpt><trkpt lat="43.53222182277581" lon="11.897178763522216"><ele>270.0</ele><time>2026-04-26T09:06:21Z</time></trkpt><trkpt lat="43.53211324127404" lon="11.897134128262683"><ele>270.0</ele><time>2026-04-26T09:06:22Z</time></trkpt><trkpt lat="43.53200826868042" lon="11.897084209066746"><ele>270.0</ele><time>2026-04-26T09:06:23Z</time></trkpt><trkpt lat="43.53190527839769" lon="11.89703549103891"><ele>270.0</ele><time>2026-04-26T09:06:24Z</time></trkpt><trkpt lat="43.531809682704335" lon="11.896983720270843"><ele>270.0</ele><time>2026-04-26T09:06:25Z</time></trkpt><trkpt lat="43.53171698975338" lon="11.896923726006857"><ele>269.75</ele><time>2026-04-26T09:06:26Z</time></trkpt><trkpt lat="43.53162350446479" lon="11.896847458202563"><ele>269.5</ele><time>2026-04-26T09:06:27Z</time></trkpt><trkpt lat="43.53152745284631" lon="11.896763277005247"><ele>269.25</ele><time>2026-04-26T09:06:28Z</time></trkpt><trkpt lat="43.531427208523425" lon="11.896676293825744"><ele>269.0</ele><time>2026-04-26T09:06:29Z</time></trkpt><trkpt lat="43.531322674725864" lon="11.896585156939075"><ele>269.59999999999997</ele><time>2026-04-26T09:06:30Z</time></trkpt><trkpt lat="43.531221003633064" lon="11.896490701549189"><ele>270.2</ele><time>2026-04-26T09:06:31Z</time></trkpt><trkpt lat="43.531120421869645" lon="11.89639621051151"><ele>270.79999999999995</ele><time>2026-04-26T09:06:32Z</time></trkpt><trkpt lat="43.53105153601413" lon="11.896290550721455"><ele>271.4</ele><time>2026-04-26T09:06:33Z</time></trkpt><trkpt lat="43.53097198060583" lon="11.896219871006622"><ele>272.0</ele><time>2026-04-26T09:06:34Z</time></trkpt><trkpt lat="43.53090537271253" lon="11.896104145057011"><ele>272.0</ele><time>2026-04-26T09:06:35Z</time></trkpt><trkpt lat="43.53080750822319" lon="11.896009295695862"><ele>272.0</ele><time>2026-04-26T09:06:36Z</time></trkpt><trkpt lat="43.53072807223928" lon="11.89589703804021"><ele>272.0</ele><time>2026-04-26T09:06:37Z</time></trkpt><trkpt lat="43.53062804823638" lon="11.895796710299527"><ele>272.0</ele><time>2026-04-26T09:06:38Z</time></trkpt><trkpt lat="43.53051582233115" lon="11.895700247658024"><ele>271.0</ele><time>2026-04-26T09:06:39Z</time></trkpt><trkpt lat="43.53039311558938" lon="11.895615039107824"><ele>270.0</ele><time>2026-04-26T09:06:40Z</time></trkpt><trkpt lat="43.5302593880837" lon="11.895532751955471"><ele>269.0</ele><time>2026-04-26T09:06:41Z</time></trkpt><trkpt lat="43.53013423832267" lon="11.895448782363099"><ele>268.0</ele><time>2026-04-26T09:06:42Z</time></trkpt><trkpt lat="43.53002034985954" lon="11.895365005286042"><ele>267.75</ele><time>2026-04-26T09:06:43Z</time></trkpt><trkpt lat="43.529894873859185" lon="11.895276333110838"><ele>267.5</ele><time>2026-04-26T09:06:44Z</time></trkpt><trkpt lat="43.52977098759271" lon="11.895193971677804"><ele>267.25</ele><time>2026-04-26T09:06:45Z</time></trkpt><trkpt lat="43.529663400053124" lon="11.895123745916182"><ele>267.0</ele><time>2026-04-26T09:06:46Z</time></trkpt><trkpt lat="43.52955731457435" lon="11.895068253469988"><ele>266.75</ele><time>2026-04-26T09:06:47Z</time></trkpt><trkpt lat="43.52943314462258" lon="11.895018809256456"><ele>266.5</ele><time>2026-04-26T09:06:48Z</time></trkpt><trkpt lat="43.52929369445082" lon="11.895004865353261"><ele>266.25</ele><time>2026-04-26T09:06:49Z</time></trkpt><trkpt lat="43.52914521839919" lon="11.895029262513875"><ele>266.0</ele><time>2026-04-26T09:06:50Z</time></trkpt><trkpt lat="43.52900170092186" lon="11.895069896091279"><ele>266.1666666666667</ele><time>2026-04-26T09:06:51Z</time></trkpt><trkpt lat="43.52888857888597" lon="11.895095656879402"><ele>266.33333333333337</ele><time>2026-04-26T09:06:52Z</time></trkpt><trkpt lat="43.528809317667495" lon="11.8951110950062"><ele>266.5</ele><time>2026-04-26T09:06:53Z</time></trkpt><trkpt lat="43.52874428308242" lon="11.895121565283192"><ele>266.6666666666667</ele><time>2026-04-26T09:06:54Z</time></trkpt><trkpt lat="43.52867405798909" lon="11.895131025243145"><ele>266.8333333333333</ele><time>2026-04-26T09:06:55Z</time></trkpt><trkpt lat="43.528579976882895" lon="11.895136557865655"><ele>267.0</ele><time>2026-04-26T09:06:56Z</time></trkpt><trkpt lat="43.52847233184039" lon="11.895130030920424"><ele>266.5</ele><time>2026-04-26T09:06:57Z</time></trkpt><trkpt lat="43.52837549518143" lon="11.895110464004295"><ele>266.0</ele><time>2026-04-26T09:06:58Z</time></trkpt><trkpt lat="43.52828868212218" lon="11.895083786330288"><ele>265.5</ele><time>2026-04-26T09:06:59Z</time></trkpt><trkpt lat="43.52822176496035" lon="11.895061293485847"><ele>265.0</ele><time>2026-04-26T09:07:00Z</time></trkpt><trkpt lat="43.52813119748973" lon="11.895033310339187"><ele>264.5</ele><time>2026-04-26T09:07:01Z</time></trkpt><trkpt lat="43.52803510595608" lon="11.895009588179377"><ele>264.0</ele><time>2026-04-26T09:07:02Z</time></trkpt><trkpt lat="43.52795711926022" lon="11.894979051320785"><ele>265.59999999999997</ele><time>2026-04-26T09:07:03Z</time></trkpt><trkpt lat="43.52788024653297" lon="11.894942809578792"><ele>267.2</ele><time>2026-04-26T09:07:04Z</time></trkpt><trkpt lat="43.52778503706569" lon="11.894905695847795"><ele>268.79999999999995</ele><time>2026-04-26T09:07:05Z</time></trkpt><trkpt lat="43.52768583424181" lon="11.894855408145252"><ele>270.4</ele><time>2026-04-26T09:07:06Z</time></trkpt><trkpt lat="43.527587535286415" lon="11.894784433268482"><ele>272.0</ele><time>2026-04-26T09:07:07Z</time></trkpt><trkpt lat="43.52748681575728" lon="11.894700941051733"><ele>272.0</ele><time>2026-04-26T09:07:08Z</time></trkpt><trkpt lat="43.52738368821314" lon="11.894602278996217"><ele>272.0</ele><time>2026-04-26T09:07:09Z</time></trkpt><trkpt lat="43.527286970206085" lon="11.89448760952215"><ele>272.0</ele><time>2026-04-26T09:07:10Z</time></trkpt><trkpt lat="43.52720090282171" lon="11.894371096878121"><ele>272.0</ele><time>2026-04-26T09:07:11Z</time></trkpt><trkpt lat="43.527123140995236" lon="11.89426415174832"><ele>272.2</ele><time>2026-04-26T09:07:12Z</time></trkpt><trkpt lat="43.52704952940307" lon="11.894163047580236"><ele>272.4</ele><time>2026-04-26T09:07:13Z</time></trkpt><trkpt lat="43.526985126699216" lon="11.894057853793361"><ele>272.6</ele><time>2026-04-26T09:07:14Z</time></trkpt><trkpt lat="43.52690939257071" lon="11.893960733592808"><ele>272.8</ele><time>2026-04-26T09:07:15Z</time></trkpt><trkpt lat="43.52682412712655" lon="11.893874980571024"><ele>273.0</ele><time>2026-04-26T09:07:16Z</time></trkpt><trkpt lat="43.52672971461203" lon="11.89378589985271"><ele>273.0</ele><time>2026-04-26T09:07:17Z</time></trkpt><trkpt lat="43.526616159547224" lon="11.893713144436969"><ele>273.0</ele><time>2026-04-26T09:07:18Z</time></trkpt><trkpt lat="43.526489448310336" lon="11.893661970608072"><ele>273.0</ele><time>2026-04-26T09:07:19Z</time></trkpt><trkpt lat="43.5263447045446" lon="11.89362952622024"><ele>273.0</ele><time>2026-04-26T09:07:20Z</time></trkpt><trkpt lat="43.52622478666097" lon="11.893599231043085"><ele>272.5</ele><time>2026-04-26T09:07:21Z</time></trkpt><trkpt lat="43.526141333471394" lon="11.893578053462523"><ele>272.0</ele><time>2026-04-26T09:07:22Z</time></trkpt><trkpt lat="43.5260638406322" lon="11.893547730132564"><ele>271.5</ele><time>2026-04-26T09:07:23Z</time></trkpt><trkpt lat="43.525995089100896" lon="11.893521092181178"><ele>271.0</ele><time>2026-04-26T09:07:24Z</time></trkpt><trkpt lat="43.525929187623376" lon="11.893496381147203"><ele>270.5</ele><time>2026-04-26T09:07:25Z</time></trkpt><trkpt lat="43.526033825160425" lon="11.893535376517066"><ele>270.0</ele><time>2026-04-26T09:07:33.001Z</time></trkpt><trkpt lat="43.526137911257074" lon="11.893571753861458"><ele>270.6</ele><time>2026-04-26T09:07:34.001Z</time></trkpt><trkpt lat="43.52624090720992" lon="11.893607750184461"><ele>271.2</ele><time>2026-04-26T09:07:35.001Z</time></trkpt><trkpt lat="43.52633339287095" lon="11.893640073160771"><ele>271.8</ele><time>2026-04-26T09:07:36.001Z</time></trkpt><trkpt lat="43.526411726473846" lon="11.893667449807216"><ele>272.4</ele><time>2026-04-26T09:07:38Z</time></trkpt><trkpt lat="43.52636450275502" lon="11.893778940614133"><ele>273.0</ele><time>2026-04-26T09:07:41Z</time></trkpt><trkpt lat="43.526256292782186" lon="11.89385320672259"><ele>272.4</ele><time>2026-04-26T09:07:43Z</time></trkpt><trkpt lat="43.52617903994689" lon="11.893927901298552"><ele>271.8</ele><time>2026-04-26T09:07:44Z</time></trkpt><trkpt lat="43.526086880741076" lon="11.893986234450892"><ele>271.2</ele><time>2026-04-26T09:07:45Z</time></trkpt><trkpt lat="43.525992608948755" lon="11.894076009026259"><ele>270.6</ele><time>2026-04-26T09:07:46Z</time></trkpt><trkpt lat="43.52590742096218" lon="11.894169526723951"><ele>270.0</ele><time>2026-04-26T09:07:47Z</time></trkpt><trkpt lat="43.525827500968624" lon="11.894264414875883"><ele>272.0</ele><time>2026-04-26T09:07:48Z</time></trkpt><trkpt lat="43.52575455829166" lon="11.894353931195095"><ele>274.0</ele><time>2026-04-26T09:07:49Z</time></trkpt><trkpt lat="43.525671935502686" lon="11.894445261513694"><ele>276.0</ele><time>2026-04-26T09:07:50Z</time></trkpt><trkpt lat="43.525610353030686" lon="11.894526000940285"><ele>278.0</ele><time>2026-04-26T09:07:51Z</time></trkpt><trkpt lat="43.52554991723884" lon="11.894578474206513"><ele>280.0</ele><time>2026-04-26T09:07:52Z</time></trkpt><trkpt lat="43.525488462896085" lon="11.89460931345323"><ele>282.0</ele><time>2026-04-26T09:07:53Z</time></trkpt><trkpt lat="43.52542416920357" lon="11.894707890751818"><ele>280.8333333333333</ele><time>2026-04-26T09:07:55Z</time></trkpt><trkpt lat="43.5253931376927" lon="11.894790633042437"><ele>279.6666666666667</ele><time>2026-04-26T09:07:57Z</time></trkpt><trkpt lat="43.52532519652509" lon="11.894900128188624"><ele>278.5</ele><time>2026-04-26T09:07:59Z</time></trkpt><trkpt lat="43.52528439055682" lon="11.894981643115356"><ele>277.33333333333337</ele><time>2026-04-26T09:08:00Z</time></trkpt><trkpt lat="43.52524705800982" lon="11.89505975855848"><ele>276.1666666666667</ele><time>2026-04-26T09:08:01Z</time></trkpt><trkpt lat="43.52518854831082" lon="11.895186677112758"><ele>275.0</ele><time>2026-04-26T09:08:03Z</time></trkpt><trkpt lat="43.52515449548485" lon="11.89527736117893"><ele>275.0</ele><time>2026-04-26T09:08:05Z</time></trkpt><trkpt lat="43.52510872333703" lon="11.895341567571167"><ele>275.0</ele><time>2026-04-26T09:08:07Z</time></trkpt><trkpt lat="43.52481055852605" lon="11.895268436240046"><ele>275.0</ele><time>2026-04-26T09:08:09Z</time></trkpt><trkpt lat="43.52470422116237" lon="11.89531720399551"><ele>275.0</ele><time>2026-04-26T09:08:11Z</time></trkpt><trkpt lat="43.524631349799684" lon="11.895336205655973"><ele>275.0</ele><time>2026-04-26T09:08:12Z</time></trkpt><trkpt lat="43.52454496174499" lon="11.895371086502537"><ele>275.0</ele><time>2026-04-26T09:08:13Z</time></trkpt><trkpt lat="43.524455080429576" lon="11.895406034531002"><ele>275.0</ele><time>2026-04-26T09:08:14Z</time></trkpt><trkpt lat="43.524375848800325" lon="11.895436307316158"><ele>275.0</ele><time>2026-04-26T09:08:15Z</time></trkpt><trkpt lat="43.52431454154192" lon="11.895460114166635"><ele>275.0</ele><time>2026-04-26T09:08:16Z</time></trkpt><trkpt lat="43.52424039360705" lon="11.89548319698323"><ele>274.6666666666667</ele><time>2026-04-26T09:08:17Z</time></trkpt><trkpt lat="43.52413566735668" lon="11.895504963934243"><ele>274.33333333333337</ele><time>2026-04-26T09:08:19Z</time></trkpt><trkpt lat="43.524071908301444" lon="11.895515136643432"><ele>274.0</ele><time>2026-04-26T09:08:20Z</time></trkpt><trkpt lat="43.524001422232885" lon="11.895537530386147"><ele>273.6666666666667</ele><time>2026-04-26T09:08:21Z</time></trkpt><trkpt lat="43.52392887535762" lon="11.895563711158255"><ele>273.3333333333333</ele><time>2026-04-26T09:08:22Z</time></trkpt><trkpt lat="43.52381749234507" lon="11.895610860252127"><ele>273.0</ele><time>2026-04-26T09:08:24Z</time></trkpt><trkpt lat="43.523692555854105" lon="11.895638545808843"><ele>272.3333333333333</ele><time>2026-04-26T09:08:26Z</time></trkpt><trkpt lat="43.52362640383646" lon="11.895658005950773"><ele>271.6666666666667</ele><time>2026-04-26T09:08:27Z</time></trkpt><trkpt lat="43.523551600440356" lon="11.895686570256963"><ele>271.0</ele><time>2026-04-26T09:08:28Z</time></trkpt><trkpt lat="43.52348581246159" lon="11.89571635105977"><ele>270.33333333333337</ele><time>2026-04-26T09:08:29Z</time></trkpt><trkpt lat="43.523378011921864" lon="11.895757877957744"><ele>269.6666666666667</ele><time>2026-04-26T09:08:31Z</time></trkpt><trkpt lat="43.52327441401772" lon="11.895803277527431"><ele>269.0</ele><time>2026-04-26T09:08:33Z</time></trkpt><trkpt lat="43.52321302594722" lon="11.8958552650415"><ele>269.0</ele><time>2026-04-26T09:08:34Z</time></trkpt><trkpt lat="43.52313445083854" lon="11.895913752120304"><ele>269.0</ele><time>2026-04-26T09:08:35Z</time></trkpt><trkpt lat="43.523070341834284" lon="11.895975962819145"><ele>269.0</ele><time>2026-04-26T09:08:36Z</time></trkpt><trkpt lat="43.522997906307424" lon="11.896019243632312"><ele>269.0</ele><time>2026-04-26T09:08:37Z</time></trkpt><trkpt lat="43.52293350014345" lon="11.896073532409021"><ele>269.0</ele><time>2026-04-26T09:08:38Z</time></trkpt><trkpt lat="43.522879683030915" lon="11.896137692340622"><ele>269.0</ele><time>2026-04-26T09:08:39Z</time></trkpt><trkpt lat="43.52282233897147" lon="11.896211022024023"><ele>269.0</ele><time>2026-04-26T09:08:40Z</time></trkpt><trkpt lat="43.52278111395961" lon="11.896295625993767"><ele>269.0</ele><time>2026-04-26T09:08:41Z</time></trkpt><trkpt lat="43.52273115908282" lon="11.896427532809128"><ele>269.0</ele><time>2026-04-26T09:08:43Z</time></trkpt><trkpt lat="43.522714905589446" lon="11.896516175826626"><ele>269.0</ele><time>2026-04-26T09:08:51Z</time></trkpt><trkpt lat="43.52264807501372" lon="11.896536773101236"><ele>269.0</ele><time>2026-04-26T09:08:52Z</time></trkpt><trkpt lat="43.522587728527235" lon="11.896568176416334"><ele>269.0</ele><time>2026-04-26T09:08:53Z</time></trkpt><trkpt lat="43.522512258772686" lon="11.896599858252236"><ele>269.0</ele><time>2026-04-26T09:08:54Z</time></trkpt><trkpt lat="43.522419681144086" lon="11.896612005469489"><ele>269.0</ele><time>2026-04-26T09:08:55Z</time></trkpt><trkpt lat="43.522323822418564" lon="11.896599306608659"><ele>269.0</ele><time>2026-04-26T09:08:56Z</time></trkpt><trkpt lat="43.522232403986216" lon="11.89657130172662"><ele>269.0</ele><time>2026-04-26T09:08:57Z</time></trkpt><trkpt lat="43.52213929098377" lon="11.896537400922494"><ele>269.0</ele><time>2026-04-26T09:08:58Z</time></trkpt><trkpt lat="43.52204992548862" lon="11.896434276834677"><ele>268.75</ele><time>2026-04-26T09:08:59Z</time></trkpt><trkpt lat="43.52193789889356" lon="11.896361309862133"><ele>268.5</ele><time>2026-04-26T09:09:00Z</time></trkpt><trkpt lat="43.52183098646273" lon="11.8962512104042"><ele>268.25</ele><time>2026-04-26T09:09:01Z</time></trkpt><trkpt lat="43.521725194293445" lon="11.896157949131112"><ele>268.0</ele><time>2026-04-26T09:09:02Z</time></trkpt><trkpt lat="43.52162729843913" lon="11.896077723864853"><ele>268.0</ele><time>2026-04-26T09:09:03Z</time></trkpt><trkpt lat="43.52154695140143" lon="11.896004381054398"><ele>268.0</ele><time>2026-04-26T09:09:04Z</time></trkpt><trkpt lat="43.52148697364541" lon="11.895943823831793"><ele>268.0</ele><time>2026-04-26T09:09:05Z</time></trkpt><trkpt lat="43.52142819482869" lon="11.895895547539828"><ele>268.0</ele><time>2026-04-26T09:09:13Z</time></trkpt><trkpt lat="43.52138417905613" lon="11.895831954645157"><ele>268.0</ele><time>2026-04-26T09:09:14Z</time></trkpt><trkpt lat="43.521326130778704" lon="11.8957726221533"><ele>268.0</ele><time>2026-04-26T09:09:15Z</time></trkpt><trkpt lat="43.52130889162517" lon="11.89567910038994"><ele>268.0</ele><time>2026-04-26T09:09:16Z</time></trkpt><trkpt lat="43.52128892019684" lon="11.895571646056633"><ele>268.0</ele><time>2026-04-26T09:09:17Z</time></trkpt><trkpt lat="43.52129572680156" lon="11.89544446900931"><ele>268.0</ele><time>2026-04-26T09:09:18Z</time></trkpt><trkpt lat="43.521322103748965" lon="11.89530862936786"><ele>268.0</ele><time>2026-04-26T09:09:19Z</time></trkpt><trkpt lat="43.52136179766064" lon="11.895197641205352"><ele>268.0</ele><time>2026-04-26T09:09:20Z</time></trkpt><trkpt lat="43.52139665741567" lon="11.895096161453425"><ele>268.0</ele><time>2026-04-26T09:09:21Z</time></trkpt><trkpt lat="43.52143237135435" lon="11.89499487773251"><ele>268.0</ele><time>2026-04-26T09:09:22Z</time></trkpt><trkpt lat="43.521470793364045" lon="11.894873430955402"><ele>268.0</ele><time>2026-04-26T09:09:23Z</time></trkpt><trkpt lat="43.521501652907354" lon="11.894734466173166"><ele>268.0</ele><time>2026-04-26T09:09:24Z</time></trkpt><trkpt lat="43.52151917796406" lon="11.894594405449181"><ele>268.0</ele><time>2026-04-26T09:09:25Z</time></trkpt><trkpt lat="43.52152687446255" lon="11.894464458336804"><ele>268.0</ele><time>2026-04-26T09:09:26Z</time></trkpt><trkpt lat="43.52153057410421" lon="11.894349078821486"><ele>268.0</ele><time>2026-04-26T09:09:27Z</time></trkpt><trkpt lat="43.52153157123439" lon="11.894251937246308"><ele>268.0</ele><time>2026-04-26T09:09:29Z</time></trkpt><trkpt lat="43.521393287498874" lon="11.89430853632706"><ele>268.0</ele><time>2026-04-26T09:09:34.001Z</time></trkpt><trkpt lat="43.52134751869647" lon="11.894417896241247"><ele>268.0</ele><time>2026-04-26T09:09:36.001Z</time></trkpt><trkpt lat="43.5212815194308" lon="11.894533974371354"><ele>268.0</ele><time>2026-04-26T09:09:38.001Z</time></trkpt><trkpt lat="43.521254268709654" lon="11.894624895164066"><ele>268.0</ele><time>2026-04-26T09:09:39.001Z</time></trkpt><trkpt lat="43.521202055175074" lon="11.894695251087809"><ele>270.0</ele><time>2026-04-26T09:09:40.001Z</time></trkpt><trkpt lat="43.521157834447514" lon="11.894789753639703"><ele>272.0</ele><time>2026-04-26T09:09:41.001Z</time></trkpt><trkpt lat="43.52110528037412" lon="11.894885721320845"><ele>274.0</ele><time>2026-04-26T09:09:42.001Z</time></trkpt><trkpt lat="43.52105799244354" lon="11.894976568192819"><ele>276.0</ele><time>2026-04-26T09:09:43.001Z</time></trkpt><trkpt lat="43.521019415725995" lon="11.895051597428077"><ele>278.0</ele><time>2026-04-26T09:09:44.001Z</time></trkpt><trkpt lat="43.52095441921737" lon="11.895167058057122"><ele>280.0</ele><time>2026-04-26T09:09:46.001Z</time></trkpt><trkpt lat="43.52091988782572" lon="11.895261065202943"><ele>280.0</ele><time>2026-04-26T09:09:48.001Z</time></trkpt><trkpt lat="43.52089910545643" lon="11.895382131748676"><ele>280.0</ele><time>2026-04-26T09:09:50.001Z</time></trkpt><trkpt lat="43.520888223503135" lon="11.895472914936482"><ele>280.0</ele><time>2026-04-26T09:09:51.001Z</time></trkpt><trkpt lat="43.52088013599261" lon="11.895575002949014"><ele>280.0</ele><time>2026-04-26T09:09:52.001Z</time></trkpt><trkpt lat="43.520871488651" lon="11.89568015660788"><ele>280.0</ele><time>2026-04-26T09:09:53.001Z</time></trkpt><trkpt lat="43.52086362120554" lon="11.895776138256005"><ele>280.0</ele><time>2026-04-26T09:09:54.001Z</time></trkpt><trkpt lat="43.52085144810464" lon="11.895870219517764"><ele>280.0</ele><time>2026-04-26T09:09:55.001Z</time></trkpt><trkpt lat="43.52083819882839" lon="11.895962112840607"><ele>279.2</ele><time>2026-04-26T09:09:56Z</time></trkpt><trkpt lat="43.52079905768144" lon="11.896116070253221"><ele>278.4</ele><time>2026-04-26T09:09:58Z</time></trkpt><trkpt lat="43.52076490924055" lon="11.896199994251223"><ele>277.6</ele><time>2026-04-26T09:09:59Z</time></trkpt><trkpt lat="43.52070990317794" lon="11.896347784554122"><ele>276.8</ele><time>2026-04-26T09:10:01Z</time></trkpt><trkpt lat="43.520682350744316" lon="11.896485498216208"><ele>276.0</ele><time>2026-04-26T09:10:03Z</time></trkpt><trkpt lat="43.52067794814735" lon="11.89666496617861"><ele>275.6666666666667</ele><time>2026-04-26T09:10:05Z</time></trkpt><trkpt lat="43.52067114227863" lon="11.896778583562133"><ele>275.3333333333333</ele><time>2026-04-26T09:10:06Z</time></trkpt><trkpt lat="43.52065730158474" lon="11.896885870251394"><ele>275.0</ele><time>2026-04-26T09:10:07Z</time></trkpt><trkpt lat="43.520627957518855" lon="11.896984250615848"><ele>274.66666666666663</ele><time>2026-04-26T09:10:08Z</time></trkpt><trkpt lat="43.52060250039115" lon="11.897067953230518"><ele>274.3333333333333</ele><time>2026-04-26T09:10:09Z</time></trkpt><trkpt lat="43.52057843796963" lon="11.89721702623249"><ele>274.0</ele><time>2026-04-26T09:10:11Z</time></trkpt><trkpt lat="43.52056940653894" lon="11.897369975773694"><ele>274.0</ele><time>2026-04-26T09:10:13Z</time></trkpt><trkpt lat="43.520568761645634" lon="11.897498775433291"><ele>274.0</ele><time>2026-04-26T09:10:15Z</time></trkpt><trkpt lat="43.52056158680359" lon="11.897626657050422"><ele>274.0</ele><time>2026-04-26T09:10:17Z</time></trkpt><trkpt lat="43.52054934991431" lon="11.897775270016277"><ele>274.0</ele><time>2026-04-26T09:10:19Z</time></trkpt><trkpt lat="43.520544035347136" lon="11.897869108538815"><ele>274.0</ele><time>2026-04-26T09:10:20Z</time></trkpt><trkpt lat="43.52053474484917" lon="11.89800469279252"><ele>273.59999999999997</ele><time>2026-04-26T09:10:22Z</time></trkpt><trkpt lat="43.52052773178748" lon="11.898125830724773"><ele>273.2</ele><time>2026-04-26T09:10:24Z</time></trkpt><trkpt lat="43.520503314320145" lon="11.898277151255199"><ele>272.79999999999995</ele><time>2026-04-26T09:10:26Z</time></trkpt><trkpt lat="43.52050187897259" lon="11.898444540014939"><ele>272.4</ele><time>2026-04-26T09:10:28Z</time></trkpt><trkpt lat="43.520495280479906" lon="11.898538021928724"><ele>272.0</ele><time>2026-04-26T09:10:29Z</time></trkpt><trkpt lat="43.5204659775058" lon="11.898694243275251"><ele>271.8</ele><time>2026-04-26T09:10:31Z</time></trkpt><trkpt lat="43.52044684984183" lon="11.898865860740719"><ele>271.6</ele><time>2026-04-26T09:10:33Z</time></trkpt><trkpt lat="43.52043388091735" lon="11.898957482089367"><ele>271.40000000000003</ele><time>2026-04-26T09:10:34Z</time></trkpt><trkpt lat="43.52040663955304" lon="11.899093157004538"><ele>271.2</ele><time>2026-04-26T09:10:36Z</time></trkpt><trkpt lat="43.520354642217086" lon="11.89923121664475"><ele>271.0</ele><time>2026-04-26T09:10:38Z</time></trkpt><trkpt lat="43.52028666077949" lon="11.899341662551596"><ele>272.2</ele><time>2026-04-26T09:10:40Z</time></trkpt><trkpt lat="43.5202342127043" lon="11.899439315280144"><ele>273.40000000000003</ele><time>2026-04-26T09:10:42Z</time></trkpt><trkpt lat="43.520190918936244" lon="11.89952996897434"><ele>274.6</ele><time>2026-04-26T09:10:44Z</time></trkpt><trkpt lat="43.52013476700441" lon="11.899636492934192"><ele>275.8</ele><time>2026-04-26T09:10:46Z</time></trkpt><trkpt lat="43.52006099026289" lon="11.899700573601455"><ele>277.0</ele><time>2026-04-26T09:10:48Z</time></trkpt><trkpt lat="43.519982177192375" lon="11.899785627588264"><ele>277.0</ele><time>2026-04-26T09:10:50Z</time></trkpt><trkpt lat="43.51991546822605" lon="11.899918260090889"><ele>277.0</ele><time>2026-04-26T09:10:52Z</time></trkpt><trkpt lat="43.51986648730925" lon="11.899985766823608"><ele>277.0</ele><time>2026-04-26T09:10:53Z</time></trkpt><trkpt lat="43.51982371634529" lon="11.900071850132028"><ele>277.0</ele><time>2026-04-26T09:10:54Z</time></trkpt><trkpt lat="43.519775142442434" lon="11.900208329554422"><ele>277.0</ele><time>2026-04-26T09:10:56Z</time></trkpt><trkpt lat="43.51974761578632" lon="11.900303517824113"><ele>277.0</ele><time>2026-04-26T09:10:57Z</time></trkpt><trkpt lat="43.51970101260474" lon="11.90043864325756"><ele>277.2</ele><time>2026-04-26T09:10:59Z</time></trkpt><trkpt lat="43.51965205961609" lon="11.900601689835144"><ele>277.4</ele><time>2026-04-26T09:11:01Z</time></trkpt><trkpt lat="43.51960573803606" lon="11.900684329726587"><ele>277.6</ele><time>2026-04-26T09:11:02Z</time></trkpt><trkpt lat="43.519542856108316" lon="11.90082215923147"><ele>277.8</ele><time>2026-04-26T09:11:04Z</time></trkpt><trkpt lat="43.519478210773705" lon="11.900952840467225"><ele>278.0</ele><time>2026-04-26T09:11:06Z</time></trkpt><trkpt lat="43.519428729695115" lon="11.901011541926229"><ele>278.0</ele><time>2026-04-26T09:11:07Z</time></trkpt><trkpt lat="43.5193888079626" lon="11.901079641629291"><ele>278.0</ele><time>2026-04-26T09:11:08Z</time></trkpt><trkpt lat="43.51933867511764" lon="11.901173034808906"><ele>278.0</ele><time>2026-04-26T09:11:10Z</time></trkpt><trkpt lat="43.519290234472614" lon="11.90124658057923"><ele>278.0</ele><time>2026-04-26T09:11:12Z</time></trkpt><trkpt lat="43.51930074429916" lon="11.901333579343296"><ele>278.0</ele><time>2026-04-26T09:11:14Z</time></trkpt><trkpt lat="43.519347335773716" lon="11.901436212762796"><ele>278.0</ele><time>2026-04-26T09:11:16Z</time></trkpt><trkpt lat="43.51934717735192" lon="11.901540277181908"><ele>278.0</ele><time>2026-04-26T09:11:19Z</time></trkpt><trkpt lat="43.51927697062255" lon="11.901659259221086"><ele>278.0</ele><time>2026-04-26T09:11:21Z</time></trkpt><trkpt lat="43.51922912720633" lon="11.901722337105248"><ele>278.0</ele><time>2026-04-26T09:11:22Z</time></trkpt><trkpt lat="43.51915532246368" lon="11.901831155615495"><ele>278.0</ele><time>2026-04-26T09:11:24Z</time></trkpt><trkpt lat="43.51909571619825" lon="11.901900105305344"><ele>278.0</ele><time>2026-04-26T09:11:25Z</time></trkpt><trkpt lat="43.519046909614005" lon="11.901980127171838"><ele>278.0</ele><time>2026-04-26T09:11:26Z</time></trkpt><trkpt lat="43.51895199477976" lon="11.902100741206404"><ele>277.8</ele><time>2026-04-26T09:11:28Z</time></trkpt><trkpt lat="43.518910173454145" lon="11.902181904441068"><ele>277.6</ele><time>2026-04-26T09:11:29Z</time></trkpt><trkpt lat="43.51885751134" lon="11.902347161666777"><ele>277.4</ele><time>2026-04-26T09:11:31Z</time></trkpt><trkpt lat="43.51881574804101" lon="11.902496119878856"><ele>277.2</ele><time>2026-04-26T09:11:33Z</time></trkpt><trkpt lat="43.51877615066303" lon="11.902662988417042"><ele>277.0</ele><time>2026-04-26T09:11:35Z</time></trkpt><trkpt lat="43.51875542852448" lon="11.90277467082063"><ele>277.0</ele><time>2026-04-26T09:11:36Z</time></trkpt><trkpt lat="43.518735414513166" lon="11.902863069663846"><ele>277.0</ele><time>2026-04-26T09:11:37Z</time></trkpt><trkpt lat="43.51870153608929" lon="11.903019532967578"><ele>277.0</ele><time>2026-04-26T09:11:39Z</time></trkpt><trkpt lat="43.51867401625414" lon="11.903178033585526"><ele>277.0</ele><time>2026-04-26T09:11:41.001Z</time></trkpt><trkpt lat="43.51864940084214" lon="11.9033217984362"><ele>277.0</ele><time>2026-04-26T09:11:43.001Z</time></trkpt><trkpt lat="43.51861660319083" lon="11.903447043709335"><ele>277.66666666666663</ele><time>2026-04-26T09:11:45.001Z</time></trkpt><trkpt lat="43.51860056938902" lon="11.903591671072455"><ele>278.3333333333333</ele><time>2026-04-26T09:11:47.001Z</time></trkpt><trkpt lat="43.51857027080887" lon="11.90367937064665"><ele>279.0</ele><time>2026-04-26T09:11:48.001Z</time></trkpt><trkpt lat="43.51853744630549" lon="11.90375584533772"><ele>279.6666666666667</ele><time>2026-04-26T09:11:49.001Z</time></trkpt><trkpt lat="43.51848869951782" lon="11.903842724211712"><ele>280.33333333333337</ele><time>2026-04-26T09:11:50.001Z</time></trkpt><trkpt lat="43.51845312871733" lon="11.90392575718771"><ele>281.0</ele><time>2026-04-26T09:11:51.001Z</time></trkpt><trkpt lat="43.518405657430506" lon="11.903991199983354"><ele>281.0</ele><time>2026-04-26T09:11:52.001Z</time></trkpt><trkpt lat="43.518349063208184" lon="11.90411492323017"><ele>281.0</ele><time>2026-04-26T09:11:54.001Z</time></trkpt><trkpt lat="43.51831093958887" lon="11.904200045959886"><ele>281.0</ele><time>2026-04-26T09:11:55.001Z</time></trkpt><trkpt lat="43.5182788492798" lon="11.904291473810162"><ele>281.0</ele><time>2026-04-26T09:11:56.001Z</time></trkpt><trkpt lat="43.51823400402326" lon="11.904403543498216"><ele>281.0</ele><time>2026-04-26T09:11:57.001Z</time></trkpt><trkpt lat="43.51817432586758" lon="11.904484806101829"><ele>281.0</ele><time>2026-04-26T09:11:58.001Z</time></trkpt><trkpt lat="43.518141636704534" lon="11.904578549356252"><ele>281.0</ele><time>2026-04-26T09:11:59.001Z</time></trkpt><trkpt lat="43.51808905782485" lon="11.904660494732449"><ele>281.0</ele><time>2026-04-26T09:12:00Z</time></trkpt><trkpt lat="43.51804152557404" lon="11.904748464010618"><ele>281.0</ele><time>2026-04-26T09:12:01Z</time></trkpt><trkpt lat="43.517990085725366" lon="11.904821233052411"><ele>281.0</ele><time>2026-04-26T09:12:02Z</time></trkpt><trkpt lat="43.51794337346372" lon="11.90490577373978"><ele>281.0</ele><time>2026-04-26T09:12:03Z</time></trkpt><trkpt lat="43.517892659917806" lon="11.904981499010471"><ele>281.0</ele><time>2026-04-26T09:12:04Z</time></trkpt><trkpt lat="43.51781617035258" lon="11.905099452900686"><ele>281.5</ele><time>2026-04-26T09:12:06Z</time></trkpt><trkpt lat="43.51777431324551" lon="11.90516890853198"><ele>282.0</ele><time>2026-04-26T09:12:07Z</time></trkpt><trkpt lat="43.51768708303864" lon="11.905303607321935"><ele>282.5</ele><time>2026-04-26T09:12:09Z</time></trkpt><trkpt lat="43.51762824895359" lon="11.905383125404033"><ele>283.0</ele><time>2026-04-26T09:12:10Z</time></trkpt><trkpt lat="43.517577532977725" lon="11.905477251894396"><ele>283.5</ele><time>2026-04-26T09:12:11Z</time></trkpt><trkpt lat="43.51753932162446" lon="11.905581552967803"><ele>284.0</ele><time>2026-04-26T09:12:12Z</time></trkpt><trkpt lat="43.517508539225545" lon="11.905680010707293"><ele>284.0</ele><time>2026-04-26T09:12:13Z</time></trkpt><trkpt lat="43.51747248570007" lon="11.905769349782915"><ele>284.0</ele><time>2026-04-26T09:12:14Z</time></trkpt><trkpt lat="43.51743601895359" lon="11.90584627599234"><ele>284.0</ele><time>2026-04-26T09:12:15Z</time></trkpt><trkpt lat="43.51738269368158" lon="11.905914295913423"><ele>284.0</ele><time>2026-04-26T09:12:16Z</time></trkpt><trkpt lat="43.51732926898031" lon="11.905992330105585"><ele>284.0</ele><time>2026-04-26T09:12:17Z</time></trkpt><trkpt lat="43.517277809322614" lon="11.906065907517174"><ele>284.0</ele><time>2026-04-26T09:12:18Z</time></trkpt><trkpt lat="43.517226496904144" lon="11.90614491694129"><ele>284.0</ele><time>2026-04-26T09:12:19Z</time></trkpt><trkpt lat="43.51717229061516" lon="11.906223421615223"><ele>284.59999999999997</ele><time>2026-04-26T09:12:20Z</time></trkpt><trkpt lat="43.51711933544406" lon="11.906318674808606"><ele>285.2</ele><time>2026-04-26T09:12:21Z</time></trkpt><trkpt lat="43.51705739072637" lon="11.906391540114065"><ele>285.79999999999995</ele><time>2026-04-26T09:12:22Z</time></trkpt><trkpt lat="43.517004036318205" lon="11.906440687320051"><ele>286.4</ele><time>2026-04-26T09:12:23Z</time></trkpt><trkpt lat="43.51691118095648" lon="11.906553588219154"><ele>287.0</ele><time>2026-04-26T09:12:25Z</time></trkpt><trkpt lat="43.51680777937842" lon="11.906615132991336"><ele>286.8</ele><time>2026-04-26T09:12:27Z</time></trkpt><trkpt lat="43.51668792513494" lon="11.906688613407644"><ele>286.6</ele><time>2026-04-26T09:12:29Z</time></trkpt><trkpt lat="43.516629241613416" lon="11.90673617384405"><ele>286.40000000000003</ele><time>2026-04-26T09:12:30Z</time></trkpt><trkpt lat="43.51653500659428" lon="11.906773080449264"><ele>286.2</ele><time>2026-04-26T09:12:32Z</time></trkpt><trkpt lat="43.5164422575865" lon="11.906829328567689"><ele>286.0</ele><time>2026-04-26T09:12:34Z</time></trkpt><trkpt lat="43.51644970828566" lon="11.90699734947075"><ele>286.0</ele><time>2026-04-26T09:12:35Z</time></trkpt><trkpt lat="43.51642233551276" lon="11.907127947717518"><ele>286.0</ele><time>2026-04-26T09:12:37Z</time></trkpt><trkpt lat="43.51642451825667" lon="11.907275362660101"><ele>286.0</ele><time>2026-04-26T09:12:39Z</time></trkpt><trkpt lat="43.51642282070222" lon="11.907394904275927"><ele>286.0</ele><time>2026-04-26T09:12:41Z</time></trkpt><trkpt lat="43.516418368495515" lon="11.907527753230658"><ele>286.0</ele><time>2026-04-26T09:12:44Z</time></trkpt><trkpt lat="43.5164119054071" lon="11.907696966879419"><ele>286.66666666666663</ele><time>2026-04-26T09:12:46Z</time></trkpt><trkpt lat="43.51643020937607" lon="11.90783675012181"><ele>287.3333333333333</ele><time>2026-04-26T09:12:48Z</time></trkpt><trkpt lat="43.51643416303378" lon="11.907951652272123"><ele>288.0</ele><time>2026-04-26T09:12:50Z</time></trkpt><trkpt lat="43.5164277439656" lon="11.908066693180844"><ele>288.6666666666667</ele><time>2026-04-26T09:12:53Z</time></trkpt><trkpt lat="43.51642958727619" lon="11.908164258008542"><ele>289.33333333333337</ele><time>2026-04-26T09:12:55Z</time></trkpt><trkpt lat="43.51645063642983" lon="11.908271741690802"><ele>290.0</ele><time>2026-04-26T09:12:57Z</time></trkpt><trkpt lat="43.51647165517076" lon="11.908357037317165"><ele>290.0</ele><time>2026-04-26T09:13:00Z</time></trkpt><trkpt lat="43.516438257696095" lon="11.908228294420963"><ele>290.0</ele><time>2026-04-26T09:13:26Z</time></trkpt><trkpt lat="43.51642918101217" lon="11.908035196535376"><ele>290.0</ele><time>2026-04-26T09:13:28Z</time></trkpt><trkpt lat="43.51642595117023" lon="11.907921780496318"><ele>290.0</ele><time>2026-04-26T09:13:29Z</time></trkpt><trkpt lat="43.51642460718858" lon="11.907797741160579"><ele>290.0</ele><time>2026-04-26T09:13:32Z</time></trkpt><trkpt lat="43.51640640739941" lon="11.90763798815281"><ele>289.2</ele><time>2026-04-26T09:13:34Z</time></trkpt><trkpt lat="43.51640026064412" lon="11.907500396551972"><ele>288.4</ele><time>2026-04-26T09:13:36Z</time></trkpt><trkpt lat="43.51641586984305" lon="11.907367211410655"><ele>287.6</ele><time>2026-04-26T09:13:38Z</time></trkpt><trkpt lat="43.51641674362434" lon="11.90724288980298"><ele>286.8</ele><time>2026-04-26T09:13:40Z</time></trkpt><trkpt lat="43.516402966231965" lon="11.907148049099671"><ele>286.0</ele><time>2026-04-26T09:13:42Z</time></trkpt><trkpt lat="43.51642279218747" lon="11.907003763254085"><ele>286.0</ele><time>2026-04-26T09:13:44Z</time></trkpt><trkpt lat="43.516492414663496" lon="11.90686554077017"><ele>286.0</ele><time>2026-04-26T09:13:46.001Z</time></trkpt><trkpt lat="43.51657145417512" lon="11.906745477821605"><ele>286.0</ele><time>2026-04-26T09:13:48.001Z</time></trkpt><trkpt lat="43.516698337613384" lon="11.906724058699586"><ele>286.0</ele><time>2026-04-26T09:13:50.001Z</time></trkpt><trkpt lat="43.516789855962266" lon="11.9066665695856"><ele>286.2</ele><time>2026-04-26T09:13:52.001Z</time></trkpt><trkpt lat="43.51688536097025" lon="11.906608026551472"><ele>286.40000000000003</ele><time>2026-04-26T09:13:54.001Z</time></trkpt><trkpt lat="43.51698335916109" lon="11.906519181709102"><ele>286.6</ele><time>2026-04-26T09:13:56.001Z</time></trkpt><trkpt lat="43.51705202924253" lon="11.90644406679647"><ele>286.8</ele><time>2026-04-26T09:13:57.001Z</time></trkpt><trkpt lat="43.51711160907862" lon="11.906368703712415"><ele>287.0</ele><time>2026-04-26T09:13:58.001Z</time></trkpt><trkpt lat="43.51716347482559" lon="11.906292875503809"><ele>287.0</ele><time>2026-04-26T09:13:59Z</time></trkpt><trkpt lat="43.517207408018194" lon="11.906225820804515"><ele>287.0</ele><time>2026-04-26T09:14:00Z</time></trkpt><trkpt lat="43.51726348849071" lon="11.906113622621769"><ele>287.0</ele><time>2026-04-26T09:14:01Z</time></trkpt><trkpt lat="43.51730457858246" lon="11.90604391341216"><ele>287.0</ele><time>2026-04-26T09:14:02Z</time></trkpt><trkpt lat="43.51735797057146" lon="11.905996955841594"><ele>287.0</ele><time>2026-04-26T09:14:03Z</time></trkpt><trkpt lat="43.51744513936592" lon="11.90586886682717"><ele>287.0</ele><time>2026-04-26T09:14:05Z</time></trkpt><trkpt lat="43.517488362011356" lon="11.90578987535216"><ele>286.5</ele><time>2026-04-26T09:14:06Z</time></trkpt><trkpt lat="43.51752468920958" lon="11.905695868733574"><ele>286.0</ele><time>2026-04-26T09:14:07Z</time></trkpt><trkpt lat="43.51755825668855" lon="11.905608498207227"><ele>285.5</ele><time>2026-04-26T09:14:08Z</time></trkpt><trkpt lat="43.51759107659971" lon="11.90552610085018"><ele>285.0</ele><time>2026-04-26T09:14:09Z</time></trkpt><trkpt lat="43.51762634003431" lon="11.905443500494869"><ele>284.5</ele><time>2026-04-26T09:14:10Z</time></trkpt><trkpt lat="43.517696810902386" lon="11.905329533238227"><ele>284.0</ele><time>2026-04-26T09:14:12Z</time></trkpt><trkpt lat="43.51777065727933" lon="11.905221802868677"><ele>284.0</ele><time>2026-04-26T09:14:14Z</time></trkpt><trkpt lat="43.51780727907335" lon="11.905138843540962"><ele>284.0</ele><time>2026-04-26T09:14:15Z</time></trkpt><trkpt lat="43.51785134988804" lon="11.905068933074547"><ele>284.0</ele><time>2026-04-26T09:14:16Z</time></trkpt><trkpt lat="43.51791340415861" lon="11.904998186223661"><ele>284.0</ele><time>2026-04-26T09:14:17Z</time></trkpt><trkpt lat="43.51794541922694" lon="11.904914059825417"><ele>284.0</ele><time>2026-04-26T09:14:18Z</time></trkpt><trkpt lat="43.51799132799989" lon="11.904843049036273"><ele>284.0</ele><time>2026-04-26T09:14:19Z</time></trkpt><trkpt lat="43.518039794833186" lon="11.904763705405793"><ele>284.0</ele><time>2026-04-26T09:14:20Z</time></trkpt><trkpt lat="43.51808115080294" lon="11.904694486594314"><ele>283.57142857142856</ele><time>2026-04-26T09:14:21Z</time></trkpt><trkpt lat="43.5181213793348" lon="11.904627463757038"><ele>283.1428571428571</ele><time>2026-04-26T09:14:22Z</time></trkpt><trkpt lat="43.51816446142951" lon="11.904559239858296"><ele>282.7142857142857</ele><time>2026-04-26T09:14:23Z</time></trkpt><trkpt lat="43.51820317211007" lon="11.904486472708669"><ele>282.2857142857143</ele><time>2026-04-26T09:14:24Z</time></trkpt><trkpt lat="43.518239477443785" lon="11.904411489351643"><ele>281.8571428571429</ele><time>2026-04-26T09:14:25Z</time></trkpt><trkpt lat="43.51827117473535" lon="11.904331984853386"><ele>281.42857142857144</ele><time>2026-04-26T09:14:26Z</time></trkpt><trkpt lat="43.51830615457748" lon="11.904251002779962"><ele>281.0</ele><time>2026-04-26T09:14:27Z</time></trkpt><trkpt lat="43.518370606456656" lon="11.904127562320213"><ele>281.0</ele><time>2026-04-26T09:14:29Z</time></trkpt><trkpt lat="43.51844448202647" lon="11.903994749431748"><ele>281.0</ele><time>2026-04-26T09:14:31Z</time></trkpt><trkpt lat="43.518499130177354" lon="11.903848874269011"><ele>281.0</ele><time>2026-04-26T09:14:33Z</time></trkpt><trkpt lat="43.51857074647129" lon="11.903699274814393"><ele>281.0</ele><time>2026-04-26T09:14:35Z</time></trkpt><trkpt lat="43.51862197457238" lon="11.903549288680686"><ele>281.0</ele><time>2026-04-26T09:14:37Z</time></trkpt><trkpt lat="43.51863719898731" lon="11.903461295944222"><ele>281.0</ele><time>2026-04-26T09:14:38Z</time></trkpt><trkpt lat="43.51865234005019" lon="11.903376339224977"><ele>281.0</ele><time>2026-04-26T09:14:39Z</time></trkpt><trkpt lat="43.51868701942908" lon="11.903233904813577"><ele>281.0</ele><time>2026-04-26T09:14:41Z</time></trkpt><trkpt lat="43.51869838812118" lon="11.903073687303772"><ele>281.0</ele><time>2026-04-26T09:14:43Z</time></trkpt><trkpt lat="43.518719409569314" lon="11.902974230422137"><ele>281.0</ele><time>2026-04-26T09:14:44Z</time></trkpt><trkpt lat="43.5187530309393" lon="11.902893951983536"><ele>280.33333333333337</ele><time>2026-04-26T09:14:45Z</time></trkpt><trkpt lat="43.51878887817491" lon="11.902729566810896"><ele>279.6666666666667</ele><time>2026-04-26T09:14:47Z</time></trkpt><trkpt lat="43.51881698152461" lon="11.902607621118806"><ele>279.0</ele><time>2026-04-26T09:14:48Z</time></trkpt><trkpt lat="43.518846591663696" lon="11.902485156606213"><ele>278.3333333333333</ele><time>2026-04-26T09:14:49Z</time></trkpt><trkpt lat="43.518857399344306" lon="11.902390015041824"><ele>277.66666666666663</ele><time>2026-04-26T09:14:50Z</time></trkpt><trkpt lat="43.51889785083959" lon="11.902317290257528"><ele>277.0</ele><time>2026-04-26T09:14:51Z</time></trkpt><trkpt lat="43.518941388435294" lon="11.902203514747297"><ele>277.2</ele><time>2026-04-26T09:14:53Z</time></trkpt><trkpt lat="43.51898797355254" lon="11.90210465925415"><ele>277.4</ele><time>2026-04-26T09:14:55Z</time></trkpt><trkpt lat="43.51908718582185" lon="11.901958690425063"><ele>277.6</ele><time>2026-04-26T09:14:57Z</time></trkpt><trkpt lat="43.51915557404311" lon="11.901863444568008"><ele>277.8</ele><time>2026-04-26T09:14:58Z</time></trkpt><trkpt lat="43.51921355536732" lon="11.90178440424827"><ele>278.0</ele><time>2026-04-26T09:14:59Z</time></trkpt><trkpt lat="43.519270373459584" lon="11.901706950542144"><ele>278.0</ele><time>2026-04-26T09:15:00Z</time></trkpt><trkpt lat="43.519304306217364" lon="11.901628527238678"><ele>278.0</ele><time>2026-04-26T09:15:01Z</time></trkpt><trkpt lat="43.51938422759571" lon="11.901531305538645"><ele>278.0</ele><time>2026-04-26T09:15:03Z</time></trkpt><trkpt lat="43.519400753397186" lon="11.90142307685077"><ele>278.0</ele><time>2026-04-26T09:15:05Z</time></trkpt><trkpt lat="43.519344095530904" lon="11.901366083178543"><ele>278.0</ele><time>2026-04-26T09:15:06Z</time></trkpt><trkpt lat="43.519313833092276" lon="11.90127274444676"><ele>278.0</ele><time>2026-04-26T09:15:08Z</time></trkpt><trkpt lat="43.519371651378854" lon="11.90118117328344"><ele>278.0</ele><time>2026-04-26T09:15:20Z</time></trkpt><trkpt lat="43.51941188345032" lon="11.901113204605803"><ele>278.0</ele><time>2026-04-26T09:15:21Z</time></trkpt><trkpt lat="43.51945199528177" lon="11.901045047235016"><ele>278.0</ele><time>2026-04-26T09:15:22Z</time></trkpt><trkpt lat="43.51948218106481" lon="11.900962241791913"><ele>278.0</ele><time>2026-04-26T09:15:23Z</time></trkpt><trkpt lat="43.519535502513165" lon="11.900891226145486"><ele>278.0</ele><time>2026-04-26T09:15:24Z</time></trkpt><trkpt lat="43.519599482878675" lon="11.900758562317202"><ele>278.0</ele><time>2026-04-26T09:15:26Z</time></trkpt><trkpt lat="43.519636492905924" lon="11.900680513718806"><ele>277.8</ele><time>2026-04-26T09:15:27Z</time></trkpt><trkpt lat="43.51968381104134" lon="11.900538950014266"><ele>277.6</ele><time>2026-04-26T09:15:29Z</time></trkpt><trkpt lat="43.5197396596973" lon="11.900391047366904"><ele>277.4</ele><time>2026-04-26T09:15:31Z</time></trkpt><trkpt lat="43.51975367500712" lon="11.900305319183673"><ele>277.2</ele><time>2026-04-26T09:15:32Z</time></trkpt><trkpt lat="43.51982027395941" lon="11.900165408171675"><ele>277.0</ele><time>2026-04-26T09:15:34Z</time></trkpt><trkpt lat="43.51986642702989" lon="11.900032470913883"><ele>277.0</ele><time>2026-04-26T09:15:36Z</time></trkpt><trkpt lat="43.51993602752215" lon="11.899931789671692"><ele>277.0</ele><time>2026-04-26T09:15:38Z</time></trkpt><trkpt lat="43.51999821984022" lon="11.899823352633435"><ele>277.0</ele><time>2026-04-26T09:15:40Z</time></trkpt><trkpt lat="43.520054132023716" lon="11.899753598957433"><ele>277.0</ele><time>2026-04-26T09:15:42Z</time></trkpt><trkpt lat="43.52010861231502" lon="11.899676510451908"><ele>277.0</ele><time>2026-04-26T09:15:44Z</time></trkpt><trkpt lat="43.52016942189328" lon="11.899606433238288"><ele>277.0</ele><time>2026-04-26T09:15:46Z</time></trkpt><trkpt lat="43.52022818950444" lon="11.899529384759227"><ele>277.0</ele><time>2026-04-26T09:15:48Z</time></trkpt><trkpt lat="43.520274568383044" lon="11.899423218682381"><ele>277.0</ele><time>2026-04-26T09:15:50Z</time></trkpt><trkpt lat="43.52032848085771" lon="11.899336203589257"><ele>277.0</ele><time>2026-04-26T09:15:52.001Z</time></trkpt><trkpt lat="43.52037885492977" lon="11.899245491011602"><ele>277.0</ele><time>2026-04-26T09:15:54.001Z</time></trkpt><trkpt lat="43.520414844609796" lon="11.89916836123664"><ele>277.0</ele><time>2026-04-26T09:16:11Z</time></trkpt><trkpt lat="43.52044805647214" lon="11.899037128528777"><ele>277.0</ele><time>2026-04-26T09:16:16Z</time></trkpt><trkpt lat="43.52047875148815" lon="11.898881842535902"><ele>276.16666666666663</ele><time>2026-04-26T09:16:18Z</time></trkpt><trkpt lat="43.52047442333261" lon="11.898774704991766"><ele>275.3333333333333</ele><time>2026-04-26T09:16:19Z</time></trkpt><trkpt lat="43.52050322839963" lon="11.89866125627511"><ele>274.5</ele><time>2026-04-26T09:16:20Z</time></trkpt><trkpt lat="43.52049867459358" lon="11.898561359984795"><ele>273.6666666666667</ele><time>2026-04-26T09:16:21Z</time></trkpt><trkpt lat="43.52052442775433" lon="11.898438001840056"><ele>272.83333333333337</ele><time>2026-04-26T09:16:22Z</time></trkpt><trkpt lat="43.52053581077514" lon="11.898290022432604"><ele>272.0</ele><time>2026-04-26T09:16:22.999Z</time></trkpt><trkpt lat="43.52052976904627" lon="11.89815289045347"><ele>272.0</ele><time>2026-04-26T09:16:24Z</time></trkpt><trkpt lat="43.52055347281241" lon="11.898043518706285"><ele>272.0</ele><time>2026-04-26T09:16:24.999Z</time></trkpt><trkpt lat="43.5205611077" lon="11.897931865696965"><ele>272.0</ele><time>2026-04-26T09:16:25.999Z</time></trkpt><trkpt lat="43.520568407144225" lon="11.89782511809959"><ele>272.0</ele><time>2026-04-26T09:16:26.999Z</time></trkpt><trkpt lat="43.520566160447544" lon="11.897711496381396"><ele>272.0</ele><time>2026-04-26T09:16:27.999Z</time></trkpt><trkpt lat="43.52057463382737" lon="11.897595971685236"><ele>272.0</ele><time>2026-04-26T09:16:28.999Z</time></trkpt><trkpt lat="43.52057391405799" lon="11.897476659604829"><ele>272.33333333333337</ele><time>2026-04-26T09:16:29.999Z</time></trkpt><trkpt lat="43.52058249890695" lon="11.897373522784148"><ele>272.6666666666667</ele><time>2026-04-26T09:16:30.999Z</time></trkpt><trkpt lat="43.52059254725927" lon="11.897205527379697"><ele>273.0</ele><time>2026-04-26T09:16:32.999Z</time></trkpt><trkpt lat="43.52060719399601" lon="11.897111751802651"><ele>273.3333333333333</ele><time>2026-04-26T09:16:33.999Z</time></trkpt><trkpt lat="43.52064200031908" lon="11.897020879518902"><ele>273.66666666666663</ele><time>2026-04-26T09:16:34.999Z</time></trkpt><trkpt lat="43.52067326104897" lon="11.89691770540239"><ele>274.0</ele><time>2026-04-26T09:16:35.999Z</time></trkpt><trkpt lat="43.52068075062995" lon="11.896790759698387"><ele>274.4</ele><time>2026-04-26T09:16:36.999Z</time></trkpt><trkpt lat="43.52069543222518" lon="11.896661059329034"><ele>274.79999999999995</ele><time>2026-04-26T09:16:37.999Z</time></trkpt><trkpt lat="43.52069764684986" lon="11.896555293020942"><ele>275.20000000000005</ele><time>2026-04-26T09:16:38.999Z</time></trkpt><trkpt lat="43.52072201981225" lon="11.896407585531982"><ele>275.6</ele><time>2026-04-26T09:16:40.999Z</time></trkpt><trkpt lat="43.520763279031755" lon="11.896273058186946"><ele>276.0</ele><time>2026-04-26T09:16:42.999Z</time></trkpt><trkpt lat="43.52080188388743" lon="11.896132874870013"><ele>276.0</ele><time>2026-04-26T09:16:44.999Z</time></trkpt><trkpt lat="43.52086341251341" lon="11.895981705401795"><ele>276.0</ele><time>2026-04-26T09:16:46.999Z</time></trkpt><trkpt lat="43.520863698827355" lon="11.895883286684903"><ele>276.0</ele><time>2026-04-26T09:16:47.999Z</time></trkpt><trkpt lat="43.52088585800828" lon="11.895800758077355"><ele>276.0</ele><time>2026-04-26T09:16:48.999Z</time></trkpt><trkpt lat="43.520901666001954" lon="11.895658369766062"><ele>276.0</ele><time>2026-04-26T09:16:50.999Z</time></trkpt><trkpt lat="43.520901315225274" lon="11.895504015090948"><ele>276.8</ele><time>2026-04-26T09:16:52.999Z</time></trkpt><trkpt lat="43.52092866669194" lon="11.895363127681167"><ele>277.6</ele><time>2026-04-26T09:16:54.999Z</time></trkpt><trkpt lat="43.52095272168902" lon="11.89524861833145"><ele>278.4</ele><time>2026-04-26T09:16:56.999Z</time></trkpt><trkpt lat="43.52098987040415" lon="11.89515054010244"><ele>279.2</ele><time>2026-04-26T09:16:58.999Z</time></trkpt><trkpt lat="43.52104087802867" lon="11.895056086758087"><ele>280.0</ele><time>2026-04-26T09:17:00.999Z</time></trkpt><trkpt lat="43.52110023977575" lon="11.894913207201746"><ele>280.0</ele><time>2026-04-26T09:17:02.999Z</time></trkpt><trkpt lat="43.5211547620313" lon="11.894848442520908"><ele>280.0</ele><time>2026-04-26T09:17:03.999Z</time></trkpt><trkpt lat="43.52122725224117" lon="11.894713078157128"><ele>280.0</ele><time>2026-04-26T09:17:05.999Z</time></trkpt><trkpt lat="43.521298846762484" lon="11.894584105168496"><ele>280.0</ele><time>2026-04-26T09:17:07.999Z</time></trkpt><trkpt lat="43.521363356935076" lon="11.894468027572985"><ele>280.0</ele><time>2026-04-26T09:17:09.999Z</time></trkpt><trkpt lat="43.521425343042736" lon="11.894358323815444"><ele>278.2</ele><time>2026-04-26T09:17:11.999Z</time></trkpt><trkpt lat="43.521483026332845" lon="11.894263537800136"><ele>276.4</ele><time>2026-04-26T09:17:13.999Z</time></trkpt><trkpt lat="43.521534693479595" lon="11.894191689338408"><ele>274.6</ele><time>2026-04-26T09:17:15.999Z</time></trkpt><trkpt lat="43.52153139592846" lon="11.894044581752638"><ele>272.8</ele><time>2026-04-26T09:17:16.999Z</time></trkpt><trkpt lat="43.52152686282624" lon="11.893891368516895"><ele>271.0</ele><time>2026-04-26T09:17:17.999Z</time></trkpt><trkpt lat="43.52151653045735" lon="11.893746999042802"><ele>271.0</ele><time>2026-04-26T09:17:18.999Z</time></trkpt><trkpt lat="43.5215032467728" lon="11.893630199788708"><ele>271.0</ele><time>2026-04-26T09:17:19.999Z</time></trkpt><trkpt lat="43.52148400570114" lon="11.893513898253572"><ele>271.0</ele><time>2026-04-26T09:17:20.999Z</time></trkpt><trkpt lat="43.521462233485934" lon="11.89341065453698"><ele>271.0</ele><time>2026-04-26T09:17:21.999Z</time></trkpt><trkpt lat="43.521433731961665" lon="11.893315618712409"><ele>271.0</ele><time>2026-04-26T09:17:22.999Z</time></trkpt><trkpt lat="43.521400002052665" lon="11.893224871509473"><ele>271.0</ele><time>2026-04-26T09:17:23.999Z</time></trkpt><trkpt lat="43.52135430454511" lon="11.893133042884903"><ele>270.75</ele><time>2026-04-26T09:17:24.999Z</time></trkpt><trkpt lat="43.52127613155111" lon="11.89301395602835"><ele>270.5</ele><time>2026-04-26T09:17:25.999Z</time></trkpt><trkpt lat="43.521192783892864" lon="11.892886100583144"><ele>270.25</ele><time>2026-04-26T09:17:26.999Z</time></trkpt><trkpt lat="43.52109916095837" lon="11.89275052759956"><ele>270.0</ele><time>2026-04-26T09:17:27.999Z</time></trkpt><trkpt lat="43.521016023998584" lon="11.892640529333224"><ele>270.5</ele><time>2026-04-26T09:17:28.999Z</time></trkpt><trkpt lat="43.520934401519334" lon="11.892561828261952"><ele>271.0</ele><time>2026-04-26T09:17:29.999Z</time></trkpt><trkpt lat="43.52086138690386" lon="11.892489338429913"><ele>271.5</ele><time>2026-04-26T09:17:31.999Z</time></trkpt><trkpt lat="43.520803925667764" lon="11.892431791188407"><ele>272.0</ele><time>2026-04-26T09:17:33.999Z</time></trkpt><trkpt lat="43.520739927447394" lon="11.892364161938886"><ele>272.5</ele><time>2026-04-26T09:17:35.999Z</time></trkpt><trkpt lat="43.52066169406915" lon="11.892293903964546"><ele>273.0</ele><time>2026-04-26T09:17:37.999Z</time></trkpt><trkpt lat="43.520740508342946" lon="11.89241710726569"><ele>273.0</ele><time>2026-04-26T09:17:43.999Z</time></trkpt><trkpt lat="43.520804480276794" lon="11.892430992733091"><ele>273.0</ele><time>2026-04-26T09:17:44.999Z</time></trkpt><trkpt lat="43.5208534350924" lon="11.892486374948378"><ele>273.0</ele><time>2026-04-26T09:17:45.999Z</time></trkpt><trkpt lat="43.52088769382336" lon="11.892568598174202"><ele>273.0</ele><time>2026-04-26T09:17:46.999Z</time></trkpt><trkpt lat="43.52091004226716" lon="11.892668887981824"><ele>273.0</ele><time>2026-04-26T09:17:47.999Z</time></trkpt><trkpt lat="43.52094149890668" lon="11.89279771398128"><ele>273.0</ele><time>2026-04-26T09:17:48.999Z</time></trkpt><trkpt lat="43.520975094458876" lon="11.89291857648055"><ele>274.0</ele><time>2026-04-26T09:17:49.999Z</time></trkpt><trkpt lat="43.52102005445086" lon="11.893066061036238"><ele>275.0</ele><time>2026-04-26T09:17:50.999Z</time></trkpt><trkpt lat="43.52105849958864" lon="11.893194624073667"><ele>276.0</ele><time>2026-04-26T09:17:51.999Z</time></trkpt><trkpt lat="43.5210811588363" lon="11.893315198509882"><ele>277.0</ele><time>2026-04-26T09:17:52.999Z</time></trkpt><trkpt lat="43.52110106739914" lon="11.893435664519712"><ele>278.0</ele><time>2026-04-26T09:17:53.999Z</time></trkpt><trkpt lat="43.52111133274515" lon="11.893550025602817"><ele>278.33333333333337</ele><time>2026-04-26T09:17:54.999Z</time></trkpt><trkpt lat="43.52109146287561" lon="11.89374220688481"><ele>278.6666666666667</ele><time>2026-04-26T09:17:56.999Z</time></trkpt><trkpt lat="43.5210581472313" lon="11.893841521246875"><ele>279.0</ele><time>2026-04-26T09:17:57.999Z</time></trkpt><trkpt lat="43.52101235276848" lon="11.89392730619211"><ele>279.3333333333333</ele><time>2026-04-26T09:17:58.999Z</time></trkpt><trkpt lat="43.520956358440934" lon="11.893974104920593"><ele>279.66666666666663</ele><time>2026-04-26T09:17:59.999Z</time></trkpt><trkpt lat="43.52089584373246" lon="11.894006097587017"><ele>280.0</ele><time>2026-04-26T09:18:00.999Z</time></trkpt><trkpt lat="43.52082614661233" lon="11.894022449174384"><ele>280.0</ele><time>2026-04-26T09:18:01.999Z</time></trkpt><trkpt lat="43.520745260589045" lon="11.894047901711145"><ele>280.0</ele><time>2026-04-26T09:18:02.999Z</time></trkpt><trkpt lat="43.520653379080414" lon="11.89408813065814"><ele>280.0</ele><time>2026-04-26T09:18:03.999Z</time></trkpt><trkpt lat="43.52056445814464" lon="11.894130946021564"><ele>280.0</ele><time>2026-04-26T09:18:04.999Z</time></trkpt><trkpt lat="43.52047866554508" lon="11.89417952369354"><ele>280.0</ele><time>2026-04-26T09:18:05.999Z</time></trkpt><trkpt lat="43.520347917084976" lon="11.89423278028759"><ele>281.8</ele><time>2026-04-26T09:18:06.999Z</time></trkpt><trkpt lat="43.52022400657173" lon="11.894315129660242"><ele>283.6</ele><time>2026-04-26T09:18:07.999Z</time></trkpt><trkpt lat="43.52013699235925" lon="11.894359497796874"><ele>285.4</ele><time>2026-04-26T09:18:08.999Z</time></trkpt><trkpt lat="43.52005661877727" lon="11.894406053891043"><ele>287.2</ele><time>2026-04-26T09:18:09.999Z</time></trkpt><trkpt lat="43.51999377119139" lon="11.894430156020926"><ele>289.0</ele><time>2026-04-26T09:18:10.999Z</time></trkpt><trkpt lat="43.51991704675876" lon="11.894446811085416"><ele>289.0</ele><time>2026-04-26T09:18:11.999Z</time></trkpt><trkpt lat="43.51983484216693" lon="11.894447406680627"><ele>289.0</ele><time>2026-04-26T09:18:12.999Z</time></trkpt><trkpt lat="43.51974888709849" lon="11.894418563098599"><ele>289.0</ele><time>2026-04-26T09:18:13.999Z</time></trkpt><trkpt lat="43.51965324853349" lon="11.894367521049366"><ele>289.0</ele><time>2026-04-26T09:18:14.999Z</time></trkpt><trkpt lat="43.519546473341656" lon="11.894283694564923"><ele>289.0</ele><time>2026-04-26T09:18:15.999Z</time></trkpt><trkpt lat="43.51944504524599" lon="11.89428260980181"><ele>289.5</ele><time>2026-04-26T09:18:16.999Z</time></trkpt><trkpt lat="43.519371106788924" lon="11.894274438487127"><ele>290.0</ele><time>2026-04-26T09:18:17.999Z</time></trkpt><trkpt lat="43.51929686066674" lon="11.894271913712911"><ele>290.5</ele><time>2026-04-26T09:18:18.999Z</time></trkpt><trkpt lat="43.519200651031916" lon="11.894269584280382"><ele>291.0</ele><time>2026-04-26T09:18:19.999Z</time></trkpt><trkpt lat="43.519103090291445" lon="11.894257991459108"><ele>291.5</ele><time>2026-04-26T09:18:20.999Z</time></trkpt><trkpt lat="43.519029745708934" lon="11.894249235284288"><ele>292.0</ele><time>2026-04-26T09:18:21.999Z</time></trkpt><trkpt lat="43.51892518088659" lon="11.894238372512877"><ele>292.0</ele><time>2026-04-26T09:18:23.999Z</time></trkpt><trkpt lat="43.51884096187481" lon="11.894236957705003"><ele>292.0</ele><time>2026-04-26T09:18:26.999Z</time></trkpt><trkpt lat="43.51872944279806" lon="11.894221488395413"><ele>292.0</ele><time>2026-04-26T09:18:28.999Z</time></trkpt><trkpt lat="43.518656529300685" lon="11.894201620467387"><ele>292.0</ele><time>2026-04-26T09:18:29.999Z</time></trkpt><trkpt lat="43.51858250736371" lon="11.894221244815071"><ele>292.0</ele><time>2026-04-26T09:18:30.999Z</time></trkpt><trkpt lat="43.518518153263955" lon="11.894219429217436"><ele>292.0</ele><time>2026-04-26T09:18:31.999Z</time></trkpt><trkpt lat="43.51842393732811" lon="11.894288561500966"><ele>294.4</ele><time>2026-04-26T09:18:33.999Z</time></trkpt><trkpt lat="43.51835270179426" lon="11.894344189042627"><ele>296.79999999999995</ele><time>2026-04-26T09:18:35.999Z</time></trkpt><trkpt lat="43.51828917798056" lon="11.894385027495273"><ele>299.2</ele><time>2026-04-26T09:18:38.999Z</time></trkpt><trkpt lat="43.51832768875294" lon="11.894514317052584"><ele>301.59999999999997</ele><time>2026-04-26T09:18:39.999Z</time></trkpt><trkpt lat="43.51836583958491" lon="11.894681766422835"><ele>304.0</ele><time>2026-04-26T09:18:41.999Z</time></trkpt><trkpt lat="43.51837303608568" lon="11.894782758828903"><ele>304.0</ele><time>2026-04-26T09:18:42.999Z</time></trkpt><trkpt lat="43.518380978053415" lon="11.894898740991186"><ele>304.0</ele><time>2026-04-26T09:18:43.999Z</time></trkpt><trkpt lat="43.518413598540995" lon="11.895027019870016"><ele>304.0</ele><time>2026-04-26T09:18:44.999Z</time></trkpt><trkpt lat="43.51842792402791" lon="11.89516648506028"><ele>304.0</ele><time>2026-04-26T09:18:45.999Z</time></trkpt><trkpt lat="43.5184487160318" lon="11.895325962087934"><ele>304.0</ele><time>2026-04-26T09:18:46.999Z</time></trkpt><trkpt lat="43.51846902452847" lon="11.895498213015042"><ele>306.0</ele><time>2026-04-26T09:18:47.999Z</time></trkpt><trkpt lat="43.51849395060259" lon="11.895674183865841"><ele>308.0</ele><time>2026-04-26T09:18:48.999Z</time></trkpt><trkpt lat="43.51851910392778" lon="11.89585581902231"><ele>310.0</ele><time>2026-04-26T09:18:49.999Z</time></trkpt><trkpt lat="43.51854065159486" lon="11.896018659531228"><ele>312.0</ele><time>2026-04-26T09:18:50.999Z</time></trkpt><trkpt lat="43.518561449391406" lon="11.896162959173504"><ele>314.25</ele><time>2026-04-26T09:18:51.999Z</time></trkpt><trkpt lat="43.51858188712678" lon="11.896334702921829"><ele>316.5</ele><time>2026-04-26T09:18:52.999Z</time></trkpt><trkpt lat="43.51860405195132" lon="11.896509876797861"><ele>318.75</ele><time>2026-04-26T09:18:53.999Z</time></trkpt><trkpt lat="43.51861678019966" lon="11.8966639405523"><ele>321.0</ele><time>2026-04-26T09:18:54.999Z</time></trkpt><trkpt lat="43.51864459552297" lon="11.896818435086216"><ele>322.1666666666667</ele><time>2026-04-26T09:18:55.999Z</time></trkpt><trkpt lat="43.51866479991375" lon="11.896955191623102"><ele>323.3333333333333</ele><time>2026-04-26T09:18:56.999Z</time></trkpt><trkpt lat="43.518683326882254" lon="11.897087585048364"><ele>324.5</ele><time>2026-04-26T09:18:57.999Z</time></trkpt><trkpt lat="43.51870169188598" lon="11.897219435842247"><ele>325.66666666666663</ele><time>2026-04-26T09:18:58.999Z</time></trkpt><trkpt lat="43.518698561658375" lon="11.897331068474815"><ele>326.8333333333333</ele><time>2026-04-26T09:18:59.999Z</time></trkpt><trkpt lat="43.51871212415148" lon="11.897422960198007"><ele>328.0</ele><time>2026-04-26T09:19:00.999Z</time></trkpt><trkpt lat="43.5186968759404" lon="11.897517538647598"><ele>329.2</ele><time>2026-04-26T09:19:01.999Z</time></trkpt><trkpt lat="43.51859185979767" lon="11.897636982270965"><ele>330.4</ele><time>2026-04-26T09:19:03.999Z</time></trkpt><trkpt lat="43.51854850372056" lon="11.897741491951972"><ele>331.59999999999997</ele><time>2026-04-26T09:19:04.999Z</time></trkpt><trkpt lat="43.518508037941444" lon="11.897841339486957"><ele>332.79999999999995</ele><time>2026-04-26T09:19:05.999Z</time></trkpt><trkpt lat="43.51847196509435" lon="11.897957812310718"><ele>334.0</ele><time>2026-04-26T09:19:06.999Z</time></trkpt><trkpt lat="43.518401403102075" lon="11.89810756508415"><ele>334.0</ele><time>2026-04-26T09:19:07.999Z</time></trkpt><trkpt lat="43.51833516661353" lon="11.898277128325839"><ele>334.0</ele><time>2026-04-26T09:19:08.999Z</time></trkpt><trkpt lat="43.51827201920922" lon="11.898399342451793"><ele>334.0</ele><time>2026-04-26T09:19:09.999Z</time></trkpt><trkpt lat="43.51824092680916" lon="11.898481214851858"><ele>334.0</ele><time>2026-04-26T09:19:10.999Z</time></trkpt><trkpt lat="43.518193746169466" lon="11.898598651100894"><ele>334.0</ele><time>2026-04-26T09:19:12.999Z</time></trkpt><trkpt lat="43.518159563108206" lon="11.89872371475702"><ele>332.0</ele><time>2026-04-26T09:19:14.999Z</time></trkpt><trkpt lat="43.51830329791817" lon="11.898957329784732"><ele>330.0</ele><time>2026-04-26T09:19:16.999Z</time></trkpt><trkpt lat="43.51808237098748" lon="11.898818718666424"><ele>330.0</ele><time>2026-04-26T09:19:17.999Z</time></trkpt><trkpt lat="43.51822433973828" lon="11.899128849654977"><ele>330.0</ele><time>2026-04-26T09:19:21.999Z</time></trkpt><trkpt lat="43.51817265546032" lon="11.899221910915387"><ele>330.0</ele><time>2026-04-26T09:19:23.999Z</time></trkpt><trkpt lat="43.51811839060031" lon="11.899314153822896"><ele>330.0</ele><time>2026-04-26T09:19:25.999Z</time></trkpt><trkpt lat="43.51805150922708" lon="11.899426834586523"><ele>332.2</ele><time>2026-04-26T09:19:27.999Z</time></trkpt><trkpt lat="43.51797775016317" lon="11.899551102900466"><ele>334.4</ele><time>2026-04-26T09:19:29.999Z</time></trkpt><trkpt lat="43.51792286261123" lon="11.89964357429614"><ele>336.6</ele><time>2026-04-26T09:19:31.999Z</time></trkpt><trkpt lat="43.517845781491225" lon="11.899730814358293"><ele>338.8</ele><time>2026-04-26T09:19:33.999Z</time></trkpt><trkpt lat="43.51779773438381" lon="11.899826739781123"><ele>341.0</ele><time>2026-04-26T09:19:35.999Z</time></trkpt><trkpt lat="43.51727281772641" lon="11.899589794493998"><ele>341.0</ele><time>2026-04-26T09:20:00.999Z</time></trkpt><trkpt lat="43.51720099524615" lon="11.899631140837217"><ele>341.0</ele><time>2026-04-26T09:20:11.999Z</time></trkpt><trkpt lat="43.517146615927565" lon="11.899696677677344"><ele>341.0</ele><time>2026-04-26T09:20:14.999Z</time></trkpt><trkpt lat="43.517092320442494" lon="11.899755528823917"><ele>341.0</ele><time>2026-04-26T09:20:17.999Z</time></trkpt><trkpt lat="43.51700643055717" lon="11.899786639168923"><ele>341.0</ele><time>2026-04-26T09:20:20.999Z</time></trkpt><trkpt lat="43.516944099802636" lon="11.899806314673826"><ele>341.0</ele><time>2026-04-26T09:20:22.999Z</time></trkpt><trkpt lat="43.51686325968675" lon="11.899851998783147"><ele>341.1666666666667</ele><time>2026-04-26T09:20:25.999Z</time></trkpt><trkpt lat="43.516809191907925" lon="11.899898046134"><ele>341.33333333333337</ele><time>2026-04-26T09:20:28.999Z</time></trkpt><trkpt lat="43.51672523857717" lon="11.899920083595564"><ele>341.5</ele><time>2026-04-26T09:20:32.999Z</time></trkpt><trkpt lat="43.51664668200198" lon="11.89996377913399"><ele>341.6666666666667</ele><time>2026-04-26T09:20:35.999Z</time></trkpt><trkpt lat="43.51656399202625" lon="11.899993040346333"><ele>341.8333333333333</ele><time>2026-04-26T09:20:38.999Z</time></trkpt><trkpt lat="43.516487265321246" lon="11.900047025646991"><ele>342.0</ele><time>2026-04-26T09:20:40.999Z</time></trkpt><trkpt lat="43.51638887258072" lon="11.90010689070178"><ele>342.0</ele><time>2026-04-26T09:20:43.999Z</time></trkpt><trkpt lat="43.516314301842755" lon="11.900141387873813"><ele>342.0</ele><time>2026-04-26T09:20:45.999Z</time></trkpt><trkpt lat="43.51622291384231" lon="11.900186696009456"><ele>342.0</ele><time>2026-04-26T09:20:48.999Z</time></trkpt><trkpt lat="43.51615330469157" lon="11.900241931490228"><ele>342.0</ele><time>2026-04-26T09:20:50.999Z</time></trkpt><trkpt lat="43.516084131988656" lon="11.90031472490051"><ele>342.0</ele><time>2026-04-26T09:20:52.999Z</time></trkpt><trkpt lat="43.51600356533354" lon="11.900373298723292"><ele>342.0</ele><time>2026-04-26T09:20:54.999Z</time></trkpt><trkpt lat="43.515916445093666" lon="11.900473511441474"><ele>346.0</ele><time>2026-04-26T09:20:57.999Z</time></trkpt><trkpt lat="43.51586579080768" lon="11.900536279092249"><ele>350.0</ele><time>2026-04-26T09:20:59.999Z</time></trkpt><trkpt lat="43.51574623915981" lon="11.900561648283855"><ele>354.0</ele><time>2026-04-26T09:21:01.999Z</time></trkpt><trkpt lat="43.515644218265734" lon="11.900590408459143"><ele>358.0</ele><time>2026-04-26T09:21:03.999Z</time></trkpt><trkpt lat="43.51555705846014" lon="11.900659069265473"><ele>362.0</ele><time>2026-04-26T09:21:05.999Z</time></trkpt><trkpt lat="43.51544813028169" lon="11.900693162936163"><ele>363.85714285714283</ele><time>2026-04-26T09:21:07.999Z</time></trkpt><trkpt lat="43.51538031932402" lon="11.900677415749872"><ele>365.71428571428567</ele><time>2026-04-26T09:21:09.999Z</time></trkpt><trkpt lat="43.51530990024622" lon="11.900713796346116"><ele>367.57142857142856</ele><time>2026-04-26T09:21:20.999Z</time></trkpt><trkpt lat="43.51523049438817" lon="11.90072204894515"><ele>369.42857142857144</ele><time>2026-04-26T09:21:23.999Z</time></trkpt><trkpt lat="43.51515698052993" lon="11.900743644200345"><ele>371.2857142857143</ele><time>2026-04-26T09:21:27.999Z</time></trkpt><trkpt lat="43.51508635093289" lon="11.90076931800265"><ele>373.14285714285717</ele><time>2026-04-26T09:21:30.999Z</time></trkpt><trkpt lat="43.51502591037242" lon="11.900814941721773"><ele>375.0</ele><time>2026-04-26T09:21:32.999Z</time></trkpt><trkpt lat="43.514969655862096" lon="11.900873019913137"><ele>375.5</ele><time>2026-04-26T09:21:35.999Z</time></trkpt><trkpt lat="43.51490506485125" lon="11.900924118501647"><ele>376.0</ele><time>2026-04-26T09:21:37.999Z</time></trkpt><trkpt lat="43.51484097514315" lon="11.900988058467764"><ele>376.5</ele><time>2026-04-26T09:21:39.999Z</time></trkpt><trkpt lat="43.51476648200252" lon="11.90096478867964"><ele>377.0</ele><time>2026-04-26T09:21:42.999Z</time></trkpt><trkpt lat="43.51470312789896" lon="11.900988927143267"><ele>377.5</ele><time>2026-04-26T09:21:44.999Z</time></trkpt><trkpt lat="43.514702015417" lon="11.90110442223989"><ele>378.0</ele><time>2026-04-26T09:21:46.999Z</time></trkpt><trkpt lat="43.514716506525566" lon="11.901215363579599"><ele>378.0</ele><time>2026-04-26T09:21:48.999Z</time></trkpt><trkpt lat="43.51464679799781" lon="11.901286563619886"><ele>378.0</ele><time>2026-04-26T09:21:51.999Z</time></trkpt><trkpt lat="43.514549123569864" lon="11.901358661367842"><ele>378.0</ele><time>2026-04-26T09:21:54.999Z</time></trkpt><trkpt lat="43.51449708796132" lon="11.901417679092384"><ele>378.0</ele><time>2026-04-26T09:21:56.999Z</time></trkpt><trkpt lat="43.514444711492274" lon="11.901469622249309"><ele>378.0</ele><time>2026-04-26T09:21:58.999Z</time></trkpt><trkpt lat="43.514355493934126" lon="11.901489581433278"><ele>378.0</ele><time>2026-04-26T09:22:00.999Z</time></trkpt><trkpt lat="43.5142714931683" lon="11.901501663971281"><ele>377.6666666666667</ele><time>2026-04-26T09:22:02.999Z</time></trkpt><trkpt lat="43.51420608467923" lon="11.90143851042314"><ele>377.3333333333333</ele><time>2026-04-26T09:24:20Z</time></trkpt><trkpt lat="43.51415692023149" lon="11.901363694676279"><ele>377.0</ele><time>2026-04-26T09:24:22Z</time></trkpt><trkpt lat="43.51415129214082" lon="11.901247757582308"><ele>376.66666666666663</ele><time>2026-04-26T09:24:24Z</time></trkpt><trkpt lat="43.514089775920695" lon="11.90119693533315"><ele>376.3333333333333</ele><time>2026-04-26T09:24:27Z</time></trkpt><trkpt lat="43.514005649725526" lon="11.901232825055725"><ele>376.0</ele><time>2026-04-26T09:24:29Z</time></trkpt><trkpt lat="43.513903113329505" lon="11.901241615022466"><ele>376.0</ele><time>2026-04-26T09:24:31Z</time></trkpt><trkpt lat="43.513816930825065" lon="11.901226151613317"><ele>376.0</ele><time>2026-04-26T09:24:33Z</time></trkpt><trkpt lat="43.51375705389863" lon="11.901196628515754"><ele>376.0</ele><time>2026-04-26T09:24:35Z</time></trkpt><trkpt lat="43.51369172185761" lon="11.901137906536249"><ele>376.0</ele><time>2026-04-26T09:24:37Z</time></trkpt><trkpt lat="43.51362864064535" lon="11.901104777120437"><ele>376.0</ele><time>2026-04-26T09:24:39Z</time></trkpt><trkpt lat="43.51357457249109" lon="11.90121315454732"><ele>376.0</ele><time>2026-04-26T09:24:40Z</time></trkpt><trkpt lat="43.51349800578038" lon="11.90129953004888"><ele>374.8</ele><time>2026-04-26T09:24:42Z</time></trkpt><trkpt lat="43.513449516404116" lon="11.901362908051329"><ele>373.6</ele><time>2026-04-26T09:24:43Z</time></trkpt><trkpt lat="43.513391431967065" lon="11.90146335885722"><ele>372.4</ele><time>2026-04-26T09:24:45Z</time></trkpt><trkpt lat="43.51332480083542" lon="11.901529065994918"><ele>371.2</ele><time>2026-04-26T09:24:48Z</time></trkpt><trkpt lat="43.513256706431626" lon="11.901402425838661"><ele>370.0</ele><time>2026-04-26T09:24:51Z</time></trkpt><trkpt lat="43.513199111392645" lon="11.90130079384279"><ele>370.0</ele><time>2026-04-26T09:24:53Z</time></trkpt><trkpt lat="43.51312464434004" lon="11.90137530704936"><ele>370.0</ele><time>2026-04-26T09:24:55Z</time></trkpt><trkpt lat="43.51301702267615" lon="11.90144235723821"><ele>370.0</ele><time>2026-04-26T09:24:57Z</time></trkpt><trkpt lat="43.51294501965652" lon="11.901488612348139"><ele>370.0</ele><time>2026-04-26T09:24:58Z</time></trkpt><trkpt lat="43.512871520890386" lon="11.901539708634765"><ele>370.0</ele><time>2026-04-26T09:24:59Z</time></trkpt><trkpt lat="43.51279876458412" lon="11.901549800385451"><ele>370.0</ele><time>2026-04-26T09:25:00Z</time></trkpt><trkpt lat="43.51273440399555" lon="11.901563604481643"><ele>369.5</ele><time>2026-04-26T09:25:01Z</time></trkpt><trkpt lat="43.512653995395496" lon="11.901572204559496"><ele>369.0</ele><time>2026-04-26T09:25:02Z</time></trkpt><trkpt lat="43.51257274676273" lon="11.90157215037275"><ele>368.5</ele><time>2026-04-26T09:25:03Z</time></trkpt><trkpt lat="43.51249210028637" lon="11.901573414866995"><ele>368.0</ele><time>2026-04-26T09:25:04Z</time></trkpt><trkpt lat="43.51241732284925" lon="11.901572860424467"><ele>367.5</ele><time>2026-04-26T09:25:05Z</time></trkpt><trkpt lat="43.512349277599235" lon="11.901572473330447"><ele>367.0</ele><time>2026-04-26T09:25:06Z</time></trkpt><trkpt lat="43.51228471317263" lon="11.901572106037515"><ele>367.0</ele><time>2026-04-26T09:25:07Z</time></trkpt><trkpt lat="43.51221360224794" lon="11.901572744549245"><ele>367.0</ele><time>2026-04-26T09:25:08Z</time></trkpt><trkpt lat="43.51214586308008" lon="11.901599447933696"><ele>367.0</ele><time>2026-04-26T09:25:09Z</time></trkpt><trkpt lat="43.51207526552662" lon="11.901605263071101"><ele>367.0</ele><time>2026-04-26T09:25:10Z</time></trkpt><trkpt lat="43.51200211889079" lon="11.901617799790117"><ele>367.0</ele><time>2026-04-26T09:25:11Z</time></trkpt><trkpt lat="43.51191043777695" lon="11.90162369170746"><ele>367.0</ele><time>2026-04-26T09:25:12Z</time></trkpt><trkpt lat="43.51181738784131" lon="11.901643464238106"><ele>366.16666666666663</ele><time>2026-04-26T09:25:13Z</time></trkpt><trkpt lat="43.51172773939256" lon="11.90165240333086"><ele>365.3333333333333</ele><time>2026-04-26T09:25:14Z</time></trkpt><trkpt lat="43.511647621741226" lon="11.901663793446534"><ele>364.5</ele><time>2026-04-26T09:25:15Z</time></trkpt><trkpt lat="43.511568776856606" lon="11.901674266019768"><ele>363.6666666666667</ele><time>2026-04-26T09:25:16Z</time></trkpt><trkpt lat="43.51150282220903" lon="11.901682799169448"><ele>362.83333333333337</ele><time>2026-04-26T09:25:17Z</time></trkpt><trkpt lat="43.51143493344169" lon="11.901685780173564"><ele>362.0</ele><time>2026-04-26T09:25:18Z</time></trkpt><trkpt lat="43.51136298828033" lon="11.901704202100946"><ele>362.0</ele><time>2026-04-26T09:25:19Z</time></trkpt><trkpt lat="43.51129627954909" lon="11.901705204523973"><ele>362.0</ele><time>2026-04-26T09:25:20Z</time></trkpt><trkpt lat="43.51122049431555" lon="11.90171265958941"><ele>362.0</ele><time>2026-04-26T09:25:21Z</time></trkpt><trkpt lat="43.51113783306995" lon="11.901714706805524"><ele>362.0</ele><time>2026-04-26T09:25:22Z</time></trkpt><trkpt lat="43.51106801528367" lon="11.90171709150039"><ele>362.0</ele><time>2026-04-26T09:25:23Z</time></trkpt><trkpt lat="43.511005687404364" lon="11.901694541082167"><ele>362.0</ele><time>2026-04-26T09:25:24Z</time></trkpt><trkpt lat="43.510965849521966" lon="11.90161380115125"><ele>362.0</ele><time>2026-04-26T09:25:25Z</time></trkpt><trkpt lat="43.510903884923465" lon="11.901546518804857"><ele>361.1666666666667</ele><time>2026-04-26T09:25:26Z</time></trkpt><trkpt lat="43.51082530977592" lon="11.901458094733997"><ele>360.33333333333337</ele><time>2026-04-26T09:25:27Z</time></trkpt><trkpt lat="43.510755481763006" lon="11.901416153691258"><ele>359.5</ele><time>2026-04-26T09:25:28Z</time></trkpt><trkpt lat="43.510696163854355" lon="11.901378871776032"><ele>358.6666666666667</ele><time>2026-04-26T09:25:29Z</time></trkpt><trkpt lat="43.51058972817456" lon="11.901348150700706"><ele>357.8333333333333</ele><time>2026-04-26T09:25:31Z</time></trkpt><trkpt lat="43.51050763859679" lon="11.901297853570709"><ele>357.0</ele><time>2026-04-26T09:25:33Z</time></trkpt><trkpt lat="43.51042628830535" lon="11.901267428854261"><ele>355.0</ele><time>2026-04-26T09:25:35Z</time></trkpt><trkpt lat="43.51035096260854" lon="11.901394578939966"><ele>353.0</ele><time>2026-04-26T09:25:39Z</time></trkpt><trkpt lat="43.51031900199748" lon="11.901548595093393"><ele>351.0</ele><time>2026-04-26T09:25:41Z</time></trkpt><trkpt lat="43.51030032983484" lon="11.901643997864214"><ele>349.0</ele><time>2026-04-26T09:25:42Z</time></trkpt><trkpt lat="43.510294205924176" lon="11.901763043328287"><ele>347.0</ele><time>2026-04-26T09:25:43Z</time></trkpt><trkpt lat="43.51026519407454" lon="11.901906538126067"><ele>347.0</ele><time>2026-04-26T09:25:44Z</time></trkpt><trkpt lat="43.510253684499226" lon="11.90204153844805"><ele>347.0</ele><time>2026-04-26T09:25:45Z</time></trkpt><trkpt lat="43.51024627301846" lon="11.902152633753564"><ele>347.0</ele><time>2026-04-26T09:25:46Z</time></trkpt><trkpt lat="43.51023729929258" lon="11.902262743275001"><ele>347.0</ele><time>2026-04-26T09:25:47Z</time></trkpt><trkpt lat="43.51021363038207" lon="11.902392866243806"><ele>347.0</ele><time>2026-04-26T09:25:48Z</time></trkpt><trkpt lat="43.51017494279064" lon="11.902530273356955"><ele>347.6666666666667</ele><time>2026-04-26T09:25:49Z</time></trkpt><trkpt lat="43.510169555506366" lon="11.90266338518866"><ele>348.33333333333337</ele><time>2026-04-26T09:25:50Z</time></trkpt><trkpt lat="43.51014463426744" lon="11.902770197731751"><ele>349.0</ele><time>2026-04-26T09:25:51Z</time></trkpt><trkpt lat="43.51012913268944" lon="11.902864452735775"><ele>349.6666666666667</ele><time>2026-04-26T09:25:52Z</time></trkpt><trkpt lat="43.5101241197324" lon="11.902959613896526"><ele>350.3333333333333</ele><time>2026-04-26T09:25:53Z</time></trkpt><trkpt lat="43.51011368619782" lon="11.903067805117466"><ele>351.0</ele><time>2026-04-26T09:25:54Z</time></trkpt><trkpt lat="43.51009623384825" lon="11.903171298568532"><ele>351.0</ele><time>2026-04-26T09:25:55Z</time></trkpt><trkpt lat="43.510053723335616" lon="11.903258631766017"><ele>351.0</ele><time>2026-04-26T09:25:56Z</time></trkpt><trkpt lat="43.51002425519825" lon="11.903425779203417"><ele>351.0</ele><time>2026-04-26T09:25:58Z</time></trkpt><trkpt lat="43.50999086064568" lon="11.9035574679074"><ele>351.0</ele><time>2026-04-26T09:26:00Z</time></trkpt><trkpt lat="43.50984473319378" lon="11.903544040698035"><ele>351.0</ele><time>2026-04-26T09:26:01Z</time></trkpt><trkpt lat="43.50978705385946" lon="11.903614079675691"><ele>352.6</ele><time>2026-04-26T09:26:02Z</time></trkpt><trkpt lat="43.50973281465468" lon="11.903689178467804"><ele>354.20000000000005</ele><time>2026-04-26T09:26:03Z</time></trkpt><trkpt lat="43.50968456897868" lon="11.903768380781903"><ele>355.79999999999995</ele><time>2026-04-26T09:26:04Z</time></trkpt><trkpt lat="43.50965411388744" lon="11.90385436797182"><ele>357.4</ele><time>2026-04-26T09:26:05Z</time></trkpt><trkpt lat="43.50968943175259" lon="11.904016186552207"><ele>359.0</ele><time>2026-04-26T09:26:07Z</time></trkpt><trkpt lat="43.50972781332311" lon="11.904156057222247"><ele>360.0</ele><time>2026-04-26T09:26:09Z</time></trkpt><trkpt lat="43.509704365728965" lon="11.904278197065533"><ele>361.0</ele><time>2026-04-26T09:26:11Z</time></trkpt><trkpt lat="43.509659232470455" lon="11.904453411498858"><ele>362.0</ele><time>2026-04-26T09:26:13Z</time></trkpt><trkpt lat="43.50960163815817" lon="11.904518013893652"><ele>363.0</ele><time>2026-04-26T09:26:14Z</time></trkpt><trkpt lat="43.50951918483413" lon="11.904633918702867"><ele>364.0</ele><time>2026-04-26T09:26:16Z</time></trkpt><trkpt lat="43.50944182533233" lon="11.904749750103687"><ele>362.57142857142856</ele><time>2026-04-26T09:26:18Z</time></trkpt><trkpt lat="43.509374505965845" lon="11.904795781273075"><ele>361.1428571428571</ele><time>2026-04-26T09:26:19Z</time></trkpt><trkpt lat="43.509307714414994" lon="11.90480371788083"><ele>359.7142857142857</ele><time>2026-04-26T09:26:20Z</time></trkpt><trkpt lat="43.509202941465" lon="11.904829516013473"><ele>358.2857142857143</ele><time>2026-04-26T09:26:22Z</time></trkpt><trkpt lat="43.50915949481762" lon="11.904896776778665"><ele>356.85714285714283</ele><time>2026-04-26T09:26:23Z</time></trkpt><trkpt lat="43.50913160297978" lon="11.90497956548752"><ele>355.42857142857144</ele><time>2026-04-26T09:26:24Z</time></trkpt><trkpt lat="43.50911720000147" lon="11.905072884561351"><ele>354.0</ele><time>2026-04-26T09:26:25Z</time></trkpt><trkpt lat="43.50910522974815" lon="11.905181958568473"><ele>354.0</ele><time>2026-04-26T09:26:26Z</time></trkpt><trkpt lat="43.509109830311196" lon="11.90530820214194"><ele>354.0</ele><time>2026-04-26T09:26:27Z</time></trkpt><trkpt lat="43.50911009563881" lon="11.905460323673429"><ele>354.0</ele><time>2026-04-26T09:26:28Z</time></trkpt><trkpt lat="43.50910481500655" lon="11.905631750472136"><ele>354.0</ele><time>2026-04-26T09:26:29Z</time></trkpt><trkpt lat="43.50910566988162" lon="11.905805144368284"><ele>354.4</ele><time>2026-04-26T09:26:30Z</time></trkpt><trkpt lat="43.509124755846315" lon="11.905975268695268"><ele>354.79999999999995</ele><time>2026-04-26T09:26:31Z</time></trkpt><trkpt lat="43.50913894041478" lon="11.906140945165706"><ele>355.20000000000005</ele><time>2026-04-26T09:26:32Z</time></trkpt><trkpt lat="43.50914766184937" lon="11.90626186187907"><ele>355.6</ele><time>2026-04-26T09:26:33Z</time></trkpt><trkpt lat="43.50915700665223" lon="11.906363407961083"><ele>356.0</ele><time>2026-04-26T09:26:34Z</time></trkpt><trkpt lat="43.509169626683686" lon="11.906532879435478"><ele>356.0</ele><time>2026-04-26T09:26:36Z</time></trkpt><trkpt lat="43.509116618529774" lon="11.906719574334883"><ele>356.0</ele><time>2026-04-26T09:26:38Z</time></trkpt><trkpt lat="43.50905979512139" lon="11.906799351662597"><ele>356.0</ele><time>2026-04-26T09:26:39Z</time></trkpt><trkpt lat="43.508965788641206" lon="11.906843214399137"><ele>356.0</ele><time>2026-04-26T09:26:40Z</time></trkpt><trkpt lat="43.50887981291119" lon="11.906914486988816"><ele>356.0</ele><time>2026-04-26T09:26:41Z</time></trkpt><trkpt lat="43.508747038603694" lon="11.906972290063427"><ele>357.0</ele><time>2026-04-26T09:26:42Z</time></trkpt><trkpt lat="43.5086128297448" lon="11.907067417284843"><ele>358.0</ele><time>2026-04-26T09:26:43Z</time></trkpt><trkpt lat="43.50850645556978" lon="11.907123962789402"><ele>359.0</ele><time>2026-04-26T09:26:44Z</time></trkpt><trkpt lat="43.508421033566634" lon="11.90718805729519"><ele>360.0</ele><time>2026-04-26T09:26:45Z</time></trkpt><trkpt lat="43.50835387208288" lon="11.907238385265972"><ele>361.0</ele><time>2026-04-26T09:26:46Z</time></trkpt><trkpt lat="43.50828922584449" lon="11.907283383493173"><ele>361.0</ele><time>2026-04-26T09:26:47Z</time></trkpt><trkpt lat="43.50822577627415" lon="11.907326255765438"><ele>361.0</ele><time>2026-04-26T09:26:48Z</time></trkpt><trkpt lat="43.50814940823968" lon="11.907382181018981"><ele>361.0</ele><time>2026-04-26T09:26:49Z</time></trkpt><trkpt lat="43.508082564737" lon="11.907442944485581"><ele>361.0</ele><time>2026-04-26T09:26:50Z</time></trkpt><trkpt lat="43.50801057653616" lon="11.90749859774167"><ele>361.0</ele><time>2026-04-26T09:26:51Z</time></trkpt><trkpt lat="43.5079218276547" lon="11.907539360154702"><ele>361.0</ele><time>2026-04-26T09:26:52Z</time></trkpt><trkpt lat="43.50784091808062" lon="11.907552447153833"><ele>362.20000000000005</ele><time>2026-04-26T09:26:53Z</time></trkpt><trkpt lat="43.507732771309286" lon="11.907574187153092"><ele>363.40000000000003</ele><time>2026-04-26T09:26:54Z</time></trkpt><trkpt lat="43.50761743613887" lon="11.907601980885538"><ele>364.6</ele><time>2026-04-26T09:26:55Z</time></trkpt><trkpt lat="43.50751654906051" lon="11.907619155222058"><ele>365.8</ele><time>2026-04-26T09:26:56Z</time></trkpt><trkpt lat="43.507426841031695" lon="11.907588822550364"><ele>367.0</ele><time>2026-04-26T09:26:57Z</time></trkpt><trkpt lat="43.50735978572517" lon="11.907602735738827"><ele>368.0</ele><time>2026-04-26T09:26:58Z</time></trkpt><trkpt lat="43.50729275975252" lon="11.907598135470183"><ele>369.0</ele><time>2026-04-26T09:26:59Z</time></trkpt><trkpt lat="43.50722651088733" lon="11.907607759568334"><ele>370.0</ele><time>2026-04-26T09:27:00Z</time></trkpt><trkpt lat="43.50715333008925" lon="11.907627499583839"><ele>371.0</ele><time>2026-04-26T09:27:02Z</time></trkpt><trkpt lat="43.50706967260622" lon="11.907665664086608"><ele>372.0</ele><time>2026-04-26T09:27:23Z</time></trkpt><trkpt lat="43.507008303180186" lon="11.907696317088975"><ele>373.0</ele><time>2026-04-26T09:27:24Z</time></trkpt><trkpt lat="43.506887899951806" lon="11.907770451458635"><ele>374.5</ele><time>2026-04-26T09:27:26Z</time></trkpt><trkpt lat="43.506827950197675" lon="11.907820052088145"><ele>376.0</ele><time>2026-04-26T09:27:27Z</time></trkpt><trkpt lat="43.506761718647084" lon="11.907870319105184"><ele>377.5</ele><time>2026-04-26T09:27:28Z</time></trkpt><trkpt lat="43.50667302325021" lon="11.907892979731306"><ele>379.0</ele><time>2026-04-26T09:27:29Z</time></trkpt><trkpt lat="43.50658412207622" lon="11.90794996598987"><ele>380.5</ele><time>2026-04-26T09:27:30Z</time></trkpt><trkpt lat="43.50649700136738" lon="11.907975695710112"><ele>382.0</ele><time>2026-04-26T09:27:31Z</time></trkpt><trkpt lat="43.506425344141206" lon="11.908012779892871"><ele>382.0</ele><time>2026-04-26T09:27:32Z</time></trkpt><trkpt lat="43.5063654607142" lon="11.908073056670345"><ele>382.0</ele><time>2026-04-26T09:27:33Z</time></trkpt><trkpt lat="43.506315712930174" lon="11.90815464977518"><ele>382.0</ele><time>2026-04-26T09:27:34Z</time></trkpt><trkpt lat="43.506261185080575" lon="11.908239754140766"><ele>382.0</ele><time>2026-04-26T09:27:35Z</time></trkpt><trkpt lat="43.506211859738954" lon="11.908337691669566"><ele>382.0</ele><time>2026-04-26T09:27:36Z</time></trkpt><trkpt lat="43.50616874666876" lon="11.90842153970427"><ele>382.0</ele><time>2026-04-26T09:27:37Z</time></trkpt><trkpt lat="43.506111285395924" lon="11.908495971896961"><ele>382.20000000000005</ele><time>2026-04-26T09:27:38Z</time></trkpt><trkpt lat="43.50605221364675" lon="11.908590825791283"><ele>382.4</ele><time>2026-04-26T09:27:39Z</time></trkpt><trkpt lat="43.50597692426039" lon="11.90868739041604"><ele>382.6</ele><time>2026-04-26T09:27:40Z</time></trkpt><trkpt lat="43.50590119847301" lon="11.908785548830807"><ele>382.79999999999995</ele><time>2026-04-26T09:27:41Z</time></trkpt><trkpt lat="43.50582252383594" lon="11.908896193879373"><ele>383.0</ele><time>2026-04-26T09:27:42Z</time></trkpt><trkpt lat="43.50575674772551" lon="11.90899748188713"><ele>383.0</ele><time>2026-04-26T09:27:43Z</time></trkpt><trkpt lat="43.505700148338406" lon="11.909091310444756"><ele>383.0</ele><time>2026-04-26T09:27:44Z</time></trkpt><trkpt lat="43.5056539041839" lon="11.909172797452465"><ele>383.0</ele><time>2026-04-26T09:27:45Z</time></trkpt><trkpt lat="43.5056047429953" lon="11.909252356782758"><ele>383.0</ele><time>2026-04-26T09:27:46Z</time></trkpt><trkpt lat="43.50556205821992" lon="11.909319048038698"><ele>383.0</ele><time>2026-04-26T09:27:47Z</time></trkpt><trkpt lat="43.50549445404039" lon="11.909487770750832"><ele>383.0</ele><time>2026-04-26T09:27:49Z</time></trkpt><trkpt lat="43.505469183036006" lon="11.909606450249267"><ele>382.5</ele><time>2026-04-26T09:27:50Z</time></trkpt><trkpt lat="43.505438061046874" lon="11.909755448594803"><ele>382.0</ele><time>2026-04-26T09:27:51Z</time></trkpt><trkpt lat="43.50538797814725" lon="11.909934165143323"><ele>381.5</ele><time>2026-04-26T09:27:52Z</time></trkpt><trkpt lat="43.505343906517794" lon="11.91007094958005"><ele>381.0</ele><time>2026-04-26T09:27:53Z</time></trkpt><trkpt lat="43.50530106345449" lon="11.910187924772597"><ele>380.6</ele><time>2026-04-26T09:27:54Z</time></trkpt><trkpt lat="43.50525773322732" lon="11.910304595398333"><ele>380.20000000000005</ele><time>2026-04-26T09:27:55Z</time></trkpt><trkpt lat="43.50521773602425" lon="11.91041520928024"><ele>379.79999999999995</ele><time>2026-04-26T09:27:56Z</time></trkpt><trkpt lat="43.50518346069758" lon="11.91051701540623"><ele>379.4</ele><time>2026-04-26T09:27:57Z</time></trkpt><trkpt lat="43.50516011684286" lon="11.910626398151647"><ele>379.0</ele><time>2026-04-26T09:27:58Z</time></trkpt><trkpt lat="43.50514554991895" lon="11.91076695684065"><ele>378.6</ele><time>2026-04-26T09:27:59Z</time></trkpt><trkpt lat="43.505127284944024" lon="11.910927859077914"><ele>378.2</ele><time>2026-04-26T09:28:00Z</time></trkpt><trkpt lat="43.50510654390534" lon="11.911073232707148"><ele>377.8</ele><time>2026-04-26T09:28:01Z</time></trkpt><trkpt lat="43.50508124808607" lon="11.911210123450246"><ele>377.40000000000003</ele><time>2026-04-26T09:28:02Z</time></trkpt><trkpt lat="43.50505367823202" lon="11.911345489784223"><ele>377.0</ele><time>2026-04-26T09:28:03Z</time></trkpt><trkpt lat="43.50502816722563" lon="11.911469063444008"><ele>377.0</ele><time>2026-04-26T09:28:04Z</time></trkpt><trkpt lat="43.50500639318828" lon="11.91156660112695"><ele>377.0</ele><time>2026-04-26T09:28:05Z</time></trkpt><trkpt lat="43.504976282319554" lon="11.91169197947593"><ele>377.0</ele><time>2026-04-26T09:28:07Z</time></trkpt><trkpt lat="43.5049607804158" lon="11.911797592883374"><ele>377.0</ele><time>2026-04-26T09:28:10Z</time></trkpt><trkpt lat="43.50493899491685" lon="11.911964175651995"><ele>377.0</ele><time>2026-04-26T09:28:13Z</time></trkpt><trkpt lat="43.50493414846643" lon="11.912082962918838"><ele>377.0</ele><time>2026-04-26T09:28:14Z</time></trkpt><trkpt lat="43.50493071214261" lon="11.912224688563516"><ele>377.0</ele><time>2026-04-26T09:28:15Z</time></trkpt><trkpt lat="43.504930122489945" lon="11.912366617100664"><ele>377.0</ele><time>2026-04-26T09:28:16Z</time></trkpt><trkpt lat="43.50493047920759" lon="11.912483718874242"><ele>377.0</ele><time>2026-04-26T09:28:17Z</time></trkpt><trkpt lat="43.50492988162824" lon="11.912575973795107"><ele>377.0</ele><time>2026-04-26T09:28:18Z</time></trkpt><trkpt lat="43.50491719928677" lon="11.912688597428046"><ele>377.0</ele><time>2026-04-26T09:28:20Z</time></trkpt><trkpt lat="43.50488249252691" lon="11.91278123654243"><ele>377.0</ele><time>2026-04-26T09:28:24Z</time></trkpt><trkpt lat="43.50472295640574" lon="11.912787297792395"><ele>377.0</ele><time>2026-04-26T09:28:25Z</time></trkpt><trkpt lat="43.50464957864685" lon="11.912806986012322"><ele>377.0</ele><time>2026-04-26T09:28:26Z</time></trkpt><trkpt lat="43.5045376551222" lon="11.912812424710326"><ele>377.0</ele><time>2026-04-26T09:28:28Z</time></trkpt><trkpt lat="43.50445152806286" lon="11.912817635496394"><ele>377.0</ele><time>2026-04-26T09:28:30Z</time></trkpt><trkpt lat="43.504361110951095" lon="11.912828640880448"><ele>376.2857142857143</ele><time>2026-04-26T09:28:32Z</time></trkpt><trkpt lat="43.504281173437015" lon="11.912841489384133"><ele>375.57142857142856</ele><time>2026-04-26T09:28:34Z</time></trkpt><trkpt lat="43.50421630914235" lon="11.912851868244697"><ele>374.8571428571429</ele><time>2026-04-26T09:28:36Z</time></trkpt><trkpt lat="43.504121860045494" lon="11.912871962703425"><ele>374.1428571428571</ele><time>2026-04-26T09:28:39Z</time></trkpt><trkpt lat="43.50405913893932" lon="11.912901641381213"><ele>373.42857142857144</ele><time>2026-04-26T09:28:41Z</time></trkpt><trkpt lat="43.503993807473805" lon="11.912911393334088"><ele>372.7142857142857</ele><time>2026-04-26T09:28:43Z</time></trkpt><trkpt lat="43.50392111238763" lon="11.912920793486078"><ele>372.0</ele><time>2026-04-26T09:28:45Z</time></trkpt><trkpt lat="43.50384495011158" lon="11.912941678163277"><ele>372.0</ele><time>2026-04-26T09:28:47Z</time></trkpt><trkpt lat="43.50377418123655" lon="11.912942870421091"><ele>372.0</ele><time>2026-04-26T09:28:49Z</time></trkpt><trkpt lat="43.503692593374566" lon="11.912965420074146"><ele>372.0</ele><time>2026-04-26T09:28:51Z</time></trkpt><trkpt lat="43.50361666504533" lon="11.912983976560053"><ele>372.0</ele><time>2026-04-26T09:28:53Z</time></trkpt><trkpt lat="43.503527060628855" lon="11.912994300659031"><ele>372.0</ele><time>2026-04-26T09:28:55Z</time></trkpt><trkpt lat="43.50346145626742" lon="11.913011790849374"><ele>372.0</ele><time>2026-04-26T09:28:57Z</time></trkpt><trkpt lat="43.50338008133307" lon="11.91301886491021"><ele>369.5</ele><time>2026-04-26T09:28:59Z</time></trkpt><trkpt lat="43.503310480334854" lon="11.913013819927391"><ele>367.0</ele><time>2026-04-26T09:29:01Z</time></trkpt><trkpt lat="43.503243581873555" lon="11.913043697664587"><ele>364.5</ele><time>2026-04-26T09:29:03Z</time></trkpt><trkpt lat="43.50317474552231" lon="11.913070116622583"><ele>362.0</ele><time>2026-04-26T09:29:05Z</time></trkpt><trkpt lat="43.503105978884314" lon="11.913092573387177"><ele>359.5</ele><time>2026-04-26T09:29:07Z</time></trkpt><trkpt lat="43.50301919561076" lon="11.913101089831382"><ele>357.0</ele><time>2026-04-26T09:29:09Z</time></trkpt><trkpt lat="43.50292823004709" lon="11.91311741235982"><ele>354.1666666666667</ele><time>2026-04-26T09:29:11Z</time></trkpt><trkpt lat="43.50285685814308" lon="11.91312983413229"><ele>351.3333333333333</ele><time>2026-04-26T09:29:13Z</time></trkpt><trkpt lat="43.502782428876536" lon="11.913148330810193"><ele>348.5</ele><time>2026-04-26T09:29:15Z</time></trkpt><trkpt lat="43.50271123756526" lon="11.91314778208546"><ele>345.66666666666663</ele><time>2026-04-26T09:29:17Z</time></trkpt><trkpt lat="43.5026264753066" lon="11.91305579539981"><ele>342.8333333333333</ele><time>2026-04-26T09:29:19Z</time></trkpt><trkpt lat="43.502547080197225" lon="11.913020079064204"><ele>340.0</ele><time>2026-04-26T09:29:20Z</time></trkpt><trkpt lat="43.50244010310323" lon="11.913010294617422"><ele>340.0</ele><time>2026-04-26T09:29:21Z</time></trkpt><trkpt lat="43.50234271387878" lon="11.912987966628476"><ele>340.0</ele><time>2026-04-26T09:29:22Z</time></trkpt><trkpt lat="43.50226363193618" lon="11.912973711933427"><ele>340.0</ele><time>2026-04-26T09:29:23Z</time></trkpt><trkpt lat="43.50217819515326" lon="11.912947213800752"><ele>340.0</ele><time>2026-04-26T09:29:25Z</time></trkpt><trkpt lat="43.50211390333779" lon="11.912935060477746"><ele>340.0</ele><time>2026-04-26T09:29:38Z</time></trkpt><trkpt lat="43.50197338901107" lon="11.91292078151907"><ele>337.25</ele><time>2026-04-26T09:29:40Z</time></trkpt><trkpt lat="43.50183569728331" lon="11.912926259744575"><ele>334.5</ele><time>2026-04-26T09:29:41Z</time></trkpt><trkpt lat="43.50169057456398" lon="11.912932963343252"><ele>331.75</ele><time>2026-04-26T09:29:42Z</time></trkpt><trkpt lat="43.50156142508086" lon="11.912924349916532"><ele>329.0</ele><time>2026-04-26T09:29:43Z</time></trkpt><trkpt lat="43.50142702955182" lon="11.912908323544512"><ele>329.0</ele><time>2026-04-26T09:29:44Z</time></trkpt><trkpt lat="43.50126536588693" lon="11.912838712022463"><ele>329.0</ele><time>2026-04-26T09:29:46Z</time></trkpt><trkpt lat="43.50113312170241" lon="11.912771917863891"><ele>329.0</ele><time>2026-04-26T09:29:47Z</time></trkpt><trkpt lat="43.50100754971286" lon="11.912706206609984"><ele>329.0</ele><time>2026-04-26T09:29:48Z</time></trkpt><trkpt lat="43.50089256677601" lon="11.912641617751438"><ele>327.0</ele><time>2026-04-26T09:29:49Z</time></trkpt><trkpt lat="43.500785010436225" lon="11.912568416290965"><ele>325.0</ele><time>2026-04-26T09:29:50Z</time></trkpt><trkpt lat="43.500684023838204" lon="11.912489017082724"><ele>323.0</ele><time>2026-04-26T09:29:51Z</time></trkpt><trkpt lat="43.50059934251399" lon="11.912417377355089"><ele>321.0</ele><time>2026-04-26T09:29:52Z</time></trkpt><trkpt lat="43.50054389744728" lon="11.912365396442947"><ele>319.0</ele><time>2026-04-26T09:29:53Z</time></trkpt><trkpt lat="43.50049422446584" lon="11.912307540397691"><ele>319.0</ele><time>2026-04-26T09:29:54Z</time></trkpt><trkpt lat="43.500426824697044" lon="11.912165492634882"><ele>319.0</ele><time>2026-04-26T09:29:56Z</time></trkpt><trkpt lat="43.500424542210574" lon="11.912061751075917"><ele>319.0</ele><time>2026-04-26T09:29:57Z</time></trkpt><trkpt lat="43.50040584859464" lon="11.911938801557808"><ele>319.0</ele><time>2026-04-26T09:29:58Z</time></trkpt><trkpt lat="43.50038653977661" lon="11.911827042505413"><ele>319.0</ele><time>2026-04-26T09:29:59Z</time></trkpt><trkpt lat="43.50036099217911" lon="11.911731811299603"><ele>319.0</ele><time>2026-04-26T09:30:00Z</time></trkpt><trkpt lat="43.500257871196446" lon="11.911607612251997"><ele>317.4</ele><time>2026-04-26T09:30:02Z</time></trkpt><trkpt lat="43.5001430831324" lon="11.911638179603727"><ele>315.79999999999995</ele><time>2026-04-26T09:30:03Z</time></trkpt><trkpt lat="43.50003556300017" lon="11.911642449327362"><ele>314.20000000000005</ele><time>2026-04-26T09:30:04Z</time></trkpt><trkpt lat="43.49994559871145" lon="11.911590761171064"><ele>312.6</ele><time>2026-04-26T09:30:05Z</time></trkpt><trkpt lat="43.499873081109705" lon="11.911527336852203"><ele>311.0</ele><time>2026-04-26T09:30:06Z</time></trkpt><trkpt lat="43.49982475184954" lon="11.9113888458435"><ele>311.0</ele><time>2026-04-26T09:30:07Z</time></trkpt><trkpt lat="43.499754300125865" lon="11.911255009101856"><ele>311.0</ele><time>2026-04-26T09:30:08Z</time></trkpt><trkpt lat="43.49969044457404" lon="11.91113350451505"><ele>311.0</ele><time>2026-04-26T09:30:09Z</time></trkpt><trkpt lat="43.49961832676011" lon="11.911055392013676"><ele>311.0</ele><time>2026-04-26T09:30:10Z</time></trkpt><trkpt lat="43.499582690174414" lon="11.910982400843215"><ele>311.0</ele><time>2026-04-26T09:30:11Z</time></trkpt><trkpt lat="43.4995269485964" lon="11.910900775695048"><ele>310.5</ele><time>2026-04-26T09:30:13Z</time></trkpt><trkpt lat="43.499623283121984" lon="11.910825624829936"><ele>310.0</ele><time>2026-04-26T09:30:15Z</time></trkpt><trkpt lat="43.49968238279576" lon="11.910703812786199"><ele>309.5</ele><time>2026-04-26T09:30:17Z</time></trkpt><trkpt lat="43.499683053095154" lon="11.910551915026575"><ele>309.0</ele><time>2026-04-26T09:30:18Z</time></trkpt><trkpt lat="43.499689312340905" lon="11.910378047403448"><ele>309.0</ele><time>2026-04-26T09:30:19Z</time></trkpt><trkpt lat="43.499697337813984" lon="11.910193541718751"><ele>309.0</ele><time>2026-04-26T09:30:20Z</time></trkpt><trkpt lat="43.499707064366994" lon="11.910014789616934"><ele>309.0</ele><time>2026-04-26T09:30:21Z</time></trkpt><trkpt lat="43.499727578020405" lon="11.909855428726335"><ele>309.0</ele><time>2026-04-26T09:30:22Z</time></trkpt><trkpt lat="43.49974575863488" lon="11.909697724351648"><ele>308.0</ele><time>2026-04-26T09:30:23Z</time></trkpt><trkpt lat="43.499742307312665" lon="11.909546819678017"><ele>307.0</ele><time>2026-04-26T09:30:24Z</time></trkpt><trkpt lat="43.49973482749758" lon="11.9094156670598"><ele>306.0</ele><time>2026-04-26T09:30:25Z</time></trkpt><trkpt lat="43.49972689307552" lon="11.909299840852439"><ele>305.0</ele><time>2026-04-26T09:30:26Z</time></trkpt><trkpt lat="43.49970587283908" lon="11.90918768331206"><ele>304.0</ele><time>2026-04-26T09:30:27Z</time></trkpt><trkpt lat="43.49970841103256" lon="11.90902557961035"><ele>303.5</ele><time>2026-04-26T09:30:29Z</time></trkpt><trkpt lat="43.49970881133053" lon="11.908921139644848"><ele>303.0</ele><time>2026-04-26T09:30:31Z</time></trkpt><trkpt lat="43.49974231702845" lon="11.908814069228168"><ele>302.5</ele><time>2026-04-26T09:30:33Z</time></trkpt><trkpt lat="43.49995311905244" lon="11.90881663989359"><ele>302.0</ele><time>2026-04-26T09:30:36Z</time></trkpt><trkpt lat="43.499696253211866" lon="11.908811547052492"><ele>302.0</ele><time>2026-04-26T09:30:37Z</time></trkpt><trkpt lat="43.499691093861095" lon="11.908962694960264"><ele>302.0</ele><time>2026-04-26T09:30:41Z</time></trkpt><trkpt lat="43.499675364705915" lon="11.90907856927844"><ele>302.0</ele><time>2026-04-26T09:30:43Z</time></trkpt><trkpt lat="43.49961476726861" lon="11.909105988527896"><ele>302.0</ele><time>2026-04-26T09:30:44Z</time></trkpt><trkpt lat="43.49952606073321" lon="11.909120838677353"><ele>302.0</ele><time>2026-04-26T09:30:45Z</time></trkpt><trkpt lat="43.499422818661216" lon="11.90910690765029"><ele>300.8</ele><time>2026-04-26T09:30:46Z</time></trkpt><trkpt lat="43.49932465749758" lon="11.909087017444637"><ele>299.6</ele><time>2026-04-26T09:30:47Z</time></trkpt><trkpt lat="43.49922197719428" lon="11.909070528366412"><ele>298.40000000000003</ele><time>2026-04-26T09:30:48Z</time></trkpt><trkpt lat="43.499138461932844" lon="11.909052805998407"><ele>297.2</ele><time>2026-04-26T09:30:49Z</time></trkpt><trkpt lat="43.499016401086934" lon="11.909022103498803"><ele>296.0</ele><time>2026-04-26T09:30:51Z</time></trkpt><trkpt lat="43.49889969334776" lon="11.909000438949473"><ele>296.0</ele><time>2026-04-26T09:30:53Z</time></trkpt><trkpt lat="43.49877864480992" lon="11.909016065490313"><ele>296.0</ele><time>2026-04-26T09:30:55Z</time></trkpt><trkpt lat="43.498700184457874" lon="11.909005935818007"><ele>296.0</ele><time>2026-04-26T09:30:57Z</time></trkpt><trkpt lat="43.49860503762008" lon="11.909066180370335"><ele>296.0</ele><time>2026-04-26T09:31:01Z</time></trkpt><trkpt lat="43.49853977102521" lon="11.909134011796896"><ele>296.0</ele><time>2026-04-26T09:31:02Z</time></trkpt><trkpt lat="43.498485314549484" lon="11.909178570077795"><ele>294.8</ele><time>2026-04-26T09:31:03Z</time></trkpt><trkpt lat="43.498400901389516" lon="11.909214463548972"><ele>293.6</ele><time>2026-04-26T09:31:05Z</time></trkpt><trkpt lat="43.49831308890054" lon="11.909205196113966"><ele>292.4</ele><time>2026-04-26T09:31:08Z</time></trkpt><trkpt lat="43.4982624982618" lon="11.9090394972607"><ele>291.2</ele><time>2026-04-26T09:31:10Z</time></trkpt><trkpt lat="43.4982132963662" lon="11.908934508183812"><ele>290.0</ele><time>2026-04-26T09:31:11Z</time></trkpt><trkpt lat="43.49814434398875" lon="11.908830609214586"><ele>290.0</ele><time>2026-04-26T09:31:12Z</time></trkpt><trkpt lat="43.49809127745005" lon="11.908729934131246"><ele>290.0</ele><time>2026-04-26T09:31:13Z</time></trkpt><trkpt lat="43.49804012904551" lon="11.908648060476507"><ele>290.0</ele><time>2026-04-26T09:31:14Z</time></trkpt><trkpt lat="43.497979759743295" lon="11.908583624313996"><ele>290.0</ele><time>2026-04-26T09:31:15Z</time></trkpt><trkpt lat="43.49789698811042" lon="11.90852466869858"><ele>290.0</ele><time>2026-04-26T09:31:16Z</time></trkpt><trkpt lat="43.497798855433324" lon="11.90845884230949"><ele>290.0</ele><time>2026-04-26T09:31:17Z</time></trkpt><trkpt lat="43.497687825759506" lon="11.908403360825533"><ele>288.25</ele><time>2026-04-26T09:31:18Z</time></trkpt><trkpt lat="43.49756755109154" lon="11.90834325957278"><ele>286.5</ele><time>2026-04-26T09:31:19Z</time></trkpt><trkpt lat="43.497431489951516" lon="11.908275270830474"><ele>284.75</ele><time>2026-04-26T09:31:20Z</time></trkpt><trkpt lat="43.4972975679139" lon="11.908202639774492"><ele>283.0</ele><time>2026-04-26T09:31:21Z</time></trkpt><trkpt lat="43.49715195878232" lon="11.908141372729885"><ele>283.0</ele><time>2026-04-26T09:31:22Z</time></trkpt><trkpt lat="43.49700748130776" lon="11.908051054261964"><ele>283.0</ele><time>2026-04-26T09:31:23Z</time></trkpt><trkpt lat="43.49687261448817" lon="11.907960140134863"><ele>283.0</ele><time>2026-04-26T09:31:24Z</time></trkpt><trkpt lat="43.496748245300566" lon="11.907865029482888"><ele>283.0</ele><time>2026-04-26T09:31:25Z</time></trkpt><trkpt lat="43.496657241808556" lon="11.9077399147688"><ele>283.0</ele><time>2026-04-26T09:31:26Z</time></trkpt><trkpt lat="43.49656134361553" lon="11.907637337957919"><ele>283.0</ele><time>2026-04-26T09:31:27Z</time></trkpt><trkpt lat="43.496478175452275" lon="11.907558343501389"><ele>283.0</ele><time>2026-04-26T09:31:28Z</time></trkpt><trkpt lat="43.49642137747281" lon="11.907488185419787"><ele>283.0</ele><time>2026-04-26T09:31:29Z</time></trkpt><trkpt lat="43.496365972992315" lon="11.90743816141226"><ele>282.5</ele><time>2026-04-26T09:31:30Z</time></trkpt><trkpt lat="43.496279855732475" lon="11.907434961342606"><ele>282.0</ele><time>2026-04-26T09:31:32Z</time></trkpt><trkpt lat="43.49626650077235" lon="11.907271294808481"><ele>281.5</ele><time>2026-04-26T09:31:33Z</time></trkpt><trkpt lat="43.49625470479063" lon="11.907120372900481"><ele>281.0</ele><time>2026-04-26T09:31:34Z</time></trkpt><trkpt lat="43.49621663624237" lon="11.90691866307324"><ele>280.6666666666667</ele><time>2026-04-26T09:31:35Z</time></trkpt><trkpt lat="43.49616955816243" lon="11.90666921574194"><ele>280.3333333333333</ele><time>2026-04-26T09:31:36Z</time></trkpt><trkpt lat="43.49611397496938" lon="11.90637470433463"><ele>280.0</ele><time>2026-04-26T09:31:37Z</time></trkpt><trkpt lat="43.49606777399618" lon="11.906131985072626"><ele>280.0</ele><time>2026-04-26T09:31:38Z</time></trkpt><trkpt lat="43.496030164698155" lon="11.905934185063925"><ele>280.0</ele><time>2026-04-26T09:31:39Z</time></trkpt><trkpt lat="43.495989410460176" lon="11.905724647889596"><ele>280.0</ele><time>2026-04-26T09:31:40Z</time></trkpt><trkpt lat="43.495946475533415" lon="11.90550473266753"><ele>280.0</ele><time>2026-04-26T09:31:41Z</time></trkpt><trkpt lat="43.495901409009605" lon="11.905273899374722"><ele>280.0</ele><time>2026-04-26T09:31:42Z</time></trkpt><trkpt lat="43.49585614522013" lon="11.905034353598113"><ele>280.0</ele><time>2026-04-26T09:31:43Z</time></trkpt><trkpt lat="43.49581041411423" lon="11.904787609992225"><ele>278.5</ele><time>2026-04-26T09:31:44Z</time></trkpt><trkpt lat="43.495760355913085" lon="11.90450091724706"><ele>277.0</ele><time>2026-04-26T09:31:45Z</time></trkpt><trkpt lat="43.49571043915727" lon="11.904154304881382"><ele>276.0</ele><time>2026-04-26T09:31:46Z</time></trkpt><trkpt lat="43.49565884973993" lon="11.903762003106948"><ele>275.0</ele><time>2026-04-26T09:31:47Z</time></trkpt><trkpt lat="43.49560253080745" lon="11.903382639978663"><ele>275.0</ele><time>2026-04-26T09:31:48Z</time></trkpt><trkpt lat="43.49554337240146" lon="11.903060975101111"><ele>275.0</ele><time>2026-04-26T09:31:49Z</time></trkpt><trkpt lat="43.49547190197384" lon="11.902705619610842"><ele>273.5</ele><time>2026-04-26T09:31:50Z</time></trkpt><trkpt lat="43.495401104655386" lon="11.902360784773004"><ele>272.0</ele><time>2026-04-26T09:31:51Z</time></trkpt><trkpt lat="43.49533854270884" lon="11.902061832561163"><ele>272.0</ele><time>2026-04-26T09:31:52Z</time></trkpt><trkpt lat="43.49528319232646" lon="11.901764753961995"><ele>272.0</ele><time>2026-04-26T09:31:53Z</time></trkpt><trkpt lat="43.49522181628741" lon="11.901424436029865"><ele>272.0</ele><time>2026-04-26T09:31:54Z</time></trkpt><trkpt lat="43.495158289343514" lon="11.901094607565533"><ele>272.0</ele><time>2026-04-26T09:31:55Z</time></trkpt><trkpt lat="43.495082547660196" lon="11.900809471862564"><ele>271.6666666666667</ele><time>2026-04-26T09:31:56Z</time></trkpt><trkpt lat="43.49502413802375" lon="11.900538142268951"><ele>271.3333333333333</ele><time>2026-04-26T09:31:57Z</time></trkpt><trkpt lat="43.49497974421841" lon="11.900279269981949"><ele>271.0</ele><time>2026-04-26T09:31:58Z</time></trkpt><trkpt lat="43.49493140392431" lon="11.900017596290393"><ele>270.5</ele><time>2026-04-26T09:31:59Z</time></trkpt><trkpt lat="43.49487972730791" lon="11.899701254488006"><ele>270.0</ele><time>2026-04-26T09:32:00Z</time></trkpt><trkpt lat="43.494823067894735" lon="11.899347361192346"><ele>269.0</ele><time>2026-04-26T09:32:01Z</time></trkpt><trkpt lat="43.49476745095357" lon="11.898999978660843"><ele>268.0</ele><time>2026-04-26T09:32:02Z</time></trkpt><trkpt lat="43.494714701890906" lon="11.898670509371088"><ele>268.5</ele><time>2026-04-26T09:32:03Z</time></trkpt><trkpt lat="43.49466349281452" lon="11.89835065804831"><ele>269.0</ele><time>2026-04-26T09:32:04Z</time></trkpt><trkpt lat="43.49461422411407" lon="11.898056398688976"><ele>268.6666666666667</ele><time>2026-04-26T09:32:05Z</time></trkpt><trkpt lat="43.49456798390927" lon="11.897782391033276"><ele>268.3333333333333</ele><time>2026-04-26T09:32:06Z</time></trkpt><trkpt lat="43.49452146231179" lon="11.897513368175762"><ele>268.0</ele><time>2026-04-26T09:32:07Z</time></trkpt><trkpt lat="43.49446740349346" lon="11.897211728233588"><ele>267.3333333333333</ele><time>2026-04-26T09:32:08Z</time></trkpt><trkpt lat="43.49441548750488" lon="11.896922044886267"><ele>266.6666666666667</ele><time>2026-04-26T09:32:09Z</time></trkpt><trkpt lat="43.49436852664785" lon="11.896655876302693"><ele>266.0</ele><time>2026-04-26T09:32:10Z</time></trkpt><trkpt lat="43.49432523105835" lon="11.896407476268262"><ele>266.0</ele><time>2026-04-26T09:32:11Z</time></trkpt><trkpt lat="43.494285290416606" lon="11.896174381641616"><ele>266.0</ele><time>2026-04-26T09:32:12Z</time></trkpt><trkpt lat="43.49424767168609" lon="11.895953721487368"><ele>266.0</ele><time>2026-04-26T09:32:13Z</time></trkpt><trkpt lat="43.49421178670572" lon="11.895743231169492"><ele>266.0</ele><time>2026-04-26T09:32:14Z</time></trkpt><trkpt lat="43.4941780207394" lon="11.895545170457458"><ele>266.0</ele><time>2026-04-26T09:32:15Z</time></trkpt><trkpt lat="43.494147284315765" lon="11.895364879727975"><ele>266.0</ele><time>2026-04-26T09:32:16Z</time></trkpt><trkpt lat="43.49411127187586" lon="11.895235704508218"><ele>266.0</ele><time>2026-04-26T09:32:17Z</time></trkpt><trkpt lat="43.49410738404158" lon="11.895130837368013"><ele>265.6666666666667</ele><time>2026-04-26T09:32:18Z</time></trkpt><trkpt lat="43.49407621490591" lon="11.895033127742709"><ele>265.33333333333337</ele><time>2026-04-26T09:32:19Z</time></trkpt><trkpt lat="43.49405852036497" lon="11.894925362716528"><ele>265.0</ele><time>2026-04-26T09:32:20Z</time></trkpt><trkpt lat="43.49404507108119" lon="11.894829088059213"><ele>264.6666666666667</ele><time>2026-04-26T09:32:21Z</time></trkpt><trkpt lat="43.494038198996215" lon="11.89473742303191"><ele>264.3333333333333</ele><time>2026-04-26T09:32:22Z</time></trkpt><trkpt lat="43.49400288825223" lon="11.894597062231915"><ele>264.0</ele><time>2026-04-26T09:32:24Z</time></trkpt><trkpt lat="43.4938961854584" lon="11.894560302412707"><ele>264.0</ele><time>2026-04-26T09:32:27Z</time></trkpt><trkpt lat="43.49375694325971" lon="11.894531265862497"><ele>264.0</ele><time>2026-04-26T09:32:29Z</time></trkpt><trkpt lat="43.49366707992102" lon="11.894506309617304"><ele>264.0</ele><time>2026-04-26T09:32:30Z</time></trkpt><trkpt lat="43.493572263282076" lon="11.894480334388112"><ele>264.0</ele><time>2026-04-26T09:32:31Z</time></trkpt><trkpt lat="43.493496125693724" lon="11.894460311278305"><ele>264.0</ele><time>2026-04-26T09:32:32Z</time></trkpt><trkpt lat="43.4934266266494" lon="11.894441784797563"><ele>263.8</ele><time>2026-04-26T09:32:33Z</time></trkpt><trkpt lat="43.49334900790884" lon="11.894429485155257"><ele>263.59999999999997</ele><time>2026-04-26T09:32:34Z</time></trkpt><trkpt lat="43.493227894827136" lon="11.894454417451698"><ele>263.4</ele><time>2026-04-26T09:32:36Z</time></trkpt><trkpt lat="43.493155684210286" lon="11.894456214379584"><ele>263.2</ele><time>2026-04-26T09:32:37Z</time></trkpt><trkpt lat="43.49306838392174" lon="11.8944693501722"><ele>263.0</ele><time>2026-04-26T09:32:38Z</time></trkpt><trkpt lat="43.49297879525671" lon="11.894479038153323"><ele>263.2</ele><time>2026-04-26T09:32:39Z</time></trkpt><trkpt lat="43.49287870606091" lon="11.89450660444182"><ele>263.4</ele><time>2026-04-26T09:32:40Z</time></trkpt><trkpt lat="43.49278618164156" lon="11.894504936199144"><ele>263.59999999999997</ele><time>2026-04-26T09:32:41Z</time></trkpt><trkpt lat="43.492697472615575" lon="11.894512133195809"><ele>263.8</ele><time>2026-04-26T09:32:42Z</time></trkpt><trkpt lat="43.49259574620549" lon="11.894510017561483"><ele>264.0</ele><time>2026-04-26T09:32:43Z</time></trkpt><trkpt lat="43.492500485517844" lon="11.894497013919871"><ele>264.0</ele><time>2026-04-26T09:32:44Z</time></trkpt><trkpt lat="43.492410064261975" lon="11.894488348769066"><ele>264.0</ele><time>2026-04-26T09:32:45Z</time></trkpt><trkpt lat="43.49233226457514" lon="11.894483237928092"><ele>264.0</ele><time>2026-04-26T09:32:46Z</time></trkpt><trkpt lat="43.492188821142754" lon="11.894490383459207"><ele>264.0</ele><time>2026-04-26T09:32:48Z</time></trkpt><trkpt lat="43.49210449251647" lon="11.89450378872046"><ele>264.0</ele><time>2026-04-26T09:32:49Z</time></trkpt><trkpt lat="43.492011633289295" lon="11.894495342250357"><ele>263.8333333333333</ele><time>2026-04-26T09:32:50Z</time></trkpt><trkpt lat="43.49192407337198" lon="11.89449481176135"><ele>263.6666666666667</ele><time>2026-04-26T09:32:51Z</time></trkpt><trkpt lat="43.49185075128983" lon="11.894477268422243"><ele>263.5</ele><time>2026-04-26T09:32:52Z</time></trkpt><trkpt lat="43.49177771184677" lon="11.894443567358987"><ele>263.33333333333337</ele><time>2026-04-26T09:32:53Z</time></trkpt><trkpt lat="43.49171691697378" lon="11.894386118141044"><ele>263.1666666666667</ele><time>2026-04-26T09:32:54Z</time></trkpt><trkpt lat="43.4916504489781" lon="11.894316224457492"><ele>263.0</ele><time>2026-04-26T09:32:55Z</time></trkpt><trkpt lat="43.49157584011469" lon="11.89427041397776"><ele>263.0</ele><time>2026-04-26T09:32:56Z</time></trkpt><trkpt lat="43.49149834391203" lon="11.894219748297502"><ele>263.0</ele><time>2026-04-26T09:32:57Z</time></trkpt><trkpt lat="43.49142662972819" lon="11.894191394063876"><ele>263.0</ele><time>2026-04-26T09:32:58Z</time></trkpt><trkpt lat="43.49134119845949" lon="11.89415690457759"><ele>263.0</ele><time>2026-04-26T09:32:59Z</time></trkpt><trkpt lat="43.491266234508466" lon="11.894120609862398"><ele>263.0</ele><time>2026-04-26T09:33:00Z</time></trkpt><trkpt lat="43.49115866633132" lon="11.894078853521123"><ele>263.0</ele><time>2026-04-26T09:33:02Z</time></trkpt><trkpt lat="43.49100635938327" lon="11.894031118052695"><ele>262.8</ele><time>2026-04-26T09:33:04Z</time></trkpt><trkpt lat="43.49089927459707" lon="11.893987050963482"><ele>262.6</ele><time>2026-04-26T09:33:05Z</time></trkpt><trkpt lat="43.49081374712773" lon="11.893939186918596"><ele>262.4</ele><time>2026-04-26T09:33:06Z</time></trkpt><trkpt lat="43.490737478719055" lon="11.893898562241109"><ele>262.2</ele><time>2026-04-26T09:33:07Z</time></trkpt><trkpt lat="43.4906593461001" lon="11.893888440950738"><ele>262.0</ele><time>2026-04-26T09:33:08Z</time></trkpt><trkpt lat="43.490572522754455" lon="11.893880175441977"><ele>262.0</ele><time>2026-04-26T09:33:09Z</time></trkpt><trkpt lat="43.49048403819354" lon="11.893869222724595"><ele>262.0</ele><time>2026-04-26T09:33:10Z</time></trkpt><trkpt lat="43.49037840728897" lon="11.893856685890578"><ele>262.0</ele><time>2026-04-26T09:33:11Z</time></trkpt><trkpt lat="43.49028559658585" lon="11.893844660265913"><ele>262.0</ele><time>2026-04-26T09:33:12Z</time></trkpt><trkpt lat="43.49021644826184" lon="11.89384580990822"><ele>262.0</ele><time>2026-04-26T09:33:13Z</time></trkpt><trkpt lat="43.490107712359666" lon="11.893806530307211"><ele>262.25</ele><time>2026-04-26T09:33:15Z</time></trkpt><trkpt lat="43.49001047636271" lon="11.893658076661495"><ele>262.5</ele><time>2026-04-26T09:33:17Z</time></trkpt><trkpt lat="43.48990156578957" lon="11.893640254162396"><ele>262.75</ele><time>2026-04-26T09:33:19Z</time></trkpt><trkpt lat="43.489838636619126" lon="11.893709257034104"><ele>263.0</ele><time>2026-04-26T09:33:20Z</time></trkpt><trkpt lat="43.489724183197325" lon="11.89366244244718"><ele>263.0</ele><time>2026-04-26T09:33:22Z</time></trkpt><trkpt lat="43.489651030950164" lon="11.893616953269737"><ele>263.0</ele><time>2026-04-26T09:33:24Z</time></trkpt><trkpt lat="43.489589458438296" lon="11.893568019890322"><ele>263.0</ele><time>2026-04-26T09:33:26Z</time></trkpt><trkpt lat="43.48949136945544" lon="11.893666095138888"><ele>263.0</ele><time>2026-04-26T09:33:28Z</time></trkpt><trkpt lat="43.489404930975475" lon="11.893774729382192"><ele>263.0</ele><time>2026-04-26T09:33:30Z</time></trkpt><trkpt lat="43.48931176178971" lon="11.89383603477178"><ele>262.8</ele><time>2026-04-26T09:33:32Z</time></trkpt><trkpt lat="43.48920918990387" lon="11.893896638370515"><ele>262.6</ele><time>2026-04-26T09:33:34Z</time></trkpt><trkpt lat="43.4891319024044" lon="11.893888654832807"><ele>262.4</ele><time>2026-04-26T09:33:36Z</time></trkpt><trkpt lat="43.488994358056246" lon="11.89386183555739"><ele>262.2</ele><time>2026-04-26T09:33:38Z</time></trkpt><trkpt lat="43.48891111905847" lon="11.893837967145206"><ele>262.0</ele><time>2026-04-26T09:33:39Z</time></trkpt><trkpt lat="43.48882786790428" lon="11.893806480788522"><ele>261.8333333333333</ele><time>2026-04-26T09:33:40Z</time></trkpt><trkpt lat="43.488748776003334" lon="11.893769649221326"><ele>261.66666666666663</ele><time>2026-04-26T09:33:41Z</time></trkpt><trkpt lat="43.48867293928075" lon="11.89372970995971"><ele>261.5</ele><time>2026-04-26T09:33:42Z</time></trkpt><trkpt lat="43.4885996743024" lon="11.893684411200619"><ele>261.3333333333333</ele><time>2026-04-26T09:33:43Z</time></trkpt><trkpt lat="43.488518856688316" lon="11.893627345251826"><ele>261.1666666666667</ele><time>2026-04-26T09:33:44Z</time></trkpt><trkpt lat="43.48845111963789" lon="11.893578057568902"><ele>261.0</ele><time>2026-04-26T09:33:45Z</time></trkpt><trkpt lat="43.48838407157332" lon="11.893524171113826"><ele>261.0</ele><time>2026-04-26T09:33:46Z</time></trkpt><trkpt lat="43.48832094444436" lon="11.893471002960695"><ele>261.0</ele><time>2026-04-26T09:33:47Z</time></trkpt><trkpt lat="43.48824275977334" lon="11.893407351097396"><ele>261.0</ele><time>2026-04-26T09:33:48Z</time></trkpt><trkpt lat="43.48815465711251" lon="11.893374092102249"><ele>261.0</ele><time>2026-04-26T09:33:49Z</time></trkpt><trkpt lat="43.488081818038495" lon="11.893333277654696"><ele>261.0</ele><time>2026-04-26T09:33:50Z</time></trkpt><trkpt lat="43.48800821669437" lon="11.89328832604273"><ele>261.0</ele><time>2026-04-26T09:33:51Z</time></trkpt><trkpt lat="43.48792605178503" lon="11.89323629887374"><ele>260.7142857142857</ele><time>2026-04-26T09:33:52Z</time></trkpt><trkpt lat="43.487853727497786" lon="11.89318735276594"><ele>260.42857142857144</ele><time>2026-04-26T09:33:53Z</time></trkpt><trkpt lat="43.48778804946315" lon="11.893147419352585"><ele>260.1428571428571</ele><time>2026-04-26T09:33:54Z</time></trkpt><trkpt lat="43.48772187646216" lon="11.893115268532991"><ele>259.8571428571429</ele><time>2026-04-26T09:33:55Z</time></trkpt><trkpt lat="43.4876667766497" lon="11.893061672994113"><ele>259.57142857142856</ele><time>2026-04-26T09:33:56Z</time></trkpt><trkpt lat="43.48760618801708" lon="11.893022611780136"><ele>259.2857142857143</ele><time>2026-04-26T09:33:57Z</time></trkpt><trkpt lat="43.487539769252976" lon="11.892970321531584"><ele>259.0</ele><time>2026-04-26T09:33:58Z</time></trkpt><trkpt lat="43.48748172818019" lon="11.892906455377112"><ele>259.0</ele><time>2026-04-26T09:33:59Z</time></trkpt><trkpt lat="43.487433860415045" lon="11.89283532312071"><ele>259.0</ele><time>2026-04-26T09:34:00Z</time></trkpt><trkpt lat="43.48739425319604" lon="11.892757649999355"><ele>259.0</ele><time>2026-04-26T09:34:01Z</time></trkpt><trkpt lat="43.48736065411026" lon="11.892682257768707"><ele>259.0</ele><time>2026-04-26T09:34:02Z</time></trkpt><trkpt lat="43.48729951617761" lon="11.892603773819832"><ele>259.0</ele><time>2026-04-26T09:34:02.999Z</time></trkpt><trkpt lat="43.48722592117028" lon="11.892503492715624"><ele>259.0</ele><time>2026-04-26T09:34:03.999Z</time></trkpt><trkpt lat="43.48716091156802" lon="11.892396337179578"><ele>258.8333333333333</ele><time>2026-04-26T09:34:04.999Z</time></trkpt><trkpt lat="43.48709572119057" lon="11.89231146261633"><ele>258.66666666666663</ele><time>2026-04-26T09:34:05.999Z</time></trkpt><trkpt lat="43.4870401541294" lon="11.89224032716179"><ele>258.5</ele><time>2026-04-26T09:34:06.999Z</time></trkpt><trkpt lat="43.486963360739836" lon="11.892171777275959"><ele>258.3333333333333</ele><time>2026-04-26T09:34:07.999Z</time></trkpt><trkpt lat="43.48690349021569" lon="11.892070747931664"><ele>258.1666666666667</ele><time>2026-04-26T09:34:08.999Z</time></trkpt><trkpt lat="43.48684466803665" lon="11.891994405018377"><ele>258.0</ele><time>2026-04-26T09:34:09.999Z</time></trkpt><trkpt lat="43.48677959728898" lon="11.891912448083856"><ele>257.8333333333333</ele><time>2026-04-26T09:34:10.999Z</time></trkpt><trkpt lat="43.4867064975056" lon="11.891863322635961"><ele>257.6666666666667</ele><time>2026-04-26T09:34:11.999Z</time></trkpt><trkpt lat="43.48662747435715" lon="11.89179865892627"><ele>257.5</ele><time>2026-04-26T09:34:12.999Z</time></trkpt><trkpt lat="43.48656336920544" lon="11.891720813490238"><ele>257.33333333333337</ele><time>2026-04-26T09:34:13.999Z</time></trkpt><trkpt lat="43.486509825941624" lon="11.891662857195586"><ele>257.1666666666667</ele><time>2026-04-26T09:34:14.999Z</time></trkpt><trkpt lat="43.48646293101045" lon="11.89160197953019"><ele>257.0</ele><time>2026-04-26T09:34:15.999Z</time></trkpt><trkpt lat="43.486411446181535" lon="11.891538109563243"><ele>257.0</ele><time>2026-04-26T09:34:16.999Z</time></trkpt><trkpt lat="43.4863422135925" lon="11.891504253401827"><ele>257.0</ele><time>2026-04-26T09:34:17.999Z</time></trkpt><trkpt lat="43.48628420701996" lon="11.891462570831196"><ele>257.0</ele><time>2026-04-26T09:34:18.999Z</time></trkpt><trkpt lat="43.486217117308655" lon="11.891434300156051"><ele>257.0</ele><time>2026-04-26T09:34:19.999Z</time></trkpt><trkpt lat="43.48613076985056" lon="11.891422163524958"><ele>257.0</ele><time>2026-04-26T09:34:20.999Z</time></trkpt><trkpt lat="43.4860362967672" lon="11.891422655346949"><ele>257.0</ele><time>2026-04-26T09:34:21.999Z</time></trkpt><trkpt lat="43.48593979879217" lon="11.891414290866539"><ele>257.0</ele><time>2026-04-26T09:34:22.999Z</time></trkpt><trkpt lat="43.48587635396775" lon="11.891380234026236"><ele>257.0</ele><time>2026-04-26T09:34:23.999Z</time></trkpt><trkpt lat="43.485751991446016" lon="11.891344213518435"><ele>257.0</ele><time>2026-04-26T09:34:25.999Z</time></trkpt><trkpt lat="43.48568511320558" lon="11.891329226780933"><ele>257.0</ele><time>2026-04-26T09:34:26.999Z</time></trkpt><trkpt lat="43.48559188320845" lon="11.891327410609364"><ele>257.0</ele><time>2026-04-26T09:34:27.999Z</time></trkpt><trkpt lat="43.48550295654959" lon="11.891301023383395"><ele>257.0</ele><time>2026-04-26T09:34:28.999Z</time></trkpt><trkpt lat="43.48543457783715" lon="11.891295734501954"><ele>257.1666666666667</ele><time>2026-04-26T09:34:29.999Z</time></trkpt><trkpt lat="43.485370691168974" lon="11.891299756435235"><ele>257.33333333333337</ele><time>2026-04-26T09:34:30.999Z</time></trkpt><trkpt lat="43.4852392540187" lon="11.89130730930996"><ele>257.5</ele><time>2026-04-26T09:34:32.999Z</time></trkpt><trkpt lat="43.48516472101541" lon="11.89129886749288"><ele>257.6666666666667</ele><time>2026-04-26T09:34:33.999Z</time></trkpt><trkpt lat="43.485092177996464" lon="11.89128634485373"><ele>257.8333333333333</ele><time>2026-04-26T09:34:34.999Z</time></trkpt><trkpt lat="43.48499006902692" lon="11.891289085353963"><ele>258.0</ele><time>2026-04-26T09:34:36.999Z</time></trkpt><trkpt lat="43.48488069978191" lon="11.891274412069098"><ele>258.0</ele><time>2026-04-26T09:34:38.999Z</time></trkpt><trkpt lat="43.484802172444475" lon="11.891245121270698"><ele>258.0</ele><time>2026-04-26T09:34:39.999Z</time></trkpt><trkpt lat="43.484720223623015" lon="11.891203414993226"><ele>258.0</ele><time>2026-04-26T09:34:40.999Z</time></trkpt><trkpt lat="43.48463449452401" lon="11.89116174873009"><ele>258.0</ele><time>2026-04-26T09:34:41.999Z</time></trkpt><trkpt lat="43.48456057787953" lon="11.891129747854707"><ele>258.0</ele><time>2026-04-26T09:34:42.999Z</time></trkpt><trkpt lat="43.48449818440876" lon="11.891098281034864"><ele>258.0</ele><time>2026-04-26T09:34:43.999Z</time></trkpt><trkpt lat="43.48442320430601" lon="11.891066760262783"><ele>258.0</ele><time>2026-04-26T09:34:44.999Z</time></trkpt><trkpt lat="43.48435594389031" lon="11.891051250429166"><ele>258.0</ele><time>2026-04-26T09:34:45.999Z</time></trkpt><trkpt lat="43.48428631140244" lon="11.891041128490775"><ele>258.0</ele><time>2026-04-26T09:34:46.999Z</time></trkpt><trkpt lat="43.48420452779491" lon="11.891026336399344"><ele>258.0</ele><time>2026-04-26T09:34:47.999Z</time></trkpt><trkpt lat="43.48411461351935" lon="11.891009919904626"><ele>258.0</ele><time>2026-04-26T09:34:48.999Z</time></trkpt><trkpt lat="43.484029779572104" lon="11.890994688870068"><ele>258.0</ele><time>2026-04-26T09:34:49.999Z</time></trkpt><trkpt lat="43.48394564401049" lon="11.89097513501357"><ele>257.99999999999994</ele><time>2026-04-26T09:34:50.999Z</time></trkpt><trkpt lat="43.48386469372734" lon="11.890959094100653"><ele>258.0</ele><time>2026-04-26T09:34:51.999Z</time></trkpt><trkpt lat="43.48379697132685" lon="11.890947009563698"><ele>258.0</ele><time>2026-04-26T09:34:52.999Z</time></trkpt><trkpt lat="43.48373123211415" lon="11.890941107162657"><ele>258.0</ele><time>2026-04-26T09:34:53.999Z</time></trkpt><trkpt lat="43.48366566032375" lon="11.890951192418768"><ele>258.0</ele><time>2026-04-26T09:34:54.999Z</time></trkpt><trkpt lat="43.48359510525839" lon="11.890976996299184"><ele>257.99999999999994</ele><time>2026-04-26T09:34:55.999Z</time></trkpt><trkpt lat="43.483520801362616" lon="11.891012017286238"><ele>258.0</ele><time>2026-04-26T09:34:56.999Z</time></trkpt><trkpt lat="43.48345212276433" lon="11.89104420450333"><ele>257.71428571428567</ele><time>2026-04-26T09:34:57.999Z</time></trkpt><trkpt lat="43.4833711879376" lon="11.891081178070996"><ele>257.42857142857144</ele><time>2026-04-26T09:34:58.999Z</time></trkpt><trkpt lat="43.483302152672195" lon="11.89110929257767"><ele>257.1428571428571</ele><time>2026-04-26T09:34:59.999Z</time></trkpt><trkpt lat="43.483223640185614" lon="11.891114455849367"><ele>256.85714285714283</ele><time>2026-04-26T09:35:00.999Z</time></trkpt><trkpt lat="43.48316040570372" lon="11.891115432959344"><ele>256.57142857142856</ele><time>2026-04-26T09:35:01.999Z</time></trkpt><trkpt lat="43.483094918123065" lon="11.891096526775314"><ele>256.2857142857143</ele><time>2026-04-26T09:35:02.999Z</time></trkpt><trkpt lat="43.4830320735741" lon="11.8910569730257"><ele>256.0</ele><time>2026-04-26T09:35:03.999Z</time></trkpt><trkpt lat="43.48296236660637" lon="11.890992072187986"><ele>255.66666666666666</ele><time>2026-04-26T09:35:04.999Z</time></trkpt><trkpt lat="43.48288670050447" lon="11.890922146884655"><ele>255.33333333333331</ele><time>2026-04-26T09:35:05.999Z</time></trkpt><trkpt lat="43.48280355189796" lon="11.890865987787418"><ele>255.0</ele><time>2026-04-26T09:35:06.999Z</time></trkpt><trkpt lat="43.48273873242898" lon="11.89080331440662"><ele>254.66666666666669</ele><time>2026-04-26T09:35:07.999Z</time></trkpt><trkpt lat="43.48268279020236" lon="11.89075479808784"><ele>254.33333333333334</ele><time>2026-04-26T09:35:08.999Z</time></trkpt><trkpt lat="43.482587395151484" lon="11.890675772587189"><ele>254.0</ele><time>2026-04-26T09:35:10.999Z</time></trkpt><trkpt lat="43.48248736766096" lon="11.890610132926115"><ele>254.0</ele><time>2026-04-26T09:35:12.999Z</time></trkpt><trkpt lat="43.48238081985347" lon="11.890549130868658"><ele>253.99999999999997</ele><time>2026-04-26T09:35:14.999Z</time></trkpt><trkpt lat="43.48228645157632" lon="11.890528154463588"><ele>253.99999999999997</ele><time>2026-04-26T09:35:16.999Z</time></trkpt><trkpt lat="43.48216691675416" lon="11.890516989640357"><ele>254.0</ele><time>2026-04-26T09:35:18.999Z</time></trkpt><trkpt lat="43.48210226288239" lon="11.890523884157929"><ele>254.0</ele><time>2026-04-26T09:35:19.999Z</time></trkpt><trkpt lat="43.482031234486556" lon="11.890525520634718"><ele>254.2</ele><time>2026-04-26T09:35:20.999Z</time></trkpt><trkpt lat="43.481950157508656" lon="11.890517958355622"><ele>254.39999999999998</ele><time>2026-04-26T09:35:21.999Z</time></trkpt><trkpt lat="43.4818475499766" lon="11.890510803243618"><ele>254.6</ele><time>2026-04-26T09:35:23.999Z</time></trkpt><trkpt lat="43.48174506126547" lon="11.890488756732884"><ele>254.8</ele><time>2026-04-26T09:35:25.999Z</time></trkpt><trkpt lat="43.48166434669324" lon="11.890471562607958"><ele>255.0</ele><time>2026-04-26T09:35:27.999Z</time></trkpt><trkpt lat="43.481626226708606" lon="11.890616514111986"><ele>255.0</ele><time>2026-04-26T09:35:34.999Z</time></trkpt><trkpt lat="43.48164197009714" lon="11.890723466953176"><ele>255.0</ele><time>2026-04-26T09:35:35.999Z</time></trkpt><trkpt lat="43.48165142947798" lon="11.890849697166729"><ele>255.0</ele><time>2026-04-26T09:35:36.999Z</time></trkpt><trkpt lat="43.481656930177806" lon="11.89099777899511"><ele>255.0</ele><time>2026-04-26T09:35:37.999Z</time></trkpt><trkpt lat="43.481669350278" lon="11.891176203433213"><ele>255.0</ele><time>2026-04-26T09:35:38.999Z</time></trkpt><trkpt lat="43.481678111460646" lon="11.891363402244043"><ele>255.33333333333331</ele><time>2026-04-26T09:35:39.999Z</time></trkpt><trkpt lat="43.481690122560984" lon="11.891562888423461"><ele>255.66666666666666</ele><time>2026-04-26T09:35:40.999Z</time></trkpt><trkpt lat="43.48170392982664" lon="11.891772334227218"><ele>256.0</ele><time>2026-04-26T09:35:41.999Z</time></trkpt><trkpt lat="43.481717394688054" lon="11.891992966908237"><ele>256.25</ele><time>2026-04-26T09:35:42.999Z</time></trkpt><trkpt lat="43.48172148385295" lon="11.892214812102093"><ele>256.5</ele><time>2026-04-26T09:35:43.999Z</time></trkpt><trkpt lat="43.481724777699256" lon="11.892406614397915"><ele>256.75</ele><time>2026-04-26T09:35:44.999Z</time></trkpt><trkpt lat="43.48173303471123" lon="11.892584649987057"><ele>257.0</ele><time>2026-04-26T09:35:45.999Z</time></trkpt><trkpt lat="43.48174621289341" lon="11.892754159431608"><ele>257.0</ele><time>2026-04-26T09:35:46.999Z</time></trkpt><trkpt lat="43.481759422289734" lon="11.892929746803627"><ele>257.0</ele><time>2026-04-26T09:35:47.999Z</time></trkpt><trkpt lat="43.481774215151866" lon="11.893108079767048"><ele>257.0</ele><time>2026-04-26T09:35:48.999Z</time></trkpt><trkpt lat="43.48178804176091" lon="11.893291425930848"><ele>257.0</ele><time>2026-04-26T09:35:49.999Z</time></trkpt><trkpt lat="43.481799114844165" lon="11.8934799658121"><ele>257.5</ele><time>2026-04-26T09:35:50.999Z</time></trkpt><trkpt lat="43.48181279176334" lon="11.893674046999768"><ele>258.0</ele><time>2026-04-26T09:35:52Z</time></trkpt><trkpt lat="43.481828236960226" lon="11.893876801519685"><ele>258.5</ele><time>2026-04-26T09:35:53Z</time></trkpt><trkpt lat="43.48184402968134" lon="11.894074379096716"><ele>259.0</ele><time>2026-04-26T09:35:54Z</time></trkpt><trkpt lat="43.481857653748676" lon="11.894261576151791"><ele>259.0</ele><time>2026-04-26T09:35:55Z</time></trkpt><trkpt lat="43.48187289245464" lon="11.894440943266709"><ele>259.0</ele><time>2026-04-26T09:35:56Z</time></trkpt><trkpt lat="43.48188576720278" lon="11.89460707544663"><ele>259.0</ele><time>2026-04-26T09:35:57Z</time></trkpt><trkpt lat="43.481898150981735" lon="11.894755522915736"><ele>259.0</ele><time>2026-04-26T09:35:58Z</time></trkpt><trkpt lat="43.481907484695235" lon="11.894865642413487"><ele>259.0</ele><time>2026-04-26T09:35:59Z</time></trkpt><trkpt lat="43.48191754438159" lon="11.89499695732245"><ele>259.0</ele><time>2026-04-26T09:36:01Z</time></trkpt><trkpt lat="43.481917562912656" lon="11.895085513103215"><ele>259.0</ele><time>2026-04-26T09:36:05Z</time></trkpt><trkpt lat="43.48193106437985" lon="11.895229442417468"><ele>259.0</ele><time>2026-04-26T09:36:07Z</time></trkpt><trkpt lat="43.481935055314835" lon="11.895352480513512"><ele>259.0</ele><time>2026-04-26T09:36:09Z</time></trkpt><trkpt lat="43.48194141813592" lon="11.89547401697263"><ele>259.0</ele><time>2026-04-26T09:36:11Z</time></trkpt><trkpt lat="43.48195188999128" lon="11.895576867255397"><ele>259.0</ele><time>2026-04-26T09:36:12Z</time></trkpt><trkpt lat="43.481963007237745" lon="11.895731098489735"><ele>259.25</ele><time>2026-04-26T09:36:14Z</time></trkpt><trkpt lat="43.48175748393554" lon="11.895783040246997"><ele>259.5</ele><time>2026-04-26T09:36:19Z</time></trkpt><trkpt lat="43.48166629818473" lon="11.895776697791643"><ele>259.75</ele><time>2026-04-26T09:36:20Z</time></trkpt><trkpt lat="43.48157648610229" lon="11.895767913374094"><ele>260.0</ele><time>2026-04-26T09:36:21Z</time></trkpt><trkpt lat="43.48147933649224" lon="11.895761887197171"><ele>260.0</ele><time>2026-04-26T09:36:22Z</time></trkpt><trkpt lat="43.48137984644275" lon="11.89573134531768"><ele>260.0</ele><time>2026-04-26T09:36:23Z</time></trkpt><trkpt lat="43.48129167000871" lon="11.895712020246142"><ele>260.0</ele><time>2026-04-26T09:36:24Z</time></trkpt><trkpt lat="43.48120923837342" lon="11.895689422725118"><ele>260.0</ele><time>2026-04-26T09:36:25Z</time></trkpt><trkpt lat="43.481090787032834" lon="11.895663642239507"><ele>260.0</ele><time>2026-04-26T09:36:26Z</time></trkpt><trkpt lat="43.48095915400647" lon="11.895583129685313"><ele>260.75</ele><time>2026-04-26T09:36:27Z</time></trkpt><trkpt lat="43.480841791262286" lon="11.895524720522353"><ele>261.5</ele><time>2026-04-26T09:36:28Z</time></trkpt><trkpt lat="43.48073767699208" lon="11.89546988275582"><ele>262.25</ele><time>2026-04-26T09:36:29Z</time></trkpt><trkpt lat="43.48062596955874" lon="11.895409786446782"><ele>263.0</ele><time>2026-04-26T09:36:30Z</time></trkpt><trkpt lat="43.4804996954554" lon="11.895340097280151"><ele>263.75</ele><time>2026-04-26T09:36:31Z</time></trkpt><trkpt lat="43.48035911502948" lon="11.895258692413838"><ele>264.5</ele><time>2026-04-26T09:36:32Z</time></trkpt><trkpt lat="43.48024168572175" lon="11.895188426083575"><ele>265.25</ele><time>2026-04-26T09:36:33Z</time></trkpt><trkpt lat="43.4801172650952" lon="11.895114067270848"><ele>266.0</ele><time>2026-04-26T09:36:34Z</time></trkpt><trkpt lat="43.4799963974973" lon="11.895066002779554"><ele>266.0</ele><time>2026-04-26T09:36:35Z</time></trkpt><trkpt lat="43.47988641692847" lon="11.894988213012901"><ele>266.0</ele><time>2026-04-26T09:36:36Z</time></trkpt><trkpt lat="43.47978138886032" lon="11.894921755926177"><ele>266.0</ele><time>2026-04-26T09:36:37Z</time></trkpt><trkpt lat="43.479671756256145" lon="11.894863114928917"><ele>266.0</ele><time>2026-04-26T09:36:38Z</time></trkpt><trkpt lat="43.47957521533145" lon="11.894811067223586"><ele>267.6</ele><time>2026-04-26T09:36:39Z</time></trkpt><trkpt lat="43.479478862990625" lon="11.894785198289956"><ele>269.20000000000005</ele><time>2026-04-26T09:36:40Z</time></trkpt><trkpt lat="43.47938758106867" lon="11.894763720607308"><ele>270.79999999999995</ele><time>2026-04-26T09:36:41Z</time></trkpt><trkpt lat="43.47931053026055" lon="11.894739425144424"><ele>272.4</ele><time>2026-04-26T09:36:42Z</time></trkpt><trkpt lat="43.479207882447874" lon="11.894641823342637"><ele>274.0</ele><time>2026-04-26T09:36:44Z</time></trkpt><trkpt lat="43.4791384840677" lon="11.894574907150176"><ele>274.0</ele><time>2026-04-26T09:36:45Z</time></trkpt><trkpt lat="43.47905964041908" lon="11.894487853541593"><ele>274.0</ele><time>2026-04-26T09:36:46Z</time></trkpt><trkpt lat="43.47897936665814" lon="11.894431460089589"><ele>274.0</ele><time>2026-04-26T09:36:47Z</time></trkpt><trkpt lat="43.47892358976953" lon="11.894381818542499"><ele>274.0</ele><time>2026-04-26T09:36:48Z</time></trkpt><trkpt lat="43.47880569864851" lon="11.894302791936344"><ele>274.0</ele><time>2026-04-26T09:36:50Z</time></trkpt><trkpt lat="43.47873188609185" lon="11.894249834236442"><ele>273.66666666666663</ele><time>2026-04-26T09:36:51Z</time></trkpt><trkpt lat="43.478643507575235" lon="11.894191511148716"><ele>273.3333333333333</ele><time>2026-04-26T09:36:52Z</time></trkpt><trkpt lat="43.47855957406438" lon="11.894136314651796"><ele>273.0</ele><time>2026-04-26T09:36:53Z</time></trkpt><trkpt lat="43.47849309107784" lon="11.894092983378101"><ele>272.6666666666667</ele><time>2026-04-26T09:36:54Z</time></trkpt><trkpt lat="43.478428213355464" lon="11.894069308963243"><ele>272.33333333333337</ele><time>2026-04-26T09:36:55Z</time></trkpt><trkpt lat="43.47834650905169" lon="11.894019963611582"><ele>272.0</ele><time>2026-04-26T09:36:56Z</time></trkpt><trkpt lat="43.47826823148752" lon="11.893966150473009"><ele>272.0</ele><time>2026-04-26T09:36:57Z</time></trkpt><trkpt lat="43.478180176006674" lon="11.893915690869726"><ele>272.0</ele><time>2026-04-26T09:36:58Z</time></trkpt><trkpt lat="43.478098779841396" lon="11.893883739643993"><ele>272.0</ele><time>2026-04-26T09:36:59Z</time></trkpt><trkpt lat="43.47801982391171" lon="11.893872392015725"><ele>272.0</ele><time>2026-04-26T09:37:00Z</time></trkpt><trkpt lat="43.47794099889215" lon="11.893842681423115"><ele>272.0</ele><time>2026-04-26T09:37:01Z</time></trkpt><trkpt lat="43.47786395830089" lon="11.893837005037781"><ele>272.0</ele><time>2026-04-26T09:37:02Z</time></trkpt><trkpt lat="43.47778833237667" lon="11.893831570540824"><ele>272.5</ele><time>2026-04-26T09:37:03Z</time></trkpt><trkpt lat="43.47772432004465" lon="11.893822169222489"><ele>273.0</ele><time>2026-04-26T09:37:04Z</time></trkpt><trkpt lat="43.47765253169482" lon="11.893825574569236"><ele>273.5</ele><time>2026-04-26T09:37:05Z</time></trkpt><trkpt lat="43.477590970877394" lon="11.893801592111375"><ele>274.0</ele><time>2026-04-26T09:37:06Z</time></trkpt><trkpt lat="43.4775287507502" lon="11.893784513316307"><ele>274.5</ele><time>2026-04-26T09:37:07Z</time></trkpt><trkpt lat="43.47742998342842" lon="11.893745104997404"><ele>275.0</ele><time>2026-04-26T09:37:09Z</time></trkpt><trkpt lat="43.47732143992266" lon="11.893729055975353"><ele>275.0</ele><time>2026-04-26T09:37:11Z</time></trkpt><trkpt lat="43.477215486717625" lon="11.893716117378176"><ele>275.0</ele><time>2026-04-26T09:37:13Z</time></trkpt><trkpt lat="43.4771200321154" lon="11.893723131267935"><ele>275.0</ele><time>2026-04-26T09:37:14Z</time></trkpt><trkpt lat="43.476981451575014" lon="11.893735069249392"><ele>275.0</ele><time>2026-04-26T09:37:15Z</time></trkpt><trkpt lat="43.47686693399679" lon="11.893739896798294"><ele>274.2</ele><time>2026-04-26T09:37:16Z</time></trkpt><trkpt lat="43.476769733329085" lon="11.893749885674474"><ele>273.4</ele><time>2026-04-26T09:37:17Z</time></trkpt><trkpt lat="43.47668015205453" lon="11.893747090655419"><ele>272.6</ele><time>2026-04-26T09:37:18Z</time></trkpt><trkpt lat="43.476580012106275" lon="11.893765735142738"><ele>271.8</ele><time>2026-04-26T09:37:19Z</time></trkpt><trkpt lat="43.476485662620966" lon="11.893763245271494"><ele>271.0</ele><time>2026-04-26T09:37:20Z</time></trkpt><trkpt lat="43.47638469625313" lon="11.893772821112412"><ele>271.0</ele><time>2026-04-26T09:37:21Z</time></trkpt><trkpt lat="43.476304017434735" lon="11.893781006024817"><ele>271.0</ele><time>2026-04-26T09:37:22Z</time></trkpt><trkpt lat="43.47622614239437" lon="11.893791515050115"><ele>271.0</ele><time>2026-04-26T09:37:23Z</time></trkpt><trkpt lat="43.476152263435914" lon="11.893801484795102"><ele>271.0</ele><time>2026-04-26T09:37:24Z</time></trkpt><trkpt lat="43.476054354350595" lon="11.893819747519217"><ele>271.0</ele><time>2026-04-26T09:37:25Z</time></trkpt><trkpt lat="43.47592259772764" lon="11.893832639156418"><ele>270.8</ele><time>2026-04-26T09:37:26Z</time></trkpt><trkpt lat="43.47579107079339" lon="11.893850280755272"><ele>270.6</ele><time>2026-04-26T09:37:27Z</time></trkpt><trkpt lat="43.47568127651521" lon="11.893867499708826"><ele>270.4</ele><time>2026-04-26T09:37:28Z</time></trkpt><trkpt lat="43.47557717395226" lon="11.893882709065704"><ele>270.2</ele><time>2026-04-26T09:37:29Z</time></trkpt><trkpt lat="43.47547663315438" lon="11.893887095081087"><ele>270.0</ele><time>2026-04-26T09:37:30Z</time></trkpt><trkpt lat="43.47536945639873" lon="11.893883389844872"><ele>270.0</ele><time>2026-04-26T09:37:31Z</time></trkpt><trkpt lat="43.47524518858685" lon="11.893865956862161"><ele>270.0</ele><time>2026-04-26T09:37:32Z</time></trkpt><trkpt lat="43.47508441027194" lon="11.893839202871705"><ele>270.0</ele><time>2026-04-26T09:37:33Z</time></trkpt><trkpt lat="43.474932521791686" lon="11.893785901979252"><ele>270.0</ele><time>2026-04-26T09:37:34Z</time></trkpt><trkpt lat="43.474821928296684" lon="11.893778334680315"><ele>270.0</ele><time>2026-04-26T09:37:35Z</time></trkpt><trkpt lat="43.4747168537252" lon="11.893760767775891"><ele>270.0</ele><time>2026-04-26T09:37:36Z</time></trkpt><trkpt lat="43.474602870595774" lon="11.89372285700645"><ele>270.0</ele><time>2026-04-26T09:37:37Z</time></trkpt><trkpt lat="43.47451741910945" lon="11.893698220959552"><ele>270.0</ele><time>2026-04-26T09:37:38Z</time></trkpt><trkpt lat="43.474443645781626" lon="11.893677817356135"><ele>270.0</ele><time>2026-04-26T09:37:39Z</time></trkpt><trkpt lat="43.474375494072326" lon="11.893658829719419"><ele>271.3333333333333</ele><time>2026-04-26T09:37:40Z</time></trkpt><trkpt lat="43.474305108874674" lon="11.89364371049666"><ele>272.6666666666667</ele><time>2026-04-26T09:37:41Z</time></trkpt><trkpt lat="43.474235915489686" lon="11.893629821461875"><ele>274.0</ele><time>2026-04-26T09:37:42Z</time></trkpt><trkpt lat="43.474152743926716" lon="11.893616418917174"><ele>275.33333333333337</ele><time>2026-04-26T09:37:43Z</time></trkpt><trkpt lat="43.47406507504706" lon="11.893603178101205"><ele>276.6666666666667</ele><time>2026-04-26T09:37:44Z</time></trkpt><trkpt lat="43.47398622511769" lon="11.893589759923366"><ele>278.0</ele><time>2026-04-26T09:37:45Z</time></trkpt><trkpt lat="43.473890121206004" lon="11.89357619083666"><ele>278.0</ele><time>2026-04-26T09:37:46Z</time></trkpt><trkpt lat="43.47380580056624" lon="11.893568508139113"><ele>278.0</ele><time>2026-04-26T09:37:47Z</time></trkpt><trkpt lat="43.473712924664746" lon="11.893563066892956"><ele>278.0</ele><time>2026-04-26T09:37:48Z</time></trkpt><trkpt lat="43.473630565864056" lon="11.893543885630766"><ele>278.0</ele><time>2026-04-26T09:37:49Z</time></trkpt><trkpt lat="43.47355358701269" lon="11.893528706378925"><ele>278.0</ele><time>2026-04-26T09:37:50Z</time></trkpt><trkpt lat="43.47347897205401" lon="11.89352382027883"><ele>278.0</ele><time>2026-04-26T09:37:51Z</time></trkpt><trkpt lat="43.473382841992645" lon="11.893499070028883"><ele>279.6</ele><time>2026-04-26T09:37:52Z</time></trkpt><trkpt lat="43.47328319823802" lon="11.89348612677503"><ele>281.20000000000005</ele><time>2026-04-26T09:37:53Z</time></trkpt><trkpt lat="43.47319548443451" lon="11.893473320273348"><ele>282.8</ele><time>2026-04-26T09:37:54Z</time></trkpt><trkpt lat="43.47308525127209" lon="11.893457131443625"><ele>284.40000000000003</ele><time>2026-04-26T09:37:55Z</time></trkpt><trkpt lat="43.472947400186975" lon="11.8934377662684"><ele>286.0</ele><time>2026-04-26T09:37:56Z</time></trkpt><trkpt lat="43.472837691331165" lon="11.893426312648113"><ele>286.40000000000003</ele><time>2026-04-26T09:37:57Z</time></trkpt><trkpt lat="43.472736010338295" lon="11.893423759857306"><ele>286.8</ele><time>2026-04-26T09:37:58Z</time></trkpt><trkpt lat="43.47264259148135" lon="11.893427513931266"><ele>287.20000000000005</ele><time>2026-04-26T09:37:59Z</time></trkpt><trkpt lat="43.4725320111925" lon="11.89343855087907"><ele>287.6</ele><time>2026-04-26T09:38:00Z</time></trkpt><trkpt lat="43.472435630874365" lon="11.89345297528464"><ele>288.0</ele><time>2026-04-26T09:38:01Z</time></trkpt><trkpt lat="43.47235249085671" lon="11.893480658217886"><ele>288.0</ele><time>2026-04-26T09:38:02Z</time></trkpt><trkpt lat="43.47227142096559" lon="11.893493862458032"><ele>288.0</ele><time>2026-04-26T09:38:03Z</time></trkpt><trkpt lat="43.47217921420592" lon="11.89352733314489"><ele>288.0</ele><time>2026-04-26T09:38:04Z</time></trkpt><trkpt lat="43.472071388015124" lon="11.89353305687776"><ele>288.0</ele><time>2026-04-26T09:38:05Z</time></trkpt><trkpt lat="43.4719771379164" lon="11.893561513173154"><ele>288.0</ele><time>2026-04-26T09:38:06Z</time></trkpt><trkpt lat="43.471914528421614" lon="11.893595031998027"><ele>288.0</ele><time>2026-04-26T09:38:07Z</time></trkpt><trkpt lat="43.471835758096134" lon="11.893620026446982"><ele>287.0</ele><time>2026-04-26T09:38:08Z</time></trkpt><trkpt lat="43.4717682055628" lon="11.89366387502916"><ele>286.0</ele><time>2026-04-26T09:38:09Z</time></trkpt><trkpt lat="43.47170290504737" lon="11.893672091479331"><ele>285.0</ele><time>2026-04-26T09:38:10Z</time></trkpt><trkpt lat="43.47160343036852" lon="11.893731816430083"><ele>284.0</ele><time>2026-04-26T09:38:12Z</time></trkpt><trkpt lat="43.47148998150038" lon="11.893825562412529"><ele>283.0</ele><time>2026-04-26T09:38:14Z</time></trkpt><trkpt lat="43.47139762559209" lon="11.89387645590933"><ele>283.0</ele><time>2026-04-26T09:38:15Z</time></trkpt><trkpt lat="43.47131413654387" lon="11.893911644004534"><ele>283.0</ele><time>2026-04-26T09:38:16Z</time></trkpt><trkpt lat="43.471220815492046" lon="11.893937948551143"><ele>283.0</ele><time>2026-04-26T09:38:17Z</time></trkpt><trkpt lat="43.47112872453573" lon="11.893912025016943"><ele>283.0</ele><time>2026-04-26T09:38:18Z</time></trkpt><trkpt lat="43.471033551668924" lon="11.893881483706291"><ele>283.0</ele><time>2026-04-26T09:38:19Z</time></trkpt><trkpt lat="43.4709468004922" lon="11.893868482595808"><ele>282.2</ele><time>2026-04-26T09:38:20Z</time></trkpt><trkpt lat="43.47088163192659" lon="11.893850463879206"><ele>281.4</ele><time>2026-04-26T09:38:21Z</time></trkpt><trkpt lat="43.47081144869534" lon="11.89386995005906"><ele>280.59999999999997</ele><time>2026-04-26T09:38:22Z</time></trkpt><trkpt lat="43.47071216523741" lon="11.893921640923876"><ele>279.8</ele><time>2026-04-26T09:38:23Z</time></trkpt><trkpt lat="43.47058659276416" lon="11.893979843774813"><ele>279.0</ele><time>2026-04-26T09:38:24Z</time></trkpt><trkpt lat="43.47047244324321" lon="11.894033792653632"><ele>278.59999999999997</ele><time>2026-04-26T09:38:25Z</time></trkpt><trkpt lat="43.47038078174563" lon="11.894046055609914"><ele>278.2</ele><time>2026-04-26T09:38:26Z</time></trkpt><trkpt lat="43.4703058323665" lon="11.894063318013977"><ele>277.79999999999995</ele><time>2026-04-26T09:38:27Z</time></trkpt><trkpt lat="43.470212452483004" lon="11.894070406945824"><ele>277.4</ele><time>2026-04-26T09:38:28Z</time></trkpt><trkpt lat="43.47010939100791" lon="11.894087734925117"><ele>277.0</ele><time>2026-04-26T09:38:29Z</time></trkpt><trkpt lat="43.46999907840035" lon="11.894069271156779"><ele>277.0</ele><time>2026-04-26T09:38:30Z</time></trkpt><trkpt lat="43.46989420870533" lon="11.894055935776162"><ele>277.0</ele><time>2026-04-26T09:38:31Z</time></trkpt><trkpt lat="43.46979666451672" lon="11.894052457159333"><ele>277.0</ele><time>2026-04-26T09:38:32Z</time></trkpt><trkpt lat="43.469698901368766" lon="11.894050072092833"><ele>277.0</ele><time>2026-04-26T09:38:33Z</time></trkpt><trkpt lat="43.46959791503824" lon="11.894054677784833"><ele>277.0</ele><time>2026-04-26T09:38:34Z</time></trkpt><trkpt lat="43.46950590936896" lon="11.894065022281897"><ele>276.6</ele><time>2026-04-26T09:38:35Z</time></trkpt><trkpt lat="43.46942427966433" lon="11.894081936746636"><ele>276.2</ele><time>2026-04-26T09:38:36Z</time></trkpt><trkpt lat="43.46935532057961" lon="11.894077290851985"><ele>275.8</ele><time>2026-04-26T09:38:37Z</time></trkpt><trkpt lat="43.469234031768146" lon="11.894100536766311"><ele>275.4</ele><time>2026-04-26T09:38:39Z</time></trkpt><trkpt lat="43.46914025263667" lon="11.89411989198571"><ele>275.0</ele><time>2026-04-26T09:38:41Z</time></trkpt><trkpt lat="43.46904722838546" lon="11.89405937814899"><ele>275.0</ele><time>2026-04-26T09:38:44Z</time></trkpt><trkpt lat="43.468968656543204" lon="11.89392878208455"><ele>275.0</ele><time>2026-04-26T09:38:45Z</time></trkpt><trkpt lat="43.468891267402206" lon="11.89377265472981"><ele>275.0</ele><time>2026-04-26T09:38:46Z</time></trkpt><trkpt lat="43.46878869774059" lon="11.893581189758097"><ele>275.0</ele><time>2026-04-26T09:38:47Z</time></trkpt><trkpt lat="43.46867831648989" lon="11.893365448949258"><ele>273.0</ele><time>2026-04-26T09:38:48Z</time></trkpt><trkpt lat="43.46858159946865" lon="11.893160767221223"><ele>271.0</ele><time>2026-04-26T09:38:49Z</time></trkpt><trkpt lat="43.46850156399923" lon="11.892982183424202"><ele>269.0</ele><time>2026-04-26T09:38:50Z</time></trkpt><trkpt lat="43.46842708114601" lon="11.89282342706212"><ele>269.0</ele><time>2026-04-26T09:38:51Z</time></trkpt><trkpt lat="43.46836606252782" lon="11.892675966519883"><ele>269.0</ele><time>2026-04-26T09:38:52Z</time></trkpt><trkpt lat="43.468317514238244" lon="11.892568078593087"><ele>269.0</ele><time>2026-04-26T09:38:53Z</time></trkpt><trkpt lat="43.46828001076297" lon="11.892482933212978"><ele>269.0</ele><time>2026-04-26T09:38:54Z</time></trkpt><trkpt lat="43.46826436416736" lon="11.892375256227782"><ele>269.0</ele><time>2026-04-26T09:38:56Z</time></trkpt><trkpt lat="43.46826436416736" lon="11.892375256227782"><ele>269.0</ele><time>2026-04-26T09:38:56Z</time></trkpt><trkpt lat="43.46826436416736" lon="11.892375256227782"><ele>269.0</ele><time>2026-04-26T09:38:56Z</time></trkpt><trkpt lat="43.46826436416736" lon="11.892375256227782"><ele>269.0</ele><time>2026-04-26T09:38:56Z</time></trkpt><trkpt lat="43.46826436416736" lon="11.892375256227782"><ele>269.0</ele><time>2026-04-26T09:38:56Z</time></trkpt></trkseg></trk></gpx>